<?xml version='1.0' encoding='UTF-8'?><gpx version="1.1" creator="JPX - https://github.com/jenetics/jpx" xmlns="http://www.topografix.com/GPX/1/1"><trk><trkseg><trkpt lat="46.0585595" lon="10.9669846"><ele>266.0</ele><time>2026-04-24T08:11:14.77Z</time></trkpt><trkpt lat="46.0585576" lon="10.9668932"><ele>266.0</ele><time>2026-04-24T08:11:16.789Z</time></trkpt><trkpt lat="46.0585266" lon="10.9667476"><ele>266.0</ele><time>2026-04-24T08:11:17.799Z</time></trkpt><trkpt lat="46.0585337" lon="10.966512"><ele>266.0</ele><time>2026-04-24T08:11:20.781Z</time></trkpt><trkpt lat="46.0585602" lon="10.9664243"><ele>266.0</ele><time>2026-04-24T08:11:21.844Z</time></trkpt><trkpt lat="46.0586327" lon="10.9662728"><ele>268.0</ele><time>2026-04-24T08:11:23.748Z</time></trkpt><trkpt lat="46.0586891" lon="10.9661867"><ele>270.0</ele><time>2026-04-24T08:11:24.87Z</time></trkpt><trkpt lat="46.0587405" lon="10.966121"><ele>272.0</ele><time>2026-04-24T08:11:25.818Z</time></trkpt><trkpt lat="46.0587884" lon="10.9660609"><ele>274.0</ele><time>2026-04-24T08:11:26.778Z</time></trkpt><trkpt lat="46.0588421" lon="10.9659814"><ele>276.0</ele><time>2026-04-24T08:11:27.79Z</time></trkpt><trkpt lat="46.0588917" lon="10.9659015"><ele>278.0</ele><time>2026-04-24T08:11:28.784Z</time></trkpt><trkpt lat="46.0589472" lon="10.9658052"><ele>284.2</ele><time>2026-04-24T08:11:29.804Z</time></trkpt><trkpt lat="46.0589998" lon="10.9657085"><ele>290.4</ele><time>2026-04-24T08:11:30.765Z</time></trkpt><trkpt lat="46.0590507" lon="10.9655857"><ele>296.59999999999997</ele><time>2026-04-24T08:11:31.762Z</time></trkpt><trkpt lat="46.0591137" lon="10.9654402"><ele>302.8</ele><time>2026-04-24T08:11:32.791Z</time></trkpt><trkpt lat="46.0591648" lon="10.965338"><ele>309.0</ele><time>2026-04-24T08:11:33.788Z</time></trkpt><trkpt lat="46.059219" lon="10.965225"><ele>312.5</ele><time>2026-04-24T08:11:34.905Z</time></trkpt><trkpt lat="46.0593217" lon="10.9650504"><ele>316.0</ele><time>2026-04-24T08:11:36.767Z</time></trkpt><trkpt lat="46.0593791" lon="10.9649765"><ele>319.5</ele><time>2026-04-24T08:11:37.776Z</time></trkpt><trkpt lat="46.0594359" lon="10.9649132"><ele>323.0</ele><time>2026-04-24T08:11:38.771Z</time></trkpt><trkpt lat="46.0594965" lon="10.9648483"><ele>326.5</ele><time>2026-04-24T08:11:39.79Z</time></trkpt><trkpt lat="46.0595444" lon="10.9647861"><ele>330.0</ele><time>2026-04-24T08:11:40.773Z</time></trkpt><trkpt lat="46.0596113" lon="10.9647286"><ele>331.6666666666667</ele><time>2026-04-24T08:11:41.764Z</time></trkpt><trkpt lat="46.0597105" lon="10.9646564"><ele>333.3333333333333</ele><time>2026-04-24T08:11:43.789Z</time></trkpt><trkpt lat="46.0597876" lon="10.9645771"><ele>335.0</ele><time>2026-04-24T08:11:45.81Z</time></trkpt><trkpt lat="46.0598312" lon="10.9645089"><ele>336.66666666666663</ele><time>2026-04-24T08:11:46.795Z</time></trkpt><trkpt lat="46.059839" lon="10.9644168"><ele>338.3333333333333</ele><time>2026-04-24T08:11:47.769Z</time></trkpt><trkpt lat="46.0598038" lon="10.9642593"><ele>340.0</ele><time>2026-04-24T08:11:49.738Z</time></trkpt><trkpt lat="46.0597777" lon="10.9640857"><ele>344.5</ele><time>2026-04-24T08:11:51.756Z</time></trkpt><trkpt lat="46.0597639" lon="10.9639797"><ele>349.0</ele><time>2026-04-24T08:11:52.75Z</time></trkpt><trkpt lat="46.0597517" lon="10.9638707"><ele>353.5</ele><time>2026-04-24T08:11:53.75Z</time></trkpt><trkpt lat="46.0597416" lon="10.9637541"><ele>358.0</ele><time>2026-04-24T08:11:54.738Z</time></trkpt><trkpt lat="46.0597349" lon="10.9636365"><ele>362.5</ele><time>2026-04-24T08:11:55.756Z</time></trkpt><trkpt lat="46.059734" lon="10.9635138"><ele>367.0</ele><time>2026-04-24T08:11:56.756Z</time></trkpt><trkpt lat="46.0597421" lon="10.9633916"><ele>369.16666666666663</ele><time>2026-04-24T08:11:57.734Z</time></trkpt><trkpt lat="46.0597574" lon="10.9632604"><ele>371.3333333333333</ele><time>2026-04-24T08:11:58.806Z</time></trkpt><trkpt lat="46.0597703" lon="10.9631399"><ele>373.5</ele><time>2026-04-24T08:11:59.772Z</time></trkpt><trkpt lat="46.059767" lon="10.9629844"><ele>375.6666666666667</ele><time>2026-04-24T08:12:00.765Z</time></trkpt><trkpt lat="46.059772" lon="10.9628708"><ele>377.83333333333337</ele><time>2026-04-24T08:12:01.767Z</time></trkpt><trkpt lat="46.0597734" lon="10.9627514"><ele>380.0</ele><time>2026-04-24T08:12:02.761Z</time></trkpt><trkpt lat="46.0597704" lon="10.9626298"><ele>382.8</ele><time>2026-04-24T08:12:03.875Z</time></trkpt><trkpt lat="46.0597427" lon="10.9624163"><ele>385.6</ele><time>2026-04-24T08:12:05.745Z</time></trkpt><trkpt lat="46.0597251" lon="10.962307"><ele>388.4</ele><time>2026-04-24T08:12:06.746Z</time></trkpt><trkpt lat="46.0597086" lon="10.9622048"><ele>391.2</ele><time>2026-04-24T08:12:07.754Z</time></trkpt><trkpt lat="46.0596914" lon="10.9620955"><ele>394.0</ele><time>2026-04-24T08:12:08.799Z</time></trkpt><trkpt lat="46.059678" lon="10.9619914"><ele>394.0</ele><time>2026-04-24T08:12:09.746Z</time></trkpt><trkpt lat="46.0596635" lon="10.9618787"><ele>394.0</ele><time>2026-04-24T08:12:10.751Z</time></trkpt><trkpt lat="46.0596454" lon="10.9617725"><ele>394.0</ele><time>2026-04-24T08:12:11.753Z</time></trkpt><trkpt lat="46.0596264" lon="10.9616834"><ele>394.0</ele><time>2026-04-24T08:12:12.744Z</time></trkpt><trkpt lat="46.0595893" lon="10.9615932"><ele>394.0</ele><time>2026-04-24T08:12:13.759Z</time></trkpt><trkpt lat="46.0595599" lon="10.9614989"><ele>394.0</ele><time>2026-04-24T08:12:14.759Z</time></trkpt><trkpt lat="46.0595361" lon="10.9613987"><ele>394.0</ele><time>2026-04-24T08:12:15.778Z</time></trkpt><trkpt lat="46.059518" lon="10.9612935"><ele>393.6</ele><time>2026-04-24T08:12:16.78Z</time></trkpt><trkpt lat="46.0595186" lon="10.9611513"><ele>393.2</ele><time>2026-04-24T08:12:18.854Z</time></trkpt><trkpt lat="46.0595746" lon="10.9610177"><ele>392.8</ele><time>2026-04-24T08:12:21.804Z</time></trkpt><trkpt lat="46.0596628" lon="10.9608697"><ele>392.40000000000003</ele><time>2026-04-24T08:12:23.749Z</time></trkpt><trkpt lat="46.0597205" lon="10.9608249"><ele>392.0</ele><time>2026-04-24T08:12:27.732Z</time></trkpt><trkpt lat="46.0597523" lon="10.9609288"><ele>391.3333333333333</ele><time>2026-04-24T08:12:32.753Z</time></trkpt><trkpt lat="46.0597783" lon="10.9608371"><ele>390.66666666666663</ele><time>2026-04-24T08:12:46.749Z</time></trkpt><trkpt lat="46.059765" lon="10.9607224"><ele>390.0</ele><time>2026-04-24T08:12:50.916Z</time></trkpt><trkpt lat="46.0597572" lon="10.9605906"><ele>389.33333333333337</ele><time>2026-04-24T08:12:52.778Z</time></trkpt><trkpt lat="46.0597634" lon="10.9604928"><ele>388.6666666666667</ele><time>2026-04-24T08:12:53.767Z</time></trkpt><trkpt lat="46.0597871" lon="10.960396"><ele>388.0</ele><time>2026-04-24T08:12:54.746Z</time></trkpt><trkpt lat="46.0598275" lon="10.9602446"><ele>388.0</ele><time>2026-04-24T08:12:56.749Z</time></trkpt><trkpt lat="46.059854" lon="10.9600865"><ele>388.0</ele><time>2026-04-24T08:12:58.81Z</time></trkpt><trkpt lat="46.0598739" lon="10.9599136"><ele>388.0</ele><time>2026-04-24T08:13:00.776Z</time></trkpt><trkpt lat="46.0598854" lon="10.9598209"><ele>388.0</ele><time>2026-04-24T08:13:03.781Z</time></trkpt><trkpt lat="46.0598166" lon="10.9596734"><ele>388.0</ele><time>2026-04-24T08:13:05.809Z</time></trkpt><trkpt lat="46.0597733" lon="10.95952"><ele>387.6666666666667</ele><time>2026-04-24T08:13:07.75Z</time></trkpt><trkpt lat="46.0597857" lon="10.9594295"><ele>387.33333333333337</ele><time>2026-04-24T08:13:08.765Z</time></trkpt><trkpt lat="46.0598176" lon="10.9593377"><ele>387.0</ele><time>2026-04-24T08:13:09.774Z</time></trkpt><trkpt lat="46.0598574" lon="10.9592548"><ele>386.66666666666663</ele><time>2026-04-24T08:13:10.781Z</time></trkpt><trkpt lat="46.0599594" lon="10.9592707"><ele>386.3333333333333</ele><time>2026-04-24T08:13:12.75Z</time></trkpt><trkpt lat="46.0600301" lon="10.9593925"><ele>386.0</ele><time>2026-04-24T08:13:14.761Z</time></trkpt><trkpt lat="46.0600395" lon="10.9594851"><ele>385.99999999999994</ele><time>2026-04-24T08:13:15.753Z</time></trkpt><trkpt lat="46.0600602" lon="10.9595757"><ele>386.0</ele><time>2026-04-24T08:13:16.755Z</time></trkpt><trkpt lat="46.0600833" lon="10.9596626"><ele>386.0</ele><time>2026-04-24T08:13:17.74Z</time></trkpt><trkpt lat="46.0601161" lon="10.9597482"><ele>386.0</ele><time>2026-04-24T08:13:18.762Z</time></trkpt><trkpt lat="46.0601366" lon="10.9598341"><ele>385.99999999999994</ele><time>2026-04-24T08:13:19.753Z</time></trkpt><trkpt lat="46.060163" lon="10.9599472"><ele>386.0</ele><time>2026-04-24T08:13:20.927Z</time></trkpt><trkpt lat="46.0601913" lon="10.9601141"><ele>385.66666666666663</ele><time>2026-04-24T08:13:22.747Z</time></trkpt><trkpt lat="46.0601562" lon="10.9603169"><ele>385.3333333333333</ele><time>2026-04-24T08:13:24.766Z</time></trkpt><trkpt lat="46.0601305" lon="10.9604184"><ele>385.0</ele><time>2026-04-24T08:13:25.759Z</time></trkpt><trkpt lat="46.0601075" lon="10.9605135"><ele>384.66666666666663</ele><time>2026-04-24T08:13:26.762Z</time></trkpt><trkpt lat="46.0600927" lon="10.9606042"><ele>384.3333333333333</ele><time>2026-04-24T08:13:27.766Z</time></trkpt><trkpt lat="46.0600807" lon="10.9607019"><ele>384.0</ele><time>2026-04-24T08:13:28.759Z</time></trkpt><trkpt lat="46.0600697" lon="10.960797"><ele>384.57142857142856</ele><time>2026-04-24T08:13:29.765Z</time></trkpt><trkpt lat="46.0600579" lon="10.9609009"><ele>385.1428571428571</ele><time>2026-04-24T08:13:30.777Z</time></trkpt><trkpt lat="46.0600476" lon="10.9610039"><ele>385.71428571428567</ele><time>2026-04-24T08:13:31.766Z</time></trkpt><trkpt lat="46.060038" lon="10.9611118"><ele>386.2857142857143</ele><time>2026-04-24T08:13:32.763Z</time></trkpt><trkpt lat="46.0600273" lon="10.9612163"><ele>386.8571428571429</ele><time>2026-04-24T08:13:33.732Z</time></trkpt><trkpt lat="46.0600216" lon="10.9613284"><ele>387.4285714285714</ele><time>2026-04-24T08:13:34.759Z</time></trkpt><trkpt lat="46.0600171" lon="10.9614397"><ele>388.0</ele><time>2026-04-24T08:13:35.756Z</time></trkpt><trkpt lat="46.0600191" lon="10.9615533"><ele>388.00000000000006</ele><time>2026-04-24T08:13:36.787Z</time></trkpt><trkpt lat="46.0600203" lon="10.9616643"><ele>388.0</ele><time>2026-04-24T08:13:37.753Z</time></trkpt><trkpt lat="46.060018" lon="10.9617824"><ele>388.0</ele><time>2026-04-24T08:13:38.747Z</time></trkpt><trkpt lat="46.0600194" lon="10.9618849"><ele>388.0</ele><time>2026-04-24T08:13:39.771Z</time></trkpt><trkpt lat="46.0600228" lon="10.9619782"><ele>388.00000000000006</ele><time>2026-04-24T08:13:40.768Z</time></trkpt><trkpt lat="46.0600583" lon="10.9621274"><ele>388.0</ele><time>2026-04-24T08:13:42.857Z</time></trkpt><trkpt lat="46.0601235" lon="10.9621804"><ele>386.59999999999997</ele><time>2026-04-24T08:13:44.914Z</time></trkpt><trkpt lat="46.0601981" lon="10.9621396"><ele>385.2</ele><time>2026-04-24T08:13:46.764Z</time></trkpt><trkpt lat="46.0603136" lon="10.9621304"><ele>383.8</ele><time>2026-04-24T08:13:48.757Z</time></trkpt><trkpt lat="46.0603776" lon="10.962149"><ele>382.4</ele><time>2026-04-24T08:13:49.77Z</time></trkpt><trkpt lat="46.0604476" lon="10.9621781"><ele>381.0</ele><time>2026-04-24T08:13:50.917Z</time></trkpt><trkpt lat="46.0605645" lon="10.9622567"><ele>381.0</ele><time>2026-04-24T08:13:52.822Z</time></trkpt><trkpt lat="46.0606262" lon="10.9622994"><ele>381.0</ele><time>2026-04-24T08:13:53.827Z</time></trkpt><trkpt lat="46.0606927" lon="10.9623489"><ele>381.0</ele><time>2026-04-24T08:13:54.836Z</time></trkpt><trkpt lat="46.0607545" lon="10.9623935"><ele>381.0</ele><time>2026-04-24T08:13:55.794Z</time></trkpt><trkpt lat="46.0608184" lon="10.9624423"><ele>381.0</ele><time>2026-04-24T08:13:56.771Z</time></trkpt><trkpt lat="46.0608811" lon="10.9625009"><ele>381.0</ele><time>2026-04-24T08:13:57.804Z</time></trkpt><trkpt lat="46.0609317" lon="10.9625663"><ele>381.0</ele><time>2026-04-24T08:13:58.792Z</time></trkpt><trkpt lat="46.0609709" lon="10.9627272"><ele>387.6</ele><time>2026-04-24T08:14:00.794Z</time></trkpt><trkpt lat="46.060943" lon="10.9628919"><ele>394.20000000000005</ele><time>2026-04-24T08:14:02.805Z</time></trkpt><trkpt lat="46.0609002" lon="10.9630591"><ele>400.79999999999995</ele><time>2026-04-24T08:14:04.889Z</time></trkpt><trkpt lat="46.0608879" lon="10.9632086"><ele>407.4</ele><time>2026-04-24T08:14:06.8Z</time></trkpt><trkpt lat="46.0609312" lon="10.9633028"><ele>414.0</ele><time>2026-04-24T08:14:08.786Z</time></trkpt><trkpt lat="46.0610183" lon="10.9632936"><ele>414.0</ele><time>2026-04-24T08:14:10.816Z</time></trkpt><trkpt lat="46.0611045" lon="10.9631927"><ele>414.0</ele><time>2026-04-24T08:14:12.805Z</time></trkpt><trkpt lat="46.0611487" lon="10.9631248"><ele>414.0</ele><time>2026-04-24T08:14:13.808Z</time></trkpt><trkpt lat="46.0611961" lon="10.963053"><ele>414.0</ele><time>2026-04-24T08:14:14.804Z</time></trkpt><trkpt lat="46.0612496" lon="10.9629778"><ele>414.0</ele><time>2026-04-24T08:14:15.806Z</time></trkpt><trkpt lat="46.0613039" lon="10.9628983"><ele>414.0</ele><time>2026-04-24T08:14:16.802Z</time></trkpt><trkpt lat="46.0613583" lon="10.9628178"><ele>414.0</ele><time>2026-04-24T08:14:17.796Z</time></trkpt><trkpt lat="46.0614073" lon="10.9627391"><ele>414.0</ele><time>2026-04-24T08:14:18.795Z</time></trkpt><trkpt lat="46.0614485" lon="10.962669"><ele>414.0</ele><time>2026-04-24T08:14:19.955Z</time></trkpt><trkpt lat="46.0614866" lon="10.9625825"><ele>414.0</ele><time>2026-04-24T08:14:21.83Z</time></trkpt><trkpt lat="46.0615189" lon="10.9624846"><ele>414.0</ele><time>2026-04-24T08:14:24.802Z</time></trkpt><trkpt lat="46.0615699" lon="10.9623913"><ele>414.0</ele><time>2026-04-24T08:14:26.802Z</time></trkpt><trkpt lat="46.0616206" lon="10.9622622"><ele>414.5</ele><time>2026-04-24T08:14:28.823Z</time></trkpt><trkpt lat="46.0616225" lon="10.9621177"><ele>415.0</ele><time>2026-04-24T08:14:30.78Z</time></trkpt><trkpt lat="46.0615802" lon="10.9619765"><ele>415.5</ele><time>2026-04-24T08:14:32.799Z</time></trkpt><trkpt lat="46.0615292" lon="10.9619202"><ele>416.0</ele><time>2026-04-24T08:14:33.8Z</time></trkpt><trkpt lat="46.0614687" lon="10.9618686"><ele>416.5</ele><time>2026-04-24T08:14:34.801Z</time></trkpt><trkpt lat="46.0614084" lon="10.9618333"><ele>417.0</ele><time>2026-04-24T08:14:35.77Z</time></trkpt><trkpt lat="46.0613464" lon="10.9617906"><ele>417.0</ele><time>2026-04-24T08:14:36.79Z</time></trkpt><trkpt lat="46.0612749" lon="10.961756"><ele>417.0</ele><time>2026-04-24T08:14:37.776Z</time></trkpt><trkpt lat="46.061212" lon="10.9617274"><ele>417.0</ele><time>2026-04-24T08:14:38.797Z</time></trkpt><trkpt lat="46.061098" lon="10.9616491"><ele>417.0</ele><time>2026-04-24T08:14:40.782Z</time></trkpt><trkpt lat="46.0610215" lon="10.9615222"><ele>417.0</ele><time>2026-04-24T08:14:42.743Z</time></trkpt><trkpt lat="46.0610423" lon="10.9613904"><ele>420.0</ele><time>2026-04-24T08:14:44.778Z</time></trkpt><trkpt lat="46.0611355" lon="10.9612845"><ele>423.0</ele><time>2026-04-24T08:14:46.81Z</time></trkpt><trkpt lat="46.0612304" lon="10.9611531"><ele>426.0</ele><time>2026-04-24T08:14:48.788Z</time></trkpt><trkpt lat="46.0612769" lon="10.9610801"><ele>429.0</ele><time>2026-04-24T08:14:49.85Z</time></trkpt><trkpt lat="46.0613192" lon="10.9608962"><ele>429.3333333333333</ele><time>2026-04-24T08:14:51.805Z</time></trkpt><trkpt lat="46.0613366" lon="10.9607908"><ele>429.66666666666663</ele><time>2026-04-24T08:14:52.793Z</time></trkpt><trkpt lat="46.0613498" lon="10.9606874"><ele>430.0</ele><time>2026-04-24T08:14:53.79Z</time></trkpt><trkpt lat="46.0613559" lon="10.9605732"><ele>430.3333333333333</ele><time>2026-04-24T08:14:54.778Z</time></trkpt><trkpt lat="46.0613524" lon="10.9604443"><ele>430.66666666666663</ele><time>2026-04-24T08:14:55.803Z</time></trkpt><trkpt lat="46.0613437" lon="10.9603204"><ele>431.0</ele><time>2026-04-24T08:14:56.775Z</time></trkpt><trkpt lat="46.0613303" lon="10.9601694"><ele>431.49999999999994</ele><time>2026-04-24T08:14:57.849Z</time></trkpt><trkpt lat="46.0613246" lon="10.9600305"><ele>432.0</ele><time>2026-04-24T08:14:58.824Z</time></trkpt><trkpt lat="46.0613314" lon="10.959895"><ele>432.5</ele><time>2026-04-24T08:14:59.835Z</time></trkpt><trkpt lat="46.0613478" lon="10.9597718"><ele>433.0</ele><time>2026-04-24T08:15:00.806Z</time></trkpt><trkpt lat="46.0613605" lon="10.9596566"><ele>433.49999999999994</ele><time>2026-04-24T08:15:01.794Z</time></trkpt><trkpt lat="46.0613773" lon="10.9595379"><ele>434.0</ele><time>2026-04-24T08:15:02.818Z</time></trkpt><trkpt lat="46.0613725" lon="10.9594428"><ele>433.99999999999994</ele><time>2026-04-24T08:15:03.804Z</time></trkpt><trkpt lat="46.061342" lon="10.9593313"><ele>434.0</ele><time>2026-04-24T08:15:04.85Z</time></trkpt><trkpt lat="46.061293" lon="10.9592347"><ele>434.0</ele><time>2026-04-24T08:15:05.782Z</time></trkpt><trkpt lat="46.0612336" lon="10.9591225"><ele>434.0</ele><time>2026-04-24T08:15:06.802Z</time></trkpt><trkpt lat="46.0611808" lon="10.9590319"><ele>433.99999999999994</ele><time>2026-04-24T08:15:07.783Z</time></trkpt><trkpt lat="46.0611389" lon="10.9589448"><ele>434.0</ele><time>2026-04-24T08:15:08.8Z</time></trkpt><trkpt lat="46.061107" lon="10.9588484"><ele>436.66666666666663</ele><time>2026-04-24T08:15:09.784Z</time></trkpt><trkpt lat="46.0610982" lon="10.958753"><ele>439.3333333333333</ele><time>2026-04-24T08:15:10.8Z</time></trkpt><trkpt lat="46.0611013" lon="10.9586353"><ele>442.0</ele><time>2026-04-24T08:15:11.77Z</time></trkpt><trkpt lat="46.0610978" lon="10.9585162"><ele>444.66666666666663</ele><time>2026-04-24T08:15:12.769Z</time></trkpt><trkpt lat="46.0610972" lon="10.9584063"><ele>447.3333333333333</ele><time>2026-04-24T08:15:13.782Z</time></trkpt><trkpt lat="46.0611007" lon="10.9582942"><ele>450.0</ele><time>2026-04-24T08:15:14.825Z</time></trkpt><trkpt lat="46.0610937" lon="10.9581858"><ele>451.4</ele><time>2026-04-24T08:15:15.775Z</time></trkpt><trkpt lat="46.0611059" lon="10.9580892"><ele>452.8</ele><time>2026-04-24T08:15:16.796Z</time></trkpt><trkpt lat="46.0611423" lon="10.9579564"><ele>454.20000000000005</ele><time>2026-04-24T08:15:18.837Z</time></trkpt><trkpt lat="46.0612528" lon="10.9578901"><ele>455.6</ele><time>2026-04-24T08:15:20.8Z</time></trkpt><trkpt lat="46.061332" lon="10.9578707"><ele>457.0</ele><time>2026-04-24T08:15:21.819Z</time></trkpt><trkpt lat="46.0614221" lon="10.9578544"><ele>457.00000000000006</ele><time>2026-04-24T08:15:22.8Z</time></trkpt><trkpt lat="46.0614989" lon="10.9578499"><ele>457.0</ele><time>2026-04-24T08:15:23.826Z</time></trkpt><trkpt lat="46.0615847" lon="10.9578466"><ele>457.0</ele><time>2026-04-24T08:15:24.803Z</time></trkpt><trkpt lat="46.0616624" lon="10.957839"><ele>457.0</ele><time>2026-04-24T08:15:25.805Z</time></trkpt><trkpt lat="46.0617406" lon="10.9578279"><ele>457.00000000000006</ele><time>2026-04-24T08:15:26.782Z</time></trkpt><trkpt lat="46.0618073" lon="10.9578245"><ele>457.0</ele><time>2026-04-24T08:15:27.82Z</time></trkpt><trkpt lat="46.0618934" lon="10.9578313"><ele>460.50000000000006</ele><time>2026-04-24T08:15:28.785Z</time></trkpt><trkpt lat="46.0619875" lon="10.9578205"><ele>464.0</ele><time>2026-04-24T08:15:29.783Z</time></trkpt><trkpt lat="46.062074" lon="10.9578019"><ele>467.5</ele><time>2026-04-24T08:15:30.812Z</time></trkpt><trkpt lat="46.0621579" lon="10.9577623"><ele>471.0</ele><time>2026-04-24T08:15:31.789Z</time></trkpt><trkpt lat="46.0622226" lon="10.9576812"><ele>474.50000000000006</ele><time>2026-04-24T08:15:32.854Z</time></trkpt><trkpt lat="46.0622636" lon="10.9575776"><ele>478.0</ele><time>2026-04-24T08:15:33.793Z</time></trkpt><trkpt lat="46.0622987" lon="10.9574637"><ele>478.00000000000006</ele><time>2026-04-24T08:15:34.806Z</time></trkpt><trkpt lat="46.0623241" lon="10.9573548"><ele>478.0</ele><time>2026-04-24T08:15:35.779Z</time></trkpt><trkpt lat="46.0623499" lon="10.9572473"><ele>478.00000000000006</ele><time>2026-04-24T08:15:36.814Z</time></trkpt><trkpt lat="46.0623795" lon="10.9571598"><ele>478.00000000000006</ele><time>2026-04-24T08:15:37.781Z</time></trkpt><trkpt lat="46.0624199" lon="10.9570806"><ele>478.0</ele><time>2026-04-24T08:15:38.786Z</time></trkpt><trkpt lat="46.0624688" lon="10.9570052"><ele>478.00000000000006</ele><time>2026-04-24T08:15:39.784Z</time></trkpt><trkpt lat="46.0625337" lon="10.9569452"><ele>478.00000000000006</ele><time>2026-04-24T08:15:40.889Z</time></trkpt><trkpt lat="46.0625945" lon="10.9569012"><ele>482.59999999999997</ele><time>2026-04-24T08:15:41.835Z</time></trkpt><trkpt lat="46.062653" lon="10.9568643"><ele>487.19999999999993</ele><time>2026-04-24T08:15:42.795Z</time></trkpt><trkpt lat="46.0627052" lon="10.9567809"><ele>491.8</ele><time>2026-04-24T08:15:43.786Z</time></trkpt><trkpt lat="46.062754" lon="10.9566736"><ele>496.4</ele><time>2026-04-24T08:15:44.783Z</time></trkpt><trkpt lat="46.0628098" lon="10.9565431"><ele>501.0</ele><time>2026-04-24T08:15:45.891Z</time></trkpt><trkpt lat="46.0629101" lon="10.9563023"><ele>501.0</ele><time>2026-04-24T08:15:47.802Z</time></trkpt><trkpt lat="46.062965" lon="10.9561712"><ele>501.0</ele><time>2026-04-24T08:15:48.781Z</time></trkpt><trkpt lat="46.0630158" lon="10.9560278"><ele>501.0</ele><time>2026-04-24T08:15:49.779Z</time></trkpt><trkpt lat="46.0630542" lon="10.95586"><ele>501.0</ele><time>2026-04-24T08:15:50.891Z</time></trkpt><trkpt lat="46.0630826" lon="10.9555795"><ele>499.6666666666667</ele><time>2026-04-24T08:15:52.776Z</time></trkpt><trkpt lat="46.0631036" lon="10.9554337"><ele>498.33333333333337</ele><time>2026-04-24T08:15:53.809Z</time></trkpt><trkpt lat="46.0631278" lon="10.9553023"><ele>497.0</ele><time>2026-04-24T08:15:54.781Z</time></trkpt><trkpt lat="46.0631606" lon="10.955183"><ele>495.6666666666667</ele><time>2026-04-24T08:15:55.774Z</time></trkpt><trkpt lat="46.0632103" lon="10.9550839"><ele>494.33333333333337</ele><time>2026-04-24T08:15:56.793Z</time></trkpt><trkpt lat="46.0632495" lon="10.9549906"><ele>493.0</ele><time>2026-04-24T08:15:57.803Z</time></trkpt><trkpt lat="46.0632765" lon="10.9548951"><ele>493.00000000000006</ele><time>2026-04-24T08:15:58.791Z</time></trkpt><trkpt lat="46.0632845" lon="10.9547719"><ele>493.0</ele><time>2026-04-24T08:15:59.827Z</time></trkpt><trkpt lat="46.0632823" lon="10.9546621"><ele>493.0</ele><time>2026-04-24T08:16:00.791Z</time></trkpt><trkpt lat="46.0632716" lon="10.9545576"><ele>493.0</ele><time>2026-04-24T08:16:01.787Z</time></trkpt><trkpt lat="46.0632593" lon="10.9544538"><ele>493.00000000000006</ele><time>2026-04-24T08:16:02.795Z</time></trkpt><trkpt lat="46.0632566" lon="10.9543595"><ele>493.0</ele><time>2026-04-24T08:16:03.796Z</time></trkpt><trkpt lat="46.0633202" lon="10.954179"><ele>502.4</ele><time>2026-04-24T08:16:06.786Z</time></trkpt><trkpt lat="46.0634097" lon="10.9540868"><ele>511.79999999999995</ele><time>2026-04-24T08:16:08.801Z</time></trkpt><trkpt lat="46.0634758" lon="10.9539514"><ele>521.2</ele><time>2026-04-24T08:16:10.784Z</time></trkpt><trkpt lat="46.0634957" lon="10.953776"><ele>530.6</ele><time>2026-04-24T08:16:12.788Z</time></trkpt><trkpt lat="46.0635193" lon="10.9536817"><ele>540.0</ele><time>2026-04-24T08:16:13.772Z</time></trkpt><trkpt lat="46.0635475" lon="10.953585"><ele>540.0</ele><time>2026-04-24T08:16:14.774Z</time></trkpt><trkpt lat="46.0635769" lon="10.9534868"><ele>540.0</ele><time>2026-04-24T08:16:15.814Z</time></trkpt><trkpt lat="46.0636054" lon="10.9533116"><ele>540.0</ele><time>2026-04-24T08:16:17.755Z</time></trkpt><trkpt lat="46.0635966" lon="10.9532044"><ele>540.0</ele><time>2026-04-24T08:16:18.779Z</time></trkpt><trkpt lat="46.0636002" lon="10.9531095"><ele>540.0</ele><time>2026-04-24T08:16:19.784Z</time></trkpt><trkpt lat="46.0636095" lon="10.9530174"><ele>540.0</ele><time>2026-04-24T08:16:20.809Z</time></trkpt><trkpt lat="46.0636212" lon="10.9529262"><ele>540.8333333333334</ele><time>2026-04-24T08:16:21.79Z</time></trkpt><trkpt lat="46.0636309" lon="10.9528362"><ele>541.6666666666666</ele><time>2026-04-24T08:16:22.799Z</time></trkpt><trkpt lat="46.0636503" lon="10.952685"><ele>542.5</ele><time>2026-04-24T08:16:24.76Z</time></trkpt><trkpt lat="46.063656" lon="10.952523"><ele>543.3333333333333</ele><time>2026-04-24T08:16:26.782Z</time></trkpt><trkpt lat="46.0636605" lon="10.9524218"><ele>544.1666666666666</ele><time>2026-04-24T08:16:27.766Z</time></trkpt><trkpt lat="46.0636681" lon="10.9523018"><ele>545.0</ele><time>2026-04-24T08:16:28.8Z</time></trkpt><trkpt lat="46.0636748" lon="10.9522098"><ele>547.8333333333333</ele><time>2026-04-24T08:16:29.763Z</time></trkpt><trkpt lat="46.0636762" lon="10.9521045"><ele>550.6666666666666</ele><time>2026-04-24T08:16:30.795Z</time></trkpt><trkpt lat="46.0636669" lon="10.9520113"><ele>553.5</ele><time>2026-04-24T08:16:31.747Z</time></trkpt><trkpt lat="46.0636616" lon="10.9519025"><ele>556.3333333333334</ele><time>2026-04-24T08:16:32.77Z</time></trkpt><trkpt lat="46.0636614" lon="10.9517792"><ele>559.1666666666667</ele><time>2026-04-24T08:16:33.765Z</time></trkpt><trkpt lat="46.0636577" lon="10.951656"><ele>562.0</ele><time>2026-04-24T08:16:34.803Z</time></trkpt><trkpt lat="46.0636554" lon="10.9515336"><ele>564.1666666666667</ele><time>2026-04-24T08:16:35.797Z</time></trkpt><trkpt lat="46.0636582" lon="10.9513989"><ele>566.3333333333334</ele><time>2026-04-24T08:16:36.816Z</time></trkpt><trkpt lat="46.0636647" lon="10.9512879"><ele>568.5</ele><time>2026-04-24T08:16:37.775Z</time></trkpt><trkpt lat="46.0636564" lon="10.9511704"><ele>570.6666666666666</ele><time>2026-04-24T08:16:38.772Z</time></trkpt><trkpt lat="46.0636376" lon="10.9510802"><ele>572.8333333333333</ele><time>2026-04-24T08:16:39.749Z</time></trkpt><trkpt lat="46.0635637" lon="10.9509385"><ele>575.0</ele><time>2026-04-24T08:16:41.807Z</time></trkpt><trkpt lat="46.0634542" lon="10.9508223"><ele>576.1428571428571</ele><time>2026-04-24T08:16:43.777Z</time></trkpt><trkpt lat="46.0633954" lon="10.9507639"><ele>577.2857142857142</ele><time>2026-04-24T08:16:44.801Z</time></trkpt><trkpt lat="46.063335" lon="10.95071"><ele>578.4285714285714</ele><time>2026-04-24T08:16:45.8Z</time></trkpt><trkpt lat="46.0632714" lon="10.9506637"><ele>579.5714285714286</ele><time>2026-04-24T08:16:46.809Z</time></trkpt><trkpt lat="46.0632053" lon="10.9506233"><ele>580.7142857142858</ele><time>2026-04-24T08:16:47.781Z</time></trkpt><trkpt lat="46.0631356" lon="10.9506033"><ele>581.8571428571429</ele><time>2026-04-24T08:16:48.809Z</time></trkpt><trkpt lat="46.0630643" lon="10.9505961"><ele>583.0</ele><time>2026-04-24T08:16:49.775Z</time></trkpt><trkpt lat="46.062994" lon="10.9506037"><ele>583.0</ele><time>2026-04-24T08:16:50.806Z</time></trkpt><trkpt lat="46.062921" lon="10.9506057"><ele>583.0</ele><time>2026-04-24T08:16:51.795Z</time></trkpt><trkpt lat="46.0627991" lon="10.9505728"><ele>583.0</ele><time>2026-04-24T08:16:53.831Z</time></trkpt><trkpt lat="46.0627129" lon="10.9504611"><ele>583.0</ele><time>2026-04-24T08:16:55.801Z</time></trkpt><trkpt lat="46.0626598" lon="10.950329"><ele>583.0</ele><time>2026-04-24T08:16:57.814Z</time></trkpt><trkpt lat="46.0626521" lon="10.9502338"><ele>583.0</ele><time>2026-04-24T08:16:58.787Z</time></trkpt><trkpt lat="46.0626678" lon="10.9501431"><ele>583.0</ele><time>2026-04-24T08:16:59.782Z</time></trkpt><trkpt lat="46.0627046" lon="10.9500562"><ele>583.0</ele><time>2026-04-24T08:17:00.844Z</time></trkpt><trkpt lat="46.0627481" lon="10.9499851"><ele>583.0</ele><time>2026-04-24T08:17:01.797Z</time></trkpt><trkpt lat="46.0627995" lon="10.9498972"><ele>583.0</ele><time>2026-04-24T08:17:02.795Z</time></trkpt><trkpt lat="46.0628548" lon="10.9498009"><ele>583.0</ele><time>2026-04-24T08:17:03.804Z</time></trkpt><trkpt lat="46.0628972" lon="10.9496945"><ele>584.8</ele><time>2026-04-24T08:17:04.784Z</time></trkpt><trkpt lat="46.062948" lon="10.9495713"><ele>586.5999999999999</ele><time>2026-04-24T08:17:05.822Z</time></trkpt><trkpt lat="46.0630025" lon="10.949456"><ele>588.4000000000001</ele><time>2026-04-24T08:17:06.79Z</time></trkpt><trkpt lat="46.063061" lon="10.9493398"><ele>590.2</ele><time>2026-04-24T08:17:07.829Z</time></trkpt><trkpt lat="46.0631153" lon="10.9492229"><ele>592.0</ele><time>2026-04-24T08:17:08.803Z</time></trkpt><trkpt lat="46.0631637" lon="10.9491251"><ele>594.4285714285714</ele><time>2026-04-24T08:17:09.788Z</time></trkpt><trkpt lat="46.0632027" lon="10.9490357"><ele>596.8571428571429</ele><time>2026-04-24T08:17:10.787Z</time></trkpt><trkpt lat="46.0632373" lon="10.9489415"><ele>599.2857142857142</ele><time>2026-04-24T08:17:11.798Z</time></trkpt><trkpt lat="46.0632733" lon="10.9488402"><ele>601.7142857142858</ele><time>2026-04-24T08:17:12.817Z</time></trkpt><trkpt lat="46.0633037" lon="10.9487537"><ele>604.1428571428571</ele><time>2026-04-24T08:17:13.824Z</time></trkpt><trkpt lat="46.0633344" lon="10.9486736"><ele>606.5714285714286</ele><time>2026-04-24T08:17:14.801Z</time></trkpt><trkpt lat="46.0633578" lon="10.948581"><ele>609.0</ele><time>2026-04-24T08:17:15.837Z</time></trkpt><trkpt lat="46.0633749" lon="10.9484818"><ele>610.8333333333334</ele><time>2026-04-24T08:17:16.842Z</time></trkpt><trkpt lat="46.0633889" lon="10.9483792"><ele>612.6666666666666</ele><time>2026-04-24T08:17:17.805Z</time></trkpt><trkpt lat="46.0633993" lon="10.9482648"><ele>614.5</ele><time>2026-04-24T08:17:18.829Z</time></trkpt><trkpt lat="46.0634052" lon="10.948143"><ele>616.3333333333333</ele><time>2026-04-24T08:17:19.784Z</time></trkpt><trkpt lat="46.0634288" lon="10.9479876"><ele>618.1666666666666</ele><time>2026-04-24T08:17:20.811Z</time></trkpt><trkpt lat="46.0634533" lon="10.9478565"><ele>620.0</ele><time>2026-04-24T08:17:21.796Z</time></trkpt><trkpt lat="46.0634851" lon="10.9477326"><ele>621.6666666666666</ele><time>2026-04-24T08:17:22.792Z</time></trkpt><trkpt lat="46.0635141" lon="10.9476209"><ele>623.3333333333333</ele><time>2026-04-24T08:17:23.797Z</time></trkpt><trkpt lat="46.0635321" lon="10.9475158"><ele>625.0</ele><time>2026-04-24T08:17:24.785Z</time></trkpt><trkpt lat="46.0635441" lon="10.947421"><ele>626.6666666666666</ele><time>2026-04-24T08:17:25.781Z</time></trkpt><trkpt lat="46.0635405" lon="10.9472753"><ele>628.3333333333334</ele><time>2026-04-24T08:17:27.803Z</time></trkpt><trkpt lat="46.0634748" lon="10.9472096"><ele>630.0</ele><time>2026-04-24T08:17:29.785Z</time></trkpt><trkpt lat="46.063406" lon="10.9472013"><ele>632.0</ele><time>2026-04-24T08:17:30.846Z</time></trkpt><trkpt lat="46.0633397" lon="10.9472004"><ele>634.0</ele><time>2026-04-24T08:17:31.809Z</time></trkpt><trkpt lat="46.063258" lon="10.9472055"><ele>636.0</ele><time>2026-04-24T08:17:32.804Z</time></trkpt><trkpt lat="46.06317" lon="10.9472127"><ele>638.0</ele><time>2026-04-24T08:17:33.798Z</time></trkpt><trkpt lat="46.0630845" lon="10.947235"><ele>640.0</ele><time>2026-04-24T08:17:34.802Z</time></trkpt><trkpt lat="46.0630091" lon="10.9472632"><ele>642.0</ele><time>2026-04-24T08:17:35.84Z</time></trkpt><trkpt lat="46.0629515" lon="10.9473117"><ele>640.5</ele><time>2026-04-24T08:17:36.799Z</time></trkpt><trkpt lat="46.0628888" lon="10.9473846"><ele>639.0</ele><time>2026-04-24T08:17:37.747Z</time></trkpt><trkpt lat="46.0628211" lon="10.9474526"><ele>637.5</ele><time>2026-04-24T08:17:38.774Z</time></trkpt><trkpt lat="46.0627461" lon="10.9475195"><ele>636.0</ele><time>2026-04-24T08:17:39.788Z</time></trkpt><trkpt lat="46.0626653" lon="10.9475793"><ele>634.5</ele><time>2026-04-24T08:17:40.87Z</time></trkpt><trkpt lat="46.0626066" lon="10.9476314"><ele>633.0</ele><time>2026-04-24T08:17:41.835Z</time></trkpt><trkpt lat="46.0625526" lon="10.9477009"><ele>633.0</ele><time>2026-04-24T08:17:42.874Z</time></trkpt><trkpt lat="46.0625029" lon="10.9477588"><ele>633.0</ele><time>2026-04-24T08:17:43.783Z</time></trkpt><trkpt lat="46.0624474" lon="10.9478042"><ele>633.0</ele><time>2026-04-24T08:17:44.825Z</time></trkpt><trkpt lat="46.062331" lon="10.9478256"><ele>633.0</ele><time>2026-04-24T08:17:46.841Z</time></trkpt><trkpt lat="46.0622416" lon="10.9477625"><ele>633.0</ele><time>2026-04-24T08:17:48.809Z</time></trkpt><trkpt lat="46.0621515" lon="10.9477007"><ele>633.0</ele><time>2026-04-24T08:17:50.78Z</time></trkpt><trkpt lat="46.0620966" lon="10.9476456"><ele>633.8333333333334</ele><time>2026-04-24T08:17:51.87Z</time></trkpt><trkpt lat="46.0620511" lon="10.9475761"><ele>634.6666666666666</ele><time>2026-04-24T08:17:52.804Z</time></trkpt><trkpt lat="46.0620117" lon="10.9474837"><ele>635.5</ele><time>2026-04-24T08:17:53.845Z</time></trkpt><trkpt lat="46.061975" lon="10.9473927"><ele>636.3333333333333</ele><time>2026-04-24T08:17:54.793Z</time></trkpt><trkpt lat="46.061933" lon="10.947281"><ele>637.1666666666666</ele><time>2026-04-24T08:17:55.857Z</time></trkpt><trkpt lat="46.0618984" lon="10.9471753"><ele>638.0</ele><time>2026-04-24T08:17:56.803Z</time></trkpt><trkpt lat="46.0618575" lon="10.9470708"><ele>641.4</ele><time>2026-04-24T08:17:57.83Z</time></trkpt><trkpt lat="46.0618104" lon="10.9469899"><ele>644.8</ele><time>2026-04-24T08:17:58.817Z</time></trkpt><trkpt lat="46.0617535" lon="10.9469256"><ele>648.2</ele><time>2026-04-24T08:17:59.832Z</time></trkpt><trkpt lat="46.0617011" lon="10.9468623"><ele>651.6</ele><time>2026-04-24T08:18:00.826Z</time></trkpt><trkpt lat="46.061648" lon="10.946717"><ele>655.0</ele><time>2026-04-24T08:18:02.792Z</time></trkpt><trkpt lat="46.0616148" lon="10.9465389"><ele>659.5</ele><time>2026-04-24T08:18:04.811Z</time></trkpt><trkpt lat="46.0615943" lon="10.9464517"><ele>664.0</ele><time>2026-04-24T08:18:05.806Z</time></trkpt><trkpt lat="46.061578" lon="10.9463553"><ele>668.5</ele><time>2026-04-24T08:18:06.794Z</time></trkpt><trkpt lat="46.0615588" lon="10.9462439"><ele>673.0</ele><time>2026-04-24T08:18:07.878Z</time></trkpt><trkpt lat="46.0615336" lon="10.9461459"><ele>677.5</ele><time>2026-04-24T08:18:08.827Z</time></trkpt><trkpt lat="46.0614933" lon="10.9459784"><ele>682.0</ele><time>2026-04-24T08:18:10.846Z</time></trkpt><trkpt lat="46.0614805" lon="10.9458843"><ele>684.8</ele><time>2026-04-24T08:18:11.834Z</time></trkpt><trkpt lat="46.0614692" lon="10.9457187"><ele>687.6</ele><time>2026-04-24T08:18:13.801Z</time></trkpt><trkpt lat="46.0614723" lon="10.9455312"><ele>690.4</ele><time>2026-04-24T08:18:15.832Z</time></trkpt><trkpt lat="46.0614798" lon="10.9454196"><ele>693.1999999999999</ele><time>2026-04-24T08:18:16.817Z</time></trkpt><trkpt lat="46.0615045" lon="10.9453041"><ele>696.0</ele><time>2026-04-24T08:18:17.823Z</time></trkpt><trkpt lat="46.0615462" lon="10.9451881"><ele>696.0</ele><time>2026-04-24T08:18:18.837Z</time></trkpt><trkpt lat="46.0615793" lon="10.9450808"><ele>696.0</ele><time>2026-04-24T08:18:19.797Z</time></trkpt><trkpt lat="46.0616143" lon="10.9449679"><ele>696.0</ele><time>2026-04-24T08:18:20.841Z</time></trkpt><trkpt lat="46.0616431" lon="10.9448594"><ele>696.0</ele><time>2026-04-24T08:18:21.836Z</time></trkpt><trkpt lat="46.0616727" lon="10.9447637"><ele>696.0</ele><time>2026-04-24T08:18:22.828Z</time></trkpt><trkpt lat="46.0617002" lon="10.9446564"><ele>696.0</ele><time>2026-04-24T08:18:23.894Z</time></trkpt><trkpt lat="46.0617218" lon="10.944562"><ele>696.0</ele><time>2026-04-24T08:18:24.859Z</time></trkpt><trkpt lat="46.0617556" lon="10.9444538"><ele>696.0</ele><time>2026-04-24T08:18:26.833Z</time></trkpt><trkpt lat="46.0617838" lon="10.9443055"><ele>696.0</ele><time>2026-04-24T08:18:30.829Z</time></trkpt><trkpt lat="46.0618398" lon="10.9441569"><ele>696.0</ele><time>2026-04-24T08:18:32.843Z</time></trkpt><trkpt lat="46.0618912" lon="10.9440551"><ele>696.0</ele><time>2026-04-24T08:18:34.813Z</time></trkpt><trkpt lat="46.0619793" lon="10.9440792"><ele>696.0</ele><time>2026-04-24T08:18:37.779Z</time></trkpt><trkpt lat="46.0620649" lon="10.9441558"><ele>696.0</ele><time>2026-04-24T08:18:39.801Z</time></trkpt><trkpt lat="46.0621616" lon="10.9442462"><ele>696.0</ele><time>2026-04-24T08:18:41.831Z</time></trkpt><trkpt lat="46.0622158" lon="10.9443023"><ele>696.0</ele><time>2026-04-24T08:18:42.924Z</time></trkpt><trkpt lat="46.0623212" lon="10.9443909"><ele>696.0</ele><time>2026-04-24T08:18:44.841Z</time></trkpt><trkpt lat="46.0623809" lon="10.9444342"><ele>697.0</ele><time>2026-04-24T08:18:45.825Z</time></trkpt><trkpt lat="46.0625036" lon="10.9445185"><ele>698.0</ele><time>2026-04-24T08:18:47.813Z</time></trkpt><trkpt lat="46.0625672" lon="10.9445587"><ele>699.0</ele><time>2026-04-24T08:18:48.818Z</time></trkpt><trkpt lat="46.0626224" lon="10.944604"><ele>700.0</ele><time>2026-04-24T08:18:49.81Z</time></trkpt><trkpt lat="46.0626767" lon="10.9446503"><ele>701.0</ele><time>2026-04-24T08:18:50.765Z</time></trkpt><trkpt lat="46.0627828" lon="10.9446999"><ele>702.0</ele><time>2026-04-24T08:18:52.763Z</time></trkpt><trkpt lat="46.0628784" lon="10.9447473"><ele>702.0</ele><time>2026-04-24T08:18:54.846Z</time></trkpt><trkpt lat="46.0629862" lon="10.9447188"><ele>702.0</ele><time>2026-04-24T08:18:56.813Z</time></trkpt><trkpt lat="46.0630506" lon="10.9446945"><ele>702.0</ele><time>2026-04-24T08:18:57.869Z</time></trkpt><trkpt lat="46.0631694" lon="10.9446664"><ele>702.0</ele><time>2026-04-24T08:18:59.81Z</time></trkpt><trkpt lat="46.0632879" lon="10.9446838"><ele>702.0</ele><time>2026-04-24T08:19:01.822Z</time></trkpt><trkpt lat="46.0634057" lon="10.9447167"><ele>702.75</ele><time>2026-04-24T08:19:03.829Z</time></trkpt><trkpt lat="46.0635278" lon="10.9447429"><ele>703.5</ele><time>2026-04-24T08:19:05.853Z</time></trkpt><trkpt lat="46.0636414" lon="10.9447605"><ele>704.25</ele><time>2026-04-24T08:19:07.804Z</time></trkpt><trkpt lat="46.0637499" lon="10.944766"><ele>705.0</ele><time>2026-04-24T08:19:09.815Z</time></trkpt><trkpt lat="46.063861" lon="10.9447712"><ele>704.9999999999999</ele><time>2026-04-24T08:19:11.875Z</time></trkpt><trkpt lat="46.0639266" lon="10.9447203"><ele>705.0</ele><time>2026-04-24T08:19:13.834Z</time></trkpt><trkpt lat="46.0639454" lon="10.9446039"><ele>705.0</ele><time>2026-04-24T08:19:16.805Z</time></trkpt><trkpt lat="46.0639789" lon="10.9445162"><ele>705.0</ele><time>2026-04-24T08:19:18.793Z</time></trkpt><trkpt lat="46.0640098" lon="10.9444143"><ele>705.0</ele><time>2026-04-24T08:19:20.811Z</time></trkpt><trkpt lat="46.0639979" lon="10.9443166"><ele>704.9999999999999</ele><time>2026-04-24T08:19:22.836Z</time></trkpt><trkpt lat="46.0639512" lon="10.9442501"><ele>705.0</ele><time>2026-04-24T08:19:24.827Z</time></trkpt><trkpt lat="46.063912" lon="10.9441677"><ele>708.1666666666666</ele><time>2026-04-24T08:19:27.755Z</time></trkpt><trkpt lat="46.0639252" lon="10.9440722"><ele>711.3333333333334</ele><time>2026-04-24T08:19:29.763Z</time></trkpt><trkpt lat="46.0639312" lon="10.9439699"><ele>714.5</ele><time>2026-04-24T08:19:31.79Z</time></trkpt><trkpt lat="46.0639121" lon="10.9438546"><ele>717.6666666666667</ele><time>2026-04-24T08:19:33.826Z</time></trkpt><trkpt lat="46.0638889" lon="10.9437362"><ele>720.8333333333334</ele><time>2026-04-24T08:19:35.846Z</time></trkpt><trkpt lat="46.0638492" lon="10.9436297"><ele>724.0</ele><time>2026-04-24T08:19:37.857Z</time></trkpt><trkpt lat="46.0638529" lon="10.9435256"><ele>724.0</ele><time>2026-04-24T08:19:39.847Z</time></trkpt><trkpt lat="46.0638934" lon="10.9434165"><ele>724.0</ele><time>2026-04-24T08:19:46.811Z</time></trkpt><trkpt lat="46.0639261" lon="10.9433323"><ele>724.0</ele><time>2026-04-24T08:19:48.804Z</time></trkpt><trkpt lat="46.0639563" lon="10.9432149"><ele>724.0</ele><time>2026-04-24T08:19:50.785Z</time></trkpt><trkpt lat="46.0640276" lon="10.9431097"><ele>724.0</ele><time>2026-04-24T08:19:52.811Z</time></trkpt><trkpt lat="46.0641285" lon="10.9430203"><ele>726.4000000000001</ele><time>2026-04-24T08:19:54.855Z</time></trkpt><trkpt lat="46.0642228" lon="10.9429045"><ele>728.8</ele><time>2026-04-24T08:19:56.801Z</time></trkpt><trkpt lat="46.0642837" lon="10.9428239"><ele>731.2</ele><time>2026-04-24T08:19:58.79Z</time></trkpt><trkpt lat="46.064336" lon="10.9427395"><ele>733.5999999999999</ele><time>2026-04-24T08:20:00.841Z</time></trkpt><trkpt lat="46.0642623" lon="10.9426142"><ele>736.0</ele><time>2026-04-24T08:20:12.855Z</time></trkpt><trkpt lat="46.0641429" lon="10.9425739"><ele>735.25</ele><time>2026-04-24T08:20:14.814Z</time></trkpt><trkpt lat="46.0640448" lon="10.9424627"><ele>734.5</ele><time>2026-04-24T08:20:16.808Z</time></trkpt><trkpt lat="46.0639651" lon="10.9423545"><ele>733.75</ele><time>2026-04-24T08:20:18.9Z</time></trkpt><trkpt lat="46.0638891" lon="10.9422314"><ele>733.0</ele><time>2026-04-24T08:20:20.842Z</time></trkpt><trkpt lat="46.063808" lon="10.9421021"><ele>733.0</ele><time>2026-04-24T08:20:22.783Z</time></trkpt><trkpt lat="46.0637641" lon="10.9420314"><ele>733.0</ele><time>2026-04-24T08:20:23.828Z</time></trkpt><trkpt lat="46.0636697" lon="10.9418863"><ele>733.0</ele><time>2026-04-24T08:20:25.867Z</time></trkpt><trkpt lat="46.0635893" lon="10.9417665"><ele>733.0</ele><time>2026-04-24T08:20:27.852Z</time></trkpt><trkpt lat="46.0635161" lon="10.9416658"><ele>733.0</ele><time>2026-04-24T08:20:29.852Z</time></trkpt><trkpt lat="46.063432" lon="10.9415625"><ele>733.0</ele><time>2026-04-24T08:20:31.819Z</time></trkpt><trkpt lat="46.0633468" lon="10.9414309"><ele>733.0</ele><time>2026-04-24T08:20:33.806Z</time></trkpt><trkpt lat="46.0633034" lon="10.9413645"><ele>733.0</ele><time>2026-04-24T08:20:34.786Z</time></trkpt><trkpt lat="46.063256" lon="10.9412937"><ele>733.0</ele><time>2026-04-24T08:20:35.847Z</time></trkpt><trkpt lat="46.0632101" lon="10.9412238"><ele>733.0</ele><time>2026-04-24T08:20:36.864Z</time></trkpt><trkpt lat="46.0631659" lon="10.9411557"><ele>733.0</ele><time>2026-04-24T08:20:37.847Z</time></trkpt><trkpt lat="46.0631238" lon="10.9410866"><ele>733.0</ele><time>2026-04-24T08:20:38.84Z</time></trkpt><trkpt lat="46.0630804" lon="10.9410148"><ele>733.0</ele><time>2026-04-24T08:20:39.853Z</time></trkpt><trkpt lat="46.0629992" lon="10.9408802"><ele>733.0</ele><time>2026-04-24T08:20:41.831Z</time></trkpt><trkpt lat="46.0629135" lon="10.9407959"><ele>733.0</ele><time>2026-04-24T08:20:43.835Z</time></trkpt><trkpt lat="46.0628834" lon="10.9408815"><ele>733.0</ele><time>2026-04-24T08:20:46.836Z</time></trkpt><trkpt lat="46.0629558" lon="10.9409409"><ele>733.0</ele><time>2026-04-24T08:20:48.791Z</time></trkpt><trkpt lat="46.0630654" lon="10.9410332"><ele>733.0</ele><time>2026-04-24T08:20:50.81Z</time></trkpt><trkpt lat="46.0631198" lon="10.9411213"><ele>733.0</ele><time>2026-04-24T08:20:51.86Z</time></trkpt><trkpt lat="46.0631802" lon="10.9412222"><ele>733.0</ele><time>2026-04-24T08:20:52.861Z</time></trkpt><trkpt lat="46.0632413" lon="10.9413072"><ele>733.0</ele><time>2026-04-24T08:20:53.801Z</time></trkpt><trkpt lat="46.0633133" lon="10.9413989"><ele>733.0</ele><time>2026-04-24T08:20:54.834Z</time></trkpt><trkpt lat="46.0633831" lon="10.9414885"><ele>733.0</ele><time>2026-04-24T08:20:55.837Z</time></trkpt><trkpt lat="46.0634505" lon="10.9415847"><ele>733.0</ele><time>2026-04-24T08:20:56.857Z</time></trkpt><trkpt lat="46.0635129" lon="10.9416744"><ele>733.0</ele><time>2026-04-24T08:20:57.807Z</time></trkpt><trkpt lat="46.0635722" lon="10.9417615"><ele>733.0</ele><time>2026-04-24T08:20:58.784Z</time></trkpt><trkpt lat="46.0636312" lon="10.941857"><ele>733.0</ele><time>2026-04-24T08:20:59.794Z</time></trkpt><trkpt lat="46.0636861" lon="10.9419456"><ele>733.0</ele><time>2026-04-24T08:21:00.777Z</time></trkpt><trkpt lat="46.0637452" lon="10.9420396"><ele>733.0</ele><time>2026-04-24T08:21:01.796Z</time></trkpt><trkpt lat="46.0638003" lon="10.9421257"><ele>733.0</ele><time>2026-04-24T08:21:02.84Z</time></trkpt><trkpt lat="46.063853" lon="10.9422071"><ele>733.0</ele><time>2026-04-24T08:21:03.854Z</time></trkpt><trkpt lat="46.0639032" lon="10.9422761"><ele>733.0</ele><time>2026-04-24T08:21:04.823Z</time></trkpt><trkpt lat="46.0639568" lon="10.9423577"><ele>733.0</ele><time>2026-04-24T08:21:05.834Z</time></trkpt><trkpt lat="46.0640007" lon="10.9424309"><ele>733.0</ele><time>2026-04-24T08:21:06.813Z</time></trkpt><trkpt lat="46.0640439" lon="10.9425064"><ele>733.0</ele><time>2026-04-24T08:21:07.835Z</time></trkpt><trkpt lat="46.0641328" lon="10.9425998"><ele>733.5999999999999</ele><time>2026-04-24T08:21:09.836Z</time></trkpt><trkpt lat="46.0641937" lon="10.942553"><ele>734.1999999999999</ele><time>2026-04-24T08:21:11.797Z</time></trkpt><trkpt lat="46.0642761" lon="10.9424969"><ele>734.8</ele><time>2026-04-24T08:21:13.766Z</time></trkpt><trkpt lat="46.0643482" lon="10.9424269"><ele>735.4</ele><time>2026-04-24T08:21:15.783Z</time></trkpt><trkpt lat="46.0643937" lon="10.942289"><ele>736.0</ele><time>2026-04-24T08:21:17.847Z</time></trkpt><trkpt lat="46.0644558" lon="10.9421414"><ele>736.8333333333334</ele><time>2026-04-24T08:21:19.803Z</time></trkpt><trkpt lat="46.0644919" lon="10.9420586"><ele>737.6666666666667</ele><time>2026-04-24T08:21:20.803Z</time></trkpt><trkpt lat="46.0645298" lon="10.9419845"><ele>738.5</ele><time>2026-04-24T08:21:21.788Z</time></trkpt><trkpt lat="46.0646048" lon="10.9418702"><ele>739.3333333333334</ele><time>2026-04-24T08:21:23.767Z</time></trkpt><trkpt lat="46.0646584" lon="10.9418092"><ele>740.1666666666666</ele><time>2026-04-24T08:21:24.868Z</time></trkpt><trkpt lat="46.0647613" lon="10.9417275"><ele>741.0</ele><time>2026-04-24T08:21:26.844Z</time></trkpt><trkpt lat="46.0648601" lon="10.9416472"><ele>746.0</ele><time>2026-04-24T08:21:28.81Z</time></trkpt><trkpt lat="46.0649746" lon="10.9416014"><ele>751.0</ele><time>2026-04-24T08:21:30.84Z</time></trkpt><trkpt lat="46.0650986" lon="10.9416131"><ele>756.0</ele><time>2026-04-24T08:21:32.836Z</time></trkpt><trkpt lat="46.0651664" lon="10.9416087"><ele>761.0</ele><time>2026-04-24T08:21:33.852Z</time></trkpt><trkpt lat="46.0652685" lon="10.9415689"><ele>766.0</ele><time>2026-04-24T08:21:35.795Z</time></trkpt><trkpt lat="46.0653156" lon="10.9414681"><ele>766.0</ele><time>2026-04-24T08:21:37.801Z</time></trkpt><trkpt lat="46.0653404" lon="10.9413262"><ele>766.0</ele><time>2026-04-24T08:21:39.79Z</time></trkpt><trkpt lat="46.0653314" lon="10.9411646"><ele>766.0</ele><time>2026-04-24T08:21:41.835Z</time></trkpt><trkpt lat="46.0652814" lon="10.9410519"><ele>766.0</ele><time>2026-04-24T08:21:43.814Z</time></trkpt><trkpt lat="46.0652438" lon="10.940973"><ele>766.0</ele><time>2026-04-24T08:21:45.847Z</time></trkpt><trkpt lat="46.0653222" lon="10.9409657"><ele>766.0</ele><time>2026-04-24T08:21:50.808Z</time></trkpt><trkpt lat="46.0654195" lon="10.9411438"><ele>766.0</ele><time>2026-04-24T08:21:53.856Z</time></trkpt><trkpt lat="46.0655024" lon="10.9412608"><ele>766.0</ele><time>2026-04-24T08:21:55.87Z</time></trkpt><trkpt lat="46.0655457" lon="10.9413325"><ele>766.0</ele><time>2026-04-24T08:21:56.905Z</time></trkpt><trkpt lat="46.0656324" lon="10.941476"><ele>766.0</ele><time>2026-04-24T08:21:58.852Z</time></trkpt><trkpt lat="46.0657362" lon="10.9415353"><ele>766.0</ele><time>2026-04-24T08:22:00.824Z</time></trkpt><trkpt lat="46.0658369" lon="10.9414439"><ele>766.0</ele><time>2026-04-24T08:22:02.808Z</time></trkpt><trkpt lat="46.0658413" lon="10.9412525"><ele>766.0</ele><time>2026-04-24T08:22:04.811Z</time></trkpt><trkpt lat="46.0658066" lon="10.9411675"><ele>766.0</ele><time>2026-04-24T08:22:05.824Z</time></trkpt><trkpt lat="46.0657499" lon="10.9410939"><ele>766.0</ele><time>2026-04-24T08:22:06.784Z</time></trkpt><trkpt lat="46.0656728" lon="10.9410377"><ele>766.0</ele><time>2026-04-24T08:22:07.807Z</time></trkpt><trkpt lat="46.0655922" lon="10.9409846"><ele>766.0</ele><time>2026-04-24T08:22:08.835Z</time></trkpt><trkpt lat="46.0655155" lon="10.9409255"><ele>766.0</ele><time>2026-04-24T08:22:09.838Z</time></trkpt><trkpt lat="46.0654398" lon="10.9408529"><ele>766.0</ele><time>2026-04-24T08:22:10.823Z</time></trkpt><trkpt lat="46.0653629" lon="10.9407644"><ele>767.4</ele><time>2026-04-24T08:22:11.845Z</time></trkpt><trkpt lat="46.0652803" lon="10.940665"><ele>768.8</ele><time>2026-04-24T08:22:12.851Z</time></trkpt><trkpt lat="46.0652092" lon="10.9405599"><ele>770.1999999999999</ele><time>2026-04-24T08:22:13.81Z</time></trkpt><trkpt lat="46.0651533" lon="10.9404479"><ele>771.5999999999999</ele><time>2026-04-24T08:22:14.825Z</time></trkpt><trkpt lat="46.065109" lon="10.9403524"><ele>773.0</ele><time>2026-04-24T08:22:15.809Z</time></trkpt><trkpt lat="46.0650571" lon="10.9402621"><ele>773.0</ele><time>2026-04-24T08:22:16.835Z</time></trkpt><trkpt lat="46.0650063" lon="10.9401805"><ele>773.0</ele><time>2026-04-24T08:22:17.8Z</time></trkpt><trkpt lat="46.0649471" lon="10.940098"><ele>773.0</ele><time>2026-04-24T08:22:18.807Z</time></trkpt><trkpt lat="46.0648969" lon="10.9400358"><ele>773.0</ele><time>2026-04-24T08:22:19.845Z</time></trkpt><trkpt lat="46.0648432" lon="10.9399837"><ele>773.0</ele><time>2026-04-24T08:22:20.799Z</time></trkpt><trkpt lat="46.0647756" lon="10.9399379"><ele>773.0</ele><time>2026-04-24T08:22:21.856Z</time></trkpt><trkpt lat="46.0647152" lon="10.9398898"><ele>773.0</ele><time>2026-04-24T08:22:22.83Z</time></trkpt><trkpt lat="46.0646461" lon="10.9398467"><ele>774.5999999999999</ele><time>2026-04-24T08:22:23.838Z</time></trkpt><trkpt lat="46.0645772" lon="10.9398066"><ele>776.1999999999999</ele><time>2026-04-24T08:22:24.812Z</time></trkpt><trkpt lat="46.0645055" lon="10.939769"><ele>777.8</ele><time>2026-04-24T08:22:25.801Z</time></trkpt><trkpt lat="46.0644235" lon="10.9397319"><ele>779.4</ele><time>2026-04-24T08:22:26.939Z</time></trkpt><trkpt lat="46.0643001" lon="10.9396361"><ele>781.0</ele><time>2026-04-24T08:22:28.965Z</time></trkpt><trkpt lat="46.0641929" lon="10.9395279"><ele>780.9999999999999</ele><time>2026-04-24T08:22:30.792Z</time></trkpt><trkpt lat="46.0641313" lon="10.9394509"><ele>781.0</ele><time>2026-04-24T08:22:31.837Z</time></trkpt><trkpt lat="46.0640723" lon="10.9393817"><ele>781.0</ele><time>2026-04-24T08:22:32.819Z</time></trkpt><trkpt lat="46.0640139" lon="10.9393119"><ele>781.0</ele><time>2026-04-24T08:22:33.796Z</time></trkpt><trkpt lat="46.0639519" lon="10.9392252"><ele>780.9999999999999</ele><time>2026-04-24T08:22:34.887Z</time></trkpt><trkpt lat="46.063901" lon="10.9391711"><ele>781.0</ele><time>2026-04-24T08:22:35.81Z</time></trkpt><trkpt lat="46.063842" lon="10.9391069"><ele>781.8333333333333</ele><time>2026-04-24T08:22:36.806Z</time></trkpt><trkpt lat="46.063782" lon="10.939044"><ele>782.6666666666666</ele><time>2026-04-24T08:22:37.809Z</time></trkpt><trkpt lat="46.0637228" lon="10.9389889"><ele>783.5</ele><time>2026-04-24T08:22:38.815Z</time></trkpt><trkpt lat="46.063671" lon="10.9389325"><ele>784.3333333333333</ele><time>2026-04-24T08:22:39.801Z</time></trkpt><trkpt lat="46.0636193" lon="10.9388682"><ele>785.1666666666666</ele><time>2026-04-24T08:22:40.836Z</time></trkpt><trkpt lat="46.0635416" lon="10.9387294"><ele>786.0</ele><time>2026-04-24T08:22:42.795Z</time></trkpt><trkpt lat="46.0635022" lon="10.9386526"><ele>786.0</ele><time>2026-04-24T08:22:43.798Z</time></trkpt><trkpt lat="46.0634663" lon="10.9385769"><ele>786.0</ele><time>2026-04-24T08:22:44.769Z</time></trkpt><trkpt lat="46.063433" lon="10.9384984"><ele>786.0</ele><time>2026-04-24T08:22:45.788Z</time></trkpt><trkpt lat="46.0633955" lon="10.9384226"><ele>786.0</ele><time>2026-04-24T08:22:46.804Z</time></trkpt><trkpt lat="46.0633241" lon="10.9382766"><ele>786.0</ele><time>2026-04-24T08:22:48.829Z</time></trkpt><trkpt lat="46.0632602" lon="10.9381193"><ele>786.0</ele><time>2026-04-24T08:22:50.885Z</time></trkpt><trkpt lat="46.0631927" lon="10.9380028"><ele>783.0</ele><time>2026-04-24T08:22:52.808Z</time></trkpt><trkpt lat="46.0631178" lon="10.9378821"><ele>780.0</ele><time>2026-04-24T08:22:54.826Z</time></trkpt><trkpt lat="46.0630401" lon="10.9377635"><ele>777.0</ele><time>2026-04-24T08:22:56.829Z</time></trkpt><trkpt lat="46.0629728" lon="10.9376189"><ele>774.0</ele><time>2026-04-24T08:22:58.843Z</time></trkpt><trkpt lat="46.0629309" lon="10.9374617"><ele>771.6</ele><time>2026-04-24T08:23:00.863Z</time></trkpt><trkpt lat="46.0629156" lon="10.9372989"><ele>769.2</ele><time>2026-04-24T08:23:02.838Z</time></trkpt><trkpt lat="46.0628916" lon="10.9371308"><ele>766.8000000000001</ele><time>2026-04-24T08:23:04.882Z</time></trkpt><trkpt lat="46.0628752" lon="10.9369408"><ele>764.4000000000001</ele><time>2026-04-24T08:23:06.834Z</time></trkpt><trkpt lat="46.0628594" lon="10.9368362"><ele>762.0</ele><time>2026-04-24T08:23:07.829Z</time></trkpt><trkpt lat="46.0628343" lon="10.9367255"><ele>762.0</ele><time>2026-04-24T08:23:08.846Z</time></trkpt><trkpt lat="46.0628006" lon="10.9366167"><ele>762.0</ele><time>2026-04-24T08:23:09.854Z</time></trkpt><trkpt lat="46.0627692" lon="10.9364994"><ele>762.0</ele><time>2026-04-24T08:23:10.857Z</time></trkpt><trkpt lat="46.0627335" lon="10.9363845"><ele>762.0</ele><time>2026-04-24T08:23:11.864Z</time></trkpt><trkpt lat="46.0626969" lon="10.9362754"><ele>762.0</ele><time>2026-04-24T08:23:12.844Z</time></trkpt><trkpt lat="46.0626612" lon="10.9361592"><ele>762.0</ele><time>2026-04-24T08:23:13.832Z</time></trkpt><trkpt lat="46.062633" lon="10.9360473"><ele>764.0</ele><time>2026-04-24T08:23:14.813Z</time></trkpt><trkpt lat="46.0626059" lon="10.935933"><ele>766.0</ele><time>2026-04-24T08:23:15.825Z</time></trkpt><trkpt lat="46.0625776" lon="10.9358205"><ele>768.0</ele><time>2026-04-24T08:23:16.803Z</time></trkpt><trkpt lat="46.0625419" lon="10.9357011"><ele>770.0</ele><time>2026-04-24T08:23:17.838Z</time></trkpt><trkpt lat="46.0625098" lon="10.9355939"><ele>772.0</ele><time>2026-04-24T08:23:18.802Z</time></trkpt><trkpt lat="46.0624754" lon="10.9354809"><ele>774.0</ele><time>2026-04-24T08:23:19.807Z</time></trkpt><trkpt lat="46.0624437" lon="10.9353528"><ele>774.0</ele><time>2026-04-24T08:23:20.955Z</time></trkpt><trkpt lat="46.0624135" lon="10.9351786"><ele>774.0</ele><time>2026-04-24T08:23:22.845Z</time></trkpt><trkpt lat="46.0624062" lon="10.9350442"><ele>774.0</ele><time>2026-04-24T08:23:24.844Z</time></trkpt><trkpt lat="46.0623876" lon="10.9351503"><ele>774.0</ele><time>2026-04-24T08:23:32.97Z</time></trkpt><trkpt lat="46.0624063" lon="10.9352518"><ele>774.0</ele><time>2026-04-24T08:23:34.815Z</time></trkpt><trkpt lat="46.062435" lon="10.9353662"><ele>774.0</ele><time>2026-04-24T08:23:36.864Z</time></trkpt><trkpt lat="46.0624573" lon="10.9354515"><ele>774.0</ele><time>2026-04-24T08:23:37.838Z</time></trkpt><trkpt lat="46.0624821" lon="10.9355405"><ele>774.0</ele><time>2026-04-24T08:23:38.831Z</time></trkpt><trkpt lat="46.0625083" lon="10.9356357"><ele>774.0</ele><time>2026-04-24T08:23:39.855Z</time></trkpt><trkpt lat="46.0625345" lon="10.9357211"><ele>774.0</ele><time>2026-04-24T08:23:40.863Z</time></trkpt><trkpt lat="46.0625788" lon="10.9358841"><ele>774.0</ele><time>2026-04-24T08:23:42.843Z</time></trkpt><trkpt lat="46.0626045" lon="10.9359693"><ele>774.0</ele><time>2026-04-24T08:23:43.873Z</time></trkpt><trkpt lat="46.0626554" lon="10.9361192"><ele>774.0</ele><time>2026-04-24T08:23:45.845Z</time></trkpt><trkpt lat="46.0627048" lon="10.9362776"><ele>774.0</ele><time>2026-04-24T08:23:47.818Z</time></trkpt><trkpt lat="46.0627291" lon="10.9363642"><ele>774.0</ele><time>2026-04-24T08:23:48.815Z</time></trkpt><trkpt lat="46.0627751" lon="10.9365152"><ele>774.0</ele><time>2026-04-24T08:23:50.853Z</time></trkpt><trkpt lat="46.0628167" lon="10.9366662"><ele>771.6</ele><time>2026-04-24T08:23:53.045Z</time></trkpt><trkpt lat="46.062846" lon="10.9367808"><ele>769.2</ele><time>2026-04-24T08:23:54.797Z</time></trkpt><trkpt lat="46.0628747" lon="10.936926"><ele>766.8000000000001</ele><time>2026-04-24T08:23:56.852Z</time></trkpt><trkpt lat="46.0628902" lon="10.9370576"><ele>764.4000000000001</ele><time>2026-04-24T08:23:58.845Z</time></trkpt><trkpt lat="46.0628981" lon="10.9371841"><ele>762.0</ele><time>2026-04-24T08:24:00.833Z</time></trkpt><trkpt lat="46.0629043" lon="10.9373115"><ele>762.0</ele><time>2026-04-24T08:24:02.858Z</time></trkpt><trkpt lat="46.0629078" lon="10.9374026"><ele>762.0</ele><time>2026-04-24T08:24:04.82Z</time></trkpt><trkpt lat="46.0629327" lon="10.9374939"><ele>762.0</ele><time>2026-04-24T08:24:07.816Z</time></trkpt><trkpt lat="46.062961" lon="10.9376143"><ele>762.0</ele><time>2026-04-24T08:24:11.869Z</time></trkpt><trkpt lat="46.0629477" lon="10.9374585"><ele>762.0</ele><time>2026-04-24T08:26:01.825Z</time></trkpt><trkpt lat="46.0629281" lon="10.9373632"><ele>762.0</ele><time>2026-04-24T08:26:02.853Z</time></trkpt><trkpt lat="46.0629143" lon="10.9372604"><ele>762.0</ele><time>2026-04-24T08:26:03.849Z</time></trkpt><trkpt lat="46.0629079" lon="10.9371491"><ele>762.0</ele><time>2026-04-24T08:26:04.819Z</time></trkpt><trkpt lat="46.0629024" lon="10.9370238"><ele>762.0</ele><time>2026-04-24T08:26:05.852Z</time></trkpt><trkpt lat="46.0628909" lon="10.9369205"><ele>762.0</ele><time>2026-04-24T08:26:06.818Z</time></trkpt><trkpt lat="46.0628722" lon="10.9368156"><ele>762.0</ele><time>2026-04-24T08:26:07.847Z</time></trkpt><trkpt lat="46.0628506" lon="10.9367205"><ele>762.0</ele><time>2026-04-24T08:26:08.804Z</time></trkpt><trkpt lat="46.0628238" lon="10.9366136"><ele>762.0</ele><time>2026-04-24T08:26:09.838Z</time></trkpt><trkpt lat="46.0627921" lon="10.9365087"><ele>762.0</ele><time>2026-04-24T08:26:10.856Z</time></trkpt><trkpt lat="46.0627642" lon="10.9364058"><ele>762.0</ele><time>2026-04-24T08:26:11.87Z</time></trkpt><trkpt lat="46.062734" lon="10.9363009"><ele>762.0</ele><time>2026-04-24T08:26:12.832Z</time></trkpt><trkpt lat="46.062701" lon="10.9361922"><ele>762.0</ele><time>2026-04-24T08:26:13.818Z</time></trkpt><trkpt lat="46.0626705" lon="10.9360929"><ele>762.0</ele><time>2026-04-24T08:26:14.806Z</time></trkpt><trkpt lat="46.062635" lon="10.935986"><ele>764.0</ele><time>2026-04-24T08:26:15.835Z</time></trkpt><trkpt lat="46.0625984" lon="10.9358791"><ele>766.0</ele><time>2026-04-24T08:26:16.852Z</time></trkpt><trkpt lat="46.0625643" lon="10.9357672"><ele>768.0</ele><time>2026-04-24T08:26:17.849Z</time></trkpt><trkpt lat="46.0625249" lon="10.9356503"><ele>770.0</ele><time>2026-04-24T08:26:18.857Z</time></trkpt><trkpt lat="46.0624883" lon="10.9355355"><ele>772.0</ele><time>2026-04-24T08:26:19.817Z</time></trkpt><trkpt lat="46.0624531" lon="10.9354479"><ele>774.0</ele><time>2026-04-24T08:26:20.806Z</time></trkpt><trkpt lat="46.0624147" lon="10.93536"><ele>774.0</ele><time>2026-04-24T08:26:21.813Z</time></trkpt><trkpt lat="46.0623858" lon="10.9352536"><ele>774.0</ele><time>2026-04-24T08:26:22.848Z</time></trkpt><trkpt lat="46.0623945" lon="10.9351334"><ele>774.0</ele><time>2026-04-24T08:26:23.827Z</time></trkpt><trkpt lat="46.062411" lon="10.9349935"><ele>774.0</ele><time>2026-04-24T08:26:24.853Z</time></trkpt><trkpt lat="46.0624402" lon="10.9348822"><ele>774.0</ele><time>2026-04-24T08:26:25.856Z</time></trkpt><trkpt lat="46.0624782" lon="10.9347887"><ele>774.0</ele><time>2026-04-24T08:26:26.813Z</time></trkpt><trkpt lat="46.0625374" lon="10.9346847"><ele>774.0</ele><time>2026-04-24T08:26:27.85Z</time></trkpt><trkpt lat="46.062603" lon="10.9346051"><ele>774.0</ele><time>2026-04-24T08:26:28.859Z</time></trkpt><trkpt lat="46.0626689" lon="10.9345188"><ele>774.0</ele><time>2026-04-24T08:26:29.818Z</time></trkpt><trkpt lat="46.0627386" lon="10.9344247"><ele>774.0</ele><time>2026-04-24T08:26:30.913Z</time></trkpt><trkpt lat="46.0627834" lon="10.934329"><ele>774.0</ele><time>2026-04-24T08:26:31.833Z</time></trkpt><trkpt lat="46.0628227" lon="10.9342198"><ele>774.0</ele><time>2026-04-24T08:26:32.863Z</time></trkpt><trkpt lat="46.0628529" lon="10.9340995"><ele>774.0</ele><time>2026-04-24T08:26:33.856Z</time></trkpt><trkpt lat="46.0628826" lon="10.9339825"><ele>774.0</ele><time>2026-04-24T08:26:34.821Z</time></trkpt><trkpt lat="46.0629123" lon="10.9338553"><ele>774.0</ele><time>2026-04-24T08:26:35.813Z</time></trkpt><trkpt lat="46.0629289" lon="10.9337445"><ele>774.0</ele><time>2026-04-24T08:26:36.789Z</time></trkpt><trkpt lat="46.0629985" lon="10.9335548"><ele>774.0</ele><time>2026-04-24T08:26:38.849Z</time></trkpt><trkpt lat="46.0630352" lon="10.9334287"><ele>771.0</ele><time>2026-04-24T08:26:39.794Z</time></trkpt><trkpt lat="46.0630772" lon="10.9333233"><ele>768.0</ele><time>2026-04-24T08:26:40.816Z</time></trkpt><trkpt lat="46.0631236" lon="10.9331992"><ele>765.0</ele><time>2026-04-24T08:26:41.8Z</time></trkpt><trkpt lat="46.0631714" lon="10.9330907"><ele>762.0</ele><time>2026-04-24T08:26:42.862Z</time></trkpt><trkpt lat="46.0632457" lon="10.9329544"><ele>759.0</ele><time>2026-04-24T08:26:44.808Z</time></trkpt><trkpt lat="46.063285" lon="10.9327312"><ele>759.0</ele><time>2026-04-24T08:26:46.808Z</time></trkpt><trkpt lat="46.0632794" lon="10.9325769"><ele>759.0</ele><time>2026-04-24T08:26:47.818Z</time></trkpt><trkpt lat="46.0632605" lon="10.9324269"><ele>759.0</ele><time>2026-04-24T08:26:48.802Z</time></trkpt><trkpt lat="46.0632555" lon="10.9323182"><ele>759.0</ele><time>2026-04-24T08:26:49.812Z</time></trkpt><trkpt lat="46.0632537" lon="10.9322108"><ele>759.0</ele><time>2026-04-24T08:26:50.805Z</time></trkpt><trkpt lat="46.0632549" lon="10.9321071"><ele>759.0</ele><time>2026-04-24T08:26:51.813Z</time></trkpt><trkpt lat="46.0632599" lon="10.932002"><ele>740.0</ele><time>2026-04-24T08:26:52.818Z</time></trkpt><trkpt lat="46.0632739" lon="10.9319045"><ele>721.0</ele><time>2026-04-24T08:26:53.821Z</time></trkpt><trkpt lat="46.0632858" lon="10.9317801"><ele>702.0</ele><time>2026-04-24T08:26:54.854Z</time></trkpt><trkpt lat="46.0632997" lon="10.9316739"><ele>683.0</ele><time>2026-04-24T08:26:55.795Z</time></trkpt><trkpt lat="46.0633245" lon="10.931569"><ele>664.0</ele><time>2026-04-24T08:26:56.795Z</time></trkpt><trkpt lat="46.063353" lon="10.9314687"><ele>645.0</ele><time>2026-04-24T08:26:57.785Z</time></trkpt><trkpt lat="46.0633899" lon="10.9313799"><ele>635.6</ele><time>2026-04-24T08:26:58.782Z</time></trkpt><trkpt lat="46.0634251" lon="10.9312611"><ele>626.2</ele><time>2026-04-24T08:26:59.852Z</time></trkpt><trkpt lat="46.0634674" lon="10.9311315"><ele>616.8</ele><time>2026-04-24T08:27:00.834Z</time></trkpt><trkpt lat="46.0635087" lon="10.9309952"><ele>607.4</ele><time>2026-04-24T08:27:01.842Z</time></trkpt><trkpt lat="46.0635704" lon="10.9309336"><ele>598.0</ele><time>2026-04-24T08:27:02.861Z</time></trkpt><trkpt lat="46.0636092" lon="10.9308034"><ele>591.6</ele><time>2026-04-24T08:27:03.84Z</time></trkpt><trkpt lat="46.0636571" lon="10.9306669"><ele>585.1999999999999</ele><time>2026-04-24T08:27:04.898Z</time></trkpt><trkpt lat="46.0637044" lon="10.9305397"><ele>578.8</ele><time>2026-04-24T08:27:05.834Z</time></trkpt><trkpt lat="46.0637554" lon="10.9304081"><ele>572.4</ele><time>2026-04-24T08:27:06.82Z</time></trkpt><trkpt lat="46.0638193" lon="10.9303172"><ele>566.0</ele><time>2026-04-24T08:27:07.816Z</time></trkpt><trkpt lat="46.0638757" lon="10.9302428"><ele>566.0</ele><time>2026-04-24T08:27:08.831Z</time></trkpt><trkpt lat="46.0639274" lon="10.9301684"><ele>566.0</ele><time>2026-04-24T08:27:09.884Z</time></trkpt><trkpt lat="46.0640323" lon="10.9300591"><ele>566.0</ele><time>2026-04-24T08:27:11.847Z</time></trkpt><trkpt lat="46.0640963" lon="10.9300308"><ele>566.0</ele><time>2026-04-24T08:27:12.812Z</time></trkpt><trkpt lat="46.0641655" lon="10.9300156"><ele>566.0</ele><time>2026-04-24T08:27:13.805Z</time></trkpt><trkpt lat="46.0642354" lon="10.9300062"><ele>566.0</ele><time>2026-04-24T08:27:14.788Z</time></trkpt><trkpt lat="46.0643061" lon="10.9299977"><ele>564.1428571428571</ele><time>2026-04-24T08:27:15.8Z</time></trkpt><trkpt lat="46.0643747" lon="10.9299725"><ele>562.2857142857143</ele><time>2026-04-24T08:27:16.884Z</time></trkpt><trkpt lat="46.0644348" lon="10.9299396"><ele>560.4285714285714</ele><time>2026-04-24T08:27:17.814Z</time></trkpt><trkpt lat="46.0644954" lon="10.9298852"><ele>558.5714285714286</ele><time>2026-04-24T08:27:18.803Z</time></trkpt><trkpt lat="46.0645448" lon="10.9298197"><ele>556.7142857142858</ele><time>2026-04-24T08:27:19.814Z</time></trkpt><trkpt lat="46.0645929" lon="10.9297499"><ele>554.8571428571429</ele><time>2026-04-24T08:27:20.807Z</time></trkpt><trkpt lat="46.0646473" lon="10.9296705"><ele>553.0</ele><time>2026-04-24T08:27:21.844Z</time></trkpt><trkpt lat="46.0646872" lon="10.9295787"><ele>553.0</ele><time>2026-04-24T08:27:22.772Z</time></trkpt><trkpt lat="46.0647265" lon="10.9294691"><ele>553.0</ele><time>2026-04-24T08:27:23.757Z</time></trkpt><trkpt lat="46.0647552" lon="10.92936"><ele>553.0</ele><time>2026-04-24T08:27:24.76Z</time></trkpt><trkpt lat="46.0647687" lon="10.9292224"><ele>553.0</ele><time>2026-04-24T08:27:25.773Z</time></trkpt><trkpt lat="46.0647667" lon="10.9290897"><ele>553.0</ele><time>2026-04-24T08:27:26.779Z</time></trkpt><trkpt lat="46.0647635" lon="10.9289704"><ele>553.0</ele><time>2026-04-24T08:27:27.778Z</time></trkpt><trkpt lat="46.0647605" lon="10.9288392"><ele>544.1999999999999</ele><time>2026-04-24T08:27:28.806Z</time></trkpt><trkpt lat="46.0647699" lon="10.9287131"><ele>535.4</ele><time>2026-04-24T08:27:29.807Z</time></trkpt><trkpt lat="46.0647893" lon="10.9286033"><ele>526.5999999999999</ele><time>2026-04-24T08:27:30.786Z</time></trkpt><trkpt lat="46.0648181" lon="10.9284834"><ele>517.8</ele><time>2026-04-24T08:27:31.87Z</time></trkpt><trkpt lat="46.0648584" lon="10.9283608"><ele>509.0</ele><time>2026-04-24T08:27:33.048Z</time></trkpt><trkpt lat="46.0649328" lon="10.9281901"><ele>498.8333333333333</ele><time>2026-04-24T08:27:34.806Z</time></trkpt><trkpt lat="46.0649877" lon="10.9280828"><ele>488.66666666666663</ele><time>2026-04-24T08:27:35.874Z</time></trkpt><trkpt lat="46.0650358" lon="10.9280023"><ele>478.5</ele><time>2026-04-24T08:27:36.849Z</time></trkpt><trkpt lat="46.0650975" lon="10.9279248"><ele>468.33333333333337</ele><time>2026-04-24T08:27:37.831Z</time></trkpt><trkpt lat="46.0651555" lon="10.9278694"><ele>458.1666666666667</ele><time>2026-04-24T08:27:38.788Z</time></trkpt><trkpt lat="46.0652209" lon="10.9278124"><ele>448.0</ele><time>2026-04-24T08:27:39.799Z</time></trkpt><trkpt lat="46.0652993" lon="10.9277575"><ele>448.00000000000006</ele><time>2026-04-24T08:27:40.817Z</time></trkpt><trkpt lat="46.0653719" lon="10.9277032"><ele>448.0</ele><time>2026-04-24T08:27:41.815Z</time></trkpt><trkpt lat="46.0654378" lon="10.9276527"><ele>448.0</ele><time>2026-04-24T08:27:42.828Z</time></trkpt><trkpt lat="46.0654971" lon="10.9276056"><ele>448.0</ele><time>2026-04-24T08:27:43.816Z</time></trkpt><trkpt lat="46.065581" lon="10.9275554"><ele>448.00000000000006</ele><time>2026-04-24T08:27:44.818Z</time></trkpt><trkpt lat="46.0656383" lon="10.927488"><ele>448.0</ele><time>2026-04-24T08:27:45.863Z</time></trkpt><trkpt lat="46.0657125" lon="10.9274209"><ele>448.00000000000006</ele><time>2026-04-24T08:27:46.809Z</time></trkpt><trkpt lat="46.0657915" lon="10.9273319"><ele>448.0</ele><time>2026-04-24T08:27:47.897Z</time></trkpt><trkpt lat="46.0658145" lon="10.9272334"><ele>448.0</ele><time>2026-04-24T08:27:48.812Z</time></trkpt><trkpt lat="46.0658475" lon="10.927126"><ele>448.0</ele><time>2026-04-24T08:27:49.815Z</time></trkpt><trkpt lat="46.0658908" lon="10.9270157"><ele>448.00000000000006</ele><time>2026-04-24T08:27:50.856Z</time></trkpt><trkpt lat="46.0659351" lon="10.9269105"><ele>448.0</ele><time>2026-04-24T08:27:51.832Z</time></trkpt><trkpt lat="46.0660035" lon="10.9268244"><ele>435.1666666666667</ele><time>2026-04-24T08:27:52.891Z</time></trkpt><trkpt lat="46.0660697" lon="10.9267545"><ele>422.33333333333337</ele><time>2026-04-24T08:27:53.845Z</time></trkpt><trkpt lat="46.0661408" lon="10.9266795"><ele>409.5</ele><time>2026-04-24T08:27:54.865Z</time></trkpt><trkpt lat="46.0662177" lon="10.9266074"><ele>396.6666666666667</ele><time>2026-04-24T08:27:55.851Z</time></trkpt><trkpt lat="46.0662966" lon="10.9265466"><ele>383.83333333333337</ele><time>2026-04-24T08:27:56.868Z</time></trkpt><trkpt lat="46.0663649" lon="10.9264974"><ele>371.0</ele><time>2026-04-24T08:27:57.829Z</time></trkpt><trkpt lat="46.0664345" lon="10.9264509"><ele>371.0</ele><time>2026-04-24T08:27:58.84Z</time></trkpt><trkpt lat="46.0665" lon="10.9264"><ele>371.0</ele><time>2026-04-24T08:27:59.878Z</time></trkpt><trkpt lat="46.0665598" lon="10.9263533"><ele>371.0</ele><time>2026-04-24T08:28:00.853Z</time></trkpt><trkpt lat="46.0666249" lon="10.9263121"><ele>371.0</ele><time>2026-04-24T08:28:01.861Z</time></trkpt><trkpt lat="46.0666964" lon="10.9262839"><ele>371.0</ele><time>2026-04-24T08:28:02.854Z</time></trkpt><trkpt lat="46.0667695" lon="10.9262613"><ele>371.0</ele><time>2026-04-24T08:28:03.855Z</time></trkpt><trkpt lat="46.0668493" lon="10.9262348"><ele>371.0</ele><time>2026-04-24T08:28:04.912Z</time></trkpt><trkpt lat="46.0669268" lon="10.9262307"><ele>371.0</ele><time>2026-04-24T08:28:05.884Z</time></trkpt><trkpt lat="46.0670105" lon="10.9262232"><ele>371.0</ele><time>2026-04-24T08:28:06.914Z</time></trkpt><trkpt lat="46.0670962" lon="10.9262245"><ele>371.0</ele><time>2026-04-24T08:28:07.933Z</time></trkpt><trkpt lat="46.0671735" lon="10.9262324"><ele>371.0</ele><time>2026-04-24T08:28:08.865Z</time></trkpt><trkpt lat="46.0672516" lon="10.9262505"><ele>371.0</ele><time>2026-04-24T08:28:09.856Z</time></trkpt><trkpt lat="46.0673241" lon="10.9262829"><ele>371.0</ele><time>2026-04-24T08:28:10.843Z</time></trkpt><trkpt lat="46.0673964" lon="10.9263051"><ele>371.0</ele><time>2026-04-24T08:28:11.842Z</time></trkpt><trkpt lat="46.0674632" lon="10.9262994"><ele>371.0</ele><time>2026-04-24T08:28:12.858Z</time></trkpt><trkpt lat="46.0675574" lon="10.9262432"><ele>371.0</ele><time>2026-04-24T08:28:14.836Z</time></trkpt><trkpt lat="46.0676607" lon="10.9262086"><ele>371.0</ele><time>2026-04-24T08:28:16.841Z</time></trkpt><trkpt lat="46.0677544" lon="10.9262433"><ele>371.0</ele><time>2026-04-24T08:28:18.878Z</time></trkpt><trkpt lat="46.0678217" lon="10.92636"><ele>371.0</ele><time>2026-04-24T08:28:20.885Z</time></trkpt><trkpt lat="46.0678482" lon="10.9264716"><ele>371.0</ele><time>2026-04-24T08:28:21.947Z</time></trkpt><trkpt lat="46.0678721" lon="10.9265565"><ele>371.0</ele><time>2026-04-24T08:28:22.854Z</time></trkpt><trkpt lat="46.0679159" lon="10.9266532"><ele>371.0</ele><time>2026-04-24T08:28:23.917Z</time></trkpt><trkpt lat="46.0679835" lon="10.92675"><ele>371.0</ele><time>2026-04-24T08:28:25.856Z</time></trkpt><trkpt lat="46.0680375" lon="10.9268857"><ele>371.0</ele><time>2026-04-24T08:28:27.847Z</time></trkpt><trkpt lat="46.0680289" lon="10.9269785"><ele>371.0</ele><time>2026-04-24T08:28:28.835Z</time></trkpt><trkpt lat="46.0680078" lon="10.9270683"><ele>371.0</ele><time>2026-04-24T08:28:29.814Z</time></trkpt><trkpt lat="46.067982" lon="10.9271575"><ele>371.0</ele><time>2026-04-24T08:28:30.851Z</time></trkpt><trkpt lat="46.0679958" lon="10.9273128"><ele>371.0</ele><time>2026-04-24T08:28:32.852Z</time></trkpt><trkpt lat="46.0680646" lon="10.9273922"><ele>371.0</ele><time>2026-04-24T08:28:34.849Z</time></trkpt><trkpt lat="46.0681311" lon="10.9274419"><ele>371.0</ele><time>2026-04-24T08:28:35.87Z</time></trkpt><trkpt lat="46.0682087" lon="10.9274823"><ele>371.0</ele><time>2026-04-24T08:28:36.839Z</time></trkpt><trkpt lat="46.0682701" lon="10.9275407"><ele>371.0</ele><time>2026-04-24T08:28:37.823Z</time></trkpt><trkpt lat="46.0683274" lon="10.9275993"><ele>371.0</ele><time>2026-04-24T08:28:38.812Z</time></trkpt><trkpt lat="46.0683717" lon="10.9276741"><ele>371.0</ele><time>2026-04-24T08:28:39.827Z</time></trkpt><trkpt lat="46.068413" lon="10.9277498"><ele>371.0</ele><time>2026-04-24T08:28:40.848Z</time></trkpt><trkpt lat="46.0684431" lon="10.9279209"><ele>371.0</ele><time>2026-04-24T08:28:42.825Z</time></trkpt><trkpt lat="46.0684438" lon="10.9280198"><ele>371.0</ele><time>2026-04-24T08:28:43.873Z</time></trkpt><trkpt lat="46.0684422" lon="10.9281149"><ele>371.0</ele><time>2026-04-24T08:28:44.818Z</time></trkpt><trkpt lat="46.0684431" lon="10.9282177"><ele>371.0</ele><time>2026-04-24T08:28:45.813Z</time></trkpt><trkpt lat="46.0684399" lon="10.9283201"><ele>371.0</ele><time>2026-04-24T08:28:46.795Z</time></trkpt><trkpt lat="46.0684374" lon="10.9284335"><ele>371.0</ele><time>2026-04-24T08:28:47.824Z</time></trkpt><trkpt lat="46.0684465" lon="10.9285588"><ele>371.0</ele><time>2026-04-24T08:28:48.824Z</time></trkpt><trkpt lat="46.068465" lon="10.9286865"><ele>371.0</ele><time>2026-04-24T08:28:49.873Z</time></trkpt><trkpt lat="46.0684817" lon="10.9288068"><ele>371.0</ele><time>2026-04-24T08:28:50.835Z</time></trkpt><trkpt lat="46.068491" lon="10.9289283"><ele>371.0</ele><time>2026-04-24T08:28:51.853Z</time></trkpt><trkpt lat="46.0684971" lon="10.9290412"><ele>371.0</ele><time>2026-04-24T08:28:52.805Z</time></trkpt><trkpt lat="46.0685065" lon="10.9291658"><ele>371.0</ele><time>2026-04-24T08:28:53.813Z</time></trkpt><trkpt lat="46.0685171" lon="10.9292756"><ele>371.0</ele><time>2026-04-24T08:28:54.853Z</time></trkpt><trkpt lat="46.0685342" lon="10.9293673"><ele>371.0</ele><time>2026-04-24T08:28:55.819Z</time></trkpt><trkpt lat="46.0685512" lon="10.9294566"><ele>371.0</ele><time>2026-04-24T08:28:56.857Z</time></trkpt><trkpt lat="46.0685531" lon="10.929549"><ele>371.0</ele><time>2026-04-24T08:28:57.872Z</time></trkpt><trkpt lat="46.0684993" lon="10.9297159"><ele>371.0</ele><time>2026-04-24T08:28:59.86Z</time></trkpt><trkpt lat="46.0684466" lon="10.9297754"><ele>371.0</ele><time>2026-04-24T08:29:00.88Z</time></trkpt><trkpt lat="46.0683871" lon="10.9298511"><ele>371.0</ele><time>2026-04-24T08:29:01.847Z</time></trkpt><trkpt lat="46.0683234" lon="10.9299383"><ele>371.0</ele><time>2026-04-24T08:29:02.852Z</time></trkpt><trkpt lat="46.0682613" lon="10.9300819"><ele>371.0</ele><time>2026-04-24T08:29:04.891Z</time></trkpt><trkpt lat="46.0682417" lon="10.9302631"><ele>371.0</ele><time>2026-04-24T08:29:06.883Z</time></trkpt><trkpt lat="46.0682404" lon="10.9303612"><ele>371.0</ele><time>2026-04-24T08:29:07.861Z</time></trkpt><trkpt lat="46.0682406" lon="10.93046"><ele>371.0</ele><time>2026-04-24T08:29:08.907Z</time></trkpt><trkpt lat="46.0682399" lon="10.9305515"><ele>371.0</ele><time>2026-04-24T08:29:09.843Z</time></trkpt><trkpt lat="46.0682486" lon="10.9307229"><ele>371.0</ele><time>2026-04-24T08:29:11.854Z</time></trkpt><trkpt lat="46.0682606" lon="10.9308165"><ele>371.0</ele><time>2026-04-24T08:29:12.845Z</time></trkpt><trkpt lat="46.0682687" lon="10.9309122"><ele>371.0</ele><time>2026-04-24T08:29:13.853Z</time></trkpt><trkpt lat="46.0682684" lon="10.9310123"><ele>371.0</ele><time>2026-04-24T08:29:14.87Z</time></trkpt><trkpt lat="46.068273" lon="10.9311237"><ele>371.0</ele><time>2026-04-24T08:29:15.863Z</time></trkpt><trkpt lat="46.0682852" lon="10.9312215"><ele>371.0</ele><time>2026-04-24T08:29:16.859Z</time></trkpt><trkpt lat="46.0682998" lon="10.9313119"><ele>371.0</ele><time>2026-04-24T08:29:17.85Z</time></trkpt><trkpt lat="46.0683606" lon="10.9314273"><ele>371.0</ele><time>2026-04-24T08:29:19.86Z</time></trkpt><trkpt lat="46.068428" lon="10.9315397"><ele>371.0</ele><time>2026-04-24T08:29:21.808Z</time></trkpt><trkpt lat="46.0685299" lon="10.9315777"><ele>371.0</ele><time>2026-04-24T08:29:23.855Z</time></trkpt><trkpt lat="46.0685882" lon="10.9316603"><ele>371.0</ele><time>2026-04-24T08:29:26.848Z</time></trkpt><trkpt lat="46.0685799" lon="10.9318242"><ele>371.0</ele><time>2026-04-24T08:29:28.85Z</time></trkpt><trkpt lat="46.0685554" lon="10.9319894"><ele>371.0</ele><time>2026-04-24T08:29:30.86Z</time></trkpt><trkpt lat="46.0685602" lon="10.9321387"><ele>371.0</ele><time>2026-04-24T08:29:32.865Z</time></trkpt><trkpt lat="46.0685677" lon="10.9322636"><ele>371.0</ele><time>2026-04-24T08:29:34.867Z</time></trkpt><trkpt lat="46.068582" lon="10.9324015"><ele>371.0</ele><time>2026-04-24T08:29:36.896Z</time></trkpt><trkpt lat="46.0686182" lon="10.9325382"><ele>371.0</ele><time>2026-04-24T08:29:38.823Z</time></trkpt><trkpt lat="46.0686519" lon="10.9326622"><ele>371.0</ele><time>2026-04-24T08:29:40.802Z</time></trkpt><trkpt lat="46.068699" lon="10.9327674"><ele>371.0</ele><time>2026-04-24T08:29:42.857Z</time></trkpt><trkpt lat="46.0690221" lon="10.9331044"><ele>371.0</ele><time>2026-04-24T08:29:45.854Z</time></trkpt><trkpt lat="46.0690618" lon="10.9332069"><ele>371.0</ele><time>2026-04-24T08:29:47.894Z</time></trkpt><trkpt lat="46.0690379" lon="10.9331172"><ele>371.0</ele><time>2026-04-24T08:30:10.848Z</time></trkpt><trkpt lat="46.0690497" lon="10.9330232"><ele>371.0</ele><time>2026-04-24T08:30:21.87Z</time></trkpt><trkpt lat="46.0689667" lon="10.9330013"><ele>371.0</ele><time>2026-04-24T08:30:27.869Z</time></trkpt><trkpt lat="46.0689125" lon="10.9329212"><ele>371.0</ele><time>2026-04-24T08:30:30.891Z</time></trkpt><trkpt lat="46.0688552" lon="10.932832"><ele>371.0</ele><time>2026-04-24T08:30:33.889Z</time></trkpt><trkpt lat="46.0688024" lon="10.9326877"><ele>371.0</ele><time>2026-04-24T08:30:35.901Z</time></trkpt><trkpt lat="46.0687698" lon="10.9326059"><ele>371.0</ele><time>2026-04-24T08:30:36.898Z</time></trkpt><trkpt lat="46.0687159" lon="10.9324701"><ele>371.0</ele><time>2026-04-24T08:30:38.915Z</time></trkpt><trkpt lat="46.0686932" lon="10.9323548"><ele>371.0</ele><time>2026-04-24T08:30:40.864Z</time></trkpt><trkpt lat="46.0686823" lon="10.9322574"><ele>371.0</ele><time>2026-04-24T08:30:42.013Z</time></trkpt><trkpt lat="46.0686732" lon="10.9321325"><ele>371.0</ele><time>2026-04-24T08:30:43.875Z</time></trkpt><trkpt lat="46.0686833" lon="10.9320092"><ele>371.0</ele><time>2026-04-24T08:30:45.842Z</time></trkpt><trkpt lat="46.0686952" lon="10.9318884"><ele>371.0</ele><time>2026-04-24T08:30:47.993Z</time></trkpt><trkpt lat="46.0687029" lon="10.9317437"><ele>371.0</ele><time>2026-04-24T08:30:49.883Z</time></trkpt><trkpt lat="46.0686668" lon="10.9316663"><ele>371.0</ele><time>2026-04-24T08:30:51.855Z</time></trkpt><trkpt lat="46.0685885" lon="10.9316136"><ele>371.0</ele><time>2026-04-24T08:30:54.871Z</time></trkpt><trkpt lat="46.0684798" lon="10.9315701"><ele>371.0</ele><time>2026-04-24T08:30:57.892Z</time></trkpt><trkpt lat="46.0684041" lon="10.9315088"><ele>371.0</ele><time>2026-04-24T08:30:59.866Z</time></trkpt><trkpt lat="46.0683465" lon="10.9314171"><ele>371.0</ele><time>2026-04-24T08:31:01.846Z</time></trkpt><trkpt lat="46.0683193" lon="10.9313272"><ele>371.0</ele><time>2026-04-24T08:31:03.89Z</time></trkpt><trkpt lat="46.0682966" lon="10.9312035"><ele>371.0</ele><time>2026-04-24T08:31:06.935Z</time></trkpt><trkpt lat="46.0682954" lon="10.9310649"><ele>371.0</ele><time>2026-04-24T08:31:08.884Z</time></trkpt><trkpt lat="46.0682941" lon="10.9309702"><ele>371.0</ele><time>2026-04-24T08:31:09.874Z</time></trkpt><trkpt lat="46.068285" lon="10.9308449"><ele>371.0</ele><time>2026-04-24T08:31:11.902Z</time></trkpt><trkpt lat="46.0682808" lon="10.9306834"><ele>371.0</ele><time>2026-04-24T08:31:13.916Z</time></trkpt><trkpt lat="46.0682596" lon="10.9305172"><ele>371.0</ele><time>2026-04-24T08:31:15.886Z</time></trkpt><trkpt lat="46.0682432" lon="10.9303574"><ele>371.0</ele><time>2026-04-24T08:31:17.879Z</time></trkpt><trkpt lat="46.0682421" lon="10.9302178"><ele>371.0</ele><time>2026-04-24T08:31:19.877Z</time></trkpt><trkpt lat="46.068255" lon="10.9301167"><ele>371.0</ele><time>2026-04-24T08:31:21.848Z</time></trkpt><trkpt lat="46.0682876" lon="10.9300162"><ele>371.0</ele><time>2026-04-24T08:31:23.867Z</time></trkpt><trkpt lat="46.068358" lon="10.9298736"><ele>371.0</ele><time>2026-04-24T08:31:25.947Z</time></trkpt><trkpt lat="46.0684508" lon="10.9297552"><ele>371.0</ele><time>2026-04-24T08:31:27.871Z</time></trkpt><trkpt lat="46.0685294" lon="10.929655"><ele>371.0</ele><time>2026-04-24T08:31:29.898Z</time></trkpt><trkpt lat="46.068555" lon="10.9295323"><ele>371.0</ele><time>2026-04-24T08:31:31.91Z</time></trkpt><trkpt lat="46.0685326" lon="10.9293667"><ele>371.0</ele><time>2026-04-24T08:31:33.927Z</time></trkpt><trkpt lat="46.0685159" lon="10.9292664"><ele>371.0</ele><time>2026-04-24T08:31:34.999Z</time></trkpt><trkpt lat="46.0685017" lon="10.9290944"><ele>371.0</ele><time>2026-04-24T08:31:36.895Z</time></trkpt><trkpt lat="46.0684935" lon="10.9289501"><ele>371.0</ele><time>2026-04-24T08:31:38.869Z</time></trkpt><trkpt lat="46.0684776" lon="10.9287986"><ele>371.0</ele><time>2026-04-24T08:31:40.929Z</time></trkpt><trkpt lat="46.0684536" lon="10.9286618"><ele>371.0</ele><time>2026-04-24T08:31:42.924Z</time></trkpt><trkpt lat="46.0684293" lon="10.9285296"><ele>371.0</ele><time>2026-04-24T08:31:44.885Z</time></trkpt><trkpt lat="46.0684152" lon="10.9283982"><ele>371.0</ele><time>2026-04-24T08:31:46.874Z</time></trkpt><trkpt lat="46.0684281" lon="10.9283022"><ele>371.0</ele><time>2026-04-24T08:31:49.92Z</time></trkpt><trkpt lat="46.0684705" lon="10.928229"><ele>371.0</ele><time>2026-04-24T08:31:52.9Z</time></trkpt><trkpt lat="46.0685456" lon="10.9282538"><ele>371.0</ele><time>2026-04-24T08:31:55.87Z</time></trkpt><trkpt lat="46.0686213" lon="10.9283221"><ele>371.0</ele><time>2026-04-24T08:31:57.881Z</time></trkpt><trkpt lat="46.0686694" lon="10.9284628"><ele>371.0</ele><time>2026-04-24T08:31:59.88Z</time></trkpt><trkpt lat="46.0686701" lon="10.9285661"><ele>371.0</ele><time>2026-04-24T08:32:00.894Z</time></trkpt><trkpt lat="46.0687028" lon="10.9287576"><ele>371.0</ele><time>2026-04-24T08:32:03.869Z</time></trkpt><trkpt lat="46.068744" lon="10.9288742"><ele>371.0</ele><time>2026-04-24T08:32:05.905Z</time></trkpt><trkpt lat="46.0687872" lon="10.9289534"><ele>371.0</ele><time>2026-04-24T08:32:07.899Z</time></trkpt><trkpt lat="46.0688391" lon="10.9290197"><ele>371.0</ele><time>2026-04-24T08:32:09.878Z</time></trkpt><trkpt lat="46.0688606" lon="10.929112"><ele>371.0</ele><time>2026-04-24T08:32:11.894Z</time></trkpt><trkpt lat="46.0688706" lon="10.9292898"><ele>371.0</ele><time>2026-04-24T08:32:13.943Z</time></trkpt><trkpt lat="46.0689005" lon="10.9293801"><ele>371.0</ele><time>2026-04-24T08:32:14.878Z</time></trkpt><trkpt lat="46.0689407" lon="10.92945"><ele>371.0</ele><time>2026-04-24T08:32:15.877Z</time></trkpt><trkpt lat="46.0690309" lon="10.9295305"><ele>371.0</ele><time>2026-04-24T08:32:17.869Z</time></trkpt><trkpt lat="46.0691101" lon="10.9296252"><ele>371.0</ele><time>2026-04-24T08:32:19.884Z</time></trkpt><trkpt lat="46.0691883" lon="10.9297633"><ele>371.0</ele><time>2026-04-24T08:32:21.908Z</time></trkpt><trkpt lat="46.0692407" lon="10.9298997"><ele>371.0</ele><time>2026-04-24T08:32:24.078Z</time></trkpt><trkpt lat="46.0692964" lon="10.9300546"><ele>371.0</ele><time>2026-04-24T08:32:25.898Z</time></trkpt><trkpt lat="46.0693375" lon="10.930144"><ele>371.0</ele><time>2026-04-24T08:32:27.006Z</time></trkpt><trkpt lat="46.0693923" lon="10.9302984"><ele>371.0</ele><time>2026-04-24T08:32:28.929Z</time></trkpt><trkpt lat="46.0694457" lon="10.9304438"><ele>371.0</ele><time>2026-04-24T08:32:30.899Z</time></trkpt><trkpt lat="46.0695038" lon="10.9305954"><ele>371.0</ele><time>2026-04-24T08:32:32.874Z</time></trkpt><trkpt lat="46.0695579" lon="10.9306686"><ele>371.0</ele><time>2026-04-24T08:32:33.875Z</time></trkpt><trkpt lat="46.0696747" lon="10.9307592"><ele>371.0</ele><time>2026-04-24T08:32:35.907Z</time></trkpt><trkpt lat="46.0697362" lon="10.9307918"><ele>371.0</ele><time>2026-04-24T08:32:36.878Z</time></trkpt><trkpt lat="46.0698103" lon="10.9308261"><ele>371.0</ele><time>2026-04-24T08:32:38.04Z</time></trkpt><trkpt lat="46.0699031" lon="10.9308397"><ele>371.0</ele><time>2026-04-24T08:32:39.902Z</time></trkpt><trkpt lat="46.0699715" lon="10.9308069"><ele>371.0</ele><time>2026-04-24T08:32:41.891Z</time></trkpt><trkpt lat="46.070061" lon="10.930737"><ele>371.0</ele><time>2026-04-24T08:32:44.865Z</time></trkpt><trkpt lat="46.0701453" lon="10.9307427"><ele>371.0</ele><time>2026-04-24T08:32:46.867Z</time></trkpt><trkpt lat="46.0702285" lon="10.9308021"><ele>371.0</ele><time>2026-04-24T08:32:48.901Z</time></trkpt><trkpt lat="46.0702901" lon="10.9308364"><ele>371.0</ele><time>2026-04-24T08:32:50.885Z</time></trkpt><trkpt lat="46.0703684" lon="10.9309032"><ele>371.0</ele><time>2026-04-24T08:32:52.88Z</time></trkpt><trkpt lat="46.070425" lon="10.9309455"><ele>371.0</ele><time>2026-04-24T08:32:53.903Z</time></trkpt><trkpt lat="46.0705122" lon="10.9310051"><ele>371.0</ele><time>2026-04-24T08:32:55.857Z</time></trkpt><trkpt lat="46.0705957" lon="10.9310892"><ele>371.0</ele><time>2026-04-24T08:32:57.904Z</time></trkpt><trkpt lat="46.0706599" lon="10.9311954"><ele>371.0</ele><time>2026-04-24T08:32:59.919Z</time></trkpt><trkpt lat="46.0707382" lon="10.9312734"><ele>371.0</ele><time>2026-04-24T08:33:01.885Z</time></trkpt><trkpt lat="46.0708516" lon="10.9313752"><ele>371.0</ele><time>2026-04-24T08:33:03.902Z</time></trkpt><trkpt lat="46.0709283" lon="10.9314472"><ele>371.0</ele><time>2026-04-24T08:33:05.869Z</time></trkpt><trkpt lat="46.0710267" lon="10.9315277"><ele>371.0</ele><time>2026-04-24T08:33:08.027Z</time></trkpt><trkpt lat="46.0711098" lon="10.9316406"><ele>371.0</ele><time>2026-04-24T08:33:09.927Z</time></trkpt><trkpt lat="46.0712089" lon="10.9316956"><ele>371.0</ele><time>2026-04-24T08:33:11.859Z</time></trkpt><trkpt lat="46.0713316" lon="10.931767"><ele>371.0</ele><time>2026-04-24T08:33:13.986Z</time></trkpt><trkpt lat="46.0714317" lon="10.9318014"><ele>371.0</ele><time>2026-04-24T08:33:15.89Z</time></trkpt><trkpt lat="46.0715212" lon="10.9318045"><ele>371.0</ele><time>2026-04-24T08:33:17.914Z</time></trkpt><trkpt lat="46.0716007" lon="10.931801"><ele>371.0</ele><time>2026-04-24T08:33:19.903Z</time></trkpt><trkpt lat="46.0716626" lon="10.9318421"><ele>371.0</ele><time>2026-04-24T08:33:21.068Z</time></trkpt><trkpt lat="46.0717307" lon="10.9319768"><ele>371.0</ele><time>2026-04-24T08:33:22.899Z</time></trkpt><trkpt lat="46.0718136" lon="10.9320952"><ele>371.0</ele><time>2026-04-24T08:33:24.914Z</time></trkpt><trkpt lat="46.0718915" lon="10.9321519"><ele>371.0</ele><time>2026-04-24T08:33:26.893Z</time></trkpt><trkpt lat="46.0719714" lon="10.9322282"><ele>371.0</ele><time>2026-04-24T08:33:28.873Z</time></trkpt><trkpt lat="46.0720441" lon="10.9323324"><ele>371.0</ele><time>2026-04-24T08:33:30.868Z</time></trkpt><trkpt lat="46.0720854" lon="10.9324249"><ele>371.0</ele><time>2026-04-24T08:33:32.881Z</time></trkpt><trkpt lat="46.072138" lon="10.9325159"><ele>371.0</ele><time>2026-04-24T08:33:34.894Z</time></trkpt><trkpt lat="46.0722338" lon="10.9325786"><ele>371.0</ele><time>2026-04-24T08:33:36.875Z</time></trkpt><trkpt lat="46.0723194" lon="10.9325896"><ele>371.0</ele><time>2026-04-24T08:33:38.896Z</time></trkpt><trkpt lat="46.0724197" lon="10.9325673"><ele>371.0</ele><time>2026-04-24T08:33:40.898Z</time></trkpt><trkpt lat="46.0724864" lon="10.9325625"><ele>371.0</ele><time>2026-04-24T08:33:42.903Z</time></trkpt><trkpt lat="46.0725665" lon="10.9325888"><ele>371.0</ele><time>2026-04-24T08:33:44.871Z</time></trkpt><trkpt lat="46.0726515" lon="10.9326515"><ele>371.0</ele><time>2026-04-24T08:33:46.903Z</time></trkpt><trkpt lat="46.0727459" lon="10.9326527"><ele>371.0</ele><time>2026-04-24T08:33:48.882Z</time></trkpt><trkpt lat="46.072836" lon="10.9326264"><ele>371.0</ele><time>2026-04-24T08:33:50.873Z</time></trkpt><trkpt lat="46.0729098" lon="10.9326809"><ele>371.0</ele><time>2026-04-24T08:33:52.892Z</time></trkpt><trkpt lat="46.0729907" lon="10.9327697"><ele>371.0</ele><time>2026-04-24T08:33:54.899Z</time></trkpt><trkpt lat="46.0730704" lon="10.9328276"><ele>371.0</ele><time>2026-04-24T08:33:56.888Z</time></trkpt><trkpt lat="46.0731298" lon="10.9329253"><ele>371.0</ele><time>2026-04-24T08:33:58.891Z</time></trkpt><trkpt lat="46.0731769" lon="10.9330692"><ele>371.0</ele><time>2026-04-24T08:34:00.856Z</time></trkpt><trkpt lat="46.0733085" lon="10.9332361"><ele>371.0</ele><time>2026-04-24T08:34:03.852Z</time></trkpt><trkpt lat="46.0733608" lon="10.933303"><ele>371.0</ele><time>2026-04-24T08:34:04.862Z</time></trkpt><trkpt lat="46.0734171" lon="10.9333546"><ele>371.0</ele><time>2026-04-24T08:34:05.85Z</time></trkpt><trkpt lat="46.0735197" lon="10.9334273"><ele>371.0</ele><time>2026-04-24T08:34:07.851Z</time></trkpt><trkpt lat="46.0735863" lon="10.9334472"><ele>371.0</ele><time>2026-04-24T08:34:08.902Z</time></trkpt><trkpt lat="46.0737027" lon="10.9334263"><ele>371.0</ele><time>2026-04-24T08:34:10.854Z</time></trkpt><trkpt lat="46.0737711" lon="10.9333872"><ele>371.0</ele><time>2026-04-24T08:34:11.827Z</time></trkpt><trkpt lat="46.0738447" lon="10.933355"><ele>371.0</ele><time>2026-04-24T08:34:12.887Z</time></trkpt><trkpt lat="46.0739382" lon="10.9333141"><ele>371.0</ele><time>2026-04-24T08:34:14.882Z</time></trkpt><trkpt lat="46.0740112" lon="10.9332296"><ele>371.0</ele><time>2026-04-24T08:34:16.864Z</time></trkpt><trkpt lat="46.0741343" lon="10.933201"><ele>371.0</ele><time>2026-04-24T08:34:19.863Z</time></trkpt><trkpt lat="46.0742464" lon="10.9332392"><ele>371.0</ele><time>2026-04-24T08:34:21.894Z</time></trkpt><trkpt lat="46.0743096" lon="10.9332765"><ele>371.0</ele><time>2026-04-24T08:34:22.879Z</time></trkpt><trkpt lat="46.0743849" lon="10.9333595"><ele>371.0</ele><time>2026-04-24T08:34:24.87Z</time></trkpt><trkpt lat="46.0745065" lon="10.9334553"><ele>371.0</ele><time>2026-04-24T08:34:26.863Z</time></trkpt><trkpt lat="46.0745892" lon="10.9335407"><ele>371.0</ele><time>2026-04-24T08:34:27.883Z</time></trkpt><trkpt lat="46.0746408" lon="10.9336086"><ele>371.0</ele><time>2026-04-24T08:34:28.891Z</time></trkpt><trkpt lat="46.0747032" lon="10.9336526"><ele>371.0</ele><time>2026-04-24T08:34:29.893Z</time></trkpt><trkpt lat="46.07477" lon="10.9336891"><ele>371.0</ele><time>2026-04-24T08:34:30.882Z</time></trkpt><trkpt lat="46.0748443" lon="10.9337318"><ele>371.0</ele><time>2026-04-24T08:34:31.93Z</time></trkpt><trkpt lat="46.0749133" lon="10.9337711"><ele>371.0</ele><time>2026-04-24T08:34:32.989Z</time></trkpt><trkpt lat="46.0750305" lon="10.9338433"><ele>371.0</ele><time>2026-04-24T08:34:34.91Z</time></trkpt><trkpt lat="46.0751346" lon="10.9339343"><ele>371.0</ele><time>2026-04-24T08:34:36.878Z</time></trkpt><trkpt lat="46.0751844" lon="10.9339961"><ele>371.0</ele><time>2026-04-24T08:34:37.9Z</time></trkpt><trkpt lat="46.075269" lon="10.934135"><ele>371.0</ele><time>2026-04-24T08:34:39.911Z</time></trkpt><trkpt lat="46.0753348" lon="10.9342658"><ele>371.0</ele><time>2026-04-24T08:34:41.901Z</time></trkpt><trkpt lat="46.0753898" lon="10.934412"><ele>371.0</ele><time>2026-04-24T08:34:43.827Z</time></trkpt><trkpt lat="46.0754512" lon="10.9345615"><ele>371.0</ele><time>2026-04-24T08:34:45.862Z</time></trkpt><trkpt lat="46.0755104" lon="10.9346121"><ele>371.0</ele><time>2026-04-24T08:34:46.844Z</time></trkpt><trkpt lat="46.0755838" lon="10.9346582"><ele>371.0</ele><time>2026-04-24T08:34:47.91Z</time></trkpt><trkpt lat="46.0756966" lon="10.9347274"><ele>371.0</ele><time>2026-04-24T08:34:49.83Z</time></trkpt><trkpt lat="46.0757515" lon="10.934774"><ele>371.0</ele><time>2026-04-24T08:34:50.836Z</time></trkpt><trkpt lat="46.0758032" lon="10.9348314"><ele>371.0</ele><time>2026-04-24T08:34:51.82Z</time></trkpt><trkpt lat="46.0758516" lon="10.9348976"><ele>371.0</ele><time>2026-04-24T08:34:52.828Z</time></trkpt><trkpt lat="46.0759304" lon="10.9349964"><ele>371.0</ele><time>2026-04-24T08:34:54.862Z</time></trkpt><trkpt lat="46.0760072" lon="10.9349885"><ele>371.0</ele><time>2026-04-24T08:34:56.832Z</time></trkpt><trkpt lat="46.0760981" lon="10.9349295"><ele>371.0</ele><time>2026-04-24T08:34:58.812Z</time></trkpt><trkpt lat="46.0761695" lon="10.9349419"><ele>371.0</ele><time>2026-04-24T08:35:00.81Z</time></trkpt><trkpt lat="46.0762456" lon="10.9350299"><ele>371.0</ele><time>2026-04-24T08:35:02.842Z</time></trkpt><trkpt lat="46.0762969" lon="10.9351784"><ele>371.0</ele><time>2026-04-24T08:35:04.804Z</time></trkpt><trkpt lat="46.0763615" lon="10.9353141"><ele>371.0</ele><time>2026-04-24T08:35:06.822Z</time></trkpt><trkpt lat="46.0764387" lon="10.9354449"><ele>371.0</ele><time>2026-04-24T08:35:08.842Z</time></trkpt><trkpt lat="46.0764801" lon="10.9355219"><ele>371.0</ele><time>2026-04-24T08:35:09.804Z</time></trkpt><trkpt lat="46.0765222" lon="10.9356086"><ele>371.0</ele><time>2026-04-24T08:35:10.913Z</time></trkpt><trkpt lat="46.0766024" lon="10.9357434"><ele>371.0</ele><time>2026-04-24T08:35:12.791Z</time></trkpt><trkpt lat="46.0766528" lon="10.9357988"><ele>371.0</ele><time>2026-04-24T08:35:13.806Z</time></trkpt><trkpt lat="46.0767422" lon="10.9358671"><ele>371.0</ele><time>2026-04-24T08:35:15.84Z</time></trkpt><trkpt lat="46.0768569" lon="10.9359473"><ele>371.0</ele><time>2026-04-24T08:35:17.822Z</time></trkpt><trkpt lat="46.076921" lon="10.9359973"><ele>371.0</ele><time>2026-04-24T08:35:18.816Z</time></trkpt><trkpt lat="46.0769742" lon="10.9360564"><ele>371.0</ele><time>2026-04-24T08:35:19.812Z</time></trkpt><trkpt lat="46.07702" lon="10.9361207"><ele>371.0</ele><time>2026-04-24T08:35:20.801Z</time></trkpt><trkpt lat="46.0770802" lon="10.9362496"><ele>371.0</ele><time>2026-04-24T08:35:22.837Z</time></trkpt><trkpt lat="46.0771198" lon="10.9363299"><ele>371.0</ele><time>2026-04-24T08:35:23.873Z</time></trkpt><trkpt lat="46.0772129" lon="10.9363868"><ele>371.0</ele><time>2026-04-24T08:35:25.82Z</time></trkpt><trkpt lat="46.0773103" lon="10.9364262"><ele>371.0</ele><time>2026-04-24T08:35:27.834Z</time></trkpt><trkpt lat="46.0773747" lon="10.9365336"><ele>371.0</ele><time>2026-04-24T08:35:29.862Z</time></trkpt><trkpt lat="46.0774108" lon="10.9366912"><ele>371.0</ele><time>2026-04-24T08:35:31.931Z</time></trkpt><trkpt lat="46.0774192" lon="10.9367861"><ele>371.0</ele><time>2026-04-24T08:35:32.836Z</time></trkpt><trkpt lat="46.0774684" lon="10.9369087"><ele>371.0</ele><time>2026-04-24T08:35:34.821Z</time></trkpt><trkpt lat="46.0775163" lon="10.9369824"><ele>371.0</ele><time>2026-04-24T08:35:35.806Z</time></trkpt><trkpt lat="46.077603" lon="10.9370438"><ele>371.0</ele><time>2026-04-24T08:35:37.825Z</time></trkpt><trkpt lat="46.0777028" lon="10.9370758"><ele>371.0</ele><time>2026-04-24T08:35:39.835Z</time></trkpt><trkpt lat="46.0778247" lon="10.9370712"><ele>371.0</ele><time>2026-04-24T08:35:41.838Z</time></trkpt><trkpt lat="46.0779177" lon="10.9370023"><ele>371.0</ele><time>2026-04-24T08:35:43.805Z</time></trkpt><trkpt lat="46.0780014" lon="10.9369523"><ele>371.0</ele><time>2026-04-24T08:35:45.82Z</time></trkpt><trkpt lat="46.0780666" lon="10.937063"><ele>371.0</ele><time>2026-04-24T08:35:47.809Z</time></trkpt><trkpt lat="46.0781242" lon="10.9371134"><ele>371.0</ele><time>2026-04-24T08:35:50.832Z</time></trkpt><trkpt lat="46.0784787" lon="10.9377064"><ele>371.0</ele><time>2026-04-24T08:35:52.853Z</time></trkpt><trkpt lat="46.0785429" lon="10.9377913"><ele>371.0</ele><time>2026-04-24T08:35:53.875Z</time></trkpt><trkpt lat="46.0786056" lon="10.9378723"><ele>371.0</ele><time>2026-04-24T08:35:54.845Z</time></trkpt><trkpt lat="46.07868" lon="10.9379634"><ele>371.0</ele><time>2026-04-24T08:35:55.826Z</time></trkpt><trkpt lat="46.0787616" lon="10.9380488"><ele>371.0</ele><time>2026-04-24T08:35:56.829Z</time></trkpt><trkpt lat="46.0788376" lon="10.9381208"><ele>371.0</ele><time>2026-04-24T08:35:57.817Z</time></trkpt><trkpt lat="46.0789247" lon="10.9382055"><ele>371.0</ele><time>2026-04-24T08:35:58.917Z</time></trkpt><trkpt lat="46.0790579" lon="10.9383501"><ele>371.0</ele><time>2026-04-24T08:36:00.792Z</time></trkpt><trkpt lat="46.0791336" lon="10.9384352"><ele>371.0</ele><time>2026-04-24T08:36:01.802Z</time></trkpt><trkpt lat="46.079199" lon="10.9385125"><ele>371.0</ele><time>2026-04-24T08:36:02.816Z</time></trkpt><trkpt lat="46.0792581" lon="10.9385809"><ele>371.0</ele><time>2026-04-24T08:36:03.815Z</time></trkpt><trkpt lat="46.079319" lon="10.9387134"><ele>371.0</ele><time>2026-04-24T08:36:05.83Z</time></trkpt><trkpt lat="46.0793774" lon="10.938837"><ele>371.0</ele><time>2026-04-24T08:36:07.81Z</time></trkpt><trkpt lat="46.0794788" lon="10.9388875"><ele>371.0</ele><time>2026-04-24T08:36:09.804Z</time></trkpt><trkpt lat="46.0795889" lon="10.9389095"><ele>371.0</ele><time>2026-04-24T08:36:11.813Z</time></trkpt><trkpt lat="46.0796479" lon="10.93895"><ele>371.0</ele><time>2026-04-24T08:36:12.81Z</time></trkpt><trkpt lat="46.0797107" lon="10.9389905"><ele>371.0</ele><time>2026-04-24T08:36:13.814Z</time></trkpt><trkpt lat="46.0797691" lon="10.9390445"><ele>371.0</ele><time>2026-04-24T08:36:14.812Z</time></trkpt><trkpt lat="46.0798169" lon="10.939124"><ele>371.0</ele><time>2026-04-24T08:36:15.815Z</time></trkpt><trkpt lat="46.07986" lon="10.9392059"><ele>371.0</ele><time>2026-04-24T08:36:16.806Z</time></trkpt><trkpt lat="46.0799052" lon="10.9392895"><ele>371.0</ele><time>2026-04-24T08:36:17.803Z</time></trkpt><trkpt lat="46.0799495" lon="10.9393627"><ele>371.0</ele><time>2026-04-24T08:36:18.789Z</time></trkpt><trkpt lat="46.0800003" lon="10.939425"><ele>371.0</ele><time>2026-04-24T08:36:19.802Z</time></trkpt><trkpt lat="46.0800579" lon="10.9394641"><ele>371.0</ele><time>2026-04-24T08:36:20.795Z</time></trkpt><trkpt lat="46.0801331" lon="10.9394881"><ele>371.0</ele><time>2026-04-24T08:36:21.797Z</time></trkpt><trkpt lat="46.0802103" lon="10.9394903"><ele>371.0</ele><time>2026-04-24T08:36:22.805Z</time></trkpt><trkpt lat="46.0802942" lon="10.9394832"><ele>371.0</ele><time>2026-04-24T08:36:23.899Z</time></trkpt><trkpt lat="46.0804209" lon="10.939532"><ele>371.0</ele><time>2026-04-24T08:36:25.818Z</time></trkpt><trkpt lat="46.0804946" lon="10.9395815"><ele>371.0</ele><time>2026-04-24T08:36:26.809Z</time></trkpt><trkpt lat="46.0805806" lon="10.939644"><ele>371.0</ele><time>2026-04-24T08:36:27.815Z</time></trkpt><trkpt lat="46.080666" lon="10.9397178"><ele>371.0</ele><time>2026-04-24T08:36:28.818Z</time></trkpt><trkpt lat="46.0807613" lon="10.9397894"><ele>371.0</ele><time>2026-04-24T08:36:29.807Z</time></trkpt><trkpt lat="46.080863" lon="10.939862"><ele>371.0</ele><time>2026-04-24T08:36:30.852Z</time></trkpt><trkpt lat="46.0809563" lon="10.9399358"><ele>371.0</ele><time>2026-04-24T08:36:31.817Z</time></trkpt><trkpt lat="46.0810541" lon="10.9400052"><ele>371.0</ele><time>2026-04-24T08:36:32.826Z</time></trkpt><trkpt lat="46.0811451" lon="10.9400863"><ele>371.0</ele><time>2026-04-24T08:36:33.815Z</time></trkpt><trkpt lat="46.0812368" lon="10.9401697"><ele>371.0</ele><time>2026-04-24T08:36:34.822Z</time></trkpt><trkpt lat="46.0813304" lon="10.9402402"><ele>371.0</ele><time>2026-04-24T08:36:35.864Z</time></trkpt><trkpt lat="46.0814127" lon="10.9403005"><ele>371.0</ele><time>2026-04-24T08:36:36.787Z</time></trkpt><trkpt lat="46.081497" lon="10.9403754"><ele>371.0</ele><time>2026-04-24T08:36:37.816Z</time></trkpt><trkpt lat="46.0815802" lon="10.9404301"><ele>371.0</ele><time>2026-04-24T08:36:38.803Z</time></trkpt><trkpt lat="46.0816538" lon="10.9404796"><ele>371.0</ele><time>2026-04-24T08:36:39.816Z</time></trkpt><trkpt lat="46.0817194" lon="10.9405202"><ele>371.0</ele><time>2026-04-24T08:36:40.831Z</time></trkpt><trkpt lat="46.0817791" lon="10.9405553"><ele>371.0</ele><time>2026-04-24T08:36:41.828Z</time></trkpt><trkpt lat="46.0818367" lon="10.9405937"><ele>371.0</ele><time>2026-04-24T08:36:42.822Z</time></trkpt><trkpt lat="46.0819255" lon="10.9407093"><ele>371.0</ele><time>2026-04-24T08:36:44.791Z</time></trkpt><trkpt lat="46.0819754" lon="10.9408083"><ele>371.0</ele><time>2026-04-24T08:36:45.799Z</time></trkpt><trkpt lat="46.0820282" lon="10.9409184"><ele>371.0</ele><time>2026-04-24T08:36:46.9Z</time></trkpt><trkpt lat="46.082105" lon="10.9411126"><ele>371.0</ele><time>2026-04-24T08:36:48.819Z</time></trkpt><trkpt lat="46.0822072" lon="10.9412227"><ele>371.0</ele><time>2026-04-24T08:36:50.928Z</time></trkpt><trkpt lat="46.0823169" lon="10.941257"><ele>371.0</ele><time>2026-04-24T08:36:52.805Z</time></trkpt><trkpt lat="46.082383" lon="10.941267"><ele>371.0</ele><time>2026-04-24T08:36:53.8Z</time></trkpt><trkpt lat="46.0824856" lon="10.9412842"><ele>371.0</ele><time>2026-04-24T08:36:54.909Z</time></trkpt><trkpt lat="46.0826139" lon="10.9413176"><ele>371.0</ele><time>2026-04-24T08:36:56.825Z</time></trkpt><trkpt lat="46.0826835" lon="10.9413582"><ele>371.0</ele><time>2026-04-24T08:36:57.811Z</time></trkpt><trkpt lat="46.0827593" lon="10.9414178"><ele>371.0</ele><time>2026-04-24T08:36:58.824Z</time></trkpt><trkpt lat="46.0828355" lon="10.9415015"><ele>371.0</ele><time>2026-04-24T08:36:59.782Z</time></trkpt><trkpt lat="46.0829146" lon="10.9416107"><ele>371.0</ele><time>2026-04-24T08:37:00.825Z</time></trkpt><trkpt lat="46.0829918" lon="10.9417053"><ele>371.0</ele><time>2026-04-24T08:37:01.809Z</time></trkpt><trkpt lat="46.0830691" lon="10.941784"><ele>371.0</ele><time>2026-04-24T08:37:02.833Z</time></trkpt><trkpt lat="46.083122" lon="10.941839"><ele>371.0</ele><time>2026-04-24T08:37:03.814Z</time></trkpt><trkpt lat="46.0831899" lon="10.9419622"><ele>371.0</ele><time>2026-04-24T08:37:05.831Z</time></trkpt><trkpt lat="46.0832192" lon="10.942098"><ele>371.0</ele><time>2026-04-24T08:37:07.816Z</time></trkpt><trkpt lat="46.0832658" lon="10.9422451"><ele>371.0</ele><time>2026-04-24T08:37:09.789Z</time></trkpt><trkpt lat="46.0833123" lon="10.9423178"><ele>371.0</ele><time>2026-04-24T08:37:10.916Z</time></trkpt><trkpt lat="46.0834279" lon="10.9424128"><ele>371.0</ele><time>2026-04-24T08:37:12.828Z</time></trkpt><trkpt lat="46.0834911" lon="10.9424634"><ele>371.0</ele><time>2026-04-24T08:37:13.802Z</time></trkpt><trkpt lat="46.0835545" lon="10.942525"><ele>371.0</ele><time>2026-04-24T08:37:14.796Z</time></trkpt><trkpt lat="46.0836193" lon="10.9425856"><ele>371.0</ele><time>2026-04-24T08:37:15.839Z</time></trkpt><trkpt lat="46.0836831" lon="10.9426254"><ele>438.1428571428571</ele><time>2026-04-24T08:37:16.812Z</time></trkpt><trkpt lat="46.0837473" lon="10.9426699"><ele>505.2857142857143</ele><time>2026-04-24T08:37:17.812Z</time></trkpt><trkpt lat="46.0838123" lon="10.9427158"><ele>572.4285714285714</ele><time>2026-04-24T08:37:18.817Z</time></trkpt><trkpt lat="46.0838782" lon="10.9427647"><ele>639.5714285714286</ele><time>2026-04-24T08:37:19.816Z</time></trkpt><trkpt lat="46.0839442" lon="10.9428062"><ele>706.7142857142857</ele><time>2026-04-24T08:37:20.805Z</time></trkpt><trkpt lat="46.0840116" lon="10.9428464"><ele>773.8571428571429</ele><time>2026-04-24T08:37:21.799Z</time></trkpt><trkpt lat="46.0840862" lon="10.9428887"><ele>841.0</ele><time>2026-04-24T08:37:22.818Z</time></trkpt><trkpt lat="46.0841543" lon="10.9429295"><ele>840.9999999999999</ele><time>2026-04-24T08:37:23.814Z</time></trkpt><trkpt lat="46.084217" lon="10.9429708"><ele>841.0</ele><time>2026-04-24T08:37:24.81Z</time></trkpt><trkpt lat="46.0842848" lon="10.9430229"><ele>841.0</ele><time>2026-04-24T08:37:25.819Z</time></trkpt><trkpt lat="46.0843509" lon="10.9430866"><ele>841.0</ele><time>2026-04-24T08:37:26.814Z</time></trkpt><trkpt lat="46.0844174" lon="10.9431563"><ele>840.9999999999999</ele><time>2026-04-24T08:37:27.804Z</time></trkpt><trkpt lat="46.084492" lon="10.9432244"><ele>841.0</ele><time>2026-04-24T08:37:28.798Z</time></trkpt><trkpt lat="46.0845707" lon="10.9432861"><ele>841.0</ele><time>2026-04-24T08:37:29.831Z</time></trkpt><trkpt lat="46.0846499" lon="10.943352"><ele>841.0</ele><time>2026-04-24T08:37:30.802Z</time></trkpt><trkpt lat="46.0847348" lon="10.9434263"><ele>841.0</ele><time>2026-04-24T08:37:31.84Z</time></trkpt><trkpt lat="46.0848097" lon="10.9434988"><ele>841.0</ele><time>2026-04-24T08:37:32.818Z</time></trkpt><trkpt lat="46.0848812" lon="10.9435704"><ele>841.0</ele><time>2026-04-24T08:37:33.8Z</time></trkpt><trkpt lat="46.0849614" lon="10.9436306"><ele>843.1999999999999</ele><time>2026-04-24T08:37:34.814Z</time></trkpt><trkpt lat="46.0850489" lon="10.9436787"><ele>845.4</ele><time>2026-04-24T08:37:35.805Z</time></trkpt><trkpt lat="46.0851373" lon="10.9437129"><ele>847.6</ele><time>2026-04-24T08:37:36.818Z</time></trkpt><trkpt lat="46.0852319" lon="10.9437317"><ele>849.8</ele><time>2026-04-24T08:37:37.814Z</time></trkpt><trkpt lat="46.085328" lon="10.94374"><ele>852.0</ele><time>2026-04-24T08:37:38.808Z</time></trkpt><trkpt lat="46.0854257" lon="10.9437381"><ele>852.0</ele><time>2026-04-24T08:37:39.844Z</time></trkpt><trkpt lat="46.0855097" lon="10.9437383"><ele>852.0</ele><time>2026-04-24T08:37:40.834Z</time></trkpt><trkpt lat="46.0855876" lon="10.9437373"><ele>852.0</ele><time>2026-04-24T08:37:41.828Z</time></trkpt><trkpt lat="46.085668" lon="10.943748"><ele>852.0</ele><time>2026-04-24T08:37:42.815Z</time></trkpt><trkpt lat="46.0857554" lon="10.9437868"><ele>852.0</ele><time>2026-04-24T08:37:43.828Z</time></trkpt><trkpt lat="46.0858366" lon="10.9438427"><ele>852.0</ele><time>2026-04-24T08:37:44.802Z</time></trkpt><trkpt lat="46.085913" lon="10.9439114"><ele>849.4000000000001</ele><time>2026-04-24T08:37:45.809Z</time></trkpt><trkpt lat="46.0859808" lon="10.943987"><ele>846.8000000000001</ele><time>2026-04-24T08:37:46.822Z</time></trkpt><trkpt lat="46.0860542" lon="10.944042"><ele>844.2</ele><time>2026-04-24T08:37:47.817Z</time></trkpt><trkpt lat="46.0861305" lon="10.9440765"><ele>841.6</ele><time>2026-04-24T08:37:48.916Z</time></trkpt><trkpt lat="46.0862847" lon="10.9440487"><ele>839.0</ele><time>2026-04-24T08:37:50.848Z</time></trkpt><trkpt lat="46.0863586" lon="10.9440087"><ele>839.0000000000001</ele><time>2026-04-24T08:37:51.807Z</time></trkpt><trkpt lat="46.0864397" lon="10.943965"><ele>839.0</ele><time>2026-04-24T08:37:52.839Z</time></trkpt><trkpt lat="46.0865031" lon="10.9439077"><ele>839.0</ele><time>2026-04-24T08:37:53.808Z</time></trkpt><trkpt lat="46.0865623" lon="10.9438472"><ele>839.0</ele><time>2026-04-24T08:37:54.819Z</time></trkpt><trkpt lat="46.0866238" lon="10.9437764"><ele>839.0000000000001</ele><time>2026-04-24T08:37:55.921Z</time></trkpt><trkpt lat="46.0867346" lon="10.9436896"><ele>839.0</ele><time>2026-04-24T08:37:57.809Z</time></trkpt><trkpt lat="46.0868093" lon="10.943658"><ele>838.1666666666667</ele><time>2026-04-24T08:37:58.823Z</time></trkpt><trkpt lat="46.086886" lon="10.9436272"><ele>837.3333333333334</ele><time>2026-04-24T08:37:59.816Z</time></trkpt><trkpt lat="46.0869574" lon="10.9435834"><ele>836.5</ele><time>2026-04-24T08:38:00.819Z</time></trkpt><trkpt lat="46.08707" lon="10.9435372"><ele>835.6666666666667</ele><time>2026-04-24T08:38:02.828Z</time></trkpt><trkpt lat="46.0871344" lon="10.943549"><ele>834.8333333333334</ele><time>2026-04-24T08:38:03.814Z</time></trkpt><trkpt lat="46.087209" lon="10.943595"><ele>834.0</ele><time>2026-04-24T08:38:04.834Z</time></trkpt><trkpt lat="46.0872779" lon="10.9436206"><ele>834.0</ele><time>2026-04-24T08:38:05.827Z</time></trkpt><trkpt lat="46.0873516" lon="10.9436173"><ele>834.0</ele><time>2026-04-24T08:38:06.831Z</time></trkpt><trkpt lat="46.0874273" lon="10.9435884"><ele>834.0</ele><time>2026-04-24T08:38:07.953Z</time></trkpt><trkpt lat="46.0875644" lon="10.9434696"><ele>834.0</ele><time>2026-04-24T08:38:09.827Z</time></trkpt><trkpt lat="46.0876385" lon="10.9433932"><ele>834.0</ele><time>2026-04-24T08:38:10.824Z</time></trkpt><trkpt lat="46.0877069" lon="10.9432831"><ele>830.8333333333334</ele><time>2026-04-24T08:38:11.834Z</time></trkpt><trkpt lat="46.0877759" lon="10.943181"><ele>827.6666666666667</ele><time>2026-04-24T08:38:12.82Z</time></trkpt><trkpt lat="46.0878461" lon="10.9431041"><ele>824.5</ele><time>2026-04-24T08:38:13.796Z</time></trkpt><trkpt lat="46.0879292" lon="10.943041"><ele>821.3333333333334</ele><time>2026-04-24T08:38:14.828Z</time></trkpt><trkpt lat="46.088003" lon="10.9429893"><ele>818.1666666666667</ele><time>2026-04-24T08:38:15.813Z</time></trkpt><trkpt lat="46.0880601" lon="10.9429484"><ele>815.0</ele><time>2026-04-24T08:38:16.808Z</time></trkpt><trkpt lat="46.088181" lon="10.9429354"><ele>815.0000000000001</ele><time>2026-04-24T08:38:18.842Z</time></trkpt><trkpt lat="46.0882428" lon="10.9429649"><ele>815.0</ele><time>2026-04-24T08:38:19.816Z</time></trkpt><trkpt lat="46.088305" lon="10.9429835"><ele>815.0</ele><time>2026-04-24T08:38:20.833Z</time></trkpt><trkpt lat="46.0884076" lon="10.942887"><ele>815.0</ele><time>2026-04-24T08:38:22.831Z</time></trkpt><trkpt lat="46.0884455" lon="10.9428128"><ele>815.0000000000001</ele><time>2026-04-24T08:38:23.803Z</time></trkpt><trkpt lat="46.0884885" lon="10.94272"><ele>815.0</ele><time>2026-04-24T08:38:24.81Z</time></trkpt><trkpt lat="46.0885461" lon="10.9426517"><ele>819.6</ele><time>2026-04-24T08:38:25.813Z</time></trkpt><trkpt lat="46.0886583" lon="10.9425742"><ele>824.2</ele><time>2026-04-24T08:38:27.85Z</time></trkpt><trkpt lat="46.0887424" lon="10.9425699"><ele>828.8</ele><time>2026-04-24T08:38:28.833Z</time></trkpt><trkpt lat="46.088816" lon="10.9425861"><ele>833.4</ele><time>2026-04-24T08:38:29.825Z</time></trkpt><trkpt lat="46.0888967" lon="10.9426211"><ele>838.0</ele><time>2026-04-24T08:38:30.817Z</time></trkpt><trkpt lat="46.0889837" lon="10.9426738"><ele>837.9999999999999</ele><time>2026-04-24T08:38:31.883Z</time></trkpt><trkpt lat="46.089062" lon="10.942728"><ele>838.0</ele><time>2026-04-24T08:38:32.874Z</time></trkpt><trkpt lat="46.0891386" lon="10.9427855"><ele>838.0</ele><time>2026-04-24T08:38:33.857Z</time></trkpt><trkpt lat="46.0892152" lon="10.9428449"><ele>838.0</ele><time>2026-04-24T08:38:34.857Z</time></trkpt><trkpt lat="46.0892794" lon="10.9428992"><ele>837.9999999999999</ele><time>2026-04-24T08:38:35.831Z</time></trkpt><trkpt lat="46.0893425" lon="10.942968"><ele>838.0</ele><time>2026-04-24T08:38:36.865Z</time></trkpt><trkpt lat="46.0894035" lon="10.9430481"><ele>839.8333333333333</ele><time>2026-04-24T08:38:37.839Z</time></trkpt><trkpt lat="46.0894766" lon="10.9431386"><ele>841.6666666666666</ele><time>2026-04-24T08:38:38.87Z</time></trkpt><trkpt lat="46.0895512" lon="10.9432051"><ele>843.5</ele><time>2026-04-24T08:38:39.838Z</time></trkpt><trkpt lat="46.0896257" lon="10.9432686"><ele>845.3333333333333</ele><time>2026-04-24T08:38:40.838Z</time></trkpt><trkpt lat="46.0896781" lon="10.9433328"><ele>847.1666666666666</ele><time>2026-04-24T08:38:41.848Z</time></trkpt><trkpt lat="46.0897328" lon="10.943393"><ele>849.0</ele><time>2026-04-24T08:38:42.872Z</time></trkpt><trkpt lat="46.0897935" lon="10.943445"><ele>851.0</ele><time>2026-04-24T08:38:43.88Z</time></trkpt><trkpt lat="46.0898508" lon="10.9434957"><ele>853.0</ele><time>2026-04-24T08:38:44.838Z</time></trkpt><trkpt lat="46.0899109" lon="10.9435508"><ele>855.0</ele><time>2026-04-24T08:38:45.88Z</time></trkpt><trkpt lat="46.0900201" lon="10.9435952"><ele>857.0</ele><time>2026-04-24T08:38:47.809Z</time></trkpt><trkpt lat="46.0901033" lon="10.9435768"><ele>859.0</ele><time>2026-04-24T08:38:48.817Z</time></trkpt><trkpt lat="46.0901858" lon="10.943552"><ele>861.0</ele><time>2026-04-24T08:38:49.815Z</time></trkpt><trkpt lat="46.0902582" lon="10.9435391"><ele>861.0</ele><time>2026-04-24T08:38:50.847Z</time></trkpt><trkpt lat="46.0903327" lon="10.9435418"><ele>860.9999999999999</ele><time>2026-04-24T08:38:51.836Z</time></trkpt><trkpt lat="46.090398" lon="10.9435499"><ele>860.9999999999999</ele><time>2026-04-24T08:38:52.834Z</time></trkpt><trkpt lat="46.0905214" lon="10.94361"><ele>861.0</ele><time>2026-04-24T08:38:54.812Z</time></trkpt><trkpt lat="46.0905914" lon="10.9436608"><ele>861.0</ele><time>2026-04-24T08:38:55.871Z</time></trkpt><trkpt lat="46.0906907" lon="10.9437915"><ele>861.0</ele><time>2026-04-24T08:38:57.859Z</time></trkpt><trkpt lat="46.0907314" lon="10.9438672"><ele>861.0</ele><time>2026-04-24T08:38:58.852Z</time></trkpt><trkpt lat="46.0907835" lon="10.943954"><ele>861.0</ele><time>2026-04-24T08:38:59.84Z</time></trkpt><trkpt lat="46.0908331" lon="10.9440327"><ele>861.0</ele><time>2026-04-24T08:39:00.869Z</time></trkpt><trkpt lat="46.0908957" lon="10.944112"><ele>861.0</ele><time>2026-04-24T08:39:01.833Z</time></trkpt><trkpt lat="46.0909634" lon="10.9441865"><ele>861.0</ele><time>2026-04-24T08:39:02.82Z</time></trkpt><trkpt lat="46.0910263" lon="10.9442599"><ele>863.1666666666666</ele><time>2026-04-24T08:39:03.827Z</time></trkpt><trkpt lat="46.091083" lon="10.944316"><ele>865.3333333333333</ele><time>2026-04-24T08:39:04.83Z</time></trkpt><trkpt lat="46.0911946" lon="10.9443666"><ele>867.5</ele><time>2026-04-24T08:39:06.812Z</time></trkpt><trkpt lat="46.0912775" lon="10.9443631"><ele>869.6666666666666</ele><time>2026-04-24T08:39:07.872Z</time></trkpt><trkpt lat="46.0913361" lon="10.9443014"><ele>871.8333333333333</ele><time>2026-04-24T08:39:08.831Z</time></trkpt><trkpt lat="46.0913888" lon="10.9442506"><ele>874.0</ele><time>2026-04-24T08:39:09.815Z</time></trkpt><trkpt lat="46.0915033" lon="10.9442582"><ele>874.0</ele><time>2026-04-24T08:39:11.824Z</time></trkpt><trkpt lat="46.0915752" lon="10.9442781"><ele>874.0</ele><time>2026-04-24T08:39:12.858Z</time></trkpt><trkpt lat="46.0916375" lon="10.9443085"><ele>874.0</ele><time>2026-04-24T08:39:13.811Z</time></trkpt><trkpt lat="46.0917072" lon="10.9443452"><ele>874.0</ele><time>2026-04-24T08:39:14.818Z</time></trkpt><trkpt lat="46.0917693" lon="10.9443822"><ele>874.0</ele><time>2026-04-24T08:39:15.812Z</time></trkpt><trkpt lat="46.0918389" lon="10.9444156"><ele>874.0</ele><time>2026-04-24T08:39:16.826Z</time></trkpt><trkpt lat="46.0919133" lon="10.9444452"><ele>874.0</ele><time>2026-04-24T08:39:17.842Z</time></trkpt><trkpt lat="46.092031" lon="10.9444951"><ele>869.0</ele><time>2026-04-24T08:39:19.816Z</time></trkpt><trkpt lat="46.0921868" lon="10.9445831"><ele>864.0000000000001</ele><time>2026-04-24T08:39:22.839Z</time></trkpt><trkpt lat="46.0922752" lon="10.9446857"><ele>859.0</ele><time>2026-04-24T08:39:24.803Z</time></trkpt><trkpt lat="46.092327" lon="10.9447403"><ele>854.0</ele><time>2026-04-24T08:39:25.834Z</time></trkpt><trkpt lat="46.0924044" lon="10.9448186"><ele>849.0</ele><time>2026-04-24T08:39:27.843Z</time></trkpt><trkpt lat="46.0924687" lon="10.9449092"><ele>848.2</ele><time>2026-04-24T08:39:29.838Z</time></trkpt><trkpt lat="46.0925411" lon="10.9449439"><ele>847.4000000000001</ele><time>2026-04-24T08:39:31.808Z</time></trkpt><trkpt lat="46.0926341" lon="10.9449542"><ele>846.6</ele><time>2026-04-24T08:39:33.839Z</time></trkpt><trkpt lat="46.0927498" lon="10.9449595"><ele>845.8</ele><time>2026-04-24T08:39:35.829Z</time></trkpt><trkpt lat="46.0928483" lon="10.9449539"><ele>845.0</ele><time>2026-04-24T08:39:37.889Z</time></trkpt><trkpt lat="46.0929548" lon="10.9449831"><ele>845.0000000000001</ele><time>2026-04-24T08:39:39.818Z</time></trkpt><trkpt lat="46.0930384" lon="10.9450322"><ele>845.0</ele><time>2026-04-24T08:39:41.815Z</time></trkpt><trkpt lat="46.0931426" lon="10.9450972"><ele>845.0</ele><time>2026-04-24T08:39:43.822Z</time></trkpt><trkpt lat="46.0932449" lon="10.945161"><ele>845.0</ele><time>2026-04-24T08:39:45.812Z</time></trkpt><trkpt lat="46.0933046" lon="10.9451974"><ele>845.0000000000001</ele><time>2026-04-24T08:39:46.824Z</time></trkpt><trkpt lat="46.0933607" lon="10.9452419"><ele>845.0</ele><time>2026-04-24T08:39:47.818Z</time></trkpt><trkpt lat="46.0934296" lon="10.9453096"><ele>844.3333333333334</ele><time>2026-04-24T08:39:48.801Z</time></trkpt><trkpt lat="46.0934996" lon="10.9453559"><ele>843.6666666666667</ele><time>2026-04-24T08:39:49.805Z</time></trkpt><trkpt lat="46.093579" lon="10.9453895"><ele>843.0</ele><time>2026-04-24T08:39:50.809Z</time></trkpt><trkpt lat="46.0936613" lon="10.9454194"><ele>842.3333333333333</ele><time>2026-04-24T08:39:51.804Z</time></trkpt><trkpt lat="46.0937437" lon="10.9454526"><ele>841.6666666666666</ele><time>2026-04-24T08:39:52.821Z</time></trkpt><trkpt lat="46.0938163" lon="10.9454817"><ele>841.0</ele><time>2026-04-24T08:39:53.804Z</time></trkpt><trkpt lat="46.0938787" lon="10.9455012"><ele>840.9999999999999</ele><time>2026-04-24T08:39:54.795Z</time></trkpt><trkpt lat="46.0939569" lon="10.9455199"><ele>841.0</ele><time>2026-04-24T08:39:55.909Z</time></trkpt><trkpt lat="46.0940842" lon="10.9455077"><ele>841.0</ele><time>2026-04-24T08:39:57.833Z</time></trkpt><trkpt lat="46.0941496" lon="10.9455045"><ele>841.0</ele><time>2026-04-24T08:39:58.812Z</time></trkpt><trkpt lat="46.094215" lon="10.9455077"><ele>840.9999999999999</ele><time>2026-04-24T08:39:59.856Z</time></trkpt><trkpt lat="46.0942803" lon="10.9455097"><ele>841.0</ele><time>2026-04-24T08:40:00.801Z</time></trkpt><trkpt lat="46.0943538" lon="10.9455016"><ele>841.8333333333333</ele><time>2026-04-24T08:40:01.803Z</time></trkpt><trkpt lat="46.094427" lon="10.9454975"><ele>842.6666666666666</ele><time>2026-04-24T08:40:02.809Z</time></trkpt><trkpt lat="46.0945101" lon="10.9454963"><ele>843.5</ele><time>2026-04-24T08:40:03.807Z</time></trkpt><trkpt lat="46.0945875" lon="10.9454917"><ele>844.3333333333333</ele><time>2026-04-24T08:40:04.814Z</time></trkpt><trkpt lat="46.0946756" lon="10.9454715"><ele>845.1666666666666</ele><time>2026-04-24T08:40:05.823Z</time></trkpt><trkpt lat="46.0947692" lon="10.9454452"><ele>846.0</ele><time>2026-04-24T08:40:06.806Z</time></trkpt><trkpt lat="46.0948636" lon="10.9454136"><ele>847.5999999999999</ele><time>2026-04-24T08:40:07.839Z</time></trkpt><trkpt lat="46.0949494" lon="10.945379"><ele>849.2</ele><time>2026-04-24T08:40:08.82Z</time></trkpt><trkpt lat="46.0950422" lon="10.9453404"><ele>850.8000000000001</ele><time>2026-04-24T08:40:09.84Z</time></trkpt><trkpt lat="46.0951281" lon="10.9452944"><ele>852.4000000000001</ele><time>2026-04-24T08:40:10.823Z</time></trkpt><trkpt lat="46.0952144" lon="10.9452475"><ele>854.0</ele><time>2026-04-24T08:40:11.797Z</time></trkpt><trkpt lat="46.0952945" lon="10.9451961"><ele>854.0000000000001</ele><time>2026-04-24T08:40:12.856Z</time></trkpt><trkpt lat="46.0953729" lon="10.945151"><ele>854.0</ele><time>2026-04-24T08:40:13.885Z</time></trkpt><trkpt lat="46.0954343" lon="10.9451101"><ele>854.0</ele><time>2026-04-24T08:40:14.83Z</time></trkpt><trkpt lat="46.0955039" lon="10.9450533"><ele>854.0</ele><time>2026-04-24T08:40:15.889Z</time></trkpt><trkpt lat="46.0955629" lon="10.9449849"><ele>854.0000000000001</ele><time>2026-04-24T08:40:16.88Z</time></trkpt><trkpt lat="46.0956129" lon="10.944897"><ele>854.0</ele><time>2026-04-24T08:40:17.813Z</time></trkpt><trkpt lat="46.0956601" lon="10.9447811"><ele>854.75</ele><time>2026-04-24T08:40:18.803Z</time></trkpt><trkpt lat="46.0957115" lon="10.9446658"><ele>855.5</ele><time>2026-04-24T08:40:19.807Z</time></trkpt><trkpt lat="46.0957621" lon="10.9445489"><ele>856.25</ele><time>2026-04-24T08:40:20.829Z</time></trkpt><trkpt lat="46.0958127" lon="10.9444022"><ele>857.0</ele><time>2026-04-24T08:40:21.925Z</time></trkpt><trkpt lat="46.0958886" lon="10.944129"><ele>854.25</ele><time>2026-04-24T08:40:23.845Z</time></trkpt><trkpt lat="46.095934" lon="10.9439798"><ele>851.5</ele><time>2026-04-24T08:40:24.837Z</time></trkpt><trkpt lat="46.0959825" lon="10.943826"><ele>848.75</ele><time>2026-04-24T08:40:25.828Z</time></trkpt><trkpt lat="46.0960276" lon="10.9436405"><ele>846.0</ele><time>2026-04-24T08:40:27.014Z</time></trkpt><trkpt lat="46.0960805" lon="10.9433887"><ele>842.8</ele><time>2026-04-24T08:40:28.833Z</time></trkpt><trkpt lat="46.0961099" lon="10.943244"><ele>839.5999999999999</ele><time>2026-04-24T08:40:29.804Z</time></trkpt><trkpt lat="46.0961266" lon="10.9430953"><ele>836.4</ele><time>2026-04-24T08:40:30.816Z</time></trkpt><trkpt lat="46.0961423" lon="10.9429481"><ele>833.2</ele><time>2026-04-24T08:40:31.823Z</time></trkpt><trkpt lat="46.0961543" lon="10.9428006"><ele>830.0</ele><time>2026-04-24T08:40:32.818Z</time></trkpt><trkpt lat="46.0961579" lon="10.942656"><ele>828.6</ele><time>2026-04-24T08:40:33.849Z</time></trkpt><trkpt lat="46.0961667" lon="10.9425176"><ele>827.2</ele><time>2026-04-24T08:40:34.811Z</time></trkpt><trkpt lat="46.0961734" lon="10.9423824"><ele>825.8</ele><time>2026-04-24T08:40:35.828Z</time></trkpt><trkpt lat="46.0961727" lon="10.9422513"><ele>824.4</ele><time>2026-04-24T08:40:36.814Z</time></trkpt><trkpt lat="46.0961675" lon="10.9421074"><ele>823.0</ele><time>2026-04-24T08:40:37.871Z</time></trkpt><trkpt lat="46.0961528" lon="10.9419722"><ele>823.0</ele><time>2026-04-24T08:40:38.845Z</time></trkpt><trkpt lat="46.0961254" lon="10.9418226"><ele>823.0</ele><time>2026-04-24T08:40:39.832Z</time></trkpt><trkpt lat="46.0960996" lon="10.9416712"><ele>823.0</ele><time>2026-04-24T08:40:40.822Z</time></trkpt><trkpt lat="46.0960735" lon="10.9415172"><ele>823.0</ele><time>2026-04-24T08:40:41.819Z</time></trkpt><trkpt lat="46.0960582" lon="10.9413726"><ele>823.0</ele><time>2026-04-24T08:40:42.834Z</time></trkpt><trkpt lat="46.0960412" lon="10.9412362"><ele>823.8</ele><time>2026-04-24T08:40:43.818Z</time></trkpt><trkpt lat="46.0960224" lon="10.9410731"><ele>824.5999999999999</ele><time>2026-04-24T08:40:44.931Z</time></trkpt><trkpt lat="46.0960208" lon="10.9409408"><ele>825.4000000000001</ele><time>2026-04-24T08:40:45.855Z</time></trkpt><trkpt lat="46.0960142" lon="10.9407929"><ele>826.2</ele><time>2026-04-24T08:40:46.823Z</time></trkpt><trkpt lat="46.0959931" lon="10.9406376"><ele>827.0</ele><time>2026-04-24T08:40:47.814Z</time></trkpt><trkpt lat="46.0959684" lon="10.9404751"><ele>828.6</ele><time>2026-04-24T08:40:48.841Z</time></trkpt><trkpt lat="46.0959516" lon="10.9403309"><ele>830.2</ele><time>2026-04-24T08:40:49.84Z</time></trkpt><trkpt lat="46.0959331" lon="10.9401879"><ele>831.8</ele><time>2026-04-24T08:40:50.945Z</time></trkpt><trkpt lat="46.0959224" lon="10.9399678"><ele>833.4</ele><time>2026-04-24T08:40:52.813Z</time></trkpt><trkpt lat="46.095915" lon="10.9398527"><ele>835.0</ele><time>2026-04-24T08:40:53.818Z</time></trkpt><trkpt lat="46.0959178" lon="10.9397433"><ele>836.3333333333333</ele><time>2026-04-24T08:40:54.835Z</time></trkpt><trkpt lat="46.0959333" lon="10.9396478"><ele>837.6666666666666</ele><time>2026-04-24T08:40:55.846Z</time></trkpt><trkpt lat="46.0959511" lon="10.9395512"><ele>839.0</ele><time>2026-04-24T08:40:56.947Z</time></trkpt><trkpt lat="46.095967" lon="10.939398"><ele>840.3333333333333</ele><time>2026-04-24T08:40:58.816Z</time></trkpt><trkpt lat="46.0959154" lon="10.9392894"><ele>841.6666666666666</ele><time>2026-04-24T08:41:00.857Z</time></trkpt><trkpt lat="46.0958327" lon="10.9392458"><ele>843.0</ele><time>2026-04-24T08:41:02.839Z</time></trkpt><trkpt lat="46.0957173" lon="10.9392388"><ele>841.4</ele><time>2026-04-24T08:41:04.855Z</time></trkpt><trkpt lat="46.0956476" lon="10.9392552"><ele>839.8</ele><time>2026-04-24T08:41:05.857Z</time></trkpt><trkpt lat="46.0955325" lon="10.9392998"><ele>838.2</ele><time>2026-04-24T08:41:07.888Z</time></trkpt><trkpt lat="46.0953994" lon="10.939273"><ele>836.6</ele><time>2026-04-24T08:41:09.83Z</time></trkpt><trkpt lat="46.0953393" lon="10.9392326"><ele>835.0</ele><time>2026-04-24T08:41:10.824Z</time></trkpt><trkpt lat="46.0952798" lon="10.9391748"><ele>834.9999999999999</ele><time>2026-04-24T08:41:11.833Z</time></trkpt><trkpt lat="46.0952162" lon="10.9391122"><ele>835.0</ele><time>2026-04-24T08:41:12.839Z</time></trkpt><trkpt lat="46.0951589" lon="10.9390664"><ele>835.0</ele><time>2026-04-24T08:41:13.858Z</time></trkpt><trkpt lat="46.095095" lon="10.9390432"><ele>835.0</ele><time>2026-04-24T08:41:14.822Z</time></trkpt><trkpt lat="46.0950272" lon="10.9390303"><ele>834.9999999999999</ele><time>2026-04-24T08:41:15.873Z</time></trkpt><trkpt lat="46.094921" lon="10.9389386"><ele>835.0</ele><time>2026-04-24T08:41:17.831Z</time></trkpt><trkpt lat="46.0948739" lon="10.9388676"><ele>835.2</ele><time>2026-04-24T08:41:18.867Z</time></trkpt><trkpt lat="46.0948113" lon="10.9387122"><ele>835.4</ele><time>2026-04-24T08:41:20.841Z</time></trkpt><trkpt lat="46.0947854" lon="10.9386126"><ele>835.5999999999999</ele><time>2026-04-24T08:41:21.819Z</time></trkpt><trkpt lat="46.0947523" lon="10.9384981"><ele>835.8</ele><time>2026-04-24T08:41:22.83Z</time></trkpt><trkpt lat="46.0947044" lon="10.9383807"><ele>836.0</ele><time>2026-04-24T08:41:23.82Z</time></trkpt><trkpt lat="46.0946395" lon="10.938254"><ele>836.0000000000001</ele><time>2026-04-24T08:41:24.881Z</time></trkpt><trkpt lat="46.0945892" lon="10.9381585"><ele>836.0</ele><time>2026-04-24T08:41:25.819Z</time></trkpt><trkpt lat="46.0945402" lon="10.9380581"><ele>836.0</ele><time>2026-04-24T08:41:26.833Z</time></trkpt><trkpt lat="46.0944885" lon="10.9379555"><ele>836.0</ele><time>2026-04-24T08:41:27.821Z</time></trkpt><trkpt lat="46.0944255" lon="10.9378477"><ele>836.0000000000001</ele><time>2026-04-24T08:41:28.844Z</time></trkpt><trkpt lat="46.0943721" lon="10.9377423"><ele>836.0</ele><time>2026-04-24T08:41:29.832Z</time></trkpt><trkpt lat="46.0943112" lon="10.9376201"><ele>835.8333333333334</ele><time>2026-04-24T08:41:30.963Z</time></trkpt><trkpt lat="46.0942658" lon="10.9375189"><ele>835.6666666666667</ele><time>2026-04-24T08:41:31.876Z</time></trkpt><trkpt lat="46.0942298" lon="10.9374086"><ele>835.5</ele><time>2026-04-24T08:41:32.823Z</time></trkpt><trkpt lat="46.0942098" lon="10.9372861"><ele>835.3333333333333</ele><time>2026-04-24T08:41:33.83Z</time></trkpt><trkpt lat="46.0941982" lon="10.9371476"><ele>835.1666666666666</ele><time>2026-04-24T08:41:34.84Z</time></trkpt><trkpt lat="46.0942012" lon="10.9370144"><ele>835.0</ele><time>2026-04-24T08:41:35.866Z</time></trkpt><trkpt lat="46.0942018" lon="10.9368774"><ele>835.0</ele><time>2026-04-24T08:41:36.859Z</time></trkpt><trkpt lat="46.0942092" lon="10.9367454"><ele>835.0</ele><time>2026-04-24T08:41:37.84Z</time></trkpt><trkpt lat="46.0942252" lon="10.9366177"><ele>835.0</ele><time>2026-04-24T08:41:38.83Z</time></trkpt><trkpt lat="46.0942522" lon="10.9364896"><ele>835.0</ele><time>2026-04-24T08:41:39.857Z</time></trkpt><trkpt lat="46.0942868" lon="10.9363643"><ele>835.0</ele><time>2026-04-24T08:41:40.875Z</time></trkpt><trkpt lat="46.0943226" lon="10.9362458"><ele>833.4999999999999</ele><time>2026-04-24T08:41:41.854Z</time></trkpt><trkpt lat="46.0943663" lon="10.9361447"><ele>832.0</ele><time>2026-04-24T08:41:42.866Z</time></trkpt><trkpt lat="46.0944281" lon="10.9360568"><ele>830.5</ele><time>2026-04-24T08:41:43.881Z</time></trkpt><trkpt lat="46.094509" lon="10.9359965"><ele>829.0</ele><time>2026-04-24T08:41:44.859Z</time></trkpt><trkpt lat="46.0945821" lon="10.9359396"><ele>827.4999999999999</ele><time>2026-04-24T08:41:45.841Z</time></trkpt><trkpt lat="46.0946466" lon="10.9358592"><ele>826.0</ele><time>2026-04-24T08:41:46.88Z</time></trkpt><trkpt lat="46.0946958" lon="10.9357775"><ele>823.9999999999999</ele><time>2026-04-24T08:41:47.864Z</time></trkpt><trkpt lat="46.0947411" lon="10.9356957"><ele>822.0</ele><time>2026-04-24T08:41:48.86Z</time></trkpt><trkpt lat="46.0947805" lon="10.9356052"><ele>820.0</ele><time>2026-04-24T08:41:49.842Z</time></trkpt><trkpt lat="46.0948123" lon="10.9354993"><ele>818.0</ele><time>2026-04-24T08:41:50.869Z</time></trkpt><trkpt lat="46.0948291" lon="10.9353839"><ele>815.9999999999999</ele><time>2026-04-24T08:41:51.845Z</time></trkpt><trkpt lat="46.094822" lon="10.935256"><ele>814.0</ele><time>2026-04-24T08:41:52.848Z</time></trkpt><trkpt lat="46.0948038" lon="10.9351261"><ele>811.2</ele><time>2026-04-24T08:41:53.835Z</time></trkpt><trkpt lat="46.0947918" lon="10.9349887"><ele>808.4000000000001</ele><time>2026-04-24T08:41:54.834Z</time></trkpt><trkpt lat="46.0947776" lon="10.9348388"><ele>805.6</ele><time>2026-04-24T08:41:55.869Z</time></trkpt><trkpt lat="46.0947751" lon="10.9346972"><ele>802.8</ele><time>2026-04-24T08:41:56.844Z</time></trkpt><trkpt lat="46.0947671" lon="10.9345442"><ele>800.0</ele><time>2026-04-24T08:41:57.828Z</time></trkpt><trkpt lat="46.0947547" lon="10.9343903"><ele>800.0</ele><time>2026-04-24T08:41:58.853Z</time></trkpt><trkpt lat="46.0947236" lon="10.9342424"><ele>800.0</ele><time>2026-04-24T08:41:59.837Z</time></trkpt><trkpt lat="46.0946803" lon="10.9340819"><ele>800.0</ele><time>2026-04-24T08:42:00.84Z</time></trkpt><trkpt lat="46.0946373" lon="10.9339293"><ele>800.0</ele><time>2026-04-24T08:42:01.838Z</time></trkpt><trkpt lat="46.094603" lon="10.9337755"><ele>797.8</ele><time>2026-04-24T08:42:02.859Z</time></trkpt><trkpt lat="46.0945732" lon="10.9336332"><ele>795.6</ele><time>2026-04-24T08:42:03.825Z</time></trkpt><trkpt lat="46.0945389" lon="10.9334847"><ele>793.4000000000001</ele><time>2026-04-24T08:42:04.853Z</time></trkpt><trkpt lat="46.0945014" lon="10.9333427"><ele>791.2</ele><time>2026-04-24T08:42:05.87Z</time></trkpt><trkpt lat="46.0944584" lon="10.9332112"><ele>789.0</ele><time>2026-04-24T08:42:06.843Z</time></trkpt><trkpt lat="46.0944108" lon="10.9330756"><ele>787.75</ele><time>2026-04-24T08:42:07.872Z</time></trkpt><trkpt lat="46.0943622" lon="10.9329473"><ele>786.5</ele><time>2026-04-24T08:42:08.857Z</time></trkpt><trkpt lat="46.0943171" lon="10.9328153"><ele>785.25</ele><time>2026-04-24T08:42:09.893Z</time></trkpt><trkpt lat="46.0942882" lon="10.9326707"><ele>784.0</ele><time>2026-04-24T08:42:10.997Z</time></trkpt><trkpt lat="46.0942934" lon="10.9324053"><ele>783.8000000000001</ele><time>2026-04-24T08:42:12.897Z</time></trkpt><trkpt lat="46.0943163" lon="10.9322663"><ele>783.6</ele><time>2026-04-24T08:42:13.835Z</time></trkpt><trkpt lat="46.0943448" lon="10.9321146"><ele>783.4</ele><time>2026-04-24T08:42:14.884Z</time></trkpt><trkpt lat="46.0943796" lon="10.9319897"><ele>783.2</ele><time>2026-04-24T08:42:15.876Z</time></trkpt><trkpt lat="46.0944098" lon="10.9318612"><ele>783.0</ele><time>2026-04-24T08:42:16.84Z</time></trkpt><trkpt lat="46.0944283" lon="10.9317449"><ele>783.0</ele><time>2026-04-24T08:42:17.878Z</time></trkpt><trkpt lat="46.0944566" lon="10.93165"><ele>783.0</ele><time>2026-04-24T08:42:18.899Z</time></trkpt><trkpt lat="46.094553" lon="10.9315494"><ele>783.0</ele><time>2026-04-24T08:42:20.97Z</time></trkpt><trkpt lat="46.0946686" lon="10.9314975"><ele>783.0</ele><time>2026-04-24T08:42:22.871Z</time></trkpt><trkpt lat="46.0947392" lon="10.9314827"><ele>783.0</ele><time>2026-04-24T08:42:23.884Z</time></trkpt><trkpt lat="46.0948216" lon="10.9314742"><ele>783.0</ele><time>2026-04-24T08:42:24.884Z</time></trkpt><trkpt lat="46.0949127" lon="10.9314524"><ele>783.0</ele><time>2026-04-24T08:42:25.874Z</time></trkpt><trkpt lat="46.0950004" lon="10.9314412"><ele>783.0</ele><time>2026-04-24T08:42:26.869Z</time></trkpt><trkpt lat="46.0950856" lon="10.9314414"><ele>783.0</ele><time>2026-04-24T08:42:27.895Z</time></trkpt><trkpt lat="46.0951731" lon="10.9314428"><ele>783.0</ele><time>2026-04-24T08:42:28.837Z</time></trkpt><trkpt lat="46.0952463" lon="10.9314316"><ele>783.0</ele><time>2026-04-24T08:42:29.98Z</time></trkpt><trkpt lat="46.0954002" lon="10.9314955"><ele>784.3333333333334</ele><time>2026-04-24T08:42:31.866Z</time></trkpt><trkpt lat="46.0954732" lon="10.9315313"><ele>785.6666666666667</ele><time>2026-04-24T08:42:32.871Z</time></trkpt><trkpt lat="46.0955359" lon="10.9315546"><ele>787.0</ele><time>2026-04-24T08:42:33.828Z</time></trkpt><trkpt lat="46.0956477" lon="10.9315955"><ele>788.3333333333334</ele><time>2026-04-24T08:42:35.891Z</time></trkpt><trkpt lat="46.0957232" lon="10.9316679"><ele>789.6666666666667</ele><time>2026-04-24T08:42:37.9Z</time></trkpt><trkpt lat="46.095779" lon="10.931736"><ele>791.0</ele><time>2026-04-24T08:42:38.873Z</time></trkpt><trkpt lat="46.095841" lon="10.9317938"><ele>791.8333333333334</ele><time>2026-04-24T08:42:39.935Z</time></trkpt><trkpt lat="46.0958825" lon="10.9318785"><ele>792.6666666666667</ele><time>2026-04-24T08:42:40.861Z</time></trkpt><trkpt lat="46.0959233" lon="10.9319988"><ele>793.5</ele><time>2026-04-24T08:42:41.916Z</time></trkpt><trkpt lat="46.0959574" lon="10.9321081"><ele>794.3333333333333</ele><time>2026-04-24T08:42:42.865Z</time></trkpt><trkpt lat="46.0960078" lon="10.932228"><ele>795.1666666666666</ele><time>2026-04-24T08:42:43.884Z</time></trkpt><trkpt lat="46.0960551" lon="10.9323395"><ele>796.0</ele><time>2026-04-24T08:42:44.891Z</time></trkpt><trkpt lat="46.0960883" lon="10.9324421"><ele>795.9999999999999</ele><time>2026-04-24T08:42:45.868Z</time></trkpt><trkpt lat="46.0961124" lon="10.9325511"><ele>796.0</ele><time>2026-04-24T08:42:46.871Z</time></trkpt><trkpt lat="46.09612" lon="10.9326508"><ele>796.0</ele><time>2026-04-24T08:42:47.835Z</time></trkpt><trkpt lat="46.0961227" lon="10.9327491"><ele>796.0</ele><time>2026-04-24T08:42:48.897Z</time></trkpt><trkpt lat="46.096166" lon="10.9329007"><ele>795.9999999999999</ele><time>2026-04-24T08:42:50.871Z</time></trkpt><trkpt lat="46.0961926" lon="10.9329837"><ele>796.0</ele><time>2026-04-24T08:42:51.872Z</time></trkpt><trkpt lat="46.0961934" lon="10.9330876"><ele>796.4</ele><time>2026-04-24T08:42:52.872Z</time></trkpt><trkpt lat="46.0961884" lon="10.9332023"><ele>796.8</ele><time>2026-04-24T08:42:53.884Z</time></trkpt><trkpt lat="46.0961797" lon="10.9333099"><ele>797.1999999999999</ele><time>2026-04-24T08:42:54.945Z</time></trkpt><trkpt lat="46.0961681" lon="10.9334884"><ele>797.5999999999999</ele><time>2026-04-24T08:42:56.846Z</time></trkpt><trkpt lat="46.0961509" lon="10.9336522"><ele>798.0</ele><time>2026-04-24T08:42:58.834Z</time></trkpt><trkpt lat="46.0961189" lon="10.9338037"><ele>798.0</ele><time>2026-04-24T08:43:00.828Z</time></trkpt><trkpt lat="46.0961501" lon="10.9339827"><ele>798.0</ele><time>2026-04-24T08:43:02.862Z</time></trkpt><trkpt lat="46.0961995" lon="10.9340574"><ele>798.0</ele><time>2026-04-24T08:43:03.834Z</time></trkpt><trkpt lat="46.0962533" lon="10.9341343"><ele>798.0</ele><time>2026-04-24T08:43:04.86Z</time></trkpt><trkpt lat="46.0963155" lon="10.9341875"><ele>798.0</ele><time>2026-04-24T08:43:05.822Z</time></trkpt><trkpt lat="46.0963922" lon="10.93421"><ele>798.0</ele><time>2026-04-24T08:43:06.834Z</time></trkpt><trkpt lat="46.0964738" lon="10.9342037"><ele>798.0</ele><time>2026-04-24T08:43:07.943Z</time></trkpt><trkpt lat="46.0965386" lon="10.934186"><ele>798.0</ele><time>2026-04-24T08:43:08.856Z</time></trkpt><trkpt lat="46.0966097" lon="10.9341725"><ele>798.0</ele><time>2026-04-24T08:43:09.856Z</time></trkpt><trkpt lat="46.0966739" lon="10.934166"><ele>798.0</ele><time>2026-04-24T08:43:10.816Z</time></trkpt><trkpt lat="46.0967946" lon="10.9341509"><ele>798.0</ele><time>2026-04-24T08:43:12.833Z</time></trkpt><trkpt lat="46.0969061" lon="10.9341449"><ele>798.0</ele><time>2026-04-24T08:43:14.879Z</time></trkpt><trkpt lat="46.0969704" lon="10.9341485"><ele>798.4</ele><time>2026-04-24T08:43:16.024Z</time></trkpt><trkpt lat="46.097063" lon="10.9341522"><ele>798.8</ele><time>2026-04-24T08:43:17.886Z</time></trkpt><trkpt lat="46.097157" lon="10.934182"><ele>799.2</ele><time>2026-04-24T08:43:19.842Z</time></trkpt><trkpt lat="46.097251" lon="10.9342159"><ele>799.6</ele><time>2026-04-24T08:43:21.84Z</time></trkpt><trkpt lat="46.0973583" lon="10.9342549"><ele>800.0</ele><time>2026-04-24T08:43:23.837Z</time></trkpt><trkpt lat="46.0974203" lon="10.934289"><ele>800.8</ele><time>2026-04-24T08:43:24.842Z</time></trkpt><trkpt lat="46.097503" lon="10.934321"><ele>801.6</ele><time>2026-04-24T08:43:25.833Z</time></trkpt><trkpt lat="46.0975996" lon="10.9343633"><ele>802.4000000000001</ele><time>2026-04-24T08:43:26.889Z</time></trkpt><trkpt lat="46.097695" lon="10.934416"><ele>803.2</ele><time>2026-04-24T08:43:27.824Z</time></trkpt><trkpt lat="46.0978053" lon="10.9344738"><ele>804.0</ele><time>2026-04-24T08:43:28.872Z</time></trkpt><trkpt lat="46.0979109" lon="10.9345149"><ele>804.0</ele><time>2026-04-24T08:43:29.835Z</time></trkpt><trkpt lat="46.0980145" lon="10.9345563"><ele>804.0</ele><time>2026-04-24T08:43:30.862Z</time></trkpt><trkpt lat="46.0981006" lon="10.9345937"><ele>804.0</ele><time>2026-04-24T08:43:31.862Z</time></trkpt><trkpt lat="46.0981794" lon="10.9346349"><ele>804.0</ele><time>2026-04-24T08:43:32.844Z</time></trkpt><trkpt lat="46.0982586" lon="10.9346696"><ele>804.0</ele><time>2026-04-24T08:43:33.866Z</time></trkpt><trkpt lat="46.0983287" lon="10.9346981"><ele>804.0</ele><time>2026-04-24T08:43:34.84Z</time></trkpt><trkpt lat="46.0984008" lon="10.9347228"><ele>802.4000000000001</ele><time>2026-04-24T08:43:35.838Z</time></trkpt><trkpt lat="46.0984685" lon="10.934753"><ele>800.8</ele><time>2026-04-24T08:43:36.872Z</time></trkpt><trkpt lat="46.0985905" lon="10.9348172"><ele>799.2</ele><time>2026-04-24T08:43:38.856Z</time></trkpt><trkpt lat="46.0986536" lon="10.9348492"><ele>797.5999999999999</ele><time>2026-04-24T08:43:39.868Z</time></trkpt><trkpt lat="46.0987595" lon="10.9349094"><ele>796.0</ele><time>2026-04-24T08:43:41.874Z</time></trkpt><trkpt lat="46.0988738" lon="10.9349622"><ele>796.0</ele><time>2026-04-24T08:43:43.944Z</time></trkpt><trkpt lat="46.0989649" lon="10.9350099"><ele>796.0</ele><time>2026-04-24T08:43:45.905Z</time></trkpt><trkpt lat="46.0990695" lon="10.9350626"><ele>796.0</ele><time>2026-04-24T08:43:47.878Z</time></trkpt><trkpt lat="46.0991643" lon="10.9351103"><ele>796.0</ele><time>2026-04-24T08:43:49.838Z</time></trkpt><trkpt lat="46.0992643" lon="10.9351341"><ele>796.0</ele><time>2026-04-24T08:43:51.888Z</time></trkpt><trkpt lat="46.0993689" lon="10.9351302"><ele>796.1999999999999</ele><time>2026-04-24T08:43:53.891Z</time></trkpt><trkpt lat="46.0994853" lon="10.9351056"><ele>796.4</ele><time>2026-04-24T08:43:55.886Z</time></trkpt><trkpt lat="46.0995923" lon="10.9350471"><ele>796.6</ele><time>2026-04-24T08:43:57.918Z</time></trkpt><trkpt lat="46.0996828" lon="10.9349795"><ele>796.8</ele><time>2026-04-24T08:43:59.897Z</time></trkpt><trkpt lat="46.0997472" lon="10.9349005"><ele>797.0</ele><time>2026-04-24T08:44:01.867Z</time></trkpt><trkpt lat="46.0997933" lon="10.9348288"><ele>797.0</ele><time>2026-04-24T08:44:05.864Z</time></trkpt><trkpt lat="46.0998464" lon="10.9348237"><ele>797.0</ele><time>2026-04-24T08:50:03.799Z</time></trkpt><trkpt lat="46.0997834" lon="10.9348714"><ele>797.0</ele><time>2026-04-24T08:50:09.869Z</time></trkpt><trkpt lat="46.0996855" lon="10.9349925"><ele>797.0</ele><time>2026-04-24T08:50:11.87Z</time></trkpt><trkpt lat="46.0996301" lon="10.935044"><ele>797.0</ele><time>2026-04-24T08:50:12.865Z</time></trkpt><trkpt lat="46.0995066" lon="10.9351052"><ele>797.0</ele><time>2026-04-24T08:50:14.872Z</time></trkpt><trkpt lat="46.0994399" lon="10.9351231"><ele>797.0</ele><time>2026-04-24T08:50:15.864Z</time></trkpt><trkpt lat="46.0993729" lon="10.9351331"><ele>797.0</ele><time>2026-04-24T08:50:16.852Z</time></trkpt><trkpt lat="46.0993015" lon="10.9351324"><ele>797.0</ele><time>2026-04-24T08:50:17.854Z</time></trkpt><trkpt lat="46.0992346" lon="10.9351176"><ele>797.0</ele><time>2026-04-24T08:50:18.833Z</time></trkpt><trkpt lat="46.0991712" lon="10.9350936"><ele>797.0</ele><time>2026-04-24T08:50:19.858Z</time></trkpt><trkpt lat="46.0991089" lon="10.935068"><ele>797.0</ele><time>2026-04-24T08:50:20.862Z</time></trkpt><trkpt lat="46.0990471" lon="10.9350424"><ele>796.8333333333334</ele><time>2026-04-24T08:50:21.852Z</time></trkpt><trkpt lat="46.0989859" lon="10.9350111"><ele>796.6666666666667</ele><time>2026-04-24T08:50:22.985Z</time></trkpt><trkpt lat="46.0989119" lon="10.9349703"><ele>796.5</ele><time>2026-04-24T08:50:24.906Z</time></trkpt><trkpt lat="46.0988098" lon="10.9349248"><ele>796.3333333333333</ele><time>2026-04-24T08:50:26.865Z</time></trkpt><trkpt lat="46.0987458" lon="10.9348845"><ele>796.1666666666666</ele><time>2026-04-24T08:50:27.875Z</time></trkpt><trkpt lat="46.098666" lon="10.9348405"><ele>796.0</ele><time>2026-04-24T08:50:28.889Z</time></trkpt><trkpt lat="46.0985842" lon="10.9347981"><ele>796.0</ele><time>2026-04-24T08:50:29.873Z</time></trkpt><trkpt lat="46.098491" lon="10.9347518"><ele>796.0</ele><time>2026-04-24T08:50:30.85Z</time></trkpt><trkpt lat="46.0983842" lon="10.9347054"><ele>796.0</ele><time>2026-04-24T08:50:31.881Z</time></trkpt><trkpt lat="46.0982792" lon="10.9346616"><ele>796.0</ele><time>2026-04-24T08:50:32.846Z</time></trkpt><trkpt lat="46.0981635" lon="10.9346105"><ele>796.0</ele><time>2026-04-24T08:50:33.825Z</time></trkpt><trkpt lat="46.0980427" lon="10.9345521"><ele>798.0</ele><time>2026-04-24T08:50:34.837Z</time></trkpt><trkpt lat="46.0979237" lon="10.9344908"><ele>800.0</ele><time>2026-04-24T08:50:35.841Z</time></trkpt><trkpt lat="46.0978037" lon="10.9344342"><ele>802.0</ele><time>2026-04-24T08:50:36.872Z</time></trkpt><trkpt lat="46.0976941" lon="10.9343855"><ele>804.0</ele><time>2026-04-24T08:50:37.871Z</time></trkpt><trkpt lat="46.0975906" lon="10.9343406"><ele>804.0</ele><time>2026-04-24T08:50:38.905Z</time></trkpt><trkpt lat="46.0974986" lon="10.9342993"><ele>804.0</ele><time>2026-04-24T08:50:39.879Z</time></trkpt><trkpt lat="46.0974129" lon="10.934261"><ele>804.0</ele><time>2026-04-24T08:50:40.896Z</time></trkpt><trkpt lat="46.097329" lon="10.9342273"><ele>804.0</ele><time>2026-04-24T08:50:41.866Z</time></trkpt><trkpt lat="46.0972416" lon="10.9341935"><ele>804.0</ele><time>2026-04-24T08:50:42.942Z</time></trkpt><trkpt lat="46.097162" lon="10.9341664"><ele>804.0</ele><time>2026-04-24T08:50:43.998Z</time></trkpt><trkpt lat="46.097097" lon="10.9341502"><ele>802.2857142857142</ele><time>2026-04-24T08:50:44.898Z</time></trkpt><trkpt lat="46.0970241" lon="10.9341372"><ele>800.5714285714287</ele><time>2026-04-24T08:50:45.902Z</time></trkpt><trkpt lat="46.0969541" lon="10.9341266"><ele>798.8571428571429</ele><time>2026-04-24T08:50:46.877Z</time></trkpt><trkpt lat="46.0968829" lon="10.9341247"><ele>797.1428571428571</ele><time>2026-04-24T08:50:47.889Z</time></trkpt><trkpt lat="46.0968119" lon="10.9341241"><ele>795.4285714285713</ele><time>2026-04-24T08:50:48.886Z</time></trkpt><trkpt lat="46.0967396" lon="10.9341279"><ele>793.7142857142858</ele><time>2026-04-24T08:50:49.884Z</time></trkpt><trkpt lat="46.0966707" lon="10.9341352"><ele>792.0</ele><time>2026-04-24T08:50:50.866Z</time></trkpt><trkpt lat="46.0966012" lon="10.93415"><ele>793.0</ele><time>2026-04-24T08:50:51.919Z</time></trkpt><trkpt lat="46.0965256" lon="10.934165"><ele>794.0</ele><time>2026-04-24T08:50:52.885Z</time></trkpt><trkpt lat="46.0964469" lon="10.9341763"><ele>795.0</ele><time>2026-04-24T08:50:53.85Z</time></trkpt><trkpt lat="46.0963685" lon="10.934166"><ele>796.0</ele><time>2026-04-24T08:50:54.848Z</time></trkpt><trkpt lat="46.0962925" lon="10.9341248"><ele>797.0</ele><time>2026-04-24T08:50:55.89Z</time></trkpt><trkpt lat="46.0962308" lon="10.9340558"><ele>798.0</ele><time>2026-04-24T08:50:56.846Z</time></trkpt><trkpt lat="46.0961834" lon="10.9339447"><ele>798.0</ele><time>2026-04-24T08:50:57.892Z</time></trkpt><trkpt lat="46.0961597" lon="10.9338149"><ele>798.0</ele><time>2026-04-24T08:50:58.87Z</time></trkpt><trkpt lat="46.0961596" lon="10.9336668"><ele>798.0</ele><time>2026-04-24T08:50:59.88Z</time></trkpt><trkpt lat="46.0961761" lon="10.9335192"><ele>798.0</ele><time>2026-04-24T08:51:00.842Z</time></trkpt><trkpt lat="46.0961942" lon="10.9333733"><ele>798.0</ele><time>2026-04-24T08:51:01.877Z</time></trkpt><trkpt lat="46.0962074" lon="10.9332428"><ele>798.0</ele><time>2026-04-24T08:51:02.882Z</time></trkpt><trkpt lat="46.0962219" lon="10.9331248"><ele>798.0</ele><time>2026-04-24T08:51:03.87Z</time></trkpt><trkpt lat="46.0962275" lon="10.9330123"><ele>798.0</ele><time>2026-04-24T08:51:04.878Z</time></trkpt><trkpt lat="46.0962081" lon="10.9328928"><ele>798.0</ele><time>2026-04-24T08:51:06.001Z</time></trkpt><trkpt lat="46.0961423" lon="10.9326842"><ele>798.0</ele><time>2026-04-24T08:51:08.027Z</time></trkpt><trkpt lat="46.0960923" lon="10.9324219"><ele>797.5</ele><time>2026-04-24T08:51:09.896Z</time></trkpt><trkpt lat="46.0960431" lon="10.9322627"><ele>797.0</ele><time>2026-04-24T08:51:10.923Z</time></trkpt><trkpt lat="46.0959871" lon="10.9321144"><ele>796.5</ele><time>2026-04-24T08:51:11.901Z</time></trkpt><trkpt lat="46.0959306" lon="10.9319792"><ele>796.0</ele><time>2026-04-24T08:51:12.889Z</time></trkpt><trkpt lat="46.0958687" lon="10.9318578"><ele>795.9999999999999</ele><time>2026-04-24T08:51:13.899Z</time></trkpt><trkpt lat="46.0958176" lon="10.9317524"><ele>796.0</ele><time>2026-04-24T08:51:14.848Z</time></trkpt><trkpt lat="46.0957632" lon="10.9316651"><ele>796.0</ele><time>2026-04-24T08:51:15.854Z</time></trkpt><trkpt lat="46.0956973" lon="10.9315931"><ele>796.0</ele><time>2026-04-24T08:51:16.866Z</time></trkpt><trkpt lat="46.0956146" lon="10.9315544"><ele>795.9999999999999</ele><time>2026-04-24T08:51:17.884Z</time></trkpt><trkpt lat="46.0955277" lon="10.9315227"><ele>796.0</ele><time>2026-04-24T08:51:18.877Z</time></trkpt><trkpt lat="46.0954376" lon="10.9314938"><ele>795.0</ele><time>2026-04-24T08:51:19.889Z</time></trkpt><trkpt lat="46.0953446" lon="10.9314658"><ele>794.0</ele><time>2026-04-24T08:51:20.861Z</time></trkpt><trkpt lat="46.0952431" lon="10.9314416"><ele>793.0</ele><time>2026-04-24T08:51:21.883Z</time></trkpt><trkpt lat="46.0951527" lon="10.931425"><ele>792.0</ele><time>2026-04-24T08:51:22.877Z</time></trkpt><trkpt lat="46.0950364" lon="10.9314184"><ele>791.0</ele><time>2026-04-24T08:51:24.024Z</time></trkpt><trkpt lat="46.0948381" lon="10.9314249"><ele>789.0</ele><time>2026-04-24T08:51:25.89Z</time></trkpt><trkpt lat="46.0947285" lon="10.9314268"><ele>787.0</ele><time>2026-04-24T08:51:26.875Z</time></trkpt><trkpt lat="46.0946141" lon="10.9314471"><ele>785.0</ele><time>2026-04-24T08:51:27.902Z</time></trkpt><trkpt lat="46.0944976" lon="10.9314893"><ele>783.0</ele><time>2026-04-24T08:51:28.854Z</time></trkpt><trkpt lat="46.0943787" lon="10.9315506"><ele>783.0</ele><time>2026-04-24T08:51:29.856Z</time></trkpt><trkpt lat="46.0942485" lon="10.931626"><ele>783.0</ele><time>2026-04-24T08:51:30.852Z</time></trkpt><trkpt lat="46.0941292" lon="10.931714"><ele>783.0</ele><time>2026-04-24T08:51:31.87Z</time></trkpt><trkpt lat="46.0940226" lon="10.9317916"><ele>783.0</ele><time>2026-04-24T08:51:32.854Z</time></trkpt><trkpt lat="46.0939125" lon="10.9318772"><ele>781.4</ele><time>2026-04-24T08:51:33.883Z</time></trkpt><trkpt lat="46.0938155" lon="10.9319535"><ele>779.8</ele><time>2026-04-24T08:51:34.848Z</time></trkpt><trkpt lat="46.0937259" lon="10.9320528"><ele>778.2</ele><time>2026-04-24T08:51:35.863Z</time></trkpt><trkpt lat="46.0936442" lon="10.9321469"><ele>776.6</ele><time>2026-04-24T08:51:36.898Z</time></trkpt><trkpt lat="46.0935801" lon="10.9322245"><ele>775.0</ele><time>2026-04-24T08:51:37.871Z</time></trkpt><trkpt lat="46.0935068" lon="10.9323196"><ele>775.0</ele><time>2026-04-24T08:51:38.954Z</time></trkpt><trkpt lat="46.0934478" lon="10.9323946"><ele>775.0</ele><time>2026-04-24T08:51:39.894Z</time></trkpt><trkpt lat="46.0933716" lon="10.9324701"><ele>775.0</ele><time>2026-04-24T08:51:40.857Z</time></trkpt><trkpt lat="46.0932824" lon="10.9325328"><ele>775.0</ele><time>2026-04-24T08:51:41.884Z</time></trkpt><trkpt lat="46.0931948" lon="10.9325924"><ele>775.0</ele><time>2026-04-24T08:51:42.886Z</time></trkpt><trkpt lat="46.0931069" lon="10.9326332"><ele>772.8571428571428</ele><time>2026-04-24T08:51:43.923Z</time></trkpt><trkpt lat="46.0930311" lon="10.9326731"><ele>770.7142857142857</ele><time>2026-04-24T08:51:44.882Z</time></trkpt><trkpt lat="46.0929647" lon="10.9327169"><ele>768.5714285714286</ele><time>2026-04-24T08:51:45.844Z</time></trkpt><trkpt lat="46.092901" lon="10.9327813"><ele>766.4285714285713</ele><time>2026-04-24T08:51:46.908Z</time></trkpt><trkpt lat="46.0928642" lon="10.9328613"><ele>764.2857142857143</ele><time>2026-04-24T08:51:47.883Z</time></trkpt><trkpt lat="46.0928628" lon="10.9329547"><ele>762.1428571428571</ele><time>2026-04-24T08:51:48.883Z</time></trkpt><trkpt lat="46.0928719" lon="10.933076"><ele>760.0</ele><time>2026-04-24T08:51:49.943Z</time></trkpt><trkpt lat="46.0928483" lon="10.9331776"><ele>760.0</ele><time>2026-04-24T08:51:50.853Z</time></trkpt><trkpt lat="46.0927903" lon="10.9332673"><ele>760.0</ele><time>2026-04-24T08:51:51.9Z</time></trkpt><trkpt lat="46.0927252" lon="10.9333278"><ele>760.0</ele><time>2026-04-24T08:51:52.862Z</time></trkpt><trkpt lat="46.0926534" lon="10.9333537"><ele>760.0</ele><time>2026-04-24T08:51:53.883Z</time></trkpt><trkpt lat="46.0925618" lon="10.9333056"><ele>760.0</ele><time>2026-04-24T08:51:54.875Z</time></trkpt><trkpt lat="46.0924682" lon="10.9332717"><ele>760.0</ele><time>2026-04-24T08:51:55.883Z</time></trkpt><trkpt lat="46.0923876" lon="10.933249"><ele>757.4</ele><time>2026-04-24T08:51:56.88Z</time></trkpt><trkpt lat="46.0922937" lon="10.9332194"><ele>754.8</ele><time>2026-04-24T08:51:57.875Z</time></trkpt><trkpt lat="46.0922142" lon="10.9331767"><ele>752.2</ele><time>2026-04-24T08:51:58.847Z</time></trkpt><trkpt lat="46.0921311" lon="10.9331082"><ele>749.6</ele><time>2026-04-24T08:51:59.88Z</time></trkpt><trkpt lat="46.0920484" lon="10.9330241"><ele>747.0</ele><time>2026-04-24T08:52:00.886Z</time></trkpt><trkpt lat="46.091963" lon="10.9329508"><ele>747.0</ele><time>2026-04-24T08:52:01.85Z</time></trkpt><trkpt lat="46.0918717" lon="10.9328679"><ele>747.0</ele><time>2026-04-24T08:52:02.885Z</time></trkpt><trkpt lat="46.091797" lon="10.9327987"><ele>747.0</ele><time>2026-04-24T08:52:03.873Z</time></trkpt><trkpt lat="46.0917351" lon="10.9327318"><ele>747.0</ele><time>2026-04-24T08:52:04.848Z</time></trkpt><trkpt lat="46.0916799" lon="10.9326617"><ele>747.0</ele><time>2026-04-24T08:52:05.879Z</time></trkpt><trkpt lat="46.0916334" lon="10.9325961"><ele>747.0</ele><time>2026-04-24T08:52:06.844Z</time></trkpt><trkpt lat="46.0915788" lon="10.9325123"><ele>746.3333333333334</ele><time>2026-04-24T08:52:07.88Z</time></trkpt><trkpt lat="46.0915222" lon="10.9324217"><ele>745.6666666666666</ele><time>2026-04-24T08:52:08.86Z</time></trkpt><trkpt lat="46.0914611" lon="10.9323269"><ele>745.0</ele><time>2026-04-24T08:52:09.869Z</time></trkpt><trkpt lat="46.0913956" lon="10.9322491"><ele>744.3333333333333</ele><time>2026-04-24T08:52:10.89Z</time></trkpt><trkpt lat="46.0913193" lon="10.9321994"><ele>743.6666666666666</ele><time>2026-04-24T08:52:11.851Z</time></trkpt><trkpt lat="46.0912232" lon="10.9321679"><ele>743.0</ele><time>2026-04-24T08:52:12.854Z</time></trkpt><trkpt lat="46.0911238" lon="10.9321599"><ele>743.0</ele><time>2026-04-24T08:52:13.867Z</time></trkpt><trkpt lat="46.0910184" lon="10.9321525"><ele>743.0</ele><time>2026-04-24T08:52:14.85Z</time></trkpt><trkpt lat="46.090895" lon="10.9321563"><ele>743.0</ele><time>2026-04-24T08:52:15.935Z</time></trkpt><trkpt lat="46.090808" lon="10.9321717"><ele>743.0</ele><time>2026-04-24T08:52:16.869Z</time></trkpt><trkpt lat="46.0907029" lon="10.9321592"><ele>743.0</ele><time>2026-04-24T08:52:17.875Z</time></trkpt><trkpt lat="46.0906062" lon="10.9321447"><ele>741.5999999999999</ele><time>2026-04-24T08:52:18.853Z</time></trkpt><trkpt lat="46.0905072" lon="10.9321452"><ele>740.1999999999999</ele><time>2026-04-24T08:52:19.882Z</time></trkpt><trkpt lat="46.0904078" lon="10.9321528"><ele>738.8</ele><time>2026-04-24T08:52:20.893Z</time></trkpt><trkpt lat="46.0903046" lon="10.9321613"><ele>737.4</ele><time>2026-04-24T08:52:21.885Z</time></trkpt><trkpt lat="46.0902004" lon="10.9321775"><ele>736.0</ele><time>2026-04-24T08:52:22.879Z</time></trkpt><trkpt lat="46.0900891" lon="10.9322047"><ele>736.0</ele><time>2026-04-24T08:52:23.874Z</time></trkpt><trkpt lat="46.0899916" lon="10.9322309"><ele>736.0</ele><time>2026-04-24T08:52:24.829Z</time></trkpt><trkpt lat="46.0898897" lon="10.9322523"><ele>736.0</ele><time>2026-04-24T08:52:25.839Z</time></trkpt><trkpt lat="46.0897814" lon="10.9322591"><ele>736.0</ele><time>2026-04-24T08:52:26.902Z</time></trkpt><trkpt lat="46.0896791" lon="10.9322552"><ele>736.0</ele><time>2026-04-24T08:52:27.903Z</time></trkpt><trkpt lat="46.0895759" lon="10.9322515"><ele>733.8</ele><time>2026-04-24T08:52:28.931Z</time></trkpt><trkpt lat="46.0894772" lon="10.9322552"><ele>731.5999999999999</ele><time>2026-04-24T08:52:29.891Z</time></trkpt><trkpt lat="46.0893745" lon="10.9322601"><ele>729.4</ele><time>2026-04-24T08:52:30.91Z</time></trkpt><trkpt lat="46.0892844" lon="10.9322553"><ele>727.2</ele><time>2026-04-24T08:52:31.882Z</time></trkpt><trkpt lat="46.0891893" lon="10.9322471"><ele>725.0</ele><time>2026-04-24T08:52:32.91Z</time></trkpt><trkpt lat="46.0891054" lon="10.9322365"><ele>725.1666666666666</ele><time>2026-04-24T08:52:33.924Z</time></trkpt><trkpt lat="46.08902" lon="10.932206"><ele>725.3333333333333</ele><time>2026-04-24T08:52:34.907Z</time></trkpt><trkpt lat="46.0889426" lon="10.9321454"><ele>725.5</ele><time>2026-04-24T08:52:35.89Z</time></trkpt><trkpt lat="46.0888746" lon="10.9320585"><ele>725.6666666666666</ele><time>2026-04-24T08:52:36.896Z</time></trkpt><trkpt lat="46.0888179" lon="10.9319535"><ele>725.8333333333334</ele><time>2026-04-24T08:52:37.9Z</time></trkpt><trkpt lat="46.0887663" lon="10.9318496"><ele>726.0</ele><time>2026-04-24T08:52:38.91Z</time></trkpt><trkpt lat="46.0887049" lon="10.9317545"><ele>724.4</ele><time>2026-04-24T08:52:39.952Z</time></trkpt><trkpt lat="46.0886368" lon="10.9317098"><ele>722.8</ele><time>2026-04-24T08:52:40.882Z</time></trkpt><trkpt lat="46.0885439" lon="10.9316791"><ele>721.1999999999999</ele><time>2026-04-24T08:52:41.887Z</time></trkpt><trkpt lat="46.0884452" lon="10.9316492"><ele>719.5999999999999</ele><time>2026-04-24T08:52:42.9Z</time></trkpt><trkpt lat="46.0883433" lon="10.9316005"><ele>718.0</ele><time>2026-04-24T08:52:43.884Z</time></trkpt><trkpt lat="46.0882517" lon="10.931543"><ele>718.0</ele><time>2026-04-24T08:52:44.882Z</time></trkpt><trkpt lat="46.088172" lon="10.9314894"><ele>718.0</ele><time>2026-04-24T08:52:45.868Z</time></trkpt><trkpt lat="46.0880953" lon="10.9314455"><ele>718.0</ele><time>2026-04-24T08:52:46.85Z</time></trkpt><trkpt lat="46.088015" lon="10.9314228"><ele>718.0</ele><time>2026-04-24T08:52:47.896Z</time></trkpt><trkpt lat="46.0879368" lon="10.9314333"><ele>718.0</ele><time>2026-04-24T08:52:48.888Z</time></trkpt><trkpt lat="46.0878499" lon="10.9314571"><ele>718.0</ele><time>2026-04-24T08:52:49.899Z</time></trkpt><trkpt lat="46.0877598" lon="10.9314723"><ele>718.0</ele><time>2026-04-24T08:52:50.874Z</time></trkpt><trkpt lat="46.0876593" lon="10.9314984"><ele>718.0</ele><time>2026-04-24T08:52:51.936Z</time></trkpt><trkpt lat="46.0875795" lon="10.9315261"><ele>718.0</ele><time>2026-04-24T08:52:52.877Z</time></trkpt><trkpt lat="46.0874954" lon="10.9315487"><ele>718.0</ele><time>2026-04-24T08:52:53.895Z</time></trkpt><trkpt lat="46.0874136" lon="10.9315463"><ele>718.0</ele><time>2026-04-24T08:52:54.879Z</time></trkpt><trkpt lat="46.0873412" lon="10.9315154"><ele>718.0</ele><time>2026-04-24T08:52:55.951Z</time></trkpt><trkpt lat="46.0872905" lon="10.9314512"><ele>717.8333333333334</ele><time>2026-04-24T08:52:56.853Z</time></trkpt><trkpt lat="46.0872486" lon="10.9313562"><ele>717.6666666666667</ele><time>2026-04-24T08:52:57.839Z</time></trkpt><trkpt lat="46.0872043" lon="10.931259"><ele>717.5</ele><time>2026-04-24T08:52:58.846Z</time></trkpt><trkpt lat="46.0871519" lon="10.9311559"><ele>717.3333333333334</ele><time>2026-04-24T08:52:59.878Z</time></trkpt><trkpt lat="46.0870954" lon="10.9310564"><ele>717.1666666666666</ele><time>2026-04-24T08:53:00.839Z</time></trkpt><trkpt lat="46.0870258" lon="10.9309497"><ele>717.0</ele><time>2026-04-24T08:53:01.844Z</time></trkpt><trkpt lat="46.0869539" lon="10.9308304"><ele>717.0</ele><time>2026-04-24T08:53:02.86Z</time></trkpt><trkpt lat="46.0868875" lon="10.9306958"><ele>717.0</ele><time>2026-04-24T08:53:03.853Z</time></trkpt><trkpt lat="46.0868367" lon="10.930565"><ele>717.0</ele><time>2026-04-24T08:53:04.856Z</time></trkpt><trkpt lat="46.0867858" lon="10.9304368"><ele>717.0</ele><time>2026-04-24T08:53:05.85Z</time></trkpt><trkpt lat="46.0867393" lon="10.9303351"><ele>717.0</ele><time>2026-04-24T08:53:06.843Z</time></trkpt><trkpt lat="46.0866965" lon="10.930263"><ele>717.0</ele><time>2026-04-24T08:53:07.837Z</time></trkpt><trkpt lat="46.0866435" lon="10.930212"><ele>717.0</ele><time>2026-04-24T08:53:08.873Z</time></trkpt><trkpt lat="46.0865758" lon="10.9302077"><ele>717.0</ele><time>2026-04-24T08:53:10.879Z</time></trkpt><trkpt lat="46.0864939" lon="10.930234"><ele>717.0</ele><time>2026-04-24T08:53:13.932Z</time></trkpt><trkpt lat="46.0864305" lon="10.9302804"><ele>717.0</ele><time>2026-04-24T08:53:15.89Z</time></trkpt><trkpt lat="46.0863512" lon="10.930335"><ele>717.0</ele><time>2026-04-24T08:53:17.981Z</time></trkpt><trkpt lat="46.0862711" lon="10.9303942"><ele>716.5</ele><time>2026-04-24T08:53:19.895Z</time></trkpt><trkpt lat="46.0861836" lon="10.9304618"><ele>716.0</ele><time>2026-04-24T08:53:21.846Z</time></trkpt><trkpt lat="46.0860883" lon="10.9305421"><ele>715.5</ele><time>2026-04-24T08:53:23.893Z</time></trkpt><trkpt lat="46.0860204" lon="10.930602"><ele>715.0</ele><time>2026-04-24T08:53:25.877Z</time></trkpt><trkpt lat="46.0859561" lon="10.9306246"><ele>714.5</ele><time>2026-04-24T08:53:29.02Z</time></trkpt><trkpt lat="46.086022" lon="10.9306141"><ele>714.0</ele><time>2026-04-24T08:53:33.871Z</time></trkpt><trkpt lat="46.08612" lon="10.9305246"><ele>714.0</ele><time>2026-04-24T08:53:35.899Z</time></trkpt><trkpt lat="46.0861857" lon="10.9304714"><ele>714.0</ele><time>2026-04-24T08:53:36.873Z</time></trkpt><trkpt lat="46.0862559" lon="10.9304093"><ele>714.0</ele><time>2026-04-24T08:53:37.867Z</time></trkpt><trkpt lat="46.0863276" lon="10.9303488"><ele>714.0</ele><time>2026-04-24T08:53:38.878Z</time></trkpt><trkpt lat="46.0864105" lon="10.9302982"><ele>714.0</ele><time>2026-04-24T08:53:39.898Z</time></trkpt><trkpt lat="46.0865071" lon="10.9302363"><ele>714.0</ele><time>2026-04-24T08:53:40.973Z</time></trkpt><trkpt lat="46.0865762" lon="10.9302117"><ele>714.5</ele><time>2026-04-24T08:53:41.873Z</time></trkpt><trkpt lat="46.0866397" lon="10.9302232"><ele>715.0</ele><time>2026-04-24T08:53:42.893Z</time></trkpt><trkpt lat="46.0866986" lon="10.930267"><ele>715.5</ele><time>2026-04-24T08:53:43.867Z</time></trkpt><trkpt lat="46.0867644" lon="10.9303526"><ele>716.0</ele><time>2026-04-24T08:53:44.895Z</time></trkpt><trkpt lat="46.0868365" lon="10.9304648"><ele>716.5</ele><time>2026-04-24T08:53:45.841Z</time></trkpt><trkpt lat="46.0868954" lon="10.9305995"><ele>717.0</ele><time>2026-04-24T08:53:46.851Z</time></trkpt><trkpt lat="46.0869563" lon="10.9307525"><ele>719.4000000000001</ele><time>2026-04-24T08:53:47.874Z</time></trkpt><trkpt lat="46.0870185" lon="10.9308964"><ele>721.8000000000001</ele><time>2026-04-24T08:53:48.843Z</time></trkpt><trkpt lat="46.0870829" lon="10.9310156"><ele>724.2</ele><time>2026-04-24T08:53:49.843Z</time></trkpt><trkpt lat="46.0871418" lon="10.9311293"><ele>726.6</ele><time>2026-04-24T08:53:50.83Z</time></trkpt><trkpt lat="46.0872079" lon="10.9312604"><ele>729.0</ele><time>2026-04-24T08:53:51.855Z</time></trkpt><trkpt lat="46.0872635" lon="10.9313886"><ele>729.0</ele><time>2026-04-24T08:53:52.83Z</time></trkpt><trkpt lat="46.0873247" lon="10.9314991"><ele>729.0</ele><time>2026-04-24T08:53:53.85Z</time></trkpt><trkpt lat="46.0873959" lon="10.9315756"><ele>729.0</ele><time>2026-04-24T08:53:54.843Z</time></trkpt><trkpt lat="46.0874763" lon="10.9315921"><ele>729.0</ele><time>2026-04-24T08:53:55.853Z</time></trkpt><trkpt lat="46.0875919" lon="10.9315484"><ele>729.0</ele><time>2026-04-24T08:53:56.852Z</time></trkpt><trkpt lat="46.0877022" lon="10.9315155"><ele>727.1666666666666</ele><time>2026-04-24T08:53:57.859Z</time></trkpt><trkpt lat="46.0878045" lon="10.9314829"><ele>725.3333333333334</ele><time>2026-04-24T08:53:58.837Z</time></trkpt><trkpt lat="46.0878994" lon="10.9314578"><ele>723.5</ele><time>2026-04-24T08:53:59.854Z</time></trkpt><trkpt lat="46.0879833" lon="10.9314445"><ele>721.6666666666667</ele><time>2026-04-24T08:54:00.877Z</time></trkpt><trkpt lat="46.0880619" lon="10.9314417"><ele>719.8333333333334</ele><time>2026-04-24T08:54:01.855Z</time></trkpt><trkpt lat="46.0881354" lon="10.9314619"><ele>718.0</ele><time>2026-04-24T08:54:02.859Z</time></trkpt><trkpt lat="46.0882069" lon="10.9315107"><ele>718.0</ele><time>2026-04-24T08:54:03.833Z</time></trkpt><trkpt lat="46.0882713" lon="10.9315632"><ele>718.0</ele><time>2026-04-24T08:54:04.837Z</time></trkpt><trkpt lat="46.0883279" lon="10.9316069"><ele>718.0</ele><time>2026-04-24T08:54:05.843Z</time></trkpt><trkpt lat="46.0883789" lon="10.9315452"><ele>718.0</ele><time>2026-04-24T08:54:11.859Z</time></trkpt><trkpt lat="46.0883349" lon="10.9314429"><ele>718.0</ele><time>2026-04-24T08:54:15.903Z</time></trkpt><trkpt lat="46.0883346" lon="10.9313485"><ele>718.0</ele><time>2026-04-24T08:54:19.865Z</time></trkpt><trkpt lat="46.0883556" lon="10.9312475"><ele>718.0</ele><time>2026-04-24T08:54:21.865Z</time></trkpt><trkpt lat="46.0883778" lon="10.9311369"><ele>718.0</ele><time>2026-04-24T08:54:23.88Z</time></trkpt><trkpt lat="46.0884308" lon="10.9310545"><ele>718.0</ele><time>2026-04-24T08:54:27.896Z</time></trkpt><trkpt lat="46.0885011" lon="10.9309676"><ele>718.0</ele><time>2026-04-24T08:54:30.865Z</time></trkpt><trkpt lat="46.0885632" lon="10.9309048"><ele>718.0</ele><time>2026-04-24T08:54:32.857Z</time></trkpt><trkpt lat="46.0886257" lon="10.9308304"><ele>718.0</ele><time>2026-04-24T08:54:35.858Z</time></trkpt><trkpt lat="46.0886828" lon="10.9307445"><ele>718.0</ele><time>2026-04-24T08:54:37.88Z</time></trkpt><trkpt lat="46.088728" lon="10.9306572"><ele>715.5</ele><time>2026-04-24T08:54:39.882Z</time></trkpt><trkpt lat="46.0887783" lon="10.9305798"><ele>713.0</ele><time>2026-04-24T08:54:41.904Z</time></trkpt><trkpt lat="46.0888328" lon="10.9304994"><ele>710.5</ele><time>2026-04-24T08:54:43.876Z</time></trkpt><trkpt lat="46.0888882" lon="10.9304132"><ele>708.0</ele><time>2026-04-24T08:54:45.849Z</time></trkpt><trkpt lat="46.0889547" lon="10.9302743"><ele>705.5</ele><time>2026-04-24T08:54:48.837Z</time></trkpt><trkpt lat="46.0889948" lon="10.9301937"><ele>703.0</ele><time>2026-04-24T08:54:50.859Z</time></trkpt><trkpt lat="46.0890438" lon="10.930087"><ele>702.8333333333334</ele><time>2026-04-24T08:54:53.846Z</time></trkpt><trkpt lat="46.089094" lon="10.929977"><ele>702.6666666666667</ele><time>2026-04-24T08:54:56.853Z</time></trkpt><trkpt lat="46.0891338" lon="10.929883"><ele>702.5</ele><time>2026-04-24T08:54:58.84Z</time></trkpt><trkpt lat="46.0891803" lon="10.9297911"><ele>702.3333333333334</ele><time>2026-04-24T08:55:00.891Z</time></trkpt><trkpt lat="46.0892174" lon="10.9297022"><ele>702.1666666666666</ele><time>2026-04-24T08:55:02.862Z</time></trkpt><trkpt lat="46.0892465" lon="10.9296112"><ele>702.0</ele><time>2026-04-24T08:55:04.865Z</time></trkpt><trkpt lat="46.0892391" lon="10.9295101"><ele>702.0</ele><time>2026-04-24T08:55:06.883Z</time></trkpt><trkpt lat="46.0892048" lon="10.9294052"><ele>702.0</ele><time>2026-04-24T08:55:09.859Z</time></trkpt><trkpt lat="46.0891111" lon="10.9293734"><ele>702.0</ele><time>2026-04-24T08:55:12.885Z</time></trkpt><trkpt lat="46.0890271" lon="10.9293568"><ele>702.0</ele><time>2026-04-24T08:55:14.848Z</time></trkpt><trkpt lat="46.0889574" lon="10.9293422"><ele>702.0</ele><time>2026-04-24T08:55:16.861Z</time></trkpt><trkpt lat="46.0888819" lon="10.9293258"><ele>702.0</ele><time>2026-04-24T08:55:18.861Z</time></trkpt><trkpt lat="46.08881" lon="10.9293454"><ele>699.6666666666666</ele><time>2026-04-24T08:55:20.875Z</time></trkpt><trkpt lat="46.088728" lon="10.9293331"><ele>697.3333333333334</ele><time>2026-04-24T08:55:22.86Z</time></trkpt><trkpt lat="46.0886631" lon="10.9293476"><ele>695.0</ele><time>2026-04-24T08:55:24.848Z</time></trkpt><trkpt lat="46.0885734" lon="10.9293925"><ele>692.6666666666667</ele><time>2026-04-24T08:55:26.853Z</time></trkpt><trkpt lat="46.0884994" lon="10.9293909"><ele>690.3333333333334</ele><time>2026-04-24T08:55:28.855Z</time></trkpt><trkpt lat="46.0883982" lon="10.9293346"><ele>688.0</ele><time>2026-04-24T08:55:31.857Z</time></trkpt><trkpt lat="46.0882985" lon="10.9292802"><ele>687.6666666666667</ele><time>2026-04-24T08:55:33.854Z</time></trkpt><trkpt lat="46.0882316" lon="10.929248"><ele>687.3333333333334</ele><time>2026-04-24T08:55:35.88Z</time></trkpt><trkpt lat="46.0881496" lon="10.9291999"><ele>687.0</ele><time>2026-04-24T08:55:38.834Z</time></trkpt><trkpt lat="46.0880655" lon="10.9291572"><ele>686.6666666666666</ele><time>2026-04-24T08:55:41.882Z</time></trkpt><trkpt lat="46.0879875" lon="10.9291376"><ele>686.3333333333333</ele><time>2026-04-24T08:55:43.851Z</time></trkpt><trkpt lat="46.0879128" lon="10.9291272"><ele>686.0</ele><time>2026-04-24T08:55:45.932Z</time></trkpt><trkpt lat="46.0878145" lon="10.9291213"><ele>684.6666666666666</ele><time>2026-04-24T08:55:48.839Z</time></trkpt><trkpt lat="46.0877497" lon="10.9290981"><ele>683.3333333333333</ele><time>2026-04-24T08:55:50.861Z</time></trkpt><trkpt lat="46.0876811" lon="10.9290539"><ele>682.0</ele><time>2026-04-24T08:55:52.894Z</time></trkpt><trkpt lat="46.0876201" lon="10.9290242"><ele>680.6666666666666</ele><time>2026-04-24T08:55:55.882Z</time></trkpt><trkpt lat="46.0875371" lon="10.9289724"><ele>679.3333333333334</ele><time>2026-04-24T08:59:56.855Z</time></trkpt><trkpt lat="46.0874693" lon="10.9289053"><ele>678.0</ele><time>2026-04-24T08:59:58.854Z</time></trkpt><trkpt lat="46.0874028" lon="10.9288453"><ele>678.0</ele><time>2026-04-24T09:00:00.861Z</time></trkpt><trkpt lat="46.0873129" lon="10.9287913"><ele>678.0</ele><time>2026-04-24T09:00:02.892Z</time></trkpt><trkpt lat="46.0872221" lon="10.9287201"><ele>678.0</ele><time>2026-04-24T09:00:04.875Z</time></trkpt><trkpt lat="46.0871541" lon="10.92866"><ele>678.0</ele><time>2026-04-24T09:00:06.844Z</time></trkpt><trkpt lat="46.0870595" lon="10.9285918"><ele>678.0</ele><time>2026-04-24T09:00:08.864Z</time></trkpt><trkpt lat="46.086978" lon="10.928542"><ele>678.0</ele><time>2026-04-24T09:00:10.862Z</time></trkpt><trkpt lat="46.0868946" lon="10.9285108"><ele>678.0</ele><time>2026-04-24T09:00:12.843Z</time></trkpt><trkpt lat="46.0868291" lon="10.9284773"><ele>678.0</ele><time>2026-04-24T09:00:14.863Z</time></trkpt><trkpt lat="46.086764" lon="10.9284588"><ele>678.0</ele><time>2026-04-24T09:00:16.887Z</time></trkpt><trkpt lat="46.0866922" lon="10.9284585"><ele>678.0</ele><time>2026-04-24T09:00:19.857Z</time></trkpt><trkpt lat="46.0866248" lon="10.9284534"><ele>678.0</ele><time>2026-04-24T09:00:21.867Z</time></trkpt><trkpt lat="46.0865527" lon="10.9284559"><ele>678.0</ele><time>2026-04-24T09:00:23.887Z</time></trkpt><trkpt lat="46.0864794" lon="10.9284476"><ele>678.0</ele><time>2026-04-24T09:00:30.868Z</time></trkpt><trkpt lat="46.0865691" lon="10.9284294"><ele>678.0</ele><time>2026-04-24T09:03:38.858Z</time></trkpt><trkpt lat="46.0866779" lon="10.9284604"><ele>678.0</ele><time>2026-04-24T09:03:40.865Z</time></trkpt><trkpt lat="46.0867855" lon="10.9284815"><ele>678.0</ele><time>2026-04-24T09:03:42.87Z</time></trkpt><trkpt lat="46.0868738" lon="10.928537"><ele>678.0</ele><time>2026-04-24T09:03:44.849Z</time></trkpt><trkpt lat="46.0869661" lon="10.9285587"><ele>678.0</ele><time>2026-04-24T09:03:46.854Z</time></trkpt><trkpt lat="46.0870963" lon="10.9286193"><ele>678.0</ele><time>2026-04-24T09:03:48.865Z</time></trkpt><trkpt lat="46.087193" lon="10.928692"><ele>678.0</ele><time>2026-04-24T09:03:50.866Z</time></trkpt><trkpt lat="46.0872704" lon="10.9287771"><ele>678.0</ele><time>2026-04-24T09:03:52.904Z</time></trkpt><trkpt lat="46.0873659" lon="10.9288379"><ele>678.0</ele><time>2026-04-24T09:03:54.831Z</time></trkpt><trkpt lat="46.0874266" lon="10.9288761"><ele>678.0</ele><time>2026-04-24T09:03:55.858Z</time></trkpt><trkpt lat="46.0875231" lon="10.9289534"><ele>678.0</ele><time>2026-04-24T09:03:57.872Z</time></trkpt><trkpt lat="46.0876014" lon="10.9290187"><ele>678.0</ele><time>2026-04-24T09:03:59.901Z</time></trkpt><trkpt lat="46.0876741" lon="10.9290753"><ele>678.0</ele><time>2026-04-24T09:04:01.888Z</time></trkpt><trkpt lat="46.0877448" lon="10.9291152"><ele>678.0</ele><time>2026-04-24T09:04:03.907Z</time></trkpt><trkpt lat="46.0878427" lon="10.9291301"><ele>678.0</ele><time>2026-04-24T09:04:05.87Z</time></trkpt><trkpt lat="46.0879442" lon="10.9291539"><ele>678.0</ele><time>2026-04-24T09:04:07.86Z</time></trkpt><trkpt lat="46.0880471" lon="10.9292067"><ele>678.0</ele><time>2026-04-24T09:04:09.862Z</time></trkpt><trkpt lat="46.0881293" lon="10.9292712"><ele>678.0</ele><time>2026-04-24T09:04:11.869Z</time></trkpt><trkpt lat="46.0882118" lon="10.9293134"><ele>678.0</ele><time>2026-04-24T09:04:13.876Z</time></trkpt><trkpt lat="46.0883035" lon="10.9293515"><ele>680.0</ele><time>2026-04-24T09:04:15.873Z</time></trkpt><trkpt lat="46.0883659" lon="10.9293659"><ele>682.0</ele><time>2026-04-24T09:04:16.859Z</time></trkpt><trkpt lat="46.0884446" lon="10.9293937"><ele>684.0</ele><time>2026-04-24T09:04:18.868Z</time></trkpt><trkpt lat="46.0885645" lon="10.9293858"><ele>686.0</ele><time>2026-04-24T09:04:20.848Z</time></trkpt><trkpt lat="46.0886346" lon="10.9293665"><ele>688.0</ele><time>2026-04-24T09:04:21.879Z</time></trkpt><trkpt lat="46.0887542" lon="10.9293473"><ele>688.0</ele><time>2026-04-24T09:04:23.869Z</time></trkpt><trkpt lat="46.0889421" lon="10.9293333"><ele>688.0</ele><time>2026-04-24T09:04:26.875Z</time></trkpt><trkpt lat="46.0890128" lon="10.9293335"><ele>688.0</ele><time>2026-04-24T09:04:27.854Z</time></trkpt><trkpt lat="46.0890868" lon="10.9293356"><ele>688.0</ele><time>2026-04-24T09:04:28.854Z</time></trkpt><trkpt lat="46.0891589" lon="10.9293528"><ele>688.0</ele><time>2026-04-24T09:04:29.884Z</time></trkpt><trkpt lat="46.0892446" lon="10.9293955"><ele>688.0</ele><time>2026-04-24T09:04:31.86Z</time></trkpt><trkpt lat="46.0892477" lon="10.929523"><ele>688.0</ele><time>2026-04-24T09:04:34.935Z</time></trkpt><trkpt lat="46.0892041" lon="10.9296726"><ele>688.0</ele><time>2026-04-24T09:04:36.894Z</time></trkpt><trkpt lat="46.0891613" lon="10.9298209"><ele>688.0</ele><time>2026-04-24T09:04:38.869Z</time></trkpt><trkpt lat="46.0891319" lon="10.9299021"><ele>688.0</ele><time>2026-04-24T09:04:39.864Z</time></trkpt><trkpt lat="46.0890801" lon="10.9300564"><ele>691.0</ele><time>2026-04-24T09:04:41.851Z</time></trkpt><trkpt lat="46.0890165" lon="10.9302216"><ele>694.0</ele><time>2026-04-24T09:04:43.841Z</time></trkpt><trkpt lat="46.0889773" lon="10.9303148"><ele>697.0</ele><time>2026-04-24T09:04:44.869Z</time></trkpt><trkpt lat="46.0889265" lon="10.9304243"><ele>700.0</ele><time>2026-04-24T09:04:46.08Z</time></trkpt><trkpt lat="46.0888522" lon="10.9305532"><ele>703.0</ele><time>2026-04-24T09:04:47.886Z</time></trkpt><trkpt lat="46.0887814" lon="10.9306723"><ele>703.0</ele><time>2026-04-24T09:04:49.872Z</time></trkpt><trkpt lat="46.0887123" lon="10.9307918"><ele>703.0</ele><time>2026-04-24T09:04:51.87Z</time></trkpt><trkpt lat="46.0886223" lon="10.9309103"><ele>703.0</ele><time>2026-04-24T09:04:53.862Z</time></trkpt><trkpt lat="46.0885689" lon="10.9309635"><ele>703.0</ele><time>2026-04-24T09:04:54.864Z</time></trkpt><trkpt lat="46.0884842" lon="10.9310834"><ele>703.0</ele><time>2026-04-24T09:04:56.878Z</time></trkpt><trkpt lat="46.0884308" lon="10.9312076"><ele>706.0</ele><time>2026-04-24T09:04:58.866Z</time></trkpt><trkpt lat="46.0884116" lon="10.9313485"><ele>709.0</ele><time>2026-04-24T09:05:00.868Z</time></trkpt><trkpt lat="46.0884142" lon="10.9314873"><ele>712.0</ele><time>2026-04-24T09:05:02.877Z</time></trkpt><trkpt lat="46.088418" lon="10.931581"><ele>715.0</ele><time>2026-04-24T09:05:04.87Z</time></trkpt><trkpt lat="46.0883447" lon="10.9315842"><ele>718.0</ele><time>2026-04-24T09:05:07.891Z</time></trkpt><trkpt lat="46.0882357" lon="10.9314916"><ele>718.0</ele><time>2026-04-24T09:05:09.874Z</time></trkpt><trkpt lat="46.0881675" lon="10.9314328"><ele>718.0</ele><time>2026-04-24T09:05:10.925Z</time></trkpt><trkpt lat="46.0880912" lon="10.9313901"><ele>718.0</ele><time>2026-04-24T09:05:11.87Z</time></trkpt><trkpt lat="46.0879858" lon="10.9313692"><ele>718.0</ele><time>2026-04-24T09:05:12.89Z</time></trkpt><trkpt lat="46.0878685" lon="10.9313903"><ele>718.0</ele><time>2026-04-24T09:05:13.904Z</time></trkpt><trkpt lat="46.0877616" lon="10.931433"><ele>718.0</ele><time>2026-04-24T09:05:14.875Z</time></trkpt><trkpt lat="46.0876529" lon="10.9314743"><ele>718.0</ele><time>2026-04-24T09:05:15.906Z</time></trkpt><trkpt lat="46.0875605" lon="10.9315044"><ele>718.0</ele><time>2026-04-24T09:05:16.858Z</time></trkpt><trkpt lat="46.08747" lon="10.9315247"><ele>718.0</ele><time>2026-04-24T09:05:17.872Z</time></trkpt><trkpt lat="46.0873978" lon="10.9315226"><ele>718.0</ele><time>2026-04-24T09:05:18.868Z</time></trkpt><trkpt lat="46.0873036" lon="10.9314639"><ele>717.8</ele><time>2026-04-24T09:05:20.856Z</time></trkpt><trkpt lat="46.0872311" lon="10.9313918"><ele>717.5999999999999</ele><time>2026-04-24T09:05:21.839Z</time></trkpt><trkpt lat="46.0871481" lon="10.9312782"><ele>717.4000000000001</ele><time>2026-04-24T09:05:22.86Z</time></trkpt><trkpt lat="46.0870715" lon="10.9311485"><ele>717.2</ele><time>2026-04-24T09:05:23.855Z</time></trkpt><trkpt lat="46.0869887" lon="10.9310074"><ele>717.0</ele><time>2026-04-24T09:05:24.862Z</time></trkpt><trkpt lat="46.0869074" lon="10.9308594"><ele>717.0</ele><time>2026-04-24T09:05:25.873Z</time></trkpt><trkpt lat="46.0868454" lon="10.9307199"><ele>717.0</ele><time>2026-04-24T09:05:26.855Z</time></trkpt><trkpt lat="46.0867942" lon="10.9305887"><ele>717.0</ele><time>2026-04-24T09:05:27.849Z</time></trkpt><trkpt lat="46.086744" lon="10.930463"><ele>717.0</ele><time>2026-04-24T09:05:28.888Z</time></trkpt><trkpt lat="46.0866887" lon="10.9303685"><ele>717.0</ele><time>2026-04-24T09:05:29.87Z</time></trkpt><trkpt lat="46.0866346" lon="10.9302991"><ele>716.4000000000001</ele><time>2026-04-24T09:05:30.857Z</time></trkpt><trkpt lat="46.0865784" lon="10.930258"><ele>715.8000000000001</ele><time>2026-04-24T09:05:31.894Z</time></trkpt><trkpt lat="46.0864354" lon="10.9302662"><ele>715.2</ele><time>2026-04-24T09:05:33.866Z</time></trkpt><trkpt lat="46.0863409" lon="10.930329"><ele>714.6</ele><time>2026-04-24T09:05:34.9Z</time></trkpt><trkpt lat="46.0862571" lon="10.930391"><ele>714.0</ele><time>2026-04-24T09:05:35.851Z</time></trkpt><trkpt lat="46.0861545" lon="10.9304693"><ele>714.0</ele><time>2026-04-24T09:05:36.949Z</time></trkpt><trkpt lat="46.0860597" lon="10.9305434"><ele>714.0</ele><time>2026-04-24T09:05:37.946Z</time></trkpt><trkpt lat="46.0859786" lon="10.9306066"><ele>714.0</ele><time>2026-04-24T09:05:38.939Z</time></trkpt><trkpt lat="46.0858796" lon="10.9306374"><ele>714.0</ele><time>2026-04-24T09:05:39.951Z</time></trkpt><trkpt lat="46.0857727" lon="10.9306488"><ele>714.0</ele><time>2026-04-24T09:05:40.97Z</time></trkpt><trkpt lat="46.0856718" lon="10.9306668"><ele>712.0</ele><time>2026-04-24T09:05:41.967Z</time></trkpt><trkpt lat="46.0855784" lon="10.9306686"><ele>710.0</ele><time>2026-04-24T09:05:42.914Z</time></trkpt><trkpt lat="46.0854856" lon="10.9306452"><ele>708.0</ele><time>2026-04-24T09:05:43.939Z</time></trkpt><trkpt lat="46.0853965" lon="10.9305928"><ele>706.0</ele><time>2026-04-24T09:05:44.925Z</time></trkpt><trkpt lat="46.085315" lon="10.9305215"><ele>704.0</ele><time>2026-04-24T09:05:45.875Z</time></trkpt><trkpt lat="46.0852343" lon="10.9304328"><ele>704.0</ele><time>2026-04-24T09:05:46.873Z</time></trkpt><trkpt lat="46.0851525" lon="10.9303357"><ele>704.0</ele><time>2026-04-24T09:05:47.918Z</time></trkpt><trkpt lat="46.0850757" lon="10.9302475"><ele>704.0</ele><time>2026-04-24T09:05:48.943Z</time></trkpt><trkpt lat="46.0850045" lon="10.9301777"><ele>704.0</ele><time>2026-04-24T09:05:49.934Z</time></trkpt><trkpt lat="46.0849284" lon="10.9301125"><ele>704.0</ele><time>2026-04-24T09:05:50.941Z</time></trkpt><trkpt lat="46.0848521" lon="10.9300482"><ele>703.25</ele><time>2026-04-24T09:05:51.914Z</time></trkpt><trkpt lat="46.0847712" lon="10.929973"><ele>702.5</ele><time>2026-04-24T09:05:52.878Z</time></trkpt><trkpt lat="46.0846741" lon="10.9298803"><ele>701.75</ele><time>2026-04-24T09:05:53.914Z</time></trkpt><trkpt lat="46.0845748" lon="10.9297917"><ele>701.0</ele><time>2026-04-24T09:05:54.882Z</time></trkpt><trkpt lat="46.0844694" lon="10.9297083"><ele>701.0</ele><time>2026-04-24T09:05:55.921Z</time></trkpt><trkpt lat="46.0843811" lon="10.9296461"><ele>701.0</ele><time>2026-04-24T09:05:56.892Z</time></trkpt><trkpt lat="46.0842889" lon="10.9295838"><ele>701.0</ele><time>2026-04-24T09:05:57.941Z</time></trkpt><trkpt lat="46.0841911" lon="10.9295496"><ele>701.0</ele><time>2026-04-24T09:05:58.902Z</time></trkpt><trkpt lat="46.0841105" lon="10.9295436"><ele>701.0</ele><time>2026-04-24T09:05:59.897Z</time></trkpt><trkpt lat="46.0840415" lon="10.9295392"><ele>700.1666666666666</ele><time>2026-04-24T09:06:00.876Z</time></trkpt><trkpt lat="46.083975" lon="10.9295308"><ele>699.3333333333333</ele><time>2026-04-24T09:06:01.912Z</time></trkpt><trkpt lat="46.0839048" lon="10.9295267"><ele>698.5</ele><time>2026-04-24T09:06:03.932Z</time></trkpt><trkpt lat="46.0838102" lon="10.9295239"><ele>697.6666666666666</ele><time>2026-04-24T09:06:13.892Z</time></trkpt><trkpt lat="46.0837074" lon="10.9295796"><ele>696.8333333333334</ele><time>2026-04-24T09:06:15.952Z</time></trkpt><trkpt lat="46.0836546" lon="10.9296521"><ele>696.0</ele><time>2026-04-24T09:06:16.975Z</time></trkpt><trkpt lat="46.0836064" lon="10.9297335"><ele>696.0</ele><time>2026-04-24T09:06:17.888Z</time></trkpt><trkpt lat="46.0835456" lon="10.9298391"><ele>696.0</ele><time>2026-04-24T09:06:18.898Z</time></trkpt><trkpt lat="46.0834764" lon="10.9299408"><ele>696.0</ele><time>2026-04-24T09:06:19.901Z</time></trkpt><trkpt lat="46.0834" lon="10.9300289"><ele>696.0</ele><time>2026-04-24T09:06:20.928Z</time></trkpt><trkpt lat="46.0833255" lon="10.9301006"><ele>696.0</ele><time>2026-04-24T09:06:21.961Z</time></trkpt><trkpt lat="46.0832573" lon="10.930171"><ele>693.3333333333334</ele><time>2026-04-24T09:06:22.97Z</time></trkpt><trkpt lat="46.0831954" lon="10.9302416"><ele>690.6666666666666</ele><time>2026-04-24T09:06:23.935Z</time></trkpt><trkpt lat="46.0831313" lon="10.9303018"><ele>688.0</ele><time>2026-04-24T09:06:24.914Z</time></trkpt><trkpt lat="46.0830604" lon="10.9303352"><ele>685.3333333333333</ele><time>2026-04-24T09:06:25.911Z</time></trkpt><trkpt lat="46.0829823" lon="10.9303304"><ele>682.6666666666666</ele><time>2026-04-24T09:06:26.903Z</time></trkpt><trkpt lat="46.0829053" lon="10.9302974"><ele>680.0</ele><time>2026-04-24T09:06:27.891Z</time></trkpt><trkpt lat="46.0828323" lon="10.9302318"><ele>680.0</ele><time>2026-04-24T09:06:28.891Z</time></trkpt><trkpt lat="46.0827645" lon="10.9301436"><ele>680.0</ele><time>2026-04-24T09:06:29.903Z</time></trkpt><trkpt lat="46.0827094" lon="10.9300627"><ele>680.0</ele><time>2026-04-24T09:06:30.902Z</time></trkpt><trkpt lat="46.0826568" lon="10.9300003"><ele>680.0</ele><time>2026-04-24T09:06:31.937Z</time></trkpt><trkpt lat="46.0825884" lon="10.9299196"><ele>680.0</ele><time>2026-04-24T09:06:32.946Z</time></trkpt><trkpt lat="46.0825109" lon="10.9297942"><ele>680.0</ele><time>2026-04-24T09:06:34.194Z</time></trkpt><trkpt lat="46.0824276" lon="10.929612"><ele>677.8</ele><time>2026-04-24T09:06:35.942Z</time></trkpt><trkpt lat="46.0823894" lon="10.9294988"><ele>675.6</ele><time>2026-04-24T09:06:36.915Z</time></trkpt><trkpt lat="46.0823616" lon="10.9293807"><ele>673.4000000000001</ele><time>2026-04-24T09:06:37.967Z</time></trkpt><trkpt lat="46.0823466" lon="10.9292719"><ele>671.2</ele><time>2026-04-24T09:06:38.997Z</time></trkpt><trkpt lat="46.0822777" lon="10.9291537"><ele>669.0</ele><time>2026-04-24T09:06:40.977Z</time></trkpt><trkpt lat="46.0822" lon="10.9292468"><ele>669.0</ele><time>2026-04-24T09:06:42.912Z</time></trkpt><trkpt lat="46.0821885" lon="10.9293378"><ele>669.0</ele><time>2026-04-24T09:06:43.899Z</time></trkpt><trkpt lat="46.0821901" lon="10.9294638"><ele>669.0</ele><time>2026-04-24T09:06:44.932Z</time></trkpt><trkpt lat="46.0821812" lon="10.9295784"><ele>669.0</ele><time>2026-04-24T09:06:45.945Z</time></trkpt><trkpt lat="46.0821787" lon="10.9296858"><ele>669.0</ele><time>2026-04-24T09:06:46.897Z</time></trkpt><trkpt lat="46.0821855" lon="10.9297978"><ele>669.0</ele><time>2026-04-24T09:06:47.903Z</time></trkpt><trkpt lat="46.0821926" lon="10.9299059"><ele>669.0</ele><time>2026-04-24T09:06:48.905Z</time></trkpt><trkpt lat="46.0821718" lon="10.9299989"><ele>669.0</ele><time>2026-04-24T09:06:49.908Z</time></trkpt><trkpt lat="46.0821359" lon="10.9300863"><ele>669.0</ele><time>2026-04-24T09:06:50.903Z</time></trkpt><trkpt lat="46.0820875" lon="10.9301694"><ele>669.0</ele><time>2026-04-24T09:06:51.912Z</time></trkpt><trkpt lat="46.0820218" lon="10.9302317"><ele>669.0</ele><time>2026-04-24T09:06:52.905Z</time></trkpt><trkpt lat="46.0819417" lon="10.9302674"><ele>669.0</ele><time>2026-04-24T09:06:53.912Z</time></trkpt><trkpt lat="46.0818596" lon="10.9302624"><ele>668.6666666666666</ele><time>2026-04-24T09:06:54.908Z</time></trkpt><trkpt lat="46.0817746" lon="10.9302394"><ele>668.3333333333334</ele><time>2026-04-24T09:06:55.918Z</time></trkpt><trkpt lat="46.0816972" lon="10.9301959"><ele>668.0</ele><time>2026-04-24T09:06:56.893Z</time></trkpt><trkpt lat="46.0816304" lon="10.9301385"><ele>667.6666666666667</ele><time>2026-04-24T09:06:57.915Z</time></trkpt><trkpt lat="46.0815752" lon="10.9300681"><ele>667.3333333333334</ele><time>2026-04-24T09:06:58.899Z</time></trkpt><trkpt lat="46.0815263" lon="10.9299808"><ele>667.0</ele><time>2026-04-24T09:06:59.947Z</time></trkpt><trkpt lat="46.081479" lon="10.9298855"><ele>665.3333333333334</ele><time>2026-04-24T09:07:00.939Z</time></trkpt><trkpt lat="46.081441" lon="10.9297755"><ele>663.6666666666667</ele><time>2026-04-24T09:07:01.958Z</time></trkpt><trkpt lat="46.0814089" lon="10.9296744"><ele>662.0</ele><time>2026-04-24T09:07:02.933Z</time></trkpt><trkpt lat="46.0813697" lon="10.9295881"><ele>660.3333333333334</ele><time>2026-04-24T09:07:03.897Z</time></trkpt><trkpt lat="46.0813232" lon="10.929498"><ele>658.6666666666666</ele><time>2026-04-24T09:07:04.906Z</time></trkpt><trkpt lat="46.081281" lon="10.9294171"><ele>657.0</ele><time>2026-04-24T09:07:05.905Z</time></trkpt><trkpt lat="46.0812401" lon="10.9293396"><ele>657.0</ele><time>2026-04-24T09:07:06.902Z</time></trkpt><trkpt lat="46.0811964" lon="10.929257"><ele>657.0</ele><time>2026-04-24T09:07:07.873Z</time></trkpt><trkpt lat="46.0811485" lon="10.9291603"><ele>657.0</ele><time>2026-04-24T09:07:08.942Z</time></trkpt><trkpt lat="46.0811073" lon="10.9290784"><ele>657.0</ele><time>2026-04-24T09:07:09.885Z</time></trkpt><trkpt lat="46.0810583" lon="10.9289854"><ele>657.0</ele><time>2026-04-24T09:07:10.911Z</time></trkpt><trkpt lat="46.0810088" lon="10.9288927"><ele>657.0</ele><time>2026-04-24T09:07:11.918Z</time></trkpt><trkpt lat="46.080959" lon="10.9288085"><ele>656.1666666666666</ele><time>2026-04-24T09:07:12.892Z</time></trkpt><trkpt lat="46.0809011" lon="10.9287258"><ele>655.3333333333334</ele><time>2026-04-24T09:07:13.886Z</time></trkpt><trkpt lat="46.0808418" lon="10.9286504"><ele>654.5</ele><time>2026-04-24T09:07:14.871Z</time></trkpt><trkpt lat="46.080786" lon="10.9285775"><ele>653.6666666666667</ele><time>2026-04-24T09:07:15.903Z</time></trkpt><trkpt lat="46.080737" lon="10.9285123"><ele>652.8333333333334</ele><time>2026-04-24T09:07:16.898Z</time></trkpt><trkpt lat="46.0806971" lon="10.9284342"><ele>652.0</ele><time>2026-04-24T09:07:17.926Z</time></trkpt><trkpt lat="46.0806562" lon="10.9282743"><ele>648.4</ele><time>2026-04-24T09:07:19.913Z</time></trkpt><trkpt lat="46.0806503" lon="10.9281421"><ele>644.8000000000001</ele><time>2026-04-24T09:07:21.91Z</time></trkpt><trkpt lat="46.0806276" lon="10.9280011"><ele>641.2</ele><time>2026-04-24T09:07:23.902Z</time></trkpt><trkpt lat="46.0805619" lon="10.9278974"><ele>637.6</ele><time>2026-04-24T09:07:25.888Z</time></trkpt><trkpt lat="46.0804722" lon="10.9278481"><ele>634.0</ele><time>2026-04-24T09:07:27.862Z</time></trkpt><trkpt lat="46.0803764" lon="10.9277899"><ele>634.0</ele><time>2026-04-24T09:07:29.954Z</time></trkpt><trkpt lat="46.0802702" lon="10.9277453"><ele>634.0</ele><time>2026-04-24T09:07:31.908Z</time></trkpt><trkpt lat="46.0801551" lon="10.9277074"><ele>634.0</ele><time>2026-04-24T09:07:33.889Z</time></trkpt><trkpt lat="46.0800394" lon="10.9276643"><ele>634.0</ele><time>2026-04-24T09:07:35.908Z</time></trkpt><trkpt lat="46.0799353" lon="10.9276323"><ele>632.0</ele><time>2026-04-24T09:07:37.891Z</time></trkpt><trkpt lat="46.0798579" lon="10.9276071"><ele>630.0</ele><time>2026-04-24T09:07:39.91Z</time></trkpt><trkpt lat="46.0797701" lon="10.9275473"><ele>628.0</ele><time>2026-04-24T09:07:42.873Z</time></trkpt><trkpt lat="46.07971" lon="10.927484"><ele>626.0</ele><time>2026-04-24T09:07:44.879Z</time></trkpt><trkpt lat="46.0796566" lon="10.9274275"><ele>624.0</ele><time>2026-04-24T09:07:46.899Z</time></trkpt><trkpt lat="46.079586" lon="10.9273655"><ele>622.0</ele><time>2026-04-24T09:07:48.874Z</time></trkpt><trkpt lat="46.0795034" lon="10.9273374"><ele>621.3333333333334</ele><time>2026-04-24T09:07:50.909Z</time></trkpt><trkpt lat="46.0794273" lon="10.927363"><ele>620.6666666666667</ele><time>2026-04-24T09:07:52.937Z</time></trkpt><trkpt lat="46.0793519" lon="10.9273297"><ele>620.0</ele><time>2026-04-24T09:07:55.871Z</time></trkpt><trkpt lat="46.0793694" lon="10.9272307"><ele>619.3333333333334</ele><time>2026-04-24T09:08:06.908Z</time></trkpt><trkpt lat="46.0794472" lon="10.9271781"><ele>618.6666666666666</ele><time>2026-04-24T09:08:09.88Z</time></trkpt><trkpt lat="46.0795182" lon="10.9271166"><ele>618.0</ele><time>2026-04-24T09:08:13.154Z</time></trkpt><trkpt lat="46.0795769" lon="10.9270673"><ele>618.0</ele><time>2026-04-24T09:08:18.89Z</time></trkpt><trkpt lat="46.0796293" lon="10.9269858"><ele>618.0</ele><time>2026-04-24T09:08:26.906Z</time></trkpt><trkpt lat="46.079681" lon="10.9269151"><ele>618.0</ele><time>2026-04-24T09:08:28.91Z</time></trkpt><trkpt lat="46.0797455" lon="10.9268459"><ele>618.0</ele><time>2026-04-24T09:08:30.901Z</time></trkpt><trkpt lat="46.0798154" lon="10.9267636"><ele>618.0</ele><time>2026-04-24T09:08:32.871Z</time></trkpt><trkpt lat="46.0798871" lon="10.9266573"><ele>618.0</ele><time>2026-04-24T09:08:34.874Z</time></trkpt><trkpt lat="46.0799562" lon="10.9265417"><ele>617.0</ele><time>2026-04-24T09:08:36.89Z</time></trkpt><trkpt lat="46.0800251" lon="10.9264253"><ele>616.0</ele><time>2026-04-24T09:08:39.018Z</time></trkpt><trkpt lat="46.0800777" lon="10.9263219"><ele>615.0</ele><time>2026-04-24T09:08:40.89Z</time></trkpt><trkpt lat="46.0801253" lon="10.9262347"><ele>614.0</ele><time>2026-04-24T09:08:42.892Z</time></trkpt><trkpt lat="46.0801607" lon="10.9261568"><ele>613.0</ele><time>2026-04-24T09:08:44.905Z</time></trkpt><trkpt lat="46.0801979" lon="10.926069"><ele>612.0</ele><time>2026-04-24T09:08:46.895Z</time></trkpt><trkpt lat="46.0802216" lon="10.9259798"><ele>608.4</ele><time>2026-04-24T09:08:48.926Z</time></trkpt><trkpt lat="46.0802542" lon="10.9258488"><ele>604.8000000000001</ele><time>2026-04-24T09:08:51.913Z</time></trkpt><trkpt lat="46.0802992" lon="10.9257449"><ele>601.2</ele><time>2026-04-24T09:08:53.865Z</time></trkpt><trkpt lat="46.0803725" lon="10.9256477"><ele>597.6</ele><time>2026-04-24T09:08:55.876Z</time></trkpt><trkpt lat="46.080455" lon="10.9256049"><ele>594.0</ele><time>2026-04-24T09:08:57.901Z</time></trkpt><trkpt lat="46.0805441" lon="10.9255775"><ele>594.0</ele><time>2026-04-24T09:08:59.869Z</time></trkpt><trkpt lat="46.0806235" lon="10.9255733"><ele>594.0</ele><time>2026-04-24T09:09:01.91Z</time></trkpt><trkpt lat="46.0807337" lon="10.9255866"><ele>594.0</ele><time>2026-04-24T09:09:03.904Z</time></trkpt><trkpt lat="46.0808406" lon="10.9255706"><ele>594.0</ele><time>2026-04-24T09:09:05.915Z</time></trkpt><trkpt lat="46.0809763" lon="10.9255818"><ele>594.0</ele><time>2026-04-24T09:09:07.905Z</time></trkpt><trkpt lat="46.0811014" lon="10.9255852"><ele>595.6666666666666</ele><time>2026-04-24T09:09:09.91Z</time></trkpt><trkpt lat="46.0812318" lon="10.9256005"><ele>597.3333333333334</ele><time>2026-04-24T09:09:11.909Z</time></trkpt><trkpt lat="46.081302" lon="10.9256061"><ele>599.0</ele><time>2026-04-24T09:09:12.921Z</time></trkpt><trkpt lat="46.081372" lon="10.9256043"><ele>600.6666666666667</ele><time>2026-04-24T09:09:13.914Z</time></trkpt><trkpt lat="46.08144" lon="10.9256074"><ele>602.3333333333334</ele><time>2026-04-24T09:09:14.889Z</time></trkpt><trkpt lat="46.0815109" lon="10.9256106"><ele>604.0</ele><time>2026-04-24T09:09:15.868Z</time></trkpt><trkpt lat="46.0815915" lon="10.9256093"><ele>604.1666666666667</ele><time>2026-04-24T09:09:16.917Z</time></trkpt><trkpt lat="46.0816745" lon="10.9256161"><ele>604.3333333333334</ele><time>2026-04-24T09:09:17.957Z</time></trkpt><trkpt lat="46.081746" lon="10.9256274"><ele>604.5</ele><time>2026-04-24T09:09:18.874Z</time></trkpt><trkpt lat="46.0818268" lon="10.9256357"><ele>604.6666666666666</ele><time>2026-04-24T09:09:19.89Z</time></trkpt><trkpt lat="46.0819038" lon="10.9256418"><ele>604.8333333333333</ele><time>2026-04-24T09:09:20.871Z</time></trkpt><trkpt lat="46.0819904" lon="10.9256396"><ele>605.0</ele><time>2026-04-24T09:09:21.95Z</time></trkpt><trkpt lat="46.0820604" lon="10.9256258"><ele>605.0</ele><time>2026-04-24T09:09:22.878Z</time></trkpt><trkpt lat="46.0821295" lon="10.9256232"><ele>605.0</ele><time>2026-04-24T09:09:23.869Z</time></trkpt><trkpt lat="46.0822016" lon="10.9256257"><ele>605.0</ele><time>2026-04-24T09:09:24.937Z</time></trkpt><trkpt lat="46.0823006" lon="10.9256351"><ele>605.0</ele><time>2026-04-24T09:09:26.867Z</time></trkpt><trkpt lat="46.082383" lon="10.9256265"><ele>605.0</ele><time>2026-04-24T09:09:28.891Z</time></trkpt><trkpt lat="46.08246" lon="10.9256097"><ele>605.0</ele><time>2026-04-24T09:09:30.875Z</time></trkpt><trkpt lat="46.0825424" lon="10.9255384"><ele>601.6666666666666</ele><time>2026-04-24T09:09:33.855Z</time></trkpt><trkpt lat="46.0826577" lon="10.9254433"><ele>598.3333333333333</ele><time>2026-04-24T09:09:35.855Z</time></trkpt><trkpt lat="46.0827108" lon="10.9253819"><ele>595.0</ele><time>2026-04-24T09:09:36.864Z</time></trkpt><trkpt lat="46.082764" lon="10.9253106"><ele>591.6666666666666</ele><time>2026-04-24T09:09:37.878Z</time></trkpt><trkpt lat="46.0828146" lon="10.9252525"><ele>588.3333333333334</ele><time>2026-04-24T09:09:38.854Z</time></trkpt><trkpt lat="46.0828598" lon="10.9251811"><ele>585.0</ele><time>2026-04-24T09:09:39.889Z</time></trkpt><trkpt lat="46.0828922" lon="10.925095"><ele>578.2</ele><time>2026-04-24T09:09:40.858Z</time></trkpt><trkpt lat="46.0829136" lon="10.9249965"><ele>571.4</ele><time>2026-04-24T09:09:41.868Z</time></trkpt><trkpt lat="46.0829342" lon="10.9248134"><ele>564.6</ele><time>2026-04-24T09:09:43.872Z</time></trkpt><trkpt lat="46.0829806" lon="10.9246572"><ele>557.8</ele><time>2026-04-24T09:09:45.858Z</time></trkpt><trkpt lat="46.0830615" lon="10.9245695"><ele>551.0</ele><time>2026-04-24T09:09:47.873Z</time></trkpt><trkpt lat="46.0831919" lon="10.9245625"><ele>553.2</ele><time>2026-04-24T09:09:49.954Z</time></trkpt><trkpt lat="46.0832896" lon="10.9245537"><ele>555.4000000000001</ele><time>2026-04-24T09:09:51.874Z</time></trkpt><trkpt lat="46.0834293" lon="10.9245385"><ele>557.6</ele><time>2026-04-24T09:09:53.871Z</time></trkpt><trkpt lat="46.0835002" lon="10.9245294"><ele>559.8000000000001</ele><time>2026-04-24T09:09:54.857Z</time></trkpt><trkpt lat="46.0836101" lon="10.9244675"><ele>562.0</ele><time>2026-04-24T09:09:56.823Z</time></trkpt><trkpt lat="46.083671" lon="10.9244293"><ele>562.0</ele><time>2026-04-24T09:09:57.865Z</time></trkpt><trkpt lat="46.083734" lon="10.9243882"><ele>562.0</ele><time>2026-04-24T09:09:58.862Z</time></trkpt><trkpt lat="46.0838447" lon="10.9242959"><ele>562.0</ele><time>2026-04-24T09:10:00.864Z</time></trkpt><trkpt lat="46.0838991" lon="10.9242443"><ele>562.0</ele><time>2026-04-24T09:10:01.867Z</time></trkpt><trkpt lat="46.084009" lon="10.924157"><ele>562.0</ele><time>2026-04-24T09:10:03.974Z</time></trkpt><trkpt lat="46.0841005" lon="10.9240535"><ele>559.0</ele><time>2026-04-24T09:10:05.863Z</time></trkpt><trkpt lat="46.0841777" lon="10.9239683"><ele>556.0</ele><time>2026-04-24T09:10:07.861Z</time></trkpt><trkpt lat="46.084205" lon="10.9238396"><ele>553.0</ele><time>2026-04-24T09:10:09.868Z</time></trkpt><trkpt lat="46.0842144" lon="10.9237438"><ele>550.0</ele><time>2026-04-24T09:12:08.885Z</time></trkpt><trkpt lat="46.0841985" lon="10.9236282"><ele>547.0</ele><time>2026-04-24T09:12:13.941Z</time></trkpt><trkpt lat="46.0841922" lon="10.9235063"><ele>544.0</ele><time>2026-04-24T09:12:16.138Z</time></trkpt><trkpt lat="46.0841756" lon="10.923413"><ele>544.0</ele><time>2026-04-24T09:12:17.918Z</time></trkpt><trkpt lat="46.0841403" lon="10.9233326"><ele>544.0</ele><time>2026-04-24T09:12:20.914Z</time></trkpt><trkpt lat="46.0841741" lon="10.9234308"><ele>544.0</ele><time>2026-04-24T09:12:24.905Z</time></trkpt><trkpt lat="46.0842109" lon="10.9235252"><ele>544.0</ele><time>2026-04-24T09:12:26.918Z</time></trkpt><trkpt lat="46.0842169" lon="10.9236674"><ele>544.0</ele><time>2026-04-24T09:12:28.894Z</time></trkpt><trkpt lat="46.0842172" lon="10.923849"><ele>544.0</ele><time>2026-04-24T09:12:30.905Z</time></trkpt><trkpt lat="46.0841809" lon="10.923994"><ele>544.0</ele><time>2026-04-24T09:12:32.887Z</time></trkpt><trkpt lat="46.0841226" lon="10.9240535"><ele>544.0</ele><time>2026-04-24T09:12:33.883Z</time></trkpt><trkpt lat="46.084051" lon="10.9241318"><ele>544.0</ele><time>2026-04-24T09:12:34.903Z</time></trkpt><trkpt lat="46.0839694" lon="10.9241928"><ele>544.0</ele><time>2026-04-24T09:12:35.928Z</time></trkpt><trkpt lat="46.0839005" lon="10.9242491"><ele>544.0</ele><time>2026-04-24T09:12:36.887Z</time></trkpt><trkpt lat="46.0838354" lon="10.9243117"><ele>544.0</ele><time>2026-04-24T09:12:37.892Z</time></trkpt><trkpt lat="46.0837706" lon="10.9243826"><ele>548.5</ele><time>2026-04-24T09:12:38.883Z</time></trkpt><trkpt lat="46.0836858" lon="10.9244497"><ele>553.0</ele><time>2026-04-24T09:12:39.892Z</time></trkpt><trkpt lat="46.0835949" lon="10.924505"><ele>557.5</ele><time>2026-04-24T09:12:40.893Z</time></trkpt><trkpt lat="46.0834858" lon="10.9245431"><ele>562.0</ele><time>2026-04-24T09:12:42.031Z</time></trkpt><trkpt lat="46.0833036" lon="10.9245594"><ele>560.1666666666667</ele><time>2026-04-24T09:12:43.889Z</time></trkpt><trkpt lat="46.0832135" lon="10.9245766"><ele>558.3333333333334</ele><time>2026-04-24T09:12:44.898Z</time></trkpt><trkpt lat="46.0831335" lon="10.9245746"><ele>556.5</ele><time>2026-04-24T09:12:45.897Z</time></trkpt><trkpt lat="46.0830237" lon="10.9246406"><ele>554.6666666666666</ele><time>2026-04-24T09:12:47.878Z</time></trkpt><trkpt lat="46.0829754" lon="10.924722"><ele>552.8333333333333</ele><time>2026-04-24T09:12:48.886Z</time></trkpt><trkpt lat="46.082949" lon="10.9248142"><ele>551.0</ele><time>2026-04-24T09:12:49.903Z</time></trkpt><trkpt lat="46.0829379" lon="10.9249228"><ele>551.0</ele><time>2026-04-24T09:12:50.887Z</time></trkpt><trkpt lat="46.0829274" lon="10.9250228"><ele>551.0</ele><time>2026-04-24T09:12:51.884Z</time></trkpt><trkpt lat="46.0828995" lon="10.9251267"><ele>551.0</ele><time>2026-04-24T09:12:52.943Z</time></trkpt><trkpt lat="46.082859" lon="10.925207"><ele>551.0</ele><time>2026-04-24T09:12:53.89Z</time></trkpt><trkpt lat="46.0828044" lon="10.925294"><ele>551.0</ele><time>2026-04-24T09:12:54.89Z</time></trkpt><trkpt lat="46.0827358" lon="10.9253824"><ele>551.0</ele><time>2026-04-24T09:12:55.885Z</time></trkpt><trkpt lat="46.0826609" lon="10.9254649"><ele>556.6666666666666</ele><time>2026-04-24T09:12:56.888Z</time></trkpt><trkpt lat="46.0825904" lon="10.9255429"><ele>562.3333333333333</ele><time>2026-04-24T09:12:57.901Z</time></trkpt><trkpt lat="46.0825207" lon="10.9255949"><ele>568.0</ele><time>2026-04-24T09:12:58.89Z</time></trkpt><trkpt lat="46.0824536" lon="10.9256483"><ele>573.6666666666666</ele><time>2026-04-24T09:12:59.894Z</time></trkpt><trkpt lat="46.0823753" lon="10.9256775"><ele>579.3333333333334</ele><time>2026-04-24T09:13:00.868Z</time></trkpt><trkpt lat="46.0822817" lon="10.9256769"><ele>585.0</ele><time>2026-04-24T09:13:01.884Z</time></trkpt><trkpt lat="46.0821764" lon="10.9256614"><ele>591.6666666666666</ele><time>2026-04-24T09:13:02.886Z</time></trkpt><trkpt lat="46.0820601" lon="10.9256616"><ele>598.3333333333333</ele><time>2026-04-24T09:13:03.893Z</time></trkpt><trkpt lat="46.0818245" lon="10.9256597"><ele>605.0</ele><time>2026-04-24T09:13:05.884Z</time></trkpt><trkpt lat="46.0817019" lon="10.9256491"><ele>604.75</ele><time>2026-04-24T09:13:06.909Z</time></trkpt><trkpt lat="46.0815819" lon="10.9256299"><ele>604.5</ele><time>2026-04-24T09:13:07.905Z</time></trkpt><trkpt lat="46.0814662" lon="10.9256244"><ele>604.25</ele><time>2026-04-24T09:13:08.882Z</time></trkpt><trkpt lat="46.0813424" lon="10.9256245"><ele>604.0</ele><time>2026-04-24T09:13:09.868Z</time></trkpt><trkpt lat="46.0812161" lon="10.9256195"><ele>604.0</ele><time>2026-04-24T09:13:10.873Z</time></trkpt><trkpt lat="46.0810805" lon="10.9256111"><ele>604.0</ele><time>2026-04-24T09:13:11.878Z</time></trkpt><trkpt lat="46.0809494" lon="10.9256068"><ele>604.0</ele><time>2026-04-24T09:13:12.884Z</time></trkpt><trkpt lat="46.0808033" lon="10.9255971"><ele>604.0</ele><time>2026-04-24T09:13:13.997Z</time></trkpt><trkpt lat="46.0806716" lon="10.9255819"><ele>601.5</ele><time>2026-04-24T09:13:15.049Z</time></trkpt><trkpt lat="46.080485" lon="10.9255824"><ele>599.0</ele><time>2026-04-24T09:13:16.932Z</time></trkpt><trkpt lat="46.0804155" lon="10.9256072"><ele>596.5</ele><time>2026-04-24T09:13:17.927Z</time></trkpt><trkpt lat="46.0803181" lon="10.9257067"><ele>594.0</ele><time>2026-04-24T09:13:19.915Z</time></trkpt><trkpt lat="46.0802547" lon="10.9258603"><ele>594.0</ele><time>2026-04-24T09:13:21.912Z</time></trkpt><trkpt lat="46.0802266" lon="10.9259615"><ele>594.0</ele><time>2026-04-24T09:13:23.915Z</time></trkpt><trkpt lat="46.0801926" lon="10.9260417"><ele>594.0</ele><time>2026-04-24T09:15:19.921Z</time></trkpt><trkpt lat="46.0802361" lon="10.9259043"><ele>594.0</ele><time>2026-04-24T09:15:51.919Z</time></trkpt><trkpt lat="46.0802723" lon="10.9257792"><ele>594.0</ele><time>2026-04-24T09:15:53.92Z</time></trkpt><trkpt lat="46.0803292" lon="10.9257"><ele>594.0</ele><time>2026-04-24T09:15:54.935Z</time></trkpt><trkpt lat="46.0804389" lon="10.9256081"><ele>594.0</ele><time>2026-04-24T09:15:56.92Z</time></trkpt><trkpt lat="46.0805594" lon="10.925573"><ele>594.0</ele><time>2026-04-24T09:15:58.906Z</time></trkpt><trkpt lat="46.080643" lon="10.9255762"><ele>594.0</ele><time>2026-04-24T09:15:59.88Z</time></trkpt><trkpt lat="46.0807367" lon="10.9255648"><ele>594.0</ele><time>2026-04-24T09:16:00.929Z</time></trkpt><trkpt lat="46.0808266" lon="10.9255649"><ele>594.0</ele><time>2026-04-24T09:16:01.918Z</time></trkpt><trkpt lat="46.0809201" lon="10.9255788"><ele>595.6666666666666</ele><time>2026-04-24T09:16:02.879Z</time></trkpt><trkpt lat="46.0810182" lon="10.9255788"><ele>597.3333333333334</ele><time>2026-04-24T09:16:03.944Z</time></trkpt><trkpt lat="46.0810974" lon="10.9255723"><ele>599.0</ele><time>2026-04-24T09:16:04.925Z</time></trkpt><trkpt lat="46.0811777" lon="10.9255774"><ele>600.6666666666667</ele><time>2026-04-24T09:16:05.918Z</time></trkpt><trkpt lat="46.08127" lon="10.9255793"><ele>602.3333333333334</ele><time>2026-04-24T09:16:06.918Z</time></trkpt><trkpt lat="46.0813612" lon="10.9255615"><ele>604.0</ele><time>2026-04-24T09:16:07.924Z</time></trkpt><trkpt lat="46.0814567" lon="10.925546"><ele>604.0</ele><time>2026-04-24T09:16:08.883Z</time></trkpt><trkpt lat="46.0815582" lon="10.9255614"><ele>604.0</ele><time>2026-04-24T09:16:09.914Z</time></trkpt><trkpt lat="46.0816634" lon="10.9255766"><ele>604.0</ele><time>2026-04-24T09:16:10.938Z</time></trkpt><trkpt lat="46.0817621" lon="10.9255864"><ele>604.0</ele><time>2026-04-24T09:16:11.889Z</time></trkpt><trkpt lat="46.0818654" lon="10.9255891"><ele>604.0</ele><time>2026-04-24T09:16:12.951Z</time></trkpt><trkpt lat="46.0819637" lon="10.9255914"><ele>604.2</ele><time>2026-04-24T09:16:13.881Z</time></trkpt><trkpt lat="46.082066" lon="10.9255991"><ele>604.4</ele><time>2026-04-24T09:16:14.891Z</time></trkpt><trkpt lat="46.0821692" lon="10.9255992"><ele>604.6</ele><time>2026-04-24T09:16:15.87Z</time></trkpt><trkpt lat="46.0822615" lon="10.9256061"><ele>604.8</ele><time>2026-04-24T09:16:16.861Z</time></trkpt><trkpt lat="46.0823446" lon="10.9256175"><ele>605.0</ele><time>2026-04-24T09:16:17.881Z</time></trkpt><trkpt lat="46.082413" lon="10.925616"><ele>602.1428571428571</ele><time>2026-04-24T09:16:18.89Z</time></trkpt><trkpt lat="46.0824703" lon="10.9255781"><ele>599.2857142857143</ele><time>2026-04-24T09:16:19.884Z</time></trkpt><trkpt lat="46.0825306" lon="10.9255221"><ele>596.4285714285714</ele><time>2026-04-24T09:16:20.874Z</time></trkpt><trkpt lat="46.0826119" lon="10.9254782"><ele>593.5714285714286</ele><time>2026-04-24T09:16:21.922Z</time></trkpt><trkpt lat="46.0826681" lon="10.925406"><ele>590.7142857142857</ele><time>2026-04-24T09:16:22.872Z</time></trkpt><trkpt lat="46.0827238" lon="10.9253207"><ele>587.8571428571429</ele><time>2026-04-24T09:16:23.89Z</time></trkpt><trkpt lat="46.0827799" lon="10.9252589"><ele>585.0</ele><time>2026-04-24T09:16:24.871Z</time></trkpt><trkpt lat="46.0828358" lon="10.9251921"><ele>585.0</ele><time>2026-04-24T09:16:25.894Z</time></trkpt><trkpt lat="46.0828817" lon="10.9251171"><ele>585.0</ele><time>2026-04-24T09:16:26.891Z</time></trkpt><trkpt lat="46.08291" lon="10.9250174"><ele>585.0</ele><time>2026-04-24T09:16:27.916Z</time></trkpt><trkpt lat="46.0829238" lon="10.9249153"><ele>585.0</ele><time>2026-04-24T09:16:28.866Z</time></trkpt><trkpt lat="46.0829349" lon="10.924815"><ele>585.0</ele><time>2026-04-24T09:16:29.875Z</time></trkpt><trkpt lat="46.082957" lon="10.9247198"><ele>585.0</ele><time>2026-04-24T09:16:30.861Z</time></trkpt><trkpt lat="46.0829903" lon="10.92464"><ele>585.0</ele><time>2026-04-24T09:16:31.88Z</time></trkpt><trkpt lat="46.0830822" lon="10.9245457"><ele>581.1666666666666</ele><time>2026-04-24T09:16:33.875Z</time></trkpt><trkpt lat="46.0832044" lon="10.924545"><ele>577.3333333333334</ele><time>2026-04-24T09:16:35.91Z</time></trkpt><trkpt lat="46.0832836" lon="10.9245433"><ele>573.5</ele><time>2026-04-24T09:16:36.879Z</time></trkpt><trkpt lat="46.0833618" lon="10.9245401"><ele>569.6666666666667</ele><time>2026-04-24T09:16:37.87Z</time></trkpt><trkpt lat="46.0834417" lon="10.9245213"><ele>565.8333333333334</ele><time>2026-04-24T09:16:38.868Z</time></trkpt><trkpt lat="46.0835242" lon="10.924492"><ele>562.0</ele><time>2026-04-24T09:16:39.927Z</time></trkpt><trkpt lat="46.0835962" lon="10.9244587"><ele>562.0</ele><time>2026-04-24T09:16:40.898Z</time></trkpt><trkpt lat="46.0836767" lon="10.9244041"><ele>562.0</ele><time>2026-04-24T09:16:41.913Z</time></trkpt><trkpt lat="46.0837455" lon="10.9243512"><ele>562.0</ele><time>2026-04-24T09:16:42.873Z</time></trkpt><trkpt lat="46.0838222" lon="10.9242946"><ele>562.0</ele><time>2026-04-24T09:16:43.887Z</time></trkpt><trkpt lat="46.0838976" lon="10.9242461"><ele>562.0</ele><time>2026-04-24T09:16:44.882Z</time></trkpt><trkpt lat="46.0839661" lon="10.9241873"><ele>562.0</ele><time>2026-04-24T09:16:45.953Z</time></trkpt><trkpt lat="46.0840337" lon="10.9241282"><ele>558.4</ele><time>2026-04-24T09:16:46.883Z</time></trkpt><trkpt lat="46.084086" lon="10.9240765"><ele>554.8000000000001</ele><time>2026-04-24T09:16:47.84Z</time></trkpt><trkpt lat="46.0841382" lon="10.9240132"><ele>551.2</ele><time>2026-04-24T09:16:48.854Z</time></trkpt><trkpt lat="46.0842107" lon="10.9238851"><ele>547.6</ele><time>2026-04-24T09:16:50.864Z</time></trkpt><trkpt lat="46.0842191" lon="10.9237286"><ele>544.0</ele><time>2026-04-24T09:16:52.887Z</time></trkpt><trkpt lat="46.0842109" lon="10.9235661"><ele>544.0</ele><time>2026-04-24T09:16:54.893Z</time></trkpt><trkpt lat="46.0841684" lon="10.9234325"><ele>544.0</ele><time>2026-04-24T09:16:56.877Z</time></trkpt><trkpt lat="46.0840483" lon="10.9233442"><ele>544.0</ele><time>2026-04-24T09:16:59.033Z</time></trkpt><trkpt lat="46.083931" lon="10.9232381"><ele>544.0</ele><time>2026-04-24T09:17:00.88Z</time></trkpt><trkpt lat="46.0838844" lon="10.9231723"><ele>544.0</ele><time>2026-04-24T09:17:01.886Z</time></trkpt><trkpt lat="46.0838415" lon="10.9230955"><ele>544.0</ele><time>2026-04-24T09:17:02.884Z</time></trkpt><trkpt lat="46.0837896" lon="10.9230384"><ele>544.0</ele><time>2026-04-24T09:17:03.878Z</time></trkpt><trkpt lat="46.0837498" lon="10.922958"><ele>544.0</ele><time>2026-04-24T09:17:04.873Z</time></trkpt><trkpt lat="46.0837152" lon="10.9228782"><ele>544.0</ele><time>2026-04-24T09:17:05.883Z</time></trkpt><trkpt lat="46.0836406" lon="10.9227191"><ele>544.0</ele><time>2026-04-24T09:17:07.882Z</time></trkpt><trkpt lat="46.0835728" lon="10.9226331"><ele>544.0</ele><time>2026-04-24T09:17:08.858Z</time></trkpt><trkpt lat="46.0834939" lon="10.9225628"><ele>543.9999999999999</ele><time>2026-04-24T09:17:09.854Z</time></trkpt><trkpt lat="46.0834187" lon="10.9225004"><ele>544.0</ele><time>2026-04-24T09:17:10.871Z</time></trkpt><trkpt lat="46.0833502" lon="10.9224538"><ele>544.0</ele><time>2026-04-24T09:17:11.87Z</time></trkpt><trkpt lat="46.0832819" lon="10.9224173"><ele>544.0</ele><time>2026-04-24T09:17:12.89Z</time></trkpt><trkpt lat="46.0832112" lon="10.9223859"><ele>544.0</ele><time>2026-04-24T09:17:13.871Z</time></trkpt><trkpt lat="46.0831425" lon="10.9223482"><ele>543.9999999999999</ele><time>2026-04-24T09:17:14.867Z</time></trkpt><trkpt lat="46.0830822" lon="10.9223101"><ele>544.0</ele><time>2026-04-24T09:17:15.878Z</time></trkpt><trkpt lat="46.082994" lon="10.9222055"><ele>544.0</ele><time>2026-04-24T09:17:17.897Z</time></trkpt><trkpt lat="46.0829614" lon="10.9220607"><ele>544.0</ele><time>2026-04-24T09:17:19.869Z</time></trkpt><trkpt lat="46.0829039" lon="10.9219198"><ele>544.0</ele><time>2026-04-24T09:17:21.882Z</time></trkpt><trkpt lat="46.0828416" lon="10.9217667"><ele>544.0</ele><time>2026-04-24T09:17:23.903Z</time></trkpt><trkpt lat="46.0827734" lon="10.9216095"><ele>544.0</ele><time>2026-04-24T09:17:25.888Z</time></trkpt><trkpt lat="46.0827315" lon="10.9215283"><ele>544.0</ele><time>2026-04-24T09:17:26.886Z</time></trkpt><trkpt lat="46.0826858" lon="10.9214475"><ele>544.0</ele><time>2026-04-24T09:17:27.891Z</time></trkpt><trkpt lat="46.0826313" lon="10.9213677"><ele>544.0</ele><time>2026-04-24T09:17:28.889Z</time></trkpt><trkpt lat="46.0825552" lon="10.9212756"><ele>544.0</ele><time>2026-04-24T09:17:30.033Z</time></trkpt><trkpt lat="46.0824341" lon="10.9211218"><ele>543.8</ele><time>2026-04-24T09:17:31.876Z</time></trkpt><trkpt lat="46.0823561" lon="10.9210695"><ele>543.5999999999999</ele><time>2026-04-24T09:17:32.973Z</time></trkpt><trkpt lat="46.0822011" lon="10.9210056"><ele>543.4</ele><time>2026-04-24T09:17:34.892Z</time></trkpt><trkpt lat="46.0821413" lon="10.9209628"><ele>543.1999999999999</ele><time>2026-04-24T09:17:35.863Z</time></trkpt><trkpt lat="46.0820805" lon="10.9208885"><ele>543.0</ele><time>2026-04-24T09:17:36.878Z</time></trkpt><trkpt lat="46.0820218" lon="10.9208006"><ele>543.0</ele><time>2026-04-24T09:17:37.88Z</time></trkpt><trkpt lat="46.0819582" lon="10.9207345"><ele>543.0</ele><time>2026-04-24T09:17:38.857Z</time></trkpt><trkpt lat="46.0818456" lon="10.9206441"><ele>543.0</ele><time>2026-04-24T09:17:39.991Z</time></trkpt><trkpt lat="46.0816472" lon="10.9205884"><ele>543.0</ele><time>2026-04-24T09:17:41.872Z</time></trkpt><trkpt lat="46.0815352" lon="10.920543"><ele>541.25</ele><time>2026-04-24T09:17:42.861Z</time></trkpt><trkpt lat="46.0814131" lon="10.9204906"><ele>539.5</ele><time>2026-04-24T09:17:43.856Z</time></trkpt><trkpt lat="46.0812942" lon="10.9204276"><ele>537.75</ele><time>2026-04-24T09:17:44.875Z</time></trkpt><trkpt lat="46.0811839" lon="10.9203701"><ele>536.0</ele><time>2026-04-24T09:17:45.86Z</time></trkpt><trkpt lat="46.0810816" lon="10.9203"><ele>536.0</ele><time>2026-04-24T09:17:46.876Z</time></trkpt><trkpt lat="46.0809779" lon="10.9202328"><ele>536.0</ele><time>2026-04-24T09:17:47.883Z</time></trkpt><trkpt lat="46.0808867" lon="10.9201695"><ele>536.0</ele><time>2026-04-24T09:17:48.869Z</time></trkpt><trkpt lat="46.0807896" lon="10.9201177"><ele>536.0</ele><time>2026-04-24T09:17:49.884Z</time></trkpt><trkpt lat="46.0807032" lon="10.9200678"><ele>536.0</ele><time>2026-04-24T09:17:50.862Z</time></trkpt><trkpt lat="46.0806218" lon="10.9200417"><ele>533.8333333333333</ele><time>2026-04-24T09:17:51.878Z</time></trkpt><trkpt lat="46.080553" lon="10.9200303"><ele>531.6666666666666</ele><time>2026-04-24T09:17:53.87Z</time></trkpt><trkpt lat="46.0804891" lon="10.920085"><ele>529.5</ele><time>2026-04-24T09:18:00.865Z</time></trkpt><trkpt lat="46.0803863" lon="10.9200935"><ele>527.3333333333334</ele><time>2026-04-24T09:18:02.859Z</time></trkpt><trkpt lat="46.0803162" lon="10.9200866"><ele>525.1666666666667</ele><time>2026-04-24T09:18:03.909Z</time></trkpt><trkpt lat="46.0801981" lon="10.9200563"><ele>523.0</ele><time>2026-04-24T09:18:05.869Z</time></trkpt><trkpt lat="46.0801341" lon="10.9200193"><ele>528.5</ele><time>2026-04-24T09:18:06.869Z</time></trkpt><trkpt lat="46.0800673" lon="10.9199679"><ele>534.0</ele><time>2026-04-24T09:18:07.864Z</time></trkpt><trkpt lat="46.0800066" lon="10.9198934"><ele>539.5</ele><time>2026-04-24T09:18:08.879Z</time></trkpt><trkpt lat="46.0799412" lon="10.919813"><ele>545.0</ele><time>2026-04-24T09:18:09.868Z</time></trkpt><trkpt lat="46.0798609" lon="10.9197398"><ele>550.5</ele><time>2026-04-24T09:18:10.846Z</time></trkpt><trkpt lat="46.0797672" lon="10.9197208"><ele>556.0</ele><time>2026-04-24T09:18:11.874Z</time></trkpt><trkpt lat="46.0796655" lon="10.9197173"><ele>556.0</ele><time>2026-04-24T09:18:12.849Z</time></trkpt><trkpt lat="46.0795638" lon="10.9197287"><ele>556.0</ele><time>2026-04-24T09:18:13.877Z</time></trkpt><trkpt lat="46.0794637" lon="10.9197298"><ele>556.0</ele><time>2026-04-24T09:18:14.864Z</time></trkpt><trkpt lat="46.0793667" lon="10.9197262"><ele>556.0</ele><time>2026-04-24T09:18:15.855Z</time></trkpt><trkpt lat="46.0792794" lon="10.9196951"><ele>556.0</ele><time>2026-04-24T09:18:16.858Z</time></trkpt><trkpt lat="46.0791969" lon="10.9196616"><ele>556.0</ele><time>2026-04-24T09:18:17.868Z</time></trkpt><trkpt lat="46.0791061" lon="10.9196112"><ele>556.0</ele><time>2026-04-24T09:18:18.875Z</time></trkpt><trkpt lat="46.0790191" lon="10.9195451"><ele>556.0</ele><time>2026-04-24T09:18:19.877Z</time></trkpt><trkpt lat="46.0789304" lon="10.9194491"><ele>556.0</ele><time>2026-04-24T09:18:20.869Z</time></trkpt><trkpt lat="46.0788389" lon="10.9193503"><ele>556.0</ele><time>2026-04-24T09:18:21.916Z</time></trkpt><trkpt lat="46.0787604" lon="10.9192623"><ele>556.75</ele><time>2026-04-24T09:18:22.865Z</time></trkpt><trkpt lat="46.0786834" lon="10.9191642"><ele>557.5</ele><time>2026-04-24T09:18:23.866Z</time></trkpt><trkpt lat="46.0786058" lon="10.9190582"><ele>558.25</ele><time>2026-04-24T09:18:24.87Z</time></trkpt><trkpt lat="46.078523" lon="10.9189272"><ele>559.0</ele><time>2026-04-24T09:18:25.89Z</time></trkpt><trkpt lat="46.0784361" lon="10.9187852"><ele>559.0</ele><time>2026-04-24T09:18:26.879Z</time></trkpt><trkpt lat="46.0783483" lon="10.9186456"><ele>559.0</ele><time>2026-04-24T09:18:27.891Z</time></trkpt><trkpt lat="46.0782723" lon="10.91852"><ele>559.0</ele><time>2026-04-24T09:18:28.883Z</time></trkpt><trkpt lat="46.0781889" lon="10.9183889"><ele>559.0</ele><time>2026-04-24T09:18:29.871Z</time></trkpt><trkpt lat="46.0780943" lon="10.9182537"><ele>556.5</ele><time>2026-04-24T09:18:30.88Z</time></trkpt><trkpt lat="46.0779894" lon="10.9181263"><ele>554.0</ele><time>2026-04-24T09:18:31.888Z</time></trkpt><trkpt lat="46.0778918" lon="10.9180152"><ele>551.5</ele><time>2026-04-24T09:18:32.873Z</time></trkpt><trkpt lat="46.0777924" lon="10.9179076"><ele>549.0</ele><time>2026-04-24T09:18:33.874Z</time></trkpt><trkpt lat="46.0776979" lon="10.9177897"><ele>549.0</ele><time>2026-04-24T09:18:34.914Z</time></trkpt><trkpt lat="46.0776083" lon="10.9176922"><ele>549.0</ele><time>2026-04-24T09:18:35.867Z</time></trkpt><trkpt lat="46.07749" lon="10.9175878"><ele>549.0</ele><time>2026-04-24T09:18:36.894Z</time></trkpt><trkpt lat="46.0773712" lon="10.9174964"><ele>549.0</ele><time>2026-04-24T09:18:37.88Z</time></trkpt><trkpt lat="46.0772535" lon="10.9174101"><ele>553.75</ele><time>2026-04-24T09:18:38.864Z</time></trkpt><trkpt lat="46.0771312" lon="10.9173187"><ele>558.5</ele><time>2026-04-24T09:18:39.873Z</time></trkpt><trkpt lat="46.0770122" lon="10.9172281"><ele>563.25</ele><time>2026-04-24T09:18:40.873Z</time></trkpt><trkpt lat="46.0768884" lon="10.917143"><ele>568.0</ele><time>2026-04-24T09:18:41.895Z</time></trkpt><trkpt lat="46.0767295" lon="10.9170381"><ele>565.5</ele><time>2026-04-24T09:18:43.105Z</time></trkpt><trkpt lat="46.0765087" lon="10.9169439"><ele>563.0</ele><time>2026-04-24T09:18:44.893Z</time></trkpt><trkpt lat="46.0764022" lon="10.9169121"><ele>560.5</ele><time>2026-04-24T09:18:45.858Z</time></trkpt><trkpt lat="46.0762981" lon="10.9168744"><ele>558.0</ele><time>2026-04-24T09:18:46.855Z</time></trkpt><trkpt lat="46.0761932" lon="10.9168411"><ele>558.0</ele><time>2026-04-24T09:18:47.887Z</time></trkpt><trkpt lat="46.0760942" lon="10.9168304"><ele>558.0</ele><time>2026-04-24T09:18:48.857Z</time></trkpt><trkpt lat="46.0759994" lon="10.9168259"><ele>558.0</ele><time>2026-04-24T09:18:49.852Z</time></trkpt><trkpt lat="46.0759127" lon="10.9168019"><ele>558.0</ele><time>2026-04-24T09:18:50.868Z</time></trkpt><trkpt lat="46.0758168" lon="10.9167755"><ele>558.0</ele><time>2026-04-24T09:18:51.874Z</time></trkpt><trkpt lat="46.075699" lon="10.9167779"><ele>558.75</ele><time>2026-04-24T09:18:53.031Z</time></trkpt><trkpt lat="46.0755165" lon="10.9167761"><ele>559.5</ele><time>2026-04-24T09:18:54.917Z</time></trkpt><trkpt lat="46.0754231" lon="10.9167684"><ele>560.25</ele><time>2026-04-24T09:18:55.885Z</time></trkpt><trkpt lat="46.0753301" lon="10.916752"><ele>561.0</ele><time>2026-04-24T09:18:56.874Z</time></trkpt><trkpt lat="46.0752285" lon="10.91672"><ele>568.0</ele><time>2026-04-24T09:18:57.87Z</time></trkpt><trkpt lat="46.075119" lon="10.9166692"><ele>575.0</ele><time>2026-04-24T09:18:58.905Z</time></trkpt><trkpt lat="46.0749978" lon="10.9166157"><ele>582.0</ele><time>2026-04-24T09:19:00.003Z</time></trkpt><trkpt lat="46.0747757" lon="10.9165406"><ele>582.0</ele><time>2026-04-24T09:19:01.911Z</time></trkpt><trkpt lat="46.0746633" lon="10.9164979"><ele>582.0</ele><time>2026-04-24T09:19:02.881Z</time></trkpt><trkpt lat="46.0745642" lon="10.9164447"><ele>582.0</ele><time>2026-04-24T09:19:03.891Z</time></trkpt><trkpt lat="46.0744679" lon="10.9163819"><ele>582.0</ele><time>2026-04-24T09:19:04.91Z</time></trkpt><trkpt lat="46.0743897" lon="10.9162994"><ele>582.0</ele><time>2026-04-24T09:19:05.869Z</time></trkpt><trkpt lat="46.0743035" lon="10.9161995"><ele>582.0</ele><time>2026-04-24T09:19:06.94Z</time></trkpt><trkpt lat="46.0742259" lon="10.9161063"><ele>582.0</ele><time>2026-04-24T09:19:07.871Z</time></trkpt><trkpt lat="46.0741335" lon="10.9160012"><ele>582.0</ele><time>2026-04-24T09:19:08.892Z</time></trkpt><trkpt lat="46.0740395" lon="10.9159059"><ele>582.0</ele><time>2026-04-24T09:19:09.868Z</time></trkpt><trkpt lat="46.0739392" lon="10.9157971"><ele>583.0</ele><time>2026-04-24T09:19:10.879Z</time></trkpt><trkpt lat="46.0738412" lon="10.9157083"><ele>584.0</ele><time>2026-04-24T09:19:11.869Z</time></trkpt><trkpt lat="46.0737302" lon="10.9156059"><ele>585.0</ele><time>2026-04-24T09:19:12.903Z</time></trkpt><trkpt lat="46.0736086" lon="10.9155034"><ele>586.0</ele><time>2026-04-24T09:19:13.981Z</time></trkpt><trkpt lat="46.073506" lon="10.9154267"><ele>586.0</ele><time>2026-04-24T09:19:14.875Z</time></trkpt><trkpt lat="46.0733859" lon="10.9153306"><ele>586.0</ele><time>2026-04-24T09:19:15.956Z</time></trkpt><trkpt lat="46.0732828" lon="10.9152252"><ele>586.0</ele><time>2026-04-24T09:19:16.906Z</time></trkpt><trkpt lat="46.0731743" lon="10.9151154"><ele>586.0</ele><time>2026-04-24T09:19:17.889Z</time></trkpt><trkpt lat="46.0730635" lon="10.914998"><ele>586.0</ele><time>2026-04-24T09:19:18.919Z</time></trkpt><trkpt lat="46.0729755" lon="10.9148925"><ele>586.0</ele><time>2026-04-24T09:19:19.887Z</time></trkpt><trkpt lat="46.0728715" lon="10.9147834"><ele>586.0</ele><time>2026-04-24T09:19:20.88Z</time></trkpt><trkpt lat="46.0727716" lon="10.9146931"><ele>586.0</ele><time>2026-04-24T09:19:21.889Z</time></trkpt><trkpt lat="46.0726732" lon="10.9146022"><ele>586.0</ele><time>2026-04-24T09:19:22.888Z</time></trkpt><trkpt lat="46.0725889" lon="10.9145081"><ele>586.0</ele><time>2026-04-24T09:19:23.881Z</time></trkpt><trkpt lat="46.0725102" lon="10.9144057"><ele>586.0</ele><time>2026-04-24T09:19:24.881Z</time></trkpt><trkpt lat="46.0724367" lon="10.9142942"><ele>586.0</ele><time>2026-04-24T09:19:25.887Z</time></trkpt><trkpt lat="46.0723729" lon="10.9141773"><ele>586.0</ele><time>2026-04-24T09:19:26.89Z</time></trkpt><trkpt lat="46.0723179" lon="10.9140651"><ele>587.2</ele><time>2026-04-24T09:19:27.921Z</time></trkpt><trkpt lat="46.0722746" lon="10.9139559"><ele>588.4000000000001</ele><time>2026-04-24T09:19:28.883Z</time></trkpt><trkpt lat="46.0722203" lon="10.9138485"><ele>589.6</ele><time>2026-04-24T09:19:29.885Z</time></trkpt><trkpt lat="46.0721532" lon="10.9137593"><ele>590.8000000000001</ele><time>2026-04-24T09:19:30.883Z</time></trkpt><trkpt lat="46.0720775" lon="10.913663"><ele>592.0</ele><time>2026-04-24T09:19:31.937Z</time></trkpt><trkpt lat="46.0720104" lon="10.9135944"><ele>592.0</ele><time>2026-04-24T09:19:32.864Z</time></trkpt><trkpt lat="46.0719205" lon="10.9135328"><ele>592.0</ele><time>2026-04-24T09:19:33.991Z</time></trkpt><trkpt lat="46.0718428" lon="10.9134904"><ele>592.0</ele><time>2026-04-24T09:19:34.892Z</time></trkpt><trkpt lat="46.071761" lon="10.9134372"><ele>592.0</ele><time>2026-04-24T09:19:35.882Z</time></trkpt><trkpt lat="46.0716883" lon="10.9133718"><ele>592.0</ele><time>2026-04-24T09:19:36.867Z</time></trkpt><trkpt lat="46.0716136" lon="10.9133114"><ele>592.0</ele><time>2026-04-24T09:19:37.874Z</time></trkpt><trkpt lat="46.0715422" lon="10.9132474"><ele>596.3333333333334</ele><time>2026-04-24T09:19:38.863Z</time></trkpt><trkpt lat="46.0714691" lon="10.9131837"><ele>600.6666666666667</ele><time>2026-04-24T09:19:39.884Z</time></trkpt><trkpt lat="46.0713811" lon="10.9131304"><ele>605.0</ele><time>2026-04-24T09:19:40.918Z</time></trkpt><trkpt lat="46.0712991" lon="10.9130948"><ele>609.3333333333334</ele><time>2026-04-24T09:19:41.888Z</time></trkpt><trkpt lat="46.071209" lon="10.9130636"><ele>613.6666666666666</ele><time>2026-04-24T09:19:42.906Z</time></trkpt><trkpt lat="46.0711279" lon="10.9130268"><ele>618.0</ele><time>2026-04-24T09:19:43.886Z</time></trkpt><trkpt lat="46.0710472" lon="10.9129654"><ele>618.0</ele><time>2026-04-24T09:19:44.885Z</time></trkpt><trkpt lat="46.0709702" lon="10.9129057"><ele>618.0</ele><time>2026-04-24T09:19:45.872Z</time></trkpt><trkpt lat="46.070882" lon="10.9128635"><ele>618.0</ele><time>2026-04-24T09:19:46.877Z</time></trkpt><trkpt lat="46.0708002" lon="10.912815"><ele>618.0</ele><time>2026-04-24T09:19:47.886Z</time></trkpt><trkpt lat="46.0707199" lon="10.9127482"><ele>618.0</ele><time>2026-04-24T09:19:48.876Z</time></trkpt><trkpt lat="46.0706414" lon="10.9126799"><ele>620.75</ele><time>2026-04-24T09:19:49.876Z</time></trkpt><trkpt lat="46.0705745" lon="10.91259"><ele>623.5</ele><time>2026-04-24T09:19:50.883Z</time></trkpt><trkpt lat="46.0704911" lon="10.9124864"><ele>626.25</ele><time>2026-04-24T09:19:52.025Z</time></trkpt><trkpt lat="46.0703386" lon="10.9123279"><ele>629.0</ele><time>2026-04-24T09:19:53.916Z</time></trkpt><trkpt lat="46.0702554" lon="10.9122471"><ele>629.0</ele><time>2026-04-24T09:19:54.881Z</time></trkpt><trkpt lat="46.0701694" lon="10.9121622"><ele>629.0</ele><time>2026-04-24T09:19:55.93Z</time></trkpt><trkpt lat="46.0700871" lon="10.9120653"><ele>629.0</ele><time>2026-04-24T09:19:57.026Z</time></trkpt><trkpt lat="46.070013" lon="10.9119828"><ele>629.0</ele><time>2026-04-24T09:19:57.934Z</time></trkpt><trkpt lat="46.0699367" lon="10.9118928"><ele>629.0</ele><time>2026-04-24T09:19:58.895Z</time></trkpt><trkpt lat="46.0698549" lon="10.9117981"><ele>629.0</ele><time>2026-04-24T09:19:59.941Z</time></trkpt><trkpt lat="46.0697787" lon="10.9117136"><ele>629.0</ele><time>2026-04-24T09:20:00.894Z</time></trkpt><trkpt lat="46.0697028" lon="10.9116117"><ele>629.0</ele><time>2026-04-24T09:20:01.911Z</time></trkpt><trkpt lat="46.0696422" lon="10.9114971"><ele>629.0</ele><time>2026-04-24T09:20:02.912Z</time></trkpt><trkpt lat="46.069591" lon="10.9113813"><ele>629.0</ele><time>2026-04-24T09:20:03.912Z</time></trkpt><trkpt lat="46.0695555" lon="10.9112573"><ele>629.0</ele><time>2026-04-24T09:20:04.881Z</time></trkpt><trkpt lat="46.0695283" lon="10.9111161"><ele>629.0</ele><time>2026-04-24T09:20:05.932Z</time></trkpt><trkpt lat="46.0695033" lon="10.9109925"><ele>629.0</ele><time>2026-04-24T09:20:06.881Z</time></trkpt><trkpt lat="46.0694726" lon="10.9108719"><ele>629.0</ele><time>2026-04-24T09:20:07.893Z</time></trkpt><trkpt lat="46.0694159" lon="10.9107597"><ele>629.0</ele><time>2026-04-24T09:20:08.874Z</time></trkpt><trkpt lat="46.0693334" lon="10.9106585"><ele>633.4</ele><time>2026-04-24T09:20:09.9Z</time></trkpt><trkpt lat="46.0692334" lon="10.9105754"><ele>637.8</ele><time>2026-04-24T09:20:10.916Z</time></trkpt><trkpt lat="46.069142" lon="10.9104918"><ele>642.1999999999999</ele><time>2026-04-24T09:20:11.872Z</time></trkpt><trkpt lat="46.0690479" lon="10.910414"><ele>646.5999999999999</ele><time>2026-04-24T09:20:12.887Z</time></trkpt><trkpt lat="46.0689604" lon="10.9103462"><ele>651.0</ele><time>2026-04-24T09:20:13.892Z</time></trkpt><trkpt lat="46.0688745" lon="10.910282"><ele>651.0</ele><time>2026-04-24T09:20:14.915Z</time></trkpt><trkpt lat="46.068792" lon="10.9102359"><ele>651.0</ele><time>2026-04-24T09:20:15.919Z</time></trkpt><trkpt lat="46.0687048" lon="10.9102202"><ele>651.0</ele><time>2026-04-24T09:20:16.926Z</time></trkpt><trkpt lat="46.0686125" lon="10.9102224"><ele>651.0</ele><time>2026-04-24T09:20:17.909Z</time></trkpt><trkpt lat="46.0685124" lon="10.9102593"><ele>651.0</ele><time>2026-04-24T09:20:18.895Z</time></trkpt><trkpt lat="46.0684109" lon="10.9103008"><ele>651.0</ele><time>2026-04-24T09:20:19.917Z</time></trkpt><trkpt lat="46.068312" lon="10.9103543"><ele>651.0</ele><time>2026-04-24T09:20:20.887Z</time></trkpt><trkpt lat="46.0682186" lon="10.9104274"><ele>651.0</ele><time>2026-04-24T09:20:21.889Z</time></trkpt><trkpt lat="46.0681285" lon="10.9105"><ele>651.0</ele><time>2026-04-24T09:20:22.892Z</time></trkpt><trkpt lat="46.0680277" lon="10.9105792"><ele>651.0</ele><time>2026-04-24T09:20:23.874Z</time></trkpt><trkpt lat="46.0678973" lon="10.910646"><ele>655.25</ele><time>2026-04-24T09:20:24.892Z</time></trkpt><trkpt lat="46.0677745" lon="10.9107133"><ele>659.5</ele><time>2026-04-24T09:20:25.888Z</time></trkpt><trkpt lat="46.0676619" lon="10.9107755"><ele>663.75</ele><time>2026-04-24T09:20:26.881Z</time></trkpt><trkpt lat="46.0675467" lon="10.9108476"><ele>668.0</ele><time>2026-04-24T09:20:27.914Z</time></trkpt><trkpt lat="46.06744" lon="10.9109082"><ele>668.0</ele><time>2026-04-24T09:20:28.896Z</time></trkpt><trkpt lat="46.0673416" lon="10.9109712"><ele>668.0</ele><time>2026-04-24T09:20:29.883Z</time></trkpt><trkpt lat="46.0672579" lon="10.9110476"><ele>668.0</ele><time>2026-04-24T09:20:30.889Z</time></trkpt><trkpt lat="46.0671762" lon="10.9111345"><ele>668.0</ele><time>2026-04-24T09:20:32.007Z</time></trkpt><trkpt lat="46.0671137" lon="10.9111924"><ele>668.0</ele><time>2026-04-24T09:20:32.914Z</time></trkpt><trkpt lat="46.067041" lon="10.9112474"><ele>668.0</ele><time>2026-04-24T09:20:33.934Z</time></trkpt><trkpt lat="46.0669551" lon="10.9112782"><ele>668.0</ele><time>2026-04-24T09:20:34.924Z</time></trkpt><trkpt lat="46.0668581" lon="10.9113133"><ele>668.0</ele><time>2026-04-24T09:20:35.909Z</time></trkpt><trkpt lat="46.0667702" lon="10.9113551"><ele>668.0</ele><time>2026-04-24T09:20:36.935Z</time></trkpt><trkpt lat="46.0666857" lon="10.911394"><ele>668.0</ele><time>2026-04-24T09:20:37.934Z</time></trkpt><trkpt lat="46.0666126" lon="10.9114315"><ele>668.0</ele><time>2026-04-24T09:20:38.893Z</time></trkpt><trkpt lat="46.0665392" lon="10.9114837"><ele>665.1666666666666</ele><time>2026-04-24T09:20:39.89Z</time></trkpt><trkpt lat="46.0664722" lon="10.9115423"><ele>662.3333333333333</ele><time>2026-04-24T09:20:40.917Z</time></trkpt><trkpt lat="46.0664124" lon="10.9116062"><ele>659.5</ele><time>2026-04-24T09:20:41.933Z</time></trkpt><trkpt lat="46.0663566" lon="10.911658"><ele>656.6666666666666</ele><time>2026-04-24T09:20:42.941Z</time></trkpt><trkpt lat="46.066308" lon="10.911716"><ele>653.8333333333334</ele><time>2026-04-24T09:20:43.957Z</time></trkpt><trkpt lat="46.0662073" lon="10.9117476"><ele>651.0</ele><time>2026-04-24T09:20:45.883Z</time></trkpt><trkpt lat="46.0661209" lon="10.9116336"><ele>651.0</ele><time>2026-04-24T09:20:47.918Z</time></trkpt><trkpt lat="46.0661217" lon="10.911531"><ele>651.0</ele><time>2026-04-24T09:20:48.914Z</time></trkpt><trkpt lat="46.0661541" lon="10.9114097"><ele>651.0</ele><time>2026-04-24T09:20:49.934Z</time></trkpt><trkpt lat="46.0662045" lon="10.9112976"><ele>651.0</ele><time>2026-04-24T09:20:50.913Z</time></trkpt><trkpt lat="46.0662606" lon="10.9111607"><ele>651.0</ele><time>2026-04-24T09:20:51.929Z</time></trkpt><trkpt lat="46.0663156" lon="10.9110171"><ele>653.5</ele><time>2026-04-24T09:20:52.919Z</time></trkpt><trkpt lat="46.0663828" lon="10.9108755"><ele>656.0</ele><time>2026-04-24T09:20:53.946Z</time></trkpt><trkpt lat="46.0664473" lon="10.9107293"><ele>658.5</ele><time>2026-04-24T09:20:54.923Z</time></trkpt><trkpt lat="46.0665017" lon="10.9105644"><ele>661.0</ele><time>2026-04-24T09:20:55.938Z</time></trkpt><trkpt lat="46.0665442" lon="10.910385"><ele>661.0</ele><time>2026-04-24T09:20:56.913Z</time></trkpt><trkpt lat="46.0665746" lon="10.9102049"><ele>661.0</ele><time>2026-04-24T09:20:57.919Z</time></trkpt><trkpt lat="46.066592" lon="10.9100459"><ele>661.0</ele><time>2026-04-24T09:20:58.912Z</time></trkpt><trkpt lat="46.0665991" lon="10.9098981"><ele>661.0</ele><time>2026-04-24T09:20:59.925Z</time></trkpt><trkpt lat="46.0666067" lon="10.9097604"><ele>661.0</ele><time>2026-04-24T09:21:00.92Z</time></trkpt><trkpt lat="46.0666206" lon="10.9096423"><ele>664.1666666666667</ele><time>2026-04-24T09:21:01.895Z</time></trkpt><trkpt lat="46.0666452" lon="10.9095195"><ele>667.3333333333334</ele><time>2026-04-24T09:21:02.934Z</time></trkpt><trkpt lat="46.0666805" lon="10.9094042"><ele>670.5</ele><time>2026-04-24T09:21:03.935Z</time></trkpt><trkpt lat="46.0667233" lon="10.9093005"><ele>673.6666666666666</ele><time>2026-04-24T09:21:04.932Z</time></trkpt><trkpt lat="46.0667724" lon="10.9092018"><ele>676.8333333333333</ele><time>2026-04-24T09:21:05.925Z</time></trkpt><trkpt lat="46.0668301" lon="10.9091144"><ele>680.0</ele><time>2026-04-24T09:21:06.898Z</time></trkpt><trkpt lat="46.0668952" lon="10.9090196"><ele>680.0</ele><time>2026-04-24T09:21:07.926Z</time></trkpt><trkpt lat="46.0669651" lon="10.9089316"><ele>680.0</ele><time>2026-04-24T09:21:08.943Z</time></trkpt><trkpt lat="46.0670272" lon="10.9088513"><ele>680.0</ele><time>2026-04-24T09:21:09.911Z</time></trkpt><trkpt lat="46.067104" lon="10.9087719"><ele>680.0</ele><time>2026-04-24T09:21:10.939Z</time></trkpt><trkpt lat="46.0671875" lon="10.9087097"><ele>680.0</ele><time>2026-04-24T09:21:11.908Z</time></trkpt><trkpt lat="46.0672878" lon="10.9086298"><ele>680.0</ele><time>2026-04-24T09:21:12.929Z</time></trkpt><trkpt lat="46.0673974" lon="10.9085556"><ele>680.0</ele><time>2026-04-24T09:21:13.912Z</time></trkpt><trkpt lat="46.0675282" lon="10.9084803"><ele>680.0</ele><time>2026-04-24T09:21:14.945Z</time></trkpt><trkpt lat="46.0676474" lon="10.9084109"><ele>680.0</ele><time>2026-04-24T09:21:15.956Z</time></trkpt><trkpt lat="46.0677578" lon="10.9083567"><ele>681.25</ele><time>2026-04-24T09:21:16.891Z</time></trkpt><trkpt lat="46.0678722" lon="10.908314"><ele>682.5</ele><time>2026-04-24T09:21:17.909Z</time></trkpt><trkpt lat="46.0679984" lon="10.9082857"><ele>683.75</ele><time>2026-04-24T09:21:18.917Z</time></trkpt><trkpt lat="46.0681451" lon="10.9082854"><ele>685.0</ele><time>2026-04-24T09:21:19.957Z</time></trkpt><trkpt lat="46.0682794" lon="10.9082977"><ele>687.2</ele><time>2026-04-24T09:21:20.91Z</time></trkpt><trkpt lat="46.0684046" lon="10.908329"><ele>689.4</ele><time>2026-04-24T09:21:21.95Z</time></trkpt><trkpt lat="46.0685097" lon="10.9083535"><ele>691.5999999999999</ele><time>2026-04-24T09:21:22.913Z</time></trkpt><trkpt lat="46.0686274" lon="10.9083767"><ele>693.8</ele><time>2026-04-24T09:21:24.013Z</time></trkpt><trkpt lat="46.0687186" lon="10.9083888"><ele>696.0</ele><time>2026-04-24T09:21:24.921Z</time></trkpt><trkpt lat="46.0688105" lon="10.90839"><ele>696.0</ele><time>2026-04-24T09:21:25.894Z</time></trkpt><trkpt lat="46.0689016" lon="10.908367"><ele>696.0</ele><time>2026-04-24T09:21:26.896Z</time></trkpt><trkpt lat="46.0689914" lon="10.9082966"><ele>696.0</ele><time>2026-04-24T09:21:27.929Z</time></trkpt><trkpt lat="46.0690595" lon="10.9081756"><ele>696.0</ele><time>2026-04-24T09:21:28.927Z</time></trkpt><trkpt lat="46.0691385" lon="10.908052"><ele>696.0</ele><time>2026-04-24T09:21:29.928Z</time></trkpt><trkpt lat="46.0692336" lon="10.9079433"><ele>697.25</ele><time>2026-04-24T09:21:30.934Z</time></trkpt><trkpt lat="46.0693404" lon="10.9078449"><ele>698.5</ele><time>2026-04-24T09:21:31.92Z</time></trkpt><trkpt lat="46.0694546" lon="10.907753"><ele>699.75</ele><time>2026-04-24T09:21:32.936Z</time></trkpt><trkpt lat="46.0695569" lon="10.9076691"><ele>701.0</ele><time>2026-04-24T09:21:33.926Z</time></trkpt><trkpt lat="46.0696468" lon="10.9075936"><ele>700.0</ele><time>2026-04-24T09:21:34.883Z</time></trkpt><trkpt lat="46.0697422" lon="10.9074953"><ele>699.0</ele><time>2026-04-24T09:21:35.977Z</time></trkpt><trkpt lat="46.0698214" lon="10.9073977"><ele>698.0</ele><time>2026-04-24T09:21:36.908Z</time></trkpt><trkpt lat="46.0699122" lon="10.9072667"><ele>697.0</ele><time>2026-04-24T09:21:38.014Z</time></trkpt><trkpt lat="46.0700777" lon="10.9070469"><ele>696.3333333333334</ele><time>2026-04-24T09:21:39.896Z</time></trkpt><trkpt lat="46.0701887" lon="10.9069147"><ele>695.6666666666666</ele><time>2026-04-24T09:21:41.04Z</time></trkpt><trkpt lat="46.0704065" lon="10.906778"><ele>695.0</ele><time>2026-04-24T09:21:42.982Z</time></trkpt><trkpt lat="46.0705282" lon="10.9067633"><ele>695.0</ele><time>2026-04-24T09:21:43.93Z</time></trkpt><trkpt lat="46.0706416" lon="10.9067812"><ele>695.0</ele><time>2026-04-24T09:21:44.939Z</time></trkpt><trkpt lat="46.0707385" lon="10.9068159"><ele>695.0</ele><time>2026-04-24T09:21:45.938Z</time></trkpt><trkpt lat="46.0708241" lon="10.9068366"><ele>695.0</ele><time>2026-04-24T09:21:46.932Z</time></trkpt><trkpt lat="46.0708976" lon="10.9068333"><ele>695.0</ele><time>2026-04-24T09:21:47.926Z</time></trkpt><trkpt lat="46.0710005" lon="10.906755"><ele>696.6</ele><time>2026-04-24T09:21:49.919Z</time></trkpt><trkpt lat="46.0710954" lon="10.9066308"><ele>698.2</ele><time>2026-04-24T09:21:51.914Z</time></trkpt><trkpt lat="46.0711625" lon="10.9065743"><ele>699.8</ele><time>2026-04-24T09:21:52.945Z</time></trkpt><trkpt lat="46.0712402" lon="10.9065425"><ele>701.4</ele><time>2026-04-24T09:21:53.946Z</time></trkpt><trkpt lat="46.0713244" lon="10.9065163"><ele>703.0</ele><time>2026-04-24T09:21:54.919Z</time></trkpt><trkpt lat="46.0714171" lon="10.9064786"><ele>703.0</ele><time>2026-04-24T09:21:55.917Z</time></trkpt><trkpt lat="46.071522" lon="10.9064428"><ele>703.0</ele><time>2026-04-24T09:21:56.92Z</time></trkpt><trkpt lat="46.0716323" lon="10.9064182"><ele>703.0</ele><time>2026-04-24T09:21:57.922Z</time></trkpt><trkpt lat="46.0717534" lon="10.906417"><ele>703.0</ele><time>2026-04-24T09:21:58.918Z</time></trkpt><trkpt lat="46.0718782" lon="10.9064412"><ele>702.25</ele><time>2026-04-24T09:21:59.931Z</time></trkpt><trkpt lat="46.0720004" lon="10.906496"><ele>701.5</ele><time>2026-04-24T09:22:00.937Z</time></trkpt><trkpt lat="46.072121" lon="10.9065772"><ele>700.75</ele><time>2026-04-24T09:22:01.961Z</time></trkpt><trkpt lat="46.0722249" lon="10.9066736"><ele>700.0</ele><time>2026-04-24T09:22:02.947Z</time></trkpt><trkpt lat="46.0723202" lon="10.9067785"><ele>700.0</ele><time>2026-04-24T09:22:03.946Z</time></trkpt><trkpt lat="46.072398" lon="10.9068875"><ele>700.0</ele><time>2026-04-24T09:22:04.937Z</time></trkpt><trkpt lat="46.0724671" lon="10.9069943"><ele>700.0</ele><time>2026-04-24T09:22:05.922Z</time></trkpt><trkpt lat="46.0725326" lon="10.907088"><ele>700.0</ele><time>2026-04-24T09:22:06.905Z</time></trkpt><trkpt lat="46.0726008" lon="10.9071783"><ele>700.0</ele><time>2026-04-24T09:22:07.954Z</time></trkpt><trkpt lat="46.0726552" lon="10.9072562"><ele>701.0</ele><time>2026-04-24T09:22:08.919Z</time></trkpt><trkpt lat="46.0727091" lon="10.9073326"><ele>702.0</ele><time>2026-04-24T09:22:09.972Z</time></trkpt><trkpt lat="46.0728006" lon="10.9074609"><ele>703.0</ele><time>2026-04-24T09:22:11.909Z</time></trkpt><trkpt lat="46.0728513" lon="10.907528"><ele>704.0</ele><time>2026-04-24T09:22:12.888Z</time></trkpt><trkpt lat="46.0728991" lon="10.9076133"><ele>705.0</ele><time>2026-04-24T09:22:13.933Z</time></trkpt><trkpt lat="46.0729514" lon="10.9076974"><ele>706.0</ele><time>2026-04-24T09:22:14.954Z</time></trkpt><trkpt lat="46.0730125" lon="10.9077762"><ele>706.4</ele><time>2026-04-24T09:22:15.91Z</time></trkpt><trkpt lat="46.0730761" lon="10.9078783"><ele>706.8</ele><time>2026-04-24T09:22:16.98Z</time></trkpt><trkpt lat="46.0731381" lon="10.9079936"><ele>707.1999999999999</ele><time>2026-04-24T09:22:18.059Z</time></trkpt><trkpt lat="46.0731876" lon="10.9080998"><ele>707.5999999999999</ele><time>2026-04-24T09:22:18.979Z</time></trkpt><trkpt lat="46.0732407" lon="10.9082154"><ele>708.0</ele><time>2026-04-24T09:22:19.938Z</time></trkpt><trkpt lat="46.0732957" lon="10.9083433"><ele>709.0</ele><time>2026-04-24T09:22:20.972Z</time></trkpt><trkpt lat="46.0733522" lon="10.9084666"><ele>710.0</ele><time>2026-04-24T09:22:21.929Z</time></trkpt><trkpt lat="46.0734165" lon="10.9085956"><ele>711.0</ele><time>2026-04-24T09:22:22.999Z</time></trkpt><trkpt lat="46.0734699" lon="10.9087028"><ele>712.0</ele><time>2026-04-24T09:22:23.919Z</time></trkpt><trkpt lat="46.0735391" lon="10.9088235"><ele>713.0</ele><time>2026-04-24T09:22:24.929Z</time></trkpt><trkpt lat="46.0736115" lon="10.9089626"><ele>713.0</ele><time>2026-04-24T09:22:25.987Z</time></trkpt><trkpt lat="46.0736734" lon="10.9090594"><ele>713.0</ele><time>2026-04-24T09:22:26.91Z</time></trkpt><trkpt lat="46.0737446" lon="10.909173"><ele>713.0</ele><time>2026-04-24T09:22:27.941Z</time></trkpt><trkpt lat="46.0738045" lon="10.909275"><ele>713.0</ele><time>2026-04-24T09:22:28.931Z</time></trkpt><trkpt lat="46.0738659" lon="10.9093821"><ele>713.0</ele><time>2026-04-24T09:22:29.943Z</time></trkpt><trkpt lat="46.0739283" lon="10.9094871"><ele>712.5999999999999</ele><time>2026-04-24T09:22:30.936Z</time></trkpt><trkpt lat="46.073993" lon="10.9095948"><ele>712.1999999999999</ele><time>2026-04-24T09:22:31.944Z</time></trkpt><trkpt lat="46.0740559" lon="10.9097041"><ele>711.8</ele><time>2026-04-24T09:22:32.918Z</time></trkpt><trkpt lat="46.0741224" lon="10.9098202"><ele>711.4</ele><time>2026-04-24T09:22:33.957Z</time></trkpt><trkpt lat="46.0741801" lon="10.9099314"><ele>711.0</ele><time>2026-04-24T09:22:34.902Z</time></trkpt><trkpt lat="46.0742447" lon="10.9100519"><ele>711.8</ele><time>2026-04-24T09:22:35.936Z</time></trkpt><trkpt lat="46.0743072" lon="10.9101592"><ele>712.5999999999999</ele><time>2026-04-24T09:22:36.894Z</time></trkpt><trkpt lat="46.0743714" lon="10.9102691"><ele>713.4</ele><time>2026-04-24T09:22:37.929Z</time></trkpt><trkpt lat="46.074433" lon="10.9103758"><ele>714.2</ele><time>2026-04-24T09:22:38.912Z</time></trkpt><trkpt lat="46.0745001" lon="10.9104884"><ele>715.0</ele><time>2026-04-24T09:22:39.932Z</time></trkpt><trkpt lat="46.0745671" lon="10.9105884"><ele>715.0</ele><time>2026-04-24T09:22:40.894Z</time></trkpt><trkpt lat="46.0746443" lon="10.910704"><ele>715.0</ele><time>2026-04-24T09:22:41.988Z</time></trkpt><trkpt lat="46.0747063" lon="10.910798"><ele>715.0</ele><time>2026-04-24T09:22:42.949Z</time></trkpt><trkpt lat="46.0747579" lon="10.9108939"><ele>715.0</ele><time>2026-04-24T09:22:43.927Z</time></trkpt><trkpt lat="46.0748014" lon="10.9109809"><ele>715.0</ele><time>2026-04-24T09:22:44.895Z</time></trkpt><trkpt lat="46.0748399" lon="10.9110589"><ele>715.0</ele><time>2026-04-24T09:22:45.908Z</time></trkpt><trkpt lat="46.0749126" lon="10.9111829"><ele>716.6666666666667</ele><time>2026-04-24T09:22:47.909Z</time></trkpt><trkpt lat="46.0750015" lon="10.9112476"><ele>718.3333333333334</ele><time>2026-04-24T09:22:49.936Z</time></trkpt><trkpt lat="46.0751175" lon="10.9112488"><ele>720.0</ele><time>2026-04-24T09:22:51.919Z</time></trkpt><trkpt lat="46.0751884" lon="10.9112445"><ele>721.6666666666666</ele><time>2026-04-24T09:22:52.909Z</time></trkpt><trkpt lat="46.0752644" lon="10.9112359"><ele>723.3333333333333</ele><time>2026-04-24T09:22:53.911Z</time></trkpt><trkpt lat="46.0753441" lon="10.9112192"><ele>725.0</ele><time>2026-04-24T09:22:54.923Z</time></trkpt><trkpt lat="46.0754285" lon="10.9111915"><ele>725.0</ele><time>2026-04-24T09:22:55.915Z</time></trkpt><trkpt lat="46.0755141" lon="10.911144"><ele>725.0</ele><time>2026-04-24T09:22:56.961Z</time></trkpt><trkpt lat="46.0755921" lon="10.9110983"><ele>725.0</ele><time>2026-04-24T09:22:57.922Z</time></trkpt><trkpt lat="46.0756646" lon="10.9110577"><ele>725.0</ele><time>2026-04-24T09:22:58.889Z</time></trkpt><trkpt lat="46.0757429" lon="10.9110296"><ele>725.0</ele><time>2026-04-24T09:22:59.961Z</time></trkpt><trkpt lat="46.0758212" lon="10.9110204"><ele>725.0</ele><time>2026-04-24T09:23:00.964Z</time></trkpt><trkpt lat="46.0758841" lon="10.9110149"><ele>725.25</ele><time>2026-04-24T09:23:01.928Z</time></trkpt><trkpt lat="46.0759761" lon="10.9109707"><ele>725.5</ele><time>2026-04-24T09:23:03.968Z</time></trkpt><trkpt lat="46.0760355" lon="10.9108957"><ele>725.75</ele><time>2026-04-24T09:23:05.912Z</time></trkpt><trkpt lat="46.0761437" lon="10.9106953"><ele>726.0</ele><time>2026-04-24T09:23:08.916Z</time></trkpt><trkpt lat="46.0761957" lon="10.9105576"><ele>726.0</ele><time>2026-04-24T09:23:10.922Z</time></trkpt><trkpt lat="46.0762199" lon="10.9104704"><ele>726.0</ele><time>2026-04-24T09:23:11.931Z</time></trkpt><trkpt lat="46.0762579" lon="10.9103958"><ele>726.0</ele><time>2026-04-24T09:23:12.9Z</time></trkpt><trkpt lat="46.076297" lon="10.9102987"><ele>726.0</ele><time>2026-04-24T09:23:13.899Z</time></trkpt><trkpt lat="46.0763178" lon="10.9101946"><ele>726.0</ele><time>2026-04-24T09:23:14.93Z</time></trkpt><trkpt lat="46.07634" lon="10.9100682"><ele>726.0</ele><time>2026-04-24T09:23:15.915Z</time></trkpt><trkpt lat="46.0763677" lon="10.9099484"><ele>725.3333333333334</ele><time>2026-04-24T09:23:16.898Z</time></trkpt><trkpt lat="46.0763983" lon="10.909824"><ele>724.6666666666666</ele><time>2026-04-24T09:23:17.929Z</time></trkpt><trkpt lat="46.0764327" lon="10.9096984"><ele>724.0</ele><time>2026-04-24T09:23:18.948Z</time></trkpt><trkpt lat="46.0764678" lon="10.9095921"><ele>723.3333333333333</ele><time>2026-04-24T09:23:19.896Z</time></trkpt><trkpt lat="46.0765183" lon="10.9094892"><ele>722.6666666666666</ele><time>2026-04-24T09:23:20.928Z</time></trkpt><trkpt lat="46.0765707" lon="10.9094197"><ele>722.0</ele><time>2026-04-24T09:23:21.881Z</time></trkpt><trkpt lat="46.076633" lon="10.909297"><ele>724.0</ele><time>2026-04-24T09:23:23.928Z</time></trkpt><trkpt lat="46.0766821" lon="10.9091669"><ele>726.0</ele><time>2026-04-24T09:23:25.918Z</time></trkpt><trkpt lat="46.0766897" lon="10.9090065"><ele>728.0</ele><time>2026-04-24T09:23:27.952Z</time></trkpt><trkpt lat="46.076713" lon="10.9088378"><ele>730.0</ele><time>2026-04-24T09:23:29.991Z</time></trkpt><trkpt lat="46.0767257" lon="10.9087449"><ele>732.0</ele><time>2026-04-24T09:23:31.057Z</time></trkpt><trkpt lat="46.076751" lon="10.908588"><ele>732.0</ele><time>2026-04-24T09:23:32.928Z</time></trkpt><trkpt lat="46.0767846" lon="10.9084229"><ele>732.0</ele><time>2026-04-24T09:23:34.92Z</time></trkpt><trkpt lat="46.0768107" lon="10.9082614"><ele>732.0</ele><time>2026-04-24T09:23:36.886Z</time></trkpt><trkpt lat="46.0768442" lon="10.9080982"><ele>732.0</ele><time>2026-04-24T09:23:38.915Z</time></trkpt><trkpt lat="46.0768778" lon="10.9079297"><ele>731.4000000000001</ele><time>2026-04-24T09:23:40.949Z</time></trkpt><trkpt lat="46.0768967" lon="10.9078396"><ele>730.8000000000001</ele><time>2026-04-24T09:23:42.017Z</time></trkpt><trkpt lat="46.0769292" lon="10.9076535"><ele>730.2</ele><time>2026-04-24T09:23:44.09Z</time></trkpt><trkpt lat="46.076961" lon="10.9074892"><ele>729.6</ele><time>2026-04-24T09:23:45.932Z</time></trkpt><trkpt lat="46.0769859" lon="10.9073155"><ele>729.0</ele><time>2026-04-24T09:23:47.965Z</time></trkpt><trkpt lat="46.0769896" lon="10.907149"><ele>727.5</ele><time>2026-04-24T09:23:49.916Z</time></trkpt><trkpt lat="46.0769205" lon="10.9070001"><ele>726.0</ele><time>2026-04-24T09:23:51.935Z</time></trkpt><trkpt lat="46.0768636" lon="10.9069374"><ele>724.5</ele><time>2026-04-24T09:23:52.922Z</time></trkpt><trkpt lat="46.0767996" lon="10.9069151"><ele>723.0</ele><time>2026-04-24T09:23:53.931Z</time></trkpt><trkpt lat="46.0767354" lon="10.9069289"><ele>721.5</ele><time>2026-04-24T09:23:54.896Z</time></trkpt><trkpt lat="46.0766721" lon="10.9069603"><ele>720.0</ele><time>2026-04-24T09:23:55.922Z</time></trkpt><trkpt lat="46.0766179" lon="10.9070119"><ele>719.0</ele><time>2026-04-24T09:23:56.914Z</time></trkpt><trkpt lat="46.0765537" lon="10.9071813"><ele>718.0</ele><time>2026-04-24T09:23:58.913Z</time></trkpt><trkpt lat="46.0765189" lon="10.9072777"><ele>717.0</ele><time>2026-04-24T09:23:59.944Z</time></trkpt><trkpt lat="46.07648" lon="10.9073596"><ele>716.0</ele><time>2026-04-24T09:24:00.932Z</time></trkpt><trkpt lat="46.0764471" lon="10.9074572"><ele>715.0</ele><time>2026-04-24T09:24:01.941Z</time></trkpt><trkpt lat="46.0764168" lon="10.9075685"><ele>714.0</ele><time>2026-04-24T09:24:02.968Z</time></trkpt><trkpt lat="46.0763737" lon="10.9076632"><ele>714.0</ele><time>2026-04-24T09:24:03.942Z</time></trkpt><trkpt lat="46.0763352" lon="10.9077667"><ele>714.0</ele><time>2026-04-24T09:24:04.936Z</time></trkpt><trkpt lat="46.0762883" lon="10.9078569"><ele>714.0</ele><time>2026-04-24T09:24:05.909Z</time></trkpt><trkpt lat="46.0762335" lon="10.9079349"><ele>714.0</ele><time>2026-04-24T09:24:06.906Z</time></trkpt><trkpt lat="46.0761392" lon="10.9079694"><ele>714.0</ele><time>2026-04-24T09:24:07.947Z</time></trkpt><trkpt lat="46.0760635" lon="10.9079605"><ele>714.0</ele><time>2026-04-24T09:24:08.891Z</time></trkpt><trkpt lat="46.0759759" lon="10.9079227"><ele>714.0</ele><time>2026-04-24T09:24:09.941Z</time></trkpt><trkpt lat="46.0758988" lon="10.907868"><ele>714.0</ele><time>2026-04-24T09:24:10.891Z</time></trkpt><trkpt lat="46.0758257" lon="10.9077935"><ele>714.0</ele><time>2026-04-24T09:24:11.898Z</time></trkpt><trkpt lat="46.0757906" lon="10.9076838"><ele>714.0</ele><time>2026-04-24T09:24:12.886Z</time></trkpt><trkpt lat="46.0757785" lon="10.9075537"><ele>714.0</ele><time>2026-04-24T09:24:13.906Z</time></trkpt><trkpt lat="46.0757649" lon="10.9074152"><ele>714.0</ele><time>2026-04-24T09:24:14.917Z</time></trkpt><trkpt lat="46.0757491" lon="10.9072766"><ele>709.8000000000001</ele><time>2026-04-24T09:24:15.93Z</time></trkpt><trkpt lat="46.0757396" lon="10.9071361"><ele>705.6</ele><time>2026-04-24T09:24:16.893Z</time></trkpt><trkpt lat="46.0757383" lon="10.906985"><ele>701.4</ele><time>2026-04-24T09:24:17.923Z</time></trkpt><trkpt lat="46.0757302" lon="10.9068354"><ele>697.2</ele><time>2026-04-24T09:24:18.881Z</time></trkpt><trkpt lat="46.0757114" lon="10.9066608"><ele>693.0</ele><time>2026-04-24T09:24:19.94Z</time></trkpt><trkpt lat="46.0756946" lon="10.9064922"><ele>692.0</ele><time>2026-04-24T09:24:20.902Z</time></trkpt><trkpt lat="46.0756725" lon="10.9063071"><ele>691.0</ele><time>2026-04-24T09:24:21.922Z</time></trkpt><trkpt lat="46.0756352" lon="10.9061137"><ele>690.0</ele><time>2026-04-24T09:24:22.928Z</time></trkpt><trkpt lat="46.0755855" lon="10.9059262"><ele>689.0</ele><time>2026-04-24T09:24:23.888Z</time></trkpt><trkpt lat="46.0755249" lon="10.9057275"><ele>688.25</ele><time>2026-04-24T09:24:24.931Z</time></trkpt><trkpt lat="46.0754734" lon="10.9055429"><ele>687.5</ele><time>2026-04-24T09:24:25.941Z</time></trkpt><trkpt lat="46.0754187" lon="10.9053605"><ele>686.75</ele><time>2026-04-24T09:24:26.943Z</time></trkpt><trkpt lat="46.0753609" lon="10.9051863"><ele>686.0</ele><time>2026-04-24T09:24:27.957Z</time></trkpt><trkpt lat="46.0753108" lon="10.9050173"><ele>686.0</ele><time>2026-04-24T09:24:28.958Z</time></trkpt><trkpt lat="46.0752712" lon="10.9048672"><ele>686.0</ele><time>2026-04-24T09:24:29.929Z</time></trkpt><trkpt lat="46.0752143" lon="10.9047044"><ele>686.0</ele><time>2026-04-24T09:24:30.924Z</time></trkpt><trkpt lat="46.0751491" lon="10.9045485"><ele>686.0</ele><time>2026-04-24T09:24:31.914Z</time></trkpt><trkpt lat="46.0750827" lon="10.9043941"><ele>686.25</ele><time>2026-04-24T09:24:32.917Z</time></trkpt><trkpt lat="46.0750264" lon="10.9042424"><ele>686.5</ele><time>2026-04-24T09:24:33.921Z</time></trkpt><trkpt lat="46.074966" lon="10.9040915"><ele>686.75</ele><time>2026-04-24T09:24:34.907Z</time></trkpt><trkpt lat="46.0749048" lon="10.9039459"><ele>687.0</ele><time>2026-04-24T09:24:35.925Z</time></trkpt><trkpt lat="46.074842" lon="10.9037987"><ele>682.5</ele><time>2026-04-24T09:24:36.909Z</time></trkpt><trkpt lat="46.0747807" lon="10.9036409"><ele>678.0</ele><time>2026-04-24T09:24:37.96Z</time></trkpt><trkpt lat="46.0747286" lon="10.9035"><ele>673.5</ele><time>2026-04-24T09:24:38.916Z</time></trkpt><trkpt lat="46.0746714" lon="10.9033602"><ele>669.0</ele><time>2026-04-24T09:24:39.918Z</time></trkpt><trkpt lat="46.0746122" lon="10.9032151"><ele>669.0</ele><time>2026-04-24T09:24:40.942Z</time></trkpt><trkpt lat="46.0745592" lon="10.9030763"><ele>669.0</ele><time>2026-04-24T09:24:41.903Z</time></trkpt><trkpt lat="46.0745044" lon="10.902925"><ele>669.0</ele><time>2026-04-24T09:24:42.948Z</time></trkpt><trkpt lat="46.0744546" lon="10.902791"><ele>669.0</ele><time>2026-04-24T09:24:43.923Z</time></trkpt><trkpt lat="46.0744025" lon="10.9026504"><ele>669.0</ele><time>2026-04-24T09:24:44.916Z</time></trkpt><trkpt lat="46.0743558" lon="10.9025058"><ele>668.8000000000001</ele><time>2026-04-24T09:24:45.927Z</time></trkpt><trkpt lat="46.0743139" lon="10.9023595"><ele>668.6</ele><time>2026-04-24T09:24:46.901Z</time></trkpt><trkpt lat="46.0742727" lon="10.902219"><ele>668.4</ele><time>2026-04-24T09:24:47.899Z</time></trkpt><trkpt lat="46.0742235" lon="10.9020695"><ele>668.2</ele><time>2026-04-24T09:24:48.957Z</time></trkpt><trkpt lat="46.0741835" lon="10.9019337"><ele>668.0</ele><time>2026-04-24T09:24:49.916Z</time></trkpt><trkpt lat="46.0741475" lon="10.9017935"><ele>669.0</ele><time>2026-04-24T09:24:50.892Z</time></trkpt><trkpt lat="46.0741085" lon="10.9016486"><ele>670.0</ele><time>2026-04-24T09:24:51.914Z</time></trkpt><trkpt lat="46.0740652" lon="10.901504"><ele>671.0</ele><time>2026-04-24T09:24:52.941Z</time></trkpt><trkpt lat="46.074022" lon="10.9013663"><ele>672.0</ele><time>2026-04-24T09:24:53.932Z</time></trkpt><trkpt lat="46.0739841" lon="10.901235"><ele>673.0</ele><time>2026-04-24T09:24:54.915Z</time></trkpt><trkpt lat="46.0739461" lon="10.9011057"><ele>667.8</ele><time>2026-04-24T09:24:55.912Z</time></trkpt><trkpt lat="46.0739089" lon="10.9009678"><ele>662.5999999999999</ele><time>2026-04-24T09:24:56.928Z</time></trkpt><trkpt lat="46.0738705" lon="10.9008423"><ele>657.4000000000001</ele><time>2026-04-24T09:24:57.92Z</time></trkpt><trkpt lat="46.0738333" lon="10.9007167"><ele>652.2</ele><time>2026-04-24T09:24:58.919Z</time></trkpt><trkpt lat="46.0737966" lon="10.9005965"><ele>647.0</ele><time>2026-04-24T09:24:59.886Z</time></trkpt><trkpt lat="46.0737589" lon="10.9004651"><ele>647.0</ele><time>2026-04-24T09:25:00.919Z</time></trkpt><trkpt lat="46.0737214" lon="10.900333"><ele>647.0</ele><time>2026-04-24T09:25:01.921Z</time></trkpt><trkpt lat="46.073684" lon="10.9001951"><ele>647.0</ele><time>2026-04-24T09:25:02.941Z</time></trkpt><trkpt lat="46.0736559" lon="10.9000589"><ele>647.0</ele><time>2026-04-24T09:25:03.89Z</time></trkpt><trkpt lat="46.0736224" lon="10.8999047"><ele>647.0</ele><time>2026-04-24T09:25:04.961Z</time></trkpt><trkpt lat="46.0735852" lon="10.8997625"><ele>648.2</ele><time>2026-04-24T09:25:05.954Z</time></trkpt><trkpt lat="46.0735423" lon="10.8996206"><ele>649.4000000000001</ele><time>2026-04-24T09:25:06.924Z</time></trkpt><trkpt lat="46.0735105" lon="10.8994751"><ele>650.5999999999999</ele><time>2026-04-24T09:25:07.915Z</time></trkpt><trkpt lat="46.0734796" lon="10.8993243"><ele>651.8</ele><time>2026-04-24T09:25:08.923Z</time></trkpt><trkpt lat="46.073451" lon="10.8991851"><ele>653.0</ele><time>2026-04-24T09:25:09.917Z</time></trkpt><trkpt lat="46.073413" lon="10.8990398"><ele>653.2</ele><time>2026-04-24T09:25:10.948Z</time></trkpt><trkpt lat="46.0733789" lon="10.898902"><ele>653.4</ele><time>2026-04-24T09:25:11.908Z</time></trkpt><trkpt lat="46.0733478" lon="10.8987608"><ele>653.6</ele><time>2026-04-24T09:25:12.882Z</time></trkpt><trkpt lat="46.073323" lon="10.8986052"><ele>653.8000000000001</ele><time>2026-04-24T09:25:13.928Z</time></trkpt><trkpt lat="46.0733058" lon="10.8984562"><ele>654.0</ele><time>2026-04-24T09:25:14.902Z</time></trkpt><trkpt lat="46.0732998" lon="10.8982921"><ele>652.75</ele><time>2026-04-24T09:25:15.941Z</time></trkpt><trkpt lat="46.0733261" lon="10.8981287"><ele>651.5</ele><time>2026-04-24T09:25:16.916Z</time></trkpt><trkpt lat="46.0733684" lon="10.897959"><ele>650.25</ele><time>2026-04-24T09:25:17.915Z</time></trkpt><trkpt lat="46.0733964" lon="10.8977788"><ele>649.0</ele><time>2026-04-24T09:25:18.897Z</time></trkpt><trkpt lat="46.0734117" lon="10.8975637"><ele>647.75</ele><time>2026-04-24T09:25:19.995Z</time></trkpt><trkpt lat="46.0734044" lon="10.8973815"><ele>646.5</ele><time>2026-04-24T09:25:20.946Z</time></trkpt><trkpt lat="46.0733928" lon="10.8971982"><ele>645.25</ele><time>2026-04-24T09:25:21.941Z</time></trkpt><trkpt lat="46.0733819" lon="10.8970235"><ele>644.0</ele><time>2026-04-24T09:25:22.936Z</time></trkpt><trkpt lat="46.0733723" lon="10.8968528"><ele>644.75</ele><time>2026-04-24T09:25:23.935Z</time></trkpt><trkpt lat="46.0733647" lon="10.8966839"><ele>645.5</ele><time>2026-04-24T09:25:24.921Z</time></trkpt><trkpt lat="46.0733598" lon="10.8965157"><ele>646.25</ele><time>2026-04-24T09:25:25.901Z</time></trkpt><trkpt lat="46.0733601" lon="10.8963428"><ele>647.0</ele><time>2026-04-24T09:25:26.924Z</time></trkpt><trkpt lat="46.0733663" lon="10.8961842"><ele>647.0</ele><time>2026-04-24T09:25:27.888Z</time></trkpt><trkpt lat="46.0733691" lon="10.896009"><ele>647.0</ele><time>2026-04-24T09:25:28.919Z</time></trkpt><trkpt lat="46.0733773" lon="10.8958454"><ele>647.0</ele><time>2026-04-24T09:25:29.92Z</time></trkpt><trkpt lat="46.0733858" lon="10.8956906"><ele>647.0</ele><time>2026-04-24T09:25:30.901Z</time></trkpt><trkpt lat="46.0733908" lon="10.8955255"><ele>646.4000000000001</ele><time>2026-04-24T09:25:31.946Z</time></trkpt><trkpt lat="46.0733893" lon="10.89537"><ele>645.8000000000001</ele><time>2026-04-24T09:25:32.934Z</time></trkpt><trkpt lat="46.0733805" lon="10.8952084"><ele>645.2</ele><time>2026-04-24T09:25:33.926Z</time></trkpt><trkpt lat="46.0733611" lon="10.8950522"><ele>644.6</ele><time>2026-04-24T09:25:34.924Z</time></trkpt><trkpt lat="46.0733409" lon="10.8948959"><ele>644.0</ele><time>2026-04-24T09:25:35.918Z</time></trkpt><trkpt lat="46.073321" lon="10.8947337"><ele>643.0</ele><time>2026-04-24T09:25:36.974Z</time></trkpt><trkpt lat="46.0733007" lon="10.8945822"><ele>642.0</ele><time>2026-04-24T09:25:37.958Z</time></trkpt><trkpt lat="46.0732795" lon="10.8944317"><ele>641.0</ele><time>2026-04-24T09:25:38.934Z</time></trkpt><trkpt lat="46.0732554" lon="10.894278"><ele>640.0</ele><time>2026-04-24T09:25:39.939Z</time></trkpt><trkpt lat="46.0732237" lon="10.8941297"><ele>639.0</ele><time>2026-04-24T09:25:40.935Z</time></trkpt><trkpt lat="46.073175" lon="10.8940009"><ele>636.0</ele><time>2026-04-24T09:25:41.95Z</time></trkpt><trkpt lat="46.0731073" lon="10.8939243"><ele>633.0</ele><time>2026-04-24T09:25:42.96Z</time></trkpt><trkpt lat="46.0730257" lon="10.8938953"><ele>630.0</ele><time>2026-04-24T09:25:43.971Z</time></trkpt><trkpt lat="46.072941" lon="10.8939096"><ele>627.0</ele><time>2026-04-24T09:25:44.978Z</time></trkpt><trkpt lat="46.0728765" lon="10.8939664"><ele>624.0</ele><time>2026-04-24T09:25:45.93Z</time></trkpt><trkpt lat="46.0728302" lon="10.8940897"><ele>621.0</ele><time>2026-04-24T09:25:47.135Z</time></trkpt><trkpt lat="46.0728368" lon="10.8943063"><ele>621.0</ele><time>2026-04-24T09:25:48.931Z</time></trkpt><trkpt lat="46.0728447" lon="10.8944233"><ele>621.0</ele><time>2026-04-24T09:25:49.932Z</time></trkpt><trkpt lat="46.0728242" lon="10.8945239"><ele>621.0</ele><time>2026-04-24T09:25:50.954Z</time></trkpt><trkpt lat="46.0727689" lon="10.8945845"><ele>621.0</ele><time>2026-04-24T09:25:51.93Z</time></trkpt><trkpt lat="46.0726926" lon="10.894589"><ele>621.0</ele><time>2026-04-24T09:25:52.916Z</time></trkpt><trkpt lat="46.0726244" lon="10.8945248"><ele>621.0</ele><time>2026-04-24T09:25:53.945Z</time></trkpt><trkpt lat="46.0725798" lon="10.8944124"><ele>621.0</ele><time>2026-04-24T09:25:54.918Z</time></trkpt><trkpt lat="46.0725662" lon="10.894259"><ele>621.0</ele><time>2026-04-24T09:25:55.933Z</time></trkpt><trkpt lat="46.072582" lon="10.8941003"><ele>621.0</ele><time>2026-04-24T09:25:56.945Z</time></trkpt><trkpt lat="46.0726341" lon="10.8939467"><ele>621.0</ele><time>2026-04-24T09:25:57.943Z</time></trkpt><trkpt lat="46.0727224" lon="10.8938129"><ele>619.75</ele><time>2026-04-24T09:25:58.95Z</time></trkpt><trkpt lat="46.0728284" lon="10.8937073"><ele>618.5</ele><time>2026-04-24T09:25:59.946Z</time></trkpt><trkpt lat="46.0729492" lon="10.893636"><ele>617.25</ele><time>2026-04-24T09:26:00.976Z</time></trkpt><trkpt lat="46.0730739" lon="10.8936099"><ele>616.0</ele><time>2026-04-24T09:26:02.021Z</time></trkpt><trkpt lat="46.0731872" lon="10.8936296"><ele>620.75</ele><time>2026-04-24T09:26:02.961Z</time></trkpt><trkpt lat="46.07331" lon="10.8936619"><ele>625.5</ele><time>2026-04-24T09:26:03.898Z</time></trkpt><trkpt lat="46.073431" lon="10.8936826"><ele>630.25</ele><time>2026-04-24T09:26:04.95Z</time></trkpt><trkpt lat="46.0735414" lon="10.8936992"><ele>635.0</ele><time>2026-04-24T09:26:05.899Z</time></trkpt><trkpt lat="46.0736653" lon="10.8937116"><ele>635.0</ele><time>2026-04-24T09:26:06.941Z</time></trkpt><trkpt lat="46.0737796" lon="10.8937301"><ele>635.0</ele><time>2026-04-24T09:26:07.927Z</time></trkpt><trkpt lat="46.0738982" lon="10.8937354"><ele>635.0</ele><time>2026-04-24T09:26:08.951Z</time></trkpt><trkpt lat="46.0740284" lon="10.893762"><ele>635.0</ele><time>2026-04-24T09:26:09.967Z</time></trkpt><trkpt lat="46.0741399" lon="10.8938126"><ele>635.25</ele><time>2026-04-24T09:26:10.953Z</time></trkpt><trkpt lat="46.0742451" lon="10.8938552"><ele>635.5</ele><time>2026-04-24T09:26:11.892Z</time></trkpt><trkpt lat="46.0743576" lon="10.8938933"><ele>635.75</ele><time>2026-04-24T09:26:12.925Z</time></trkpt><trkpt lat="46.0744664" lon="10.893941"><ele>636.0</ele><time>2026-04-24T09:26:13.935Z</time></trkpt><trkpt lat="46.0745705" lon="10.8940022"><ele>636.0</ele><time>2026-04-24T09:26:14.938Z</time></trkpt><trkpt lat="46.0746672" lon="10.8940858"><ele>636.0</ele><time>2026-04-24T09:26:15.937Z</time></trkpt><trkpt lat="46.0747432" lon="10.8941827"><ele>636.0</ele><time>2026-04-24T09:26:16.878Z</time></trkpt><trkpt lat="46.0748158" lon="10.8943025"><ele>636.0</ele><time>2026-04-24T09:26:17.877Z</time></trkpt><trkpt lat="46.0748837" lon="10.8944193"><ele>636.0</ele><time>2026-04-24T09:26:18.876Z</time></trkpt><trkpt lat="46.0749691" lon="10.8945148"><ele>637.4</ele><time>2026-04-24T09:26:19.881Z</time></trkpt><trkpt lat="46.0750621" lon="10.8945493"><ele>638.8</ele><time>2026-04-24T09:26:20.865Z</time></trkpt><trkpt lat="46.0751657" lon="10.8945171"><ele>640.1999999999999</ele><time>2026-04-24T09:26:21.933Z</time></trkpt><trkpt lat="46.0752472" lon="10.8944325"><ele>641.6</ele><time>2026-04-24T09:26:22.918Z</time></trkpt><trkpt lat="46.0753053" lon="10.894304"><ele>643.0</ele><time>2026-04-24T09:26:23.893Z</time></trkpt><trkpt lat="46.0753328" lon="10.894152"><ele>637.0</ele><time>2026-04-24T09:26:24.882Z</time></trkpt><trkpt lat="46.0753311" lon="10.8939684"><ele>631.0</ele><time>2026-04-24T09:26:25.921Z</time></trkpt><trkpt lat="46.0753145" lon="10.8937821"><ele>625.0</ele><time>2026-04-24T09:26:26.872Z</time></trkpt><trkpt lat="46.0753157" lon="10.8936016"><ele>619.0</ele><time>2026-04-24T09:26:27.903Z</time></trkpt><trkpt lat="46.0753497" lon="10.8934432"><ele>612.5</ele><time>2026-04-24T09:26:28.887Z</time></trkpt><trkpt lat="46.0753888" lon="10.8932802"><ele>606.0</ele><time>2026-04-24T09:26:29.879Z</time></trkpt><trkpt lat="46.0754467" lon="10.8931157"><ele>599.5</ele><time>2026-04-24T09:26:30.873Z</time></trkpt><trkpt lat="46.075512" lon="10.8929493"><ele>593.0</ele><time>2026-04-24T09:26:31.883Z</time></trkpt><trkpt lat="46.0755728" lon="10.8927862"><ele>593.0</ele><time>2026-04-24T09:26:32.87Z</time></trkpt><trkpt lat="46.0756338" lon="10.8926173"><ele>593.0</ele><time>2026-04-24T09:26:33.892Z</time></trkpt><trkpt lat="46.0756996" lon="10.8924477"><ele>593.0</ele><time>2026-04-24T09:26:34.89Z</time></trkpt><trkpt lat="46.0757636" lon="10.8922828"><ele>593.0</ele><time>2026-04-24T09:26:35.894Z</time></trkpt><trkpt lat="46.075826" lon="10.8921167"><ele>591.25</ele><time>2026-04-24T09:26:36.895Z</time></trkpt><trkpt lat="46.0758878" lon="10.8919547"><ele>589.5</ele><time>2026-04-24T09:26:37.849Z</time></trkpt><trkpt lat="46.075954" lon="10.8917958"><ele>587.75</ele><time>2026-04-24T09:26:38.884Z</time></trkpt><trkpt lat="46.0760116" lon="10.8916592"><ele>586.0</ele><time>2026-04-24T09:26:39.844Z</time></trkpt><trkpt lat="46.0760548" lon="10.8915198"><ele>586.0</ele><time>2026-04-24T09:26:40.854Z</time></trkpt><trkpt lat="46.0760792" lon="10.8913896"><ele>586.0</ele><time>2026-04-24T09:26:41.857Z</time></trkpt><trkpt lat="46.0760825" lon="10.8912481"><ele>586.0</ele><time>2026-04-24T09:26:42.859Z</time></trkpt><trkpt lat="46.0760409" lon="10.891103"><ele>586.0</ele><time>2026-04-24T09:26:43.89Z</time></trkpt><trkpt lat="46.0759781" lon="10.8909972"><ele>586.0</ele><time>2026-04-24T09:26:44.868Z</time></trkpt><trkpt lat="46.0758969" lon="10.8909219"><ele>587.3333333333334</ele><time>2026-04-24T09:26:45.858Z</time></trkpt><trkpt lat="46.0758214" lon="10.8908868"><ele>588.6666666666667</ele><time>2026-04-24T09:26:46.864Z</time></trkpt><trkpt lat="46.0757538" lon="10.8908815"><ele>590.0</ele><time>2026-04-24T09:26:47.893Z</time></trkpt><trkpt lat="46.0756561" lon="10.8908947"><ele>591.3333333333334</ele><time>2026-04-24T09:26:49.918Z</time></trkpt><trkpt lat="46.0755824" lon="10.8909225"><ele>592.6666666666666</ele><time>2026-04-24T09:26:52.879Z</time></trkpt><trkpt lat="46.0755854" lon="10.8910157"><ele>594.0</ele><time>2026-04-24T09:26:57.888Z</time></trkpt><trkpt lat="46.0756506" lon="10.8910104"><ele>590.8333333333334</ele><time>2026-04-24T09:26:59.87Z</time></trkpt><trkpt lat="46.0757102" lon="10.8910406"><ele>587.6666666666666</ele><time>2026-04-24T09:27:02.879Z</time></trkpt><trkpt lat="46.0757406" lon="10.8911275"><ele>584.5</ele><time>2026-04-24T09:27:09.895Z</time></trkpt><trkpt lat="46.0757493" lon="10.8912322"><ele>581.3333333333333</ele><time>2026-04-24T09:27:11.901Z</time></trkpt><trkpt lat="46.0757368" lon="10.8913591"><ele>578.1666666666666</ele><time>2026-04-24T09:27:13.924Z</time></trkpt><trkpt lat="46.0756654" lon="10.8914893"><ele>575.0</ele><time>2026-04-24T09:27:16.149Z</time></trkpt><trkpt lat="46.0756093" lon="10.8915543"><ele>575.0</ele><time>2026-04-24T09:27:17.905Z</time></trkpt><trkpt lat="46.0755426" lon="10.891576"><ele>575.0</ele><time>2026-04-24T09:27:19.917Z</time></trkpt><trkpt lat="46.0754942" lon="10.8916759"><ele>575.0</ele><time>2026-04-24T09:27:22.895Z</time></trkpt><trkpt lat="46.0754996" lon="10.891816"><ele>575.0</ele><time>2026-04-24T09:27:25.967Z</time></trkpt><trkpt lat="46.0754763" lon="10.8919368"><ele>575.0</ele><time>2026-04-24T09:27:28.887Z</time></trkpt><trkpt lat="46.0754523" lon="10.8920351"><ele>575.0</ele><time>2026-04-24T09:27:30.936Z</time></trkpt><trkpt lat="46.0753925" lon="10.8921371"><ele>574.1666666666666</ele><time>2026-04-24T09:27:33.919Z</time></trkpt><trkpt lat="46.0753372" lon="10.8921964"><ele>573.3333333333333</ele><time>2026-04-24T09:27:36.919Z</time></trkpt><trkpt lat="46.0752522" lon="10.8922656"><ele>572.5</ele><time>2026-04-24T09:27:39.914Z</time></trkpt><trkpt lat="46.0751783" lon="10.8922986"><ele>571.6666666666666</ele><time>2026-04-24T09:27:41.924Z</time></trkpt><trkpt lat="46.0751034" lon="10.8923259"><ele>570.8333333333334</ele><time>2026-04-24T09:27:43.94Z</time></trkpt><trkpt lat="46.0750316" lon="10.8923471"><ele>570.0</ele><time>2026-04-24T09:27:45.925Z</time></trkpt><trkpt lat="46.0749724" lon="10.8923981"><ele>570.0</ele><time>2026-04-24T09:27:47.916Z</time></trkpt><trkpt lat="46.0749095" lon="10.8923911"><ele>570.0</ele><time>2026-04-24T09:27:49.919Z</time></trkpt><trkpt lat="46.0750639" lon="10.8923376"><ele>570.0</ele><time>2026-04-24T09:27:57.913Z</time></trkpt><trkpt lat="46.0751273" lon="10.8923202"><ele>570.0</ele><time>2026-04-24T09:27:58.883Z</time></trkpt><trkpt lat="46.0752037" lon="10.8922991"><ele>570.0</ele><time>2026-04-24T09:27:59.945Z</time></trkpt><trkpt lat="46.0752718" lon="10.8922625"><ele>570.0</ele><time>2026-04-24T09:28:00.908Z</time></trkpt><trkpt lat="46.0753593" lon="10.8922006"><ele>570.0</ele><time>2026-04-24T09:28:02.88Z</time></trkpt><trkpt lat="46.0754214" lon="10.8921796"><ele>570.0</ele><time>2026-04-24T09:29:31.976Z</time></trkpt><trkpt lat="46.0753634" lon="10.8921258"><ele>570.0</ele><time>2026-04-24T09:31:25.929Z</time></trkpt><trkpt lat="46.0753273" lon="10.8922084"><ele>570.0</ele><time>2026-04-24T09:33:08.953Z</time></trkpt><trkpt lat="46.0752735" lon="10.89226"><ele>570.0</ele><time>2026-04-24T09:33:09.968Z</time></trkpt><trkpt lat="46.0752097" lon="10.8922924"><ele>570.0</ele><time>2026-04-24T09:33:10.97Z</time></trkpt><trkpt lat="46.0751415" lon="10.8923164"><ele>570.0</ele><time>2026-04-24T09:33:11.948Z</time></trkpt><trkpt lat="46.0750198" lon="10.8923628"><ele>569.0</ele><time>2026-04-24T09:33:14.112Z</time></trkpt><trkpt lat="46.0749375" lon="10.892406"><ele>568.0</ele><time>2026-04-24T09:33:15.974Z</time></trkpt><trkpt lat="46.0748298" lon="10.8923654"><ele>567.0</ele><time>2026-04-24T09:33:18.009Z</time></trkpt><trkpt lat="46.0747111" lon="10.8923412"><ele>566.0</ele><time>2026-04-24T09:33:20.016Z</time></trkpt><trkpt lat="46.0745812" lon="10.8923165"><ele>566.0</ele><time>2026-04-24T09:33:21.955Z</time></trkpt><trkpt lat="46.0745188" lon="10.8922741"><ele>566.0</ele><time>2026-04-24T09:33:22.96Z</time></trkpt><trkpt lat="46.0744739" lon="10.8922023"><ele>566.0</ele><time>2026-04-24T09:33:23.982Z</time></trkpt><trkpt lat="46.0744361" lon="10.892129"><ele>566.0</ele><time>2026-04-24T09:33:24.956Z</time></trkpt><trkpt lat="46.0743627" lon="10.8919979"><ele>566.0</ele><time>2026-04-24T09:33:27.086Z</time></trkpt><trkpt lat="46.0742805" lon="10.8918907"><ele>566.0</ele><time>2026-04-24T09:33:28.988Z</time></trkpt><trkpt lat="46.0741796" lon="10.8918383"><ele>565.8333333333333</ele><time>2026-04-24T09:33:30.946Z</time></trkpt><trkpt lat="46.0740905" lon="10.8918022"><ele>565.6666666666666</ele><time>2026-04-24T09:33:32.984Z</time></trkpt><trkpt lat="46.0739936" lon="10.8917822"><ele>565.5</ele><time>2026-04-24T09:33:34.951Z</time></trkpt><trkpt lat="46.0739276" lon="10.8917591"><ele>565.3333333333334</ele><time>2026-04-24T09:33:35.958Z</time></trkpt><trkpt lat="46.0738587" lon="10.8917445"><ele>565.1666666666667</ele><time>2026-04-24T09:33:36.96Z</time></trkpt><trkpt lat="46.0737423" lon="10.8917114"><ele>565.0</ele><time>2026-04-24T09:33:38.949Z</time></trkpt><trkpt lat="46.0736766" lon="10.8916823"><ele>565.0</ele><time>2026-04-24T09:33:39.997Z</time></trkpt><trkpt lat="46.0736177" lon="10.8916353"><ele>565.0</ele><time>2026-04-24T09:33:40.965Z</time></trkpt><trkpt lat="46.0735647" lon="10.8915735"><ele>565.0</ele><time>2026-04-24T09:33:41.962Z</time></trkpt><trkpt lat="46.07351" lon="10.8915035"><ele>565.0</ele><time>2026-04-24T09:33:43.052Z</time></trkpt><trkpt lat="46.0734543" lon="10.8914566"><ele>565.0</ele><time>2026-04-24T09:33:43.967Z</time></trkpt><trkpt lat="46.0733866" lon="10.8914066"><ele>565.0</ele><time>2026-04-24T09:33:45.041Z</time></trkpt><trkpt lat="46.0732529" lon="10.8913447"><ele>563.8333333333334</ele><time>2026-04-24T09:33:46.956Z</time></trkpt><trkpt lat="46.0731827" lon="10.8913291"><ele>562.6666666666667</ele><time>2026-04-24T09:33:47.98Z</time></trkpt><trkpt lat="46.0731071" lon="10.891313"><ele>561.5</ele><time>2026-04-24T09:33:48.941Z</time></trkpt><trkpt lat="46.0730344" lon="10.8912778"><ele>560.3333333333334</ele><time>2026-04-24T09:33:49.966Z</time></trkpt><trkpt lat="46.07295" lon="10.8912316"><ele>559.1666666666666</ele><time>2026-04-24T09:33:51.068Z</time></trkpt><trkpt lat="46.072833" lon="10.8911714"><ele>558.0</ele><time>2026-04-24T09:33:52.927Z</time></trkpt><trkpt lat="46.0727206" lon="10.8911127"><ele>558.0</ele><time>2026-04-24T09:33:54.958Z</time></trkpt><trkpt lat="46.0726584" lon="10.8910593"><ele>558.0</ele><time>2026-04-24T09:33:55.953Z</time></trkpt><trkpt lat="46.0725757" lon="10.8909519"><ele>558.0</ele><time>2026-04-24T09:33:57.98Z</time></trkpt><trkpt lat="46.0725047" lon="10.8909306"><ele>558.0</ele><time>2026-04-24T09:34:00.07Z</time></trkpt><trkpt lat="46.0724192" lon="10.8909882"><ele>558.0</ele><time>2026-04-24T09:34:01.984Z</time></trkpt><trkpt lat="46.072362" lon="10.8910264"><ele>558.0</ele><time>2026-04-24T09:34:02.945Z</time></trkpt><trkpt lat="46.0722655" lon="10.8911199"><ele>557.5</ele><time>2026-04-24T09:34:05.077Z</time></trkpt><trkpt lat="46.072167" lon="10.891177"><ele>557.0</ele><time>2026-04-24T09:34:06.975Z</time></trkpt><trkpt lat="46.0720524" lon="10.8911622"><ele>556.5</ele><time>2026-04-24T09:34:08.971Z</time></trkpt><trkpt lat="46.07199" lon="10.8911282"><ele>556.0</ele><time>2026-04-24T09:34:09.964Z</time></trkpt><trkpt lat="46.0718086" lon="10.8911228"><ele>556.0</ele><time>2026-04-24T09:34:12.982Z</time></trkpt><trkpt lat="46.0717412" lon="10.8911421"><ele>556.0</ele><time>2026-04-24T09:34:13.961Z</time></trkpt><trkpt lat="46.0716199" lon="10.8911669"><ele>556.0</ele><time>2026-04-24T09:34:15.964Z</time></trkpt><trkpt lat="46.0715542" lon="10.8911823"><ele>556.0</ele><time>2026-04-24T09:34:16.957Z</time></trkpt><trkpt lat="46.0714898" lon="10.8911863"><ele>556.0</ele><time>2026-04-24T09:34:17.948Z</time></trkpt><trkpt lat="46.0714149" lon="10.8911718"><ele>556.0</ele><time>2026-04-24T09:34:18.968Z</time></trkpt><trkpt lat="46.0713368" lon="10.8911747"><ele>557.6</ele><time>2026-04-24T09:34:19.985Z</time></trkpt><trkpt lat="46.0712599" lon="10.8911962"><ele>559.2</ele><time>2026-04-24T09:34:20.951Z</time></trkpt><trkpt lat="46.0711612" lon="10.891221"><ele>560.8</ele><time>2026-04-24T09:34:22.088Z</time></trkpt><trkpt lat="46.0709844" lon="10.8912857"><ele>562.4</ele><time>2026-04-24T09:34:24.015Z</time></trkpt><trkpt lat="46.0709138" lon="10.8913209"><ele>564.0</ele><time>2026-04-24T09:34:24.961Z</time></trkpt><trkpt lat="46.0708456" lon="10.8913484"><ele>567.3333333333334</ele><time>2026-04-24T09:34:25.948Z</time></trkpt><trkpt lat="46.0707699" lon="10.891376"><ele>570.6666666666666</ele><time>2026-04-24T09:34:26.949Z</time></trkpt><trkpt lat="46.0706932" lon="10.8914191"><ele>574.0</ele><time>2026-04-24T09:34:28.001Z</time></trkpt><trkpt lat="46.0706255" lon="10.8914719"><ele>577.3333333333333</ele><time>2026-04-24T09:34:28.969Z</time></trkpt><trkpt lat="46.0705528" lon="10.891522"><ele>580.6666666666666</ele><time>2026-04-24T09:34:29.965Z</time></trkpt><trkpt lat="46.0704758" lon="10.8915731"><ele>584.0</ele><time>2026-04-24T09:34:30.972Z</time></trkpt><trkpt lat="46.0703934" lon="10.89162"><ele>584.0</ele><time>2026-04-24T09:34:31.996Z</time></trkpt><trkpt lat="46.070319" lon="10.8916511"><ele>584.0</ele><time>2026-04-24T09:34:33.077Z</time></trkpt><trkpt lat="46.070208" lon="10.8916621"><ele>584.0</ele><time>2026-04-24T09:34:34.996Z</time></trkpt><trkpt lat="46.0701457" lon="10.8916302"><ele>584.0</ele><time>2026-04-24T09:34:35.969Z</time></trkpt><trkpt lat="46.0700684" lon="10.8915886"><ele>584.0</ele><time>2026-04-24T09:34:36.972Z</time></trkpt><trkpt lat="46.0700062" lon="10.8915677"><ele>584.0</ele><time>2026-04-24T09:34:37.969Z</time></trkpt><trkpt lat="46.0699417" lon="10.8915302"><ele>585.0</ele><time>2026-04-24T09:34:39.013Z</time></trkpt><trkpt lat="46.0698101" lon="10.8915322"><ele>586.0</ele><time>2026-04-24T09:34:40.974Z</time></trkpt><trkpt lat="46.0697366" lon="10.8915431"><ele>587.0</ele><time>2026-04-24T09:34:41.975Z</time></trkpt><trkpt lat="46.0696532" lon="10.8915895"><ele>588.0</ele><time>2026-04-24T09:34:43.961Z</time></trkpt><trkpt lat="46.0695786" lon="10.8916207"><ele>589.0</ele><time>2026-04-24T09:34:48.994Z</time></trkpt><trkpt lat="46.0695082" lon="10.8916668"><ele>589.0</ele><time>2026-04-24T09:34:50.955Z</time></trkpt><trkpt lat="46.0694204" lon="10.8917183"><ele>589.0</ele><time>2026-04-24T09:34:53.005Z</time></trkpt><trkpt lat="46.0693404" lon="10.891704"><ele>589.0</ele><time>2026-04-24T09:34:55.972Z</time></trkpt><trkpt lat="46.0692211" lon="10.8916878"><ele>589.0</ele><time>2026-04-24T09:34:57.954Z</time></trkpt><trkpt lat="46.0691483" lon="10.8916806"><ele>589.0</ele><time>2026-04-24T09:34:58.995Z</time></trkpt><trkpt lat="46.0690655" lon="10.8916637"><ele>588.4</ele><time>2026-04-24T09:34:59.986Z</time></trkpt><trkpt lat="46.0689703" lon="10.8916306"><ele>587.8</ele><time>2026-04-24T09:35:00.988Z</time></trkpt><trkpt lat="46.0688644" lon="10.891599"><ele>587.2</ele><time>2026-04-24T09:35:02.081Z</time></trkpt><trkpt lat="46.06878" lon="10.8915361"><ele>586.6</ele><time>2026-04-24T09:35:02.986Z</time></trkpt><trkpt lat="46.0686869" lon="10.8914684"><ele>586.0</ele><time>2026-04-24T09:35:03.961Z</time></trkpt><trkpt lat="46.0685761" lon="10.8914188"><ele>586.0</ele><time>2026-04-24T09:35:04.967Z</time></trkpt><trkpt lat="46.0684457" lon="10.8914008"><ele>586.0</ele><time>2026-04-24T09:35:05.986Z</time></trkpt><trkpt lat="46.0683211" lon="10.8914257"><ele>586.0</ele><time>2026-04-24T09:35:06.992Z</time></trkpt><trkpt lat="46.0681934" lon="10.8914668"><ele>586.0</ele><time>2026-04-24T09:35:08.027Z</time></trkpt><trkpt lat="46.0680798" lon="10.8915035"><ele>587.75</ele><time>2026-04-24T09:35:08.944Z</time></trkpt><trkpt lat="46.0679625" lon="10.8915279"><ele>589.5</ele><time>2026-04-24T09:35:09.969Z</time></trkpt><trkpt lat="46.0678421" lon="10.8915434"><ele>591.25</ele><time>2026-04-24T09:35:10.991Z</time></trkpt><trkpt lat="46.0677264" lon="10.8915543"><ele>593.0</ele><time>2026-04-24T09:35:12.022Z</time></trkpt><trkpt lat="46.0676195" lon="10.8915753"><ele>593.0</ele><time>2026-04-24T09:35:13.034Z</time></trkpt><trkpt lat="46.0675262" lon="10.8915889"><ele>593.0</ele><time>2026-04-24T09:35:13.982Z</time></trkpt><trkpt lat="46.0674292" lon="10.891595"><ele>593.0</ele><time>2026-04-24T09:35:15.006Z</time></trkpt><trkpt lat="46.067345" lon="10.8915926"><ele>593.0</ele><time>2026-04-24T09:35:15.971Z</time></trkpt><trkpt lat="46.0672695" lon="10.89158"><ele>593.0</ele><time>2026-04-24T09:35:16.976Z</time></trkpt><trkpt lat="46.0672015" lon="10.8915632"><ele>593.0</ele><time>2026-04-24T09:35:17.998Z</time></trkpt><trkpt lat="46.067114" lon="10.8916052"><ele>593.2857142857142</ele><time>2026-04-24T09:35:20.042Z</time></trkpt><trkpt lat="46.0671141" lon="10.8917475"><ele>593.5714285714286</ele><time>2026-04-24T09:35:22.011Z</time></trkpt><trkpt lat="46.0671293" lon="10.8918362"><ele>593.8571428571429</ele><time>2026-04-24T09:35:23.008Z</time></trkpt><trkpt lat="46.0671305" lon="10.8919348"><ele>594.1428571428571</ele><time>2026-04-24T09:35:24.012Z</time></trkpt><trkpt lat="46.0671098" lon="10.8920298"><ele>594.4285714285714</ele><time>2026-04-24T09:35:25.03Z</time></trkpt><trkpt lat="46.0670683" lon="10.892108"><ele>594.7142857142857</ele><time>2026-04-24T09:35:26.005Z</time></trkpt><trkpt lat="46.0670035" lon="10.8921713"><ele>595.0</ele><time>2026-04-24T09:35:27.048Z</time></trkpt><trkpt lat="46.0669437" lon="10.8922142"><ele>595.0</ele><time>2026-04-24T09:35:27.968Z</time></trkpt><trkpt lat="46.0668698" lon="10.8922465"><ele>595.0</ele><time>2026-04-24T09:35:29.003Z</time></trkpt><trkpt lat="46.0667815" lon="10.8922482"><ele>595.0</ele><time>2026-04-24T09:35:30.03Z</time></trkpt><trkpt lat="46.0666997" lon="10.8922483"><ele>595.0</ele><time>2026-04-24T09:35:30.992Z</time></trkpt><trkpt lat="46.0666251" lon="10.8922492"><ele>595.0</ele><time>2026-04-24T09:35:31.977Z</time></trkpt><trkpt lat="46.0665551" lon="10.8922497"><ele>595.0</ele><time>2026-04-24T09:35:32.976Z</time></trkpt><trkpt lat="46.0664889" lon="10.8922432"><ele>595.0</ele><time>2026-04-24T09:35:33.997Z</time></trkpt><trkpt lat="46.0664221" lon="10.892233"><ele>595.0</ele><time>2026-04-24T09:35:34.975Z</time></trkpt><trkpt lat="46.0663455" lon="10.8922017"><ele>595.0</ele><time>2026-04-24T09:35:35.998Z</time></trkpt><trkpt lat="46.0662696" lon="10.8921406"><ele>595.0</ele><time>2026-04-24T09:35:36.996Z</time></trkpt><trkpt lat="46.066185" lon="10.892062"><ele>595.0</ele><time>2026-04-24T09:35:37.984Z</time></trkpt><trkpt lat="46.0660988" lon="10.8919886"><ele>595.0</ele><time>2026-04-24T09:35:39.007Z</time></trkpt><trkpt lat="46.0660228" lon="10.891921"><ele>595.0</ele><time>2026-04-24T09:35:39.974Z</time></trkpt><trkpt lat="46.0659453" lon="10.89185"><ele>595.0</ele><time>2026-04-24T09:35:40.977Z</time></trkpt><trkpt lat="46.0658739" lon="10.8917847"><ele>595.0</ele><time>2026-04-24T09:35:41.981Z</time></trkpt><trkpt lat="46.0657955" lon="10.8917301"><ele>595.0</ele><time>2026-04-24T09:35:42.994Z</time></trkpt><trkpt lat="46.0657137" lon="10.8916989"><ele>595.0</ele><time>2026-04-24T09:35:44.004Z</time></trkpt><trkpt lat="46.0656291" lon="10.8916518"><ele>595.0</ele><time>2026-04-24T09:35:44.958Z</time></trkpt><trkpt lat="46.0655389" lon="10.8916143"><ele>593.8</ele><time>2026-04-24T09:35:45.97Z</time></trkpt><trkpt lat="46.0654619" lon="10.8916054"><ele>592.6</ele><time>2026-04-24T09:35:46.945Z</time></trkpt><trkpt lat="46.0653615" lon="10.8915798"><ele>591.4</ele><time>2026-04-24T09:35:47.948Z</time></trkpt><trkpt lat="46.0652826" lon="10.8915754"><ele>590.2</ele><time>2026-04-24T09:35:48.947Z</time></trkpt><trkpt lat="46.0651809" lon="10.8915866"><ele>589.0</ele><time>2026-04-24T09:35:49.994Z</time></trkpt><trkpt lat="46.0650837" lon="10.8916061"><ele>589.0</ele><time>2026-04-24T09:35:50.975Z</time></trkpt><trkpt lat="46.0649874" lon="10.8916381"><ele>589.0</ele><time>2026-04-24T09:35:52.004Z</time></trkpt><trkpt lat="46.0648973" lon="10.8916666"><ele>589.0</ele><time>2026-04-24T09:35:52.994Z</time></trkpt><trkpt lat="46.0648055" lon="10.8916909"><ele>589.0</ele><time>2026-04-24T09:35:54.037Z</time></trkpt><trkpt lat="46.0647276" lon="10.8916938"><ele>589.0</ele><time>2026-04-24T09:35:54.997Z</time></trkpt><trkpt lat="46.064644" lon="10.8916707"><ele>589.0</ele><time>2026-04-24T09:35:55.988Z</time></trkpt><trkpt lat="46.0645406" lon="10.8916221"><ele>587.6</ele><time>2026-04-24T09:35:57.14Z</time></trkpt><trkpt lat="46.0644544" lon="10.8915752"><ele>586.2</ele><time>2026-04-24T09:35:58.051Z</time></trkpt><trkpt lat="46.0643602" lon="10.8915189"><ele>584.8000000000001</ele><time>2026-04-24T09:35:59.01Z</time></trkpt><trkpt lat="46.0642627" lon="10.89146"><ele>583.4</ele><time>2026-04-24T09:35:59.993Z</time></trkpt><trkpt lat="46.0641639" lon="10.8913869"><ele>582.0</ele><time>2026-04-24T09:36:00.99Z</time></trkpt><trkpt lat="46.0640775" lon="10.8912871"><ele>578.75</ele><time>2026-04-24T09:36:02.008Z</time></trkpt><trkpt lat="46.06401" lon="10.8911486"><ele>575.5</ele><time>2026-04-24T09:36:02.999Z</time></trkpt><trkpt lat="46.0639562" lon="10.8909753"><ele>572.25</ele><time>2026-04-24T09:36:04.033Z</time></trkpt><trkpt lat="46.0639275" lon="10.8907878"><ele>569.0</ele><time>2026-04-24T09:36:05.062Z</time></trkpt><trkpt lat="46.0639262" lon="10.8905986"><ele>569.0</ele><time>2026-04-24T09:36:06.042Z</time></trkpt><trkpt lat="46.063934" lon="10.8903986"><ele>569.0</ele><time>2026-04-24T09:36:07.013Z</time></trkpt><trkpt lat="46.0639343" lon="10.8901967"><ele>569.0</ele><time>2026-04-24T09:36:07.973Z</time></trkpt><trkpt lat="46.0639335" lon="10.8899816"><ele>569.0</ele><time>2026-04-24T09:36:09.016Z</time></trkpt><trkpt lat="46.0639296" lon="10.8898004"><ele>572.5</ele><time>2026-04-24T09:36:09.978Z</time></trkpt><trkpt lat="46.0639243" lon="10.889623"><ele>576.0</ele><time>2026-04-24T09:36:10.994Z</time></trkpt><trkpt lat="46.0639048" lon="10.8894543"><ele>579.5</ele><time>2026-04-24T09:36:11.996Z</time></trkpt><trkpt lat="46.063863" lon="10.8892668"><ele>583.0</ele><time>2026-04-24T09:36:13.14Z</time></trkpt><trkpt lat="46.0636722" lon="10.8890637"><ele>585.75</ele><time>2026-04-24T09:36:15.002Z</time></trkpt><trkpt lat="46.0635344" lon="10.8890329"><ele>588.5</ele><time>2026-04-24T09:36:15.986Z</time></trkpt><trkpt lat="46.0634022" lon="10.8890533"><ele>591.25</ele><time>2026-04-24T09:36:16.958Z</time></trkpt><trkpt lat="46.063262" lon="10.8891207"><ele>594.0</ele><time>2026-04-24T09:36:17.974Z</time></trkpt><trkpt lat="46.0631544" lon="10.8892521"><ele>591.75</ele><time>2026-04-24T09:36:18.973Z</time></trkpt><trkpt lat="46.0630721" lon="10.8894226"><ele>589.5</ele><time>2026-04-24T09:36:19.981Z</time></trkpt><trkpt lat="46.063007" lon="10.8895846"><ele>587.25</ele><time>2026-04-24T09:36:20.977Z</time></trkpt><trkpt lat="46.06292" lon="10.8897254"><ele>585.0</ele><time>2026-04-24T09:36:21.954Z</time></trkpt><trkpt lat="46.0628029" lon="10.8898351"><ele>585.0</ele><time>2026-04-24T09:36:22.974Z</time></trkpt><trkpt lat="46.0626701" lon="10.8898578"><ele>585.0</ele><time>2026-04-24T09:36:23.985Z</time></trkpt><trkpt lat="46.0625347" lon="10.889776"><ele>585.0</ele><time>2026-04-24T09:36:24.985Z</time></trkpt><trkpt lat="46.0624091" lon="10.8896749"><ele>585.0</ele><time>2026-04-24T09:36:25.971Z</time></trkpt><trkpt lat="46.0623027" lon="10.8895187"><ele>585.3333333333334</ele><time>2026-04-24T09:36:26.968Z</time></trkpt><trkpt lat="46.0621782" lon="10.88935"><ele>585.6666666666667</ele><time>2026-04-24T09:36:28.043Z</time></trkpt><trkpt lat="46.06207" lon="10.8892091"><ele>586.0</ele><time>2026-04-24T09:36:28.98Z</time></trkpt><trkpt lat="46.0619648" lon="10.8890706"><ele>587.25</ele><time>2026-04-24T09:36:29.985Z</time></trkpt><trkpt lat="46.0618729" lon="10.8889353"><ele>588.5</ele><time>2026-04-24T09:36:30.991Z</time></trkpt><trkpt lat="46.0617792" lon="10.8888198"><ele>589.75</ele><time>2026-04-24T09:36:32.003Z</time></trkpt><trkpt lat="46.0616738" lon="10.8887367"><ele>591.0</ele><time>2026-04-24T09:36:33.023Z</time></trkpt><trkpt lat="46.0615372" lon="10.8887174"><ele>597.0</ele><time>2026-04-24T09:36:34.065Z</time></trkpt><trkpt lat="46.0614069" lon="10.8887691"><ele>603.0</ele><time>2026-04-24T09:36:35.042Z</time></trkpt><trkpt lat="46.0612841" lon="10.8888719"><ele>609.0</ele><time>2026-04-24T09:36:36.066Z</time></trkpt><trkpt lat="46.061202" lon="10.8890124"><ele>615.0</ele><time>2026-04-24T09:36:36.98Z</time></trkpt><trkpt lat="46.0611462" lon="10.8892132"><ele>617.3333333333334</ele><time>2026-04-24T09:36:38.012Z</time></trkpt><trkpt lat="46.0611201" lon="10.8894201"><ele>619.6666666666667</ele><time>2026-04-24T09:36:38.963Z</time></trkpt><trkpt lat="46.0611602" lon="10.8896294"><ele>622.0</ele><time>2026-04-24T09:36:39.962Z</time></trkpt><trkpt lat="46.0612435" lon="10.8898291"><ele>622.0</ele><time>2026-04-24T09:36:41.006Z</time></trkpt><trkpt lat="46.061328" lon="10.8900054"><ele>622.0</ele><time>2026-04-24T09:36:41.997Z</time></trkpt><trkpt lat="46.0614075" lon="10.8901735"><ele>622.0</ele><time>2026-04-24T09:36:42.99Z</time></trkpt><trkpt lat="46.0614835" lon="10.8903707"><ele>622.0</ele><time>2026-04-24T09:36:44.174Z</time></trkpt><trkpt lat="46.0615138" lon="10.8906806"><ele>619.3333333333334</ele><time>2026-04-24T09:36:45.981Z</time></trkpt><trkpt lat="46.0614711" lon="10.8908775"><ele>616.6666666666666</ele><time>2026-04-24T09:36:47.103Z</time></trkpt><trkpt lat="46.061326" lon="10.8911748"><ele>614.0</ele><time>2026-04-24T09:36:48.998Z</time></trkpt><trkpt lat="46.0612073" lon="10.8912917"><ele>610.25</ele><time>2026-04-24T09:36:49.979Z</time></trkpt><trkpt lat="46.0610827" lon="10.8913782"><ele>606.5</ele><time>2026-04-24T09:36:50.975Z</time></trkpt><trkpt lat="46.0609517" lon="10.8914741"><ele>602.75</ele><time>2026-04-24T09:36:51.984Z</time></trkpt><trkpt lat="46.0608138" lon="10.8915815"><ele>599.0</ele><time>2026-04-24T09:36:53.046Z</time></trkpt><trkpt lat="46.0606821" lon="10.8916649"><ele>599.0</ele><time>2026-04-24T09:36:53.973Z</time></trkpt><trkpt lat="46.0605329" lon="10.8917171"><ele>599.0</ele><time>2026-04-24T09:36:54.964Z</time></trkpt><trkpt lat="46.0603649" lon="10.8917541"><ele>599.0</ele><time>2026-04-24T09:36:56.007Z</time></trkpt><trkpt lat="46.0602316" lon="10.8917517"><ele>601.6666666666666</ele><time>2026-04-24T09:36:56.968Z</time></trkpt><trkpt lat="46.0600966" lon="10.8917672"><ele>604.3333333333334</ele><time>2026-04-24T09:36:57.956Z</time></trkpt><trkpt lat="46.0599437" lon="10.8918475"><ele>607.0</ele><time>2026-04-24T09:36:59.108Z</time></trkpt><trkpt lat="46.0598105" lon="10.8921694"><ele>607.0</ele><time>2026-04-24T09:37:00.966Z</time></trkpt><trkpt lat="46.0597711" lon="10.8923705"><ele>607.0</ele><time>2026-04-24T09:37:01.963Z</time></trkpt><trkpt lat="46.0597243" lon="10.8925826"><ele>607.0</ele><time>2026-04-24T09:37:02.989Z</time></trkpt><trkpt lat="46.0596641" lon="10.8927695"><ele>607.0</ele><time>2026-04-24T09:37:03.934Z</time></trkpt><trkpt lat="46.0595599" lon="10.8929301"><ele>602.0</ele><time>2026-04-24T09:37:04.959Z</time></trkpt><trkpt lat="46.0594223" lon="10.8930573"><ele>597.0</ele><time>2026-04-24T09:37:05.987Z</time></trkpt><trkpt lat="46.0592975" lon="10.8931848"><ele>592.0</ele><time>2026-04-24T09:37:06.935Z</time></trkpt><trkpt lat="46.0591587" lon="10.8933194"><ele>591.3333333333334</ele><time>2026-04-24T09:37:07.961Z</time></trkpt><trkpt lat="46.059026" lon="10.8934579"><ele>590.6666666666666</ele><time>2026-04-24T09:37:08.977Z</time></trkpt><trkpt lat="46.0588982" lon="10.893591"><ele>590.0</ele><time>2026-04-24T09:37:09.959Z</time></trkpt><trkpt lat="46.0587586" lon="10.8937065"><ele>590.0</ele><time>2026-04-24T09:37:10.939Z</time></trkpt><trkpt lat="46.0586109" lon="10.8937931"><ele>590.0</ele><time>2026-04-24T09:37:11.956Z</time></trkpt><trkpt lat="46.0584554" lon="10.8938751"><ele>590.0</ele><time>2026-04-24T09:37:12.947Z</time></trkpt><trkpt lat="46.0582974" lon="10.8939609"><ele>590.0</ele><time>2026-04-24T09:37:13.952Z</time></trkpt><trkpt lat="46.058138" lon="10.8940593"><ele>590.0</ele><time>2026-04-24T09:37:14.96Z</time></trkpt><trkpt lat="46.0579846" lon="10.8941568"><ele>590.0</ele><time>2026-04-24T09:37:15.935Z</time></trkpt><trkpt lat="46.0578177" lon="10.8942553"><ele>590.0</ele><time>2026-04-24T09:37:16.999Z</time></trkpt><trkpt lat="46.0576845" lon="10.8943442"><ele>590.0</ele><time>2026-04-24T09:37:17.952Z</time></trkpt><trkpt lat="46.0575539" lon="10.8944652"><ele>590.0</ele><time>2026-04-24T09:37:18.954Z</time></trkpt><trkpt lat="46.0574455" lon="10.8946279"><ele>602.0</ele><time>2026-04-24T09:37:19.954Z</time></trkpt><trkpt lat="46.0573462" lon="10.8948438"><ele>614.0</ele><time>2026-04-24T09:37:21.1Z</time></trkpt><trkpt lat="46.0572441" lon="10.8952531"><ele>615.0</ele><time>2026-04-24T09:37:22.973Z</time></trkpt><trkpt lat="46.0572284" lon="10.8954775"><ele>616.0</ele><time>2026-04-24T09:37:23.967Z</time></trkpt><trkpt lat="46.0572293" lon="10.8956982"><ele>617.0</ele><time>2026-04-24T09:37:24.973Z</time></trkpt><trkpt lat="46.0572457" lon="10.895899"><ele>615.0</ele><time>2026-04-24T09:37:25.944Z</time></trkpt><trkpt lat="46.0572707" lon="10.8960963"><ele>613.0</ele><time>2026-04-24T09:37:26.934Z</time></trkpt><trkpt lat="46.0573025" lon="10.8962912"><ele>611.0</ele><time>2026-04-24T09:37:27.992Z</time></trkpt><trkpt lat="46.0573145" lon="10.8964631"><ele>609.0</ele><time>2026-04-24T09:37:28.988Z</time></trkpt><trkpt lat="46.0572992" lon="10.8966341"><ele>604.5</ele><time>2026-04-24T09:37:29.946Z</time></trkpt><trkpt lat="46.0572712" lon="10.8968078"><ele>600.0</ele><time>2026-04-24T09:37:30.942Z</time></trkpt><trkpt lat="46.0572347" lon="10.8969969"><ele>595.5</ele><time>2026-04-24T09:37:32.044Z</time></trkpt><trkpt lat="46.0571807" lon="10.897137"><ele>591.0</ele><time>2026-04-24T09:37:32.97Z</time></trkpt><trkpt lat="46.0570875" lon="10.897285"><ele>591.0</ele><time>2026-04-24T09:37:33.978Z</time></trkpt><trkpt lat="46.0569767" lon="10.8974071"><ele>591.0</ele><time>2026-04-24T09:37:34.943Z</time></trkpt><trkpt lat="46.0568455" lon="10.8975231"><ele>591.0</ele><time>2026-04-24T09:37:35.962Z</time></trkpt><trkpt lat="46.0567158" lon="10.8976071"><ele>591.0</ele><time>2026-04-24T09:37:36.934Z</time></trkpt><trkpt lat="46.0565857" lon="10.8976971"><ele>588.0</ele><time>2026-04-24T09:37:37.929Z</time></trkpt><trkpt lat="46.0564541" lon="10.8977951"><ele>585.0</ele><time>2026-04-24T09:37:38.935Z</time></trkpt><trkpt lat="46.0563284" lon="10.8978821"><ele>582.0</ele><time>2026-04-24T09:37:39.936Z</time></trkpt><trkpt lat="46.0562098" lon="10.8979613"><ele>579.0</ele><time>2026-04-24T09:37:40.94Z</time></trkpt><trkpt lat="46.0560965" lon="10.8980269"><ele>579.0</ele><time>2026-04-24T09:37:41.912Z</time></trkpt><trkpt lat="46.055967" lon="10.8980741"><ele>579.0</ele><time>2026-04-24T09:37:42.92Z</time></trkpt><trkpt lat="46.0558287" lon="10.8980958"><ele>579.0</ele><time>2026-04-24T09:37:43.944Z</time></trkpt><trkpt lat="46.055689" lon="10.8980986"><ele>579.0</ele><time>2026-04-24T09:37:44.943Z</time></trkpt><trkpt lat="46.0555383" lon="10.8980806"><ele>579.5</ele><time>2026-04-24T09:37:46.001Z</time></trkpt><trkpt lat="46.0554079" lon="10.8980619"><ele>580.0</ele><time>2026-04-24T09:37:46.912Z</time></trkpt><trkpt lat="46.0552581" lon="10.8980451"><ele>580.5</ele><time>2026-04-24T09:37:47.94Z</time></trkpt><trkpt lat="46.0551022" lon="10.8980293"><ele>581.0</ele><time>2026-04-24T09:37:48.978Z</time></trkpt><trkpt lat="46.0549623" lon="10.8980154"><ele>579.0</ele><time>2026-04-24T09:37:49.959Z</time></trkpt><trkpt lat="46.0548274" lon="10.8979901"><ele>577.0</ele><time>2026-04-24T09:37:50.996Z</time></trkpt><trkpt lat="46.0547082" lon="10.8979491"><ele>575.0</ele><time>2026-04-24T09:37:51.965Z</time></trkpt><trkpt lat="46.0545929" lon="10.8978833"><ele>573.0</ele><time>2026-04-24T09:37:52.939Z</time></trkpt><trkpt lat="46.0544474" lon="10.8977728"><ele>569.0</ele><time>2026-04-24T09:37:54.135Z</time></trkpt><trkpt lat="46.0542845" lon="10.8975513"><ele>565.0</ele><time>2026-04-24T09:37:55.957Z</time></trkpt><trkpt lat="46.0541849" lon="10.8974126"><ele>561.0</ele><time>2026-04-24T09:37:57.004Z</time></trkpt><trkpt lat="46.0540863" lon="10.8972773"><ele>561.0</ele><time>2026-04-24T09:37:57.962Z</time></trkpt><trkpt lat="46.0539885" lon="10.8971447"><ele>561.0</ele><time>2026-04-24T09:37:58.966Z</time></trkpt><trkpt lat="46.0538955" lon="10.8970199"><ele>561.0</ele><time>2026-04-24T09:37:59.952Z</time></trkpt><trkpt lat="46.0537944" lon="10.896881"><ele>561.0</ele><time>2026-04-24T09:38:00.968Z</time></trkpt><trkpt lat="46.0536997" lon="10.8967479"><ele>557.75</ele><time>2026-04-24T09:38:01.959Z</time></trkpt><trkpt lat="46.0535991" lon="10.8966127"><ele>554.5</ele><time>2026-04-24T09:38:02.954Z</time></trkpt><trkpt lat="46.0534837" lon="10.8964636"><ele>551.25</ele><time>2026-04-24T09:38:04.06Z</time></trkpt><trkpt lat="46.0533909" lon="10.8963432"><ele>548.0</ele><time>2026-04-24T09:38:04.983Z</time></trkpt><trkpt lat="46.0532768" lon="10.89619"><ele>555.6666666666666</ele><time>2026-04-24T09:38:06.086Z</time></trkpt><trkpt lat="46.0530575" lon="10.8959119"><ele>563.3333333333334</ele><time>2026-04-24T09:38:08.007Z</time></trkpt><trkpt lat="46.0529511" lon="10.8957634"><ele>571.0</ele><time>2026-04-24T09:38:08.951Z</time></trkpt><trkpt lat="46.0528373" lon="10.895604"><ele>571.0</ele><time>2026-04-24T09:38:09.963Z</time></trkpt><trkpt lat="46.0527226" lon="10.8954514"><ele>571.0</ele><time>2026-04-24T09:38:10.973Z</time></trkpt><trkpt lat="46.052598" lon="10.8952973"><ele>571.0</ele><time>2026-04-24T09:38:11.952Z</time></trkpt><trkpt lat="46.052467" lon="10.8951413"><ele>568.0</ele><time>2026-04-24T09:38:12.946Z</time></trkpt><trkpt lat="46.0523103" lon="10.8949799"><ele>565.0</ele><time>2026-04-24T09:38:13.998Z</time></trkpt><trkpt lat="46.0521578" lon="10.8948264"><ele>562.0</ele><time>2026-04-24T09:38:15.058Z</time></trkpt><trkpt lat="46.0518631" lon="10.8945412"><ele>562.0</ele><time>2026-04-24T09:38:16.955Z</time></trkpt><trkpt lat="46.0517047" lon="10.8943872"><ele>562.0</ele><time>2026-04-24T09:38:17.963Z</time></trkpt><trkpt lat="46.0515453" lon="10.8942321"><ele>562.0</ele><time>2026-04-24T09:38:18.984Z</time></trkpt><trkpt lat="46.0513898" lon="10.8940825"><ele>559.6666666666667</ele><time>2026-04-24T09:38:19.99Z</time></trkpt><trkpt lat="46.0512462" lon="10.893944"><ele>557.3333333333334</ele><time>2026-04-24T09:38:20.943Z</time></trkpt><trkpt lat="46.0510953" lon="10.8937991"><ele>555.0</ele><time>2026-04-24T09:38:21.974Z</time></trkpt><trkpt lat="46.0509501" lon="10.8936665"><ele>555.0</ele><time>2026-04-24T09:38:22.974Z</time></trkpt><trkpt lat="46.0508093" lon="10.8935384"><ele>555.0</ele><time>2026-04-24T09:38:23.977Z</time></trkpt><trkpt lat="46.0506701" lon="10.8934254"><ele>555.0</ele><time>2026-04-24T09:38:24.954Z</time></trkpt><trkpt lat="46.0505133" lon="10.8933353"><ele>554.6666666666666</ele><time>2026-04-24T09:38:25.986Z</time></trkpt><trkpt lat="46.0503589" lon="10.8932644"><ele>554.3333333333333</ele><time>2026-04-24T09:38:26.994Z</time></trkpt><trkpt lat="46.0502062" lon="10.8931879"><ele>554.0</ele><time>2026-04-24T09:38:27.991Z</time></trkpt><trkpt lat="46.0500464" lon="10.8930597"><ele>549.0</ele><time>2026-04-24T09:38:29.111Z</time></trkpt><trkpt lat="46.0498023" lon="10.8927517"><ele>544.0</ele><time>2026-04-24T09:38:30.979Z</time></trkpt><trkpt lat="46.0496763" lon="10.8925646"><ele>544.0</ele><time>2026-04-24T09:38:31.992Z</time></trkpt><trkpt lat="46.0495526" lon="10.8923876"><ele>544.0</ele><time>2026-04-24T09:38:32.999Z</time></trkpt><trkpt lat="46.0494372" lon="10.8922336"><ele>544.0</ele><time>2026-04-24T09:38:33.955Z</time></trkpt><trkpt lat="46.0493091" lon="10.8920644"><ele>544.0</ele><time>2026-04-24T09:38:35.044Z</time></trkpt><trkpt lat="46.0492" lon="10.8919196"><ele>544.0</ele><time>2026-04-24T09:38:35.963Z</time></trkpt><trkpt lat="46.0490806" lon="10.8917554"><ele>544.0</ele><time>2026-04-24T09:38:36.981Z</time></trkpt><trkpt lat="46.0489658" lon="10.8915896"><ele>540.0</ele><time>2026-04-24T09:38:38.008Z</time></trkpt><trkpt lat="46.0488594" lon="10.891421"><ele>536.0</ele><time>2026-04-24T09:38:39.018Z</time></trkpt><trkpt lat="46.0487603" lon="10.8912492"><ele>532.0</ele><time>2026-04-24T09:38:39.957Z</time></trkpt><trkpt lat="46.0486681" lon="10.8910572"><ele>534.0</ele><time>2026-04-24T09:38:40.975Z</time></trkpt><trkpt lat="46.0485854" lon="10.8908601"><ele>536.0</ele><time>2026-04-24T09:38:42.012Z</time></trkpt><trkpt lat="46.0485001" lon="10.8906753"><ele>538.0</ele><time>2026-04-24T09:38:42.995Z</time></trkpt><trkpt lat="46.0483977" lon="10.8904842"><ele>536.3333333333334</ele><time>2026-04-24T09:38:44.108Z</time></trkpt><trkpt lat="46.0482085" lon="10.890197"><ele>534.6666666666666</ele><time>2026-04-24T09:38:45.988Z</time></trkpt><trkpt lat="46.0481032" lon="10.8900591"><ele>533.0</ele><time>2026-04-24T09:38:46.956Z</time></trkpt><trkpt lat="46.0479885" lon="10.8899231"><ele>533.0</ele><time>2026-04-24T09:38:47.981Z</time></trkpt><trkpt lat="46.047874" lon="10.8898011"><ele>533.0</ele><time>2026-04-24T09:38:48.986Z</time></trkpt><trkpt lat="46.0477642" lon="10.8896882"><ele>533.0</ele><time>2026-04-24T09:38:49.951Z</time></trkpt><trkpt lat="46.0476551" lon="10.8895623"><ele>533.0</ele><time>2026-04-24T09:38:50.97Z</time></trkpt><trkpt lat="46.0475656" lon="10.8894298"><ele>533.0</ele><time>2026-04-24T09:38:51.967Z</time></trkpt><trkpt lat="46.0474748" lon="10.8892862"><ele>533.0</ele><time>2026-04-24T09:38:52.985Z</time></trkpt><trkpt lat="46.0473885" lon="10.8891224"><ele>533.0</ele><time>2026-04-24T09:38:54.082Z</time></trkpt><trkpt lat="46.0473248" lon="10.8889916"><ele>533.0</ele><time>2026-04-24T09:38:55.002Z</time></trkpt><trkpt lat="46.0472597" lon="10.8888532"><ele>531.5</ele><time>2026-04-24T09:38:55.946Z</time></trkpt><trkpt lat="46.0471928" lon="10.8887119"><ele>530.0</ele><time>2026-04-24T09:38:56.942Z</time></trkpt><trkpt lat="46.0471273" lon="10.8885709"><ele>528.5</ele><time>2026-04-24T09:38:57.958Z</time></trkpt><trkpt lat="46.0470566" lon="10.8884412"><ele>527.0</ele><time>2026-04-24T09:38:59.009Z</time></trkpt><trkpt lat="46.046998" lon="10.8883267"><ele>527.0</ele><time>2026-04-24T09:38:59.95Z</time></trkpt><trkpt lat="46.046942" lon="10.8882026"><ele>527.0</ele><time>2026-04-24T09:39:00.97Z</time></trkpt><trkpt lat="46.0468905" lon="10.888093"><ele>527.0</ele><time>2026-04-24T09:39:01.954Z</time></trkpt><trkpt lat="46.046855" lon="10.8879977"><ele>527.0</ele><time>2026-04-24T09:39:02.938Z</time></trkpt><trkpt lat="46.0468681" lon="10.8878411"><ele>527.0</ele><time>2026-04-24T09:39:04.981Z</time></trkpt><trkpt lat="46.0468998" lon="10.8877279"><ele>527.0</ele><time>2026-04-24T09:39:06.965Z</time></trkpt><trkpt lat="46.0468333" lon="10.8877323"><ele>527.0</ele><time>2026-04-24T09:39:09.955Z</time></trkpt><trkpt lat="46.0467873" lon="10.8878071"><ele>527.0</ele><time>2026-04-24T09:39:13.956Z</time></trkpt><trkpt lat="46.0467825" lon="10.8879377"><ele>527.0</ele><time>2026-04-24T09:39:16.936Z</time></trkpt><trkpt lat="46.046847" lon="10.8880772"><ele>527.0</ele><time>2026-04-24T09:39:18.981Z</time></trkpt><trkpt lat="46.0469074" lon="10.8882168"><ele>527.0</ele><time>2026-04-24T09:39:21.086Z</time></trkpt><trkpt lat="46.0469004" lon="10.8883316"><ele>527.0</ele><time>2026-04-24T09:39:22.959Z</time></trkpt><trkpt lat="46.0468876" lon="10.8884273"><ele>527.0</ele><time>2026-04-24T09:39:23.947Z</time></trkpt><trkpt lat="46.0468277" lon="10.8885779"><ele>527.0</ele><time>2026-04-24T09:39:25.946Z</time></trkpt><trkpt lat="46.0467355" lon="10.8886318"><ele>527.0</ele><time>2026-04-24T09:39:27.951Z</time></trkpt><trkpt lat="46.0466225" lon="10.8886239"><ele>522.0</ele><time>2026-04-24T09:39:29.954Z</time></trkpt><trkpt lat="46.0465596" lon="10.8885769"><ele>517.0</ele><time>2026-04-24T09:39:30.967Z</time></trkpt><trkpt lat="46.0465005" lon="10.8885005"><ele>512.0</ele><time>2026-04-24T09:39:32.034Z</time></trkpt><trkpt lat="46.0464485" lon="10.8884351"><ele>507.0</ele><time>2026-04-24T09:39:32.989Z</time></trkpt><trkpt lat="46.0463799" lon="10.8883489"><ele>501.99999999999994</ele><time>2026-04-24T09:39:34.012Z</time></trkpt><trkpt lat="46.046308" lon="10.8882809"><ele>497.0</ele><time>2026-04-24T09:39:34.983Z</time></trkpt><trkpt lat="46.0461988" lon="10.8881762"><ele>497.0</ele><time>2026-04-24T09:39:36.979Z</time></trkpt><trkpt lat="46.0461078" lon="10.8880462"><ele>497.00000000000006</ele><time>2026-04-24T09:39:38.997Z</time></trkpt><trkpt lat="46.0460631" lon="10.8879458"><ele>497.00000000000006</ele><time>2026-04-24T09:39:39.973Z</time></trkpt><trkpt lat="46.046003" lon="10.8878312"><ele>497.0</ele><time>2026-04-24T09:39:40.95Z</time></trkpt><trkpt lat="46.0459468" lon="10.8877377"><ele>497.0</ele><time>2026-04-24T09:39:41.962Z</time></trkpt><trkpt lat="46.0458957" lon="10.8876422"><ele>498.0</ele><time>2026-04-24T09:39:42.945Z</time></trkpt><trkpt lat="46.0458314" lon="10.8875242"><ele>499.00000000000006</ele><time>2026-04-24T09:39:44.128Z</time></trkpt><trkpt lat="46.0457546" lon="10.8873209"><ele>500.00000000000006</ele><time>2026-04-24T09:39:45.965Z</time></trkpt><trkpt lat="46.0457225" lon="10.8872122"><ele>501.0</ele><time>2026-04-24T09:39:47.001Z</time></trkpt><trkpt lat="46.0456892" lon="10.8871094"><ele>502.0</ele><time>2026-04-24T09:39:47.929Z</time></trkpt><trkpt lat="46.0456527" lon="10.8870046"><ele>497.1666666666667</ele><time>2026-04-24T09:39:48.988Z</time></trkpt><trkpt lat="46.0456024" lon="10.8869326"><ele>492.33333333333337</ele><time>2026-04-24T09:39:49.941Z</time></trkpt><trkpt lat="46.0455508" lon="10.8868451"><ele>487.5</ele><time>2026-04-24T09:39:50.959Z</time></trkpt><trkpt lat="46.0455084" lon="10.8867467"><ele>482.66666666666663</ele><time>2026-04-24T09:39:51.944Z</time></trkpt><trkpt lat="46.0454704" lon="10.8866468"><ele>477.8333333333333</ele><time>2026-04-24T09:39:52.969Z</time></trkpt><trkpt lat="46.0454363" lon="10.886557"><ele>473.0</ele><time>2026-04-24T09:39:53.948Z</time></trkpt><trkpt lat="46.0453998" lon="10.8864564"><ele>473.0</ele><time>2026-04-24T09:39:54.95Z</time></trkpt><trkpt lat="46.0453553" lon="10.8863558"><ele>472.99999999999994</ele><time>2026-04-24T09:39:55.992Z</time></trkpt><trkpt lat="46.0453006" lon="10.886262"><ele>472.99999999999994</ele><time>2026-04-24T09:39:57.091Z</time></trkpt><trkpt lat="46.0452112" lon="10.8860812"><ele>473.0</ele><time>2026-04-24T09:39:58.95Z</time></trkpt><trkpt lat="46.0451681" lon="10.8859952"><ele>473.0</ele><time>2026-04-24T09:39:59.963Z</time></trkpt><trkpt lat="46.0451284" lon="10.885924"><ele>475.66666666666663</ele><time>2026-04-24T09:40:00.955Z</time></trkpt><trkpt lat="46.0450843" lon="10.8858466"><ele>478.3333333333333</ele><time>2026-04-24T09:40:01.986Z</time></trkpt><trkpt lat="46.0450122" lon="10.8857387"><ele>481.0</ele><time>2026-04-24T09:40:03.94Z</time></trkpt><trkpt lat="46.0449701" lon="10.8856555"><ele>483.66666666666663</ele><time>2026-04-24T09:40:04.953Z</time></trkpt><trkpt lat="46.0449382" lon="10.8855471"><ele>486.3333333333333</ele><time>2026-04-24T09:40:05.958Z</time></trkpt><trkpt lat="46.044907" lon="10.885408"><ele>489.0</ele><time>2026-04-24T09:40:07.083Z</time></trkpt><trkpt lat="46.0448897" lon="10.885111"><ele>490.0</ele><time>2026-04-24T09:40:08.989Z</time></trkpt><trkpt lat="46.0449256" lon="10.8849609"><ele>491.0</ele><time>2026-04-24T09:40:09.958Z</time></trkpt><trkpt lat="46.044981" lon="10.8847964"><ele>492.0</ele><time>2026-04-24T09:40:10.949Z</time></trkpt><trkpt lat="46.0450564" lon="10.8846296"><ele>493.0</ele><time>2026-04-24T09:40:11.995Z</time></trkpt><trkpt lat="46.0451242" lon="10.8844884"><ele>493.0</ele><time>2026-04-24T09:40:12.978Z</time></trkpt><trkpt lat="46.0451702" lon="10.8843493"><ele>492.99999999999994</ele><time>2026-04-24T09:40:13.955Z</time></trkpt><trkpt lat="46.0451865" lon="10.8842023"><ele>492.99999999999994</ele><time>2026-04-24T09:40:14.947Z</time></trkpt><trkpt lat="46.0451787" lon="10.8840436"><ele>493.0</ele><time>2026-04-24T09:40:15.965Z</time></trkpt><trkpt lat="46.0451696" lon="10.8838977"><ele>493.0</ele><time>2026-04-24T09:40:16.979Z</time></trkpt><trkpt lat="46.0451786" lon="10.8837729"><ele>492.59999999999997</ele><time>2026-04-24T09:40:17.95Z</time></trkpt><trkpt lat="46.0452237" lon="10.8836816"><ele>492.19999999999993</ele><time>2026-04-24T09:40:18.975Z</time></trkpt><trkpt lat="46.0453226" lon="10.8836175"><ele>491.8</ele><time>2026-04-24T09:40:20.946Z</time></trkpt><trkpt lat="46.0453642" lon="10.8834393"><ele>491.4</ele><time>2026-04-24T09:40:22.966Z</time></trkpt><trkpt lat="46.0453554" lon="10.8833099"><ele>491.0</ele><time>2026-04-24T09:40:23.969Z</time></trkpt><trkpt lat="46.0453404" lon="10.8831629"><ele>489.5</ele><time>2026-04-24T09:40:24.963Z</time></trkpt><trkpt lat="46.0453268" lon="10.8830105"><ele>488.0</ele><time>2026-04-24T09:40:25.931Z</time></trkpt><trkpt lat="46.0453127" lon="10.8828371"><ele>486.5</ele><time>2026-04-24T09:40:26.941Z</time></trkpt><trkpt lat="46.045296" lon="10.8826565"><ele>485.0</ele><time>2026-04-24T09:40:27.947Z</time></trkpt><trkpt lat="46.0452817" lon="10.882473"><ele>485.25</ele><time>2026-04-24T09:40:28.941Z</time></trkpt><trkpt lat="46.0452679" lon="10.8822821"><ele>485.5</ele><time>2026-04-24T09:40:29.987Z</time></trkpt><trkpt lat="46.0452469" lon="10.8820957"><ele>485.75</ele><time>2026-04-24T09:40:30.975Z</time></trkpt><trkpt lat="46.0452146" lon="10.881908"><ele>486.0</ele><time>2026-04-24T09:40:31.969Z</time></trkpt><trkpt lat="46.0451685" lon="10.8817313"><ele>486.0</ele><time>2026-04-24T09:40:32.988Z</time></trkpt><trkpt lat="46.0451149" lon="10.8815678"><ele>486.0</ele><time>2026-04-24T09:40:33.937Z</time></trkpt><trkpt lat="46.045058" lon="10.8813915"><ele>486.0</ele><time>2026-04-24T09:40:34.963Z</time></trkpt><trkpt lat="46.0450074" lon="10.8812255"><ele>486.0</ele><time>2026-04-24T09:40:35.948Z</time></trkpt><trkpt lat="46.0449665" lon="10.8810526"><ele>479.5</ele><time>2026-04-24T09:40:36.912Z</time></trkpt><trkpt lat="46.0449404" lon="10.8808618"><ele>473.0</ele><time>2026-04-24T09:40:37.939Z</time></trkpt><trkpt lat="46.0449345" lon="10.8806825"><ele>466.5</ele><time>2026-04-24T09:40:38.934Z</time></trkpt><trkpt lat="46.0449427" lon="10.8804966"><ele>460.0</ele><time>2026-04-24T09:40:39.948Z</time></trkpt><trkpt lat="46.0449451" lon="10.8803097"><ele>460.0</ele><time>2026-04-24T09:40:40.955Z</time></trkpt><trkpt lat="46.0449318" lon="10.8801221"><ele>460.0</ele><time>2026-04-24T09:40:41.975Z</time></trkpt><trkpt lat="46.0448886" lon="10.879943"><ele>460.0</ele><time>2026-04-24T09:40:42.982Z</time></trkpt><trkpt lat="46.0448078" lon="10.8797836"><ele>460.0</ele><time>2026-04-24T09:40:43.973Z</time></trkpt><trkpt lat="46.0447036" lon="10.8796518"><ele>461.75</ele><time>2026-04-24T09:40:44.951Z</time></trkpt><trkpt lat="46.0445841" lon="10.8795345"><ele>463.5</ele><time>2026-04-24T09:40:45.956Z</time></trkpt><trkpt lat="46.0444702" lon="10.8794231"><ele>465.25</ele><time>2026-04-24T09:40:46.974Z</time></trkpt><trkpt lat="46.0443588" lon="10.8793068"><ele>467.0</ele><time>2026-04-24T09:40:47.99Z</time></trkpt><trkpt lat="46.0442624" lon="10.8791859"><ele>468.5</ele><time>2026-04-24T09:40:48.935Z</time></trkpt><trkpt lat="46.0441727" lon="10.8790294"><ele>470.0</ele><time>2026-04-24T09:40:49.973Z</time></trkpt><trkpt lat="46.0441151" lon="10.8788619"><ele>471.5</ele><time>2026-04-24T09:40:50.977Z</time></trkpt><trkpt lat="46.0440762" lon="10.8786857"><ele>473.0</ele><time>2026-04-24T09:40:51.964Z</time></trkpt><trkpt lat="46.0440342" lon="10.8784671"><ele>466.5</ele><time>2026-04-24T09:40:53.09Z</time></trkpt><trkpt lat="46.0440055" lon="10.8782884"><ele>460.0</ele><time>2026-04-24T09:40:54.002Z</time></trkpt><trkpt lat="46.0439646" lon="10.8780951"><ele>453.5</ele><time>2026-04-24T09:40:54.98Z</time></trkpt><trkpt lat="46.0439149" lon="10.877903"><ele>447.0</ele><time>2026-04-24T09:40:56Z</time></trkpt><trkpt lat="46.0438743" lon="10.877724"><ele>447.6</ele><time>2026-04-24T09:40:56.978Z</time></trkpt><trkpt lat="46.0438467" lon="10.8775742"><ele>448.20000000000005</ele><time>2026-04-24T09:40:57.979Z</time></trkpt><trkpt lat="46.0438154" lon="10.8774385"><ele>448.8</ele><time>2026-04-24T09:40:58.959Z</time></trkpt><trkpt lat="46.0437792" lon="10.877303"><ele>449.4</ele><time>2026-04-24T09:40:59.955Z</time></trkpt><trkpt lat="46.0437549" lon="10.8771515"><ele>450.0</ele><time>2026-04-24T09:41:00.989Z</time></trkpt><trkpt lat="46.043756" lon="10.8769939"><ele>450.0</ele><time>2026-04-24T09:41:01.974Z</time></trkpt><trkpt lat="46.0437888" lon="10.8768285"><ele>450.0</ele><time>2026-04-24T09:41:03.013Z</time></trkpt><trkpt lat="46.0438491" lon="10.8766872"><ele>450.0</ele><time>2026-04-24T09:41:03.983Z</time></trkpt><trkpt lat="46.0439193" lon="10.8765697"><ele>450.0</ele><time>2026-04-24T09:41:04.969Z</time></trkpt><trkpt lat="46.043969" lon="10.8764659"><ele>450.0</ele><time>2026-04-24T09:41:05.945Z</time></trkpt><trkpt lat="46.0439879" lon="10.8763494"><ele>451.0</ele><time>2026-04-24T09:41:06.932Z</time></trkpt><trkpt lat="46.0439682" lon="10.876233"><ele>452.0</ele><time>2026-04-24T09:41:07.916Z</time></trkpt><trkpt lat="46.0438848" lon="10.8761128"><ele>453.0</ele><time>2026-04-24T09:41:08.967Z</time></trkpt><trkpt lat="46.0437698" lon="10.8760459"><ele>454.0</ele><time>2026-04-24T09:41:09.99Z</time></trkpt><trkpt lat="46.0436453" lon="10.8760243"><ele>454.0</ele><time>2026-04-24T09:41:10.967Z</time></trkpt><trkpt lat="46.0435193" lon="10.8760037"><ele>454.0</ele><time>2026-04-24T09:41:11.967Z</time></trkpt><trkpt lat="46.0433987" lon="10.8759862"><ele>454.0</ele><time>2026-04-24T09:41:12.937Z</time></trkpt><trkpt lat="46.0432787" lon="10.8759664"><ele>454.0</ele><time>2026-04-24T09:41:13.915Z</time></trkpt><trkpt lat="46.0431472" lon="10.8759314"><ele>452.0</ele><time>2026-04-24T09:41:14.958Z</time></trkpt><trkpt lat="46.0430371" lon="10.8758381"><ele>450.0</ele><time>2026-04-24T09:41:15.953Z</time></trkpt><trkpt lat="46.0429448" lon="10.8757351"><ele>448.0</ele><time>2026-04-24T09:41:16.908Z</time></trkpt><trkpt lat="46.0428404" lon="10.8756447"><ele>446.0</ele><time>2026-04-24T09:41:17.943Z</time></trkpt><trkpt lat="46.0427322" lon="10.8755768"><ele>446.0</ele><time>2026-04-24T09:41:18.939Z</time></trkpt><trkpt lat="46.0426178" lon="10.875514"><ele>446.0</ele><time>2026-04-24T09:41:19.967Z</time></trkpt><trkpt lat="46.0425098" lon="10.8754474"><ele>446.0</ele><time>2026-04-24T09:41:20.96Z</time></trkpt><trkpt lat="46.0424148" lon="10.8753503"><ele>446.0</ele><time>2026-04-24T09:41:21.961Z</time></trkpt><trkpt lat="46.0423467" lon="10.8752168"><ele>445.0</ele><time>2026-04-24T09:41:22.942Z</time></trkpt><trkpt lat="46.0422743" lon="10.875075"><ele>444.0</ele><time>2026-04-24T09:41:23.959Z</time></trkpt><trkpt lat="46.0421898" lon="10.8749511"><ele>443.0</ele><time>2026-04-24T09:41:24.936Z</time></trkpt><trkpt lat="46.042082" lon="10.8748399"><ele>442.0</ele><time>2026-04-24T09:41:25.971Z</time></trkpt><trkpt lat="46.0419552" lon="10.8747643"><ele>442.0</ele><time>2026-04-24T09:41:27.027Z</time></trkpt><trkpt lat="46.0418578" lon="10.8747411"><ele>442.0</ele><time>2026-04-24T09:41:27.95Z</time></trkpt><trkpt lat="46.041738" lon="10.8747061"><ele>442.0</ele><time>2026-04-24T09:41:28.956Z</time></trkpt><trkpt lat="46.0416272" lon="10.8746326"><ele>442.0</ele><time>2026-04-24T09:41:29.938Z</time></trkpt><trkpt lat="46.0415376" lon="10.8745078"><ele>437.0</ele><time>2026-04-24T09:41:30.942Z</time></trkpt><trkpt lat="46.0414498" lon="10.8743851"><ele>432.0</ele><time>2026-04-24T09:41:31.938Z</time></trkpt><trkpt lat="46.0413163" lon="10.8743145"><ele>427.0</ele><time>2026-04-24T09:41:32.949Z</time></trkpt><trkpt lat="46.0411922" lon="10.8743051"><ele>422.0</ele><time>2026-04-24T09:41:33.914Z</time></trkpt><trkpt lat="46.0410591" lon="10.8742815"><ele>422.0</ele><time>2026-04-24T09:41:34.942Z</time></trkpt><trkpt lat="46.0409278" lon="10.874212"><ele>422.0</ele><time>2026-04-24T09:41:35.942Z</time></trkpt><trkpt lat="46.0408183" lon="10.8741077"><ele>422.0</ele><time>2026-04-24T09:41:36.92Z</time></trkpt><trkpt lat="46.0407011" lon="10.8739974"><ele>422.0</ele><time>2026-04-24T09:41:37.916Z</time></trkpt><trkpt lat="46.0405784" lon="10.8739282"><ele>422.0</ele><time>2026-04-24T09:41:38.928Z</time></trkpt><trkpt lat="46.0404431" lon="10.8739141"><ele>422.0</ele><time>2026-04-24T09:41:39.933Z</time></trkpt><trkpt lat="46.0402959" lon="10.873929"><ele>422.0</ele><time>2026-04-24T09:41:40.949Z</time></trkpt><trkpt lat="46.0401287" lon="10.8739456"><ele>422.0</ele><time>2026-04-24T09:41:41.96Z</time></trkpt><trkpt lat="46.0399676" lon="10.8739315"><ele>422.0</ele><time>2026-04-24T09:41:42.955Z</time></trkpt><trkpt lat="46.0398246" lon="10.8738787"><ele>422.0</ele><time>2026-04-24T09:41:43.906Z</time></trkpt><trkpt lat="46.0396816" lon="10.8738344"><ele>423.0</ele><time>2026-04-24T09:41:44.921Z</time></trkpt><trkpt lat="46.0395435" lon="10.8737673"><ele>424.0</ele><time>2026-04-24T09:41:45.911Z</time></trkpt><trkpt lat="46.0393798" lon="10.8736572"><ele>425.0</ele><time>2026-04-24T09:41:47.046Z</time></trkpt><trkpt lat="46.0391584" lon="10.8733766"><ele>418.0</ele><time>2026-04-24T09:41:48.916Z</time></trkpt><trkpt lat="46.0390419" lon="10.873217"><ele>411.0</ele><time>2026-04-24T09:41:49.949Z</time></trkpt><trkpt lat="46.0389417" lon="10.8730591"><ele>404.0</ele><time>2026-04-24T09:41:50.934Z</time></trkpt><trkpt lat="46.0388507" lon="10.8728972"><ele>404.0</ele><time>2026-04-24T09:41:51.945Z</time></trkpt><trkpt lat="46.0387397" lon="10.8727475"><ele>404.0</ele><time>2026-04-24T09:41:52.995Z</time></trkpt><trkpt lat="46.0386447" lon="10.8726372"><ele>404.0</ele><time>2026-04-24T09:41:53.923Z</time></trkpt><trkpt lat="46.0385313" lon="10.8725272"><ele>404.0</ele><time>2026-04-24T09:41:54.979Z</time></trkpt><trkpt lat="46.0384314" lon="10.8724296"><ele>402.25</ele><time>2026-04-24T09:41:55.947Z</time></trkpt><trkpt lat="46.0383401" lon="10.8723119"><ele>400.5</ele><time>2026-04-24T09:41:56.953Z</time></trkpt><trkpt lat="46.0383158" lon="10.8721396"><ele>398.75</ele><time>2026-04-24T09:41:57.96Z</time></trkpt><trkpt lat="46.0383" lon="10.8718893"><ele>397.0</ele><time>2026-04-24T09:41:58.979Z</time></trkpt><trkpt lat="46.0382403" lon="10.8717104"><ele>397.0</ele><time>2026-04-24T09:41:59.973Z</time></trkpt><trkpt lat="46.0381472" lon="10.8715509"><ele>397.0</ele><time>2026-04-24T09:42:01.067Z</time></trkpt><trkpt lat="46.0380619" lon="10.8714131"><ele>397.0</ele><time>2026-04-24T09:42:01.992Z</time></trkpt><trkpt lat="46.0379888" lon="10.8712525"><ele>397.0</ele><time>2026-04-24T09:42:02.971Z</time></trkpt><trkpt lat="46.0379387" lon="10.8710879"><ele>397.0</ele><time>2026-04-24T09:42:03.966Z</time></trkpt><trkpt lat="46.0379119" lon="10.8709157"><ele>397.0</ele><time>2026-04-24T09:42:04.94Z</time></trkpt><trkpt lat="46.0378967" lon="10.8707429"><ele>397.0</ele><time>2026-04-24T09:42:05.972Z</time></trkpt><trkpt lat="46.0378826" lon="10.8705924"><ele>397.0</ele><time>2026-04-24T09:42:07.033Z</time></trkpt><trkpt lat="46.0378654" lon="10.8704742"><ele>397.0</ele><time>2026-04-24T09:42:07.958Z</time></trkpt><trkpt lat="46.0378449" lon="10.8703577"><ele>397.00000000000006</ele><time>2026-04-24T09:42:08.959Z</time></trkpt><trkpt lat="46.0378168" lon="10.8702502"><ele>397.0</ele><time>2026-04-24T09:42:09.951Z</time></trkpt><trkpt lat="46.0377652" lon="10.8701574"><ele>397.0</ele><time>2026-04-24T09:42:10.962Z</time></trkpt><trkpt lat="46.0376925" lon="10.8701018"><ele>397.0</ele><time>2026-04-24T09:42:11.958Z</time></trkpt><trkpt lat="46.0376089" lon="10.8700669"><ele>397.00000000000006</ele><time>2026-04-24T09:42:12.992Z</time></trkpt><trkpt lat="46.0375295" lon="10.8700365"><ele>397.0</ele><time>2026-04-24T09:42:13.966Z</time></trkpt><trkpt lat="46.0374482" lon="10.8700082"><ele>396.83333333333337</ele><time>2026-04-24T09:42:14.964Z</time></trkpt><trkpt lat="46.0373628" lon="10.869982"><ele>396.6666666666667</ele><time>2026-04-24T09:42:15.981Z</time></trkpt><trkpt lat="46.0372798" lon="10.8699613"><ele>396.5</ele><time>2026-04-24T09:42:16.984Z</time></trkpt><trkpt lat="46.0371947" lon="10.8699402"><ele>396.33333333333337</ele><time>2026-04-24T09:42:18.003Z</time></trkpt><trkpt lat="46.0371152" lon="10.8699154"><ele>396.1666666666667</ele><time>2026-04-24T09:42:18.958Z</time></trkpt><trkpt lat="46.0370299" lon="10.8698888"><ele>396.0</ele><time>2026-04-24T09:42:19.976Z</time></trkpt><trkpt lat="46.0369532" lon="10.8698668"><ele>396.0</ele><time>2026-04-24T09:42:20.965Z</time></trkpt><trkpt lat="46.0368704" lon="10.8698243"><ele>396.0</ele><time>2026-04-24T09:42:21.991Z</time></trkpt><trkpt lat="46.0367942" lon="10.8697861"><ele>396.0</ele><time>2026-04-24T09:42:22.989Z</time></trkpt><trkpt lat="46.0367243" lon="10.8697463"><ele>396.0</ele><time>2026-04-24T09:42:23.962Z</time></trkpt><trkpt lat="46.0366604" lon="10.8696929"><ele>396.0</ele><time>2026-04-24T09:42:25.012Z</time></trkpt><trkpt lat="46.0366136" lon="10.8696314"><ele>396.0</ele><time>2026-04-24T09:42:25.963Z</time></trkpt><trkpt lat="46.0365618" lon="10.8695504"><ele>396.6</ele><time>2026-04-24T09:42:27.01Z</time></trkpt><trkpt lat="46.0365253" lon="10.8694758"><ele>397.20000000000005</ele><time>2026-04-24T09:42:27.976Z</time></trkpt><trkpt lat="46.0364816" lon="10.8693876"><ele>397.79999999999995</ele><time>2026-04-24T09:42:29.008Z</time></trkpt><trkpt lat="46.0363978" lon="10.8692619"><ele>398.4</ele><time>2026-04-24T09:42:30.967Z</time></trkpt><trkpt lat="46.0363157" lon="10.869131"><ele>399.0</ele><time>2026-04-24T09:42:33.014Z</time></trkpt><trkpt lat="46.0362397" lon="10.8690268"><ele>399.0</ele><time>2026-04-24T09:42:35.001Z</time></trkpt><trkpt lat="46.0361545" lon="10.868984"><ele>399.0</ele><time>2026-04-24T09:42:37.989Z</time></trkpt><trkpt lat="46.0361221" lon="10.8690779"><ele>399.0</ele><time>2026-04-24T09:42:43.981Z</time></trkpt><trkpt lat="46.0361971" lon="10.8691223"><ele>399.0</ele><time>2026-04-24T09:42:46.996Z</time></trkpt><trkpt lat="46.0362688" lon="10.8691517"><ele>399.0</ele><time>2026-04-24T09:42:48.95Z</time></trkpt><trkpt lat="46.036322" lon="10.869233"><ele>399.0</ele><time>2026-04-24T09:42:50.986Z</time></trkpt><trkpt lat="46.0363895" lon="10.8693243"><ele>399.0</ele><time>2026-04-24T09:42:53.071Z</time></trkpt><trkpt lat="46.036459" lon="10.8693956"><ele>399.0</ele><time>2026-04-24T09:42:54.959Z</time></trkpt><trkpt lat="46.0365341" lon="10.8694772"><ele>399.0</ele><time>2026-04-24T09:42:56.987Z</time></trkpt><trkpt lat="46.0365642" lon="10.8695759"><ele>399.0</ele><time>2026-04-24T09:42:58.951Z</time></trkpt><trkpt lat="46.0365588" lon="10.8696722"><ele>399.0</ele><time>2026-04-24T09:43:00.964Z</time></trkpt><trkpt lat="46.0364847" lon="10.8697902"><ele>399.0</ele><time>2026-04-24T09:43:03.036Z</time></trkpt><trkpt lat="46.0364076" lon="10.869924"><ele>399.0</ele><time>2026-04-24T09:43:04.954Z</time></trkpt><trkpt lat="46.0363445" lon="10.8700407"><ele>399.0</ele><time>2026-04-24T09:43:06.969Z</time></trkpt><trkpt lat="46.0362753" lon="10.8701605"><ele>399.0</ele><time>2026-04-24T09:43:08.954Z</time></trkpt><trkpt lat="46.0362059" lon="10.8702809"><ele>399.0</ele><time>2026-04-24T09:43:10.958Z</time></trkpt><trkpt lat="46.0361439" lon="10.8704125"><ele>399.0</ele><time>2026-04-24T09:43:12.985Z</time></trkpt><trkpt lat="46.0360567" lon="10.8705037"><ele>399.0</ele><time>2026-04-24T09:43:14.941Z</time></trkpt><trkpt lat="46.0359399" lon="10.8705604"><ele>399.0</ele><time>2026-04-24T09:43:16.95Z</time></trkpt><trkpt lat="46.0358287" lon="10.8705536"><ele>399.0</ele><time>2026-04-24T09:43:18.942Z</time></trkpt><trkpt lat="46.0357181" lon="10.870538"><ele>399.0</ele><time>2026-04-24T09:43:20.96Z</time></trkpt><trkpt lat="46.0355849" lon="10.8705237"><ele>399.0</ele><time>2026-04-24T09:43:22.977Z</time></trkpt><trkpt lat="46.0355148" lon="10.8705048"><ele>399.0</ele><time>2026-04-24T09:43:23.996Z</time></trkpt><trkpt lat="46.0354458" lon="10.8704867"><ele>399.0</ele><time>2026-04-24T09:43:24.955Z</time></trkpt><trkpt lat="46.035358" lon="10.8704656"><ele>399.0</ele><time>2026-04-24T09:43:25.961Z</time></trkpt><trkpt lat="46.0352726" lon="10.8704557"><ele>399.0</ele><time>2026-04-24T09:43:26.988Z</time></trkpt><trkpt lat="46.0351924" lon="10.8704342"><ele>399.0</ele><time>2026-04-24T09:43:27.987Z</time></trkpt><trkpt lat="46.0351147" lon="10.8704139"><ele>399.0</ele><time>2026-04-24T09:43:28.996Z</time></trkpt><trkpt lat="46.0350399" lon="10.8703996"><ele>399.0</ele><time>2026-04-24T09:43:29.959Z</time></trkpt><trkpt lat="46.0349474" lon="10.8703845"><ele>399.0</ele><time>2026-04-24T09:43:30.952Z</time></trkpt><trkpt lat="46.0348545" lon="10.8703808"><ele>399.0</ele><time>2026-04-24T09:43:31.968Z</time></trkpt><trkpt lat="46.0347588" lon="10.8703038"><ele>399.0</ele><time>2026-04-24T09:43:34.009Z</time></trkpt><trkpt lat="46.0346448" lon="10.8702157"><ele>398.79999999999995</ele><time>2026-04-24T09:43:35.983Z</time></trkpt><trkpt lat="46.0345676" lon="10.8701925"><ele>398.59999999999997</ele><time>2026-04-24T09:43:36.961Z</time></trkpt><trkpt lat="46.0344735" lon="10.8701676"><ele>398.4</ele><time>2026-04-24T09:43:37.976Z</time></trkpt><trkpt lat="46.034374" lon="10.8701422"><ele>398.2</ele><time>2026-04-24T09:43:38.98Z</time></trkpt><trkpt lat="46.0342667" lon="10.8701228"><ele>398.0</ele><time>2026-04-24T09:43:39.96Z</time></trkpt><trkpt lat="46.034135" lon="10.8701128"><ele>399.75</ele><time>2026-04-24T09:43:40.997Z</time></trkpt><trkpt lat="46.0340083" lon="10.8701076"><ele>401.5</ele><time>2026-04-24T09:43:41.964Z</time></trkpt><trkpt lat="46.0338715" lon="10.8700951"><ele>403.25</ele><time>2026-04-24T09:43:42.967Z</time></trkpt><trkpt lat="46.0337299" lon="10.8700768"><ele>405.0</ele><time>2026-04-24T09:43:43.958Z</time></trkpt><trkpt lat="46.033583" lon="10.8700678"><ele>405.0</ele><time>2026-04-24T09:43:44.938Z</time></trkpt><trkpt lat="46.03344" lon="10.8700558"><ele>405.0</ele><time>2026-04-24T09:43:45.971Z</time></trkpt><trkpt lat="46.0332871" lon="10.8700363"><ele>405.0</ele><time>2026-04-24T09:43:47.029Z</time></trkpt><trkpt lat="46.0331491" lon="10.8700245"><ele>405.0</ele><time>2026-04-24T09:43:47.99Z</time></trkpt><trkpt lat="46.0329954" lon="10.8700078"><ele>405.0</ele><time>2026-04-24T09:43:49.004Z</time></trkpt><trkpt lat="46.0328468" lon="10.8700027"><ele>405.0</ele><time>2026-04-24T09:43:49.948Z</time></trkpt><trkpt lat="46.032684" lon="10.8699932"><ele>405.0</ele><time>2026-04-24T09:43:51.013Z</time></trkpt><trkpt lat="46.0325402" lon="10.8699719"><ele>404.33333333333337</ele><time>2026-04-24T09:43:51.958Z</time></trkpt><trkpt lat="46.0323882" lon="10.8699245"><ele>403.6666666666667</ele><time>2026-04-24T09:43:53Z</time></trkpt><trkpt lat="46.0322492" lon="10.8698392"><ele>403.0</ele><time>2026-04-24T09:43:53.984Z</time></trkpt><trkpt lat="46.0321342" lon="10.8696997"><ele>403.0</ele><time>2026-04-24T09:43:54.953Z</time></trkpt><trkpt lat="46.0320458" lon="10.8694877"><ele>403.0</ele><time>2026-04-24T09:43:55.966Z</time></trkpt><trkpt lat="46.0319595" lon="10.8692957"><ele>403.0</ele><time>2026-04-24T09:43:56.962Z</time></trkpt><trkpt lat="46.0318655" lon="10.8691178"><ele>403.33333333333337</ele><time>2026-04-24T09:43:58.058Z</time></trkpt><trkpt lat="46.0316655" lon="10.8688629"><ele>403.66666666666663</ele><time>2026-04-24T09:43:59.957Z</time></trkpt><trkpt lat="46.0315372" lon="10.8687791"><ele>404.0</ele><time>2026-04-24T09:44:00.97Z</time></trkpt><trkpt lat="46.0314023" lon="10.8687213"><ele>405.0</ele><time>2026-04-24T09:44:01.983Z</time></trkpt><trkpt lat="46.0312649" lon="10.8686649"><ele>406.0</ele><time>2026-04-24T09:44:02.965Z</time></trkpt><trkpt lat="46.0311293" lon="10.8686111"><ele>407.0</ele><time>2026-04-24T09:44:03.961Z</time></trkpt><trkpt lat="46.0309852" lon="10.8685565"><ele>408.0</ele><time>2026-04-24T09:44:04.995Z</time></trkpt><trkpt lat="46.0308494" lon="10.8685029"><ele>413.25</ele><time>2026-04-24T09:44:05.999Z</time></trkpt><trkpt lat="46.0307031" lon="10.8684437"><ele>418.5</ele><time>2026-04-24T09:44:07.076Z</time></trkpt><trkpt lat="46.0305889" lon="10.8683968"><ele>423.75</ele><time>2026-04-24T09:44:07.981Z</time></trkpt><trkpt lat="46.0304724" lon="10.8683658"><ele>429.0</ele><time>2026-04-24T09:44:08.987Z</time></trkpt><trkpt lat="46.0303714" lon="10.8683878"><ele>429.0</ele><time>2026-04-24T09:44:10.013Z</time></trkpt><trkpt lat="46.0302962" lon="10.8684641"><ele>429.0</ele><time>2026-04-24T09:44:10.991Z</time></trkpt><trkpt lat="46.0302498" lon="10.8685985"><ele>429.0</ele><time>2026-04-24T09:44:11.983Z</time></trkpt><trkpt lat="46.030252" lon="10.8687515"><ele>429.0</ele><time>2026-04-24T09:44:12.954Z</time></trkpt><trkpt lat="46.0302752" lon="10.8689097"><ele>429.0</ele><time>2026-04-24T09:44:13.987Z</time></trkpt><trkpt lat="46.0303085" lon="10.8690541"><ele>429.0</ele><time>2026-04-24T09:44:14.989Z</time></trkpt><trkpt lat="46.0303176" lon="10.86918"><ele>429.0</ele><time>2026-04-24T09:44:15.961Z</time></trkpt><trkpt lat="46.0302646" lon="10.8692636"><ele>429.0</ele><time>2026-04-24T09:44:16.981Z</time></trkpt><trkpt lat="46.0301723" lon="10.8692406"><ele>429.0</ele><time>2026-04-24T09:44:18.087Z</time></trkpt><trkpt lat="46.0300758" lon="10.8690176"><ele>429.0</ele><time>2026-04-24T09:44:19.956Z</time></trkpt><trkpt lat="46.0300772" lon="10.8688932"><ele>429.0</ele><time>2026-04-24T09:44:20.97Z</time></trkpt><trkpt lat="46.0300794" lon="10.868754"><ele>429.0</ele><time>2026-04-24T09:44:21.969Z</time></trkpt><trkpt lat="46.0300759" lon="10.8686033"><ele>429.0</ele><time>2026-04-24T09:44:22.971Z</time></trkpt><trkpt lat="46.0300664" lon="10.8684418"><ele>429.0</ele><time>2026-04-24T09:44:23.968Z</time></trkpt><trkpt lat="46.030051" lon="10.8682736"><ele>429.0</ele><time>2026-04-24T09:44:24.947Z</time></trkpt><trkpt lat="46.0300298" lon="10.868093"><ele>430.75</ele><time>2026-04-24T09:44:25.975Z</time></trkpt><trkpt lat="46.0299882" lon="10.8679009"><ele>432.5</ele><time>2026-04-24T09:44:27.013Z</time></trkpt><trkpt lat="46.0299199" lon="10.8677185"><ele>434.25</ele><time>2026-04-24T09:44:27.976Z</time></trkpt><trkpt lat="46.0298391" lon="10.8675535"><ele>436.0</ele><time>2026-04-24T09:44:28.997Z</time></trkpt><trkpt lat="46.0297394" lon="10.8673936"><ele>438.75</ele><time>2026-04-24T09:44:29.993Z</time></trkpt><trkpt lat="46.0296331" lon="10.8672474"><ele>441.5</ele><time>2026-04-24T09:44:30.946Z</time></trkpt><trkpt lat="46.0295124" lon="10.8670906"><ele>444.25</ele><time>2026-04-24T09:44:32.037Z</time></trkpt><trkpt lat="46.0294146" lon="10.8669508"><ele>447.0</ele><time>2026-04-24T09:44:32.942Z</time></trkpt><trkpt lat="46.0292995" lon="10.8667655"><ele>447.0</ele><time>2026-04-24T09:44:33.991Z</time></trkpt><trkpt lat="46.0291863" lon="10.8665932"><ele>447.0</ele><time>2026-04-24T09:44:34.973Z</time></trkpt><trkpt lat="46.0290478" lon="10.8664032"><ele>447.0</ele><time>2026-04-24T09:44:36.173Z</time></trkpt><trkpt lat="46.0289345" lon="10.8662428"><ele>447.66666666666663</ele><time>2026-04-24T09:44:37.105Z</time></trkpt><trkpt lat="46.0288226" lon="10.8660948"><ele>448.3333333333333</ele><time>2026-04-24T09:44:38.038Z</time></trkpt><trkpt lat="46.0287059" lon="10.8659457"><ele>449.0</ele><time>2026-04-24T09:44:39.012Z</time></trkpt><trkpt lat="46.0285879" lon="10.8657848"><ele>449.0</ele><time>2026-04-24T09:44:40.02Z</time></trkpt><trkpt lat="46.0284756" lon="10.8656309"><ele>449.0</ele><time>2026-04-24T09:44:41.033Z</time></trkpt><trkpt lat="46.0283763" lon="10.8654946"><ele>449.0</ele><time>2026-04-24T09:44:42.058Z</time></trkpt><trkpt lat="46.0282948" lon="10.8653729"><ele>449.0</ele><time>2026-04-24T09:44:43.07Z</time></trkpt><trkpt lat="46.0282137" lon="10.865281"><ele>452.2</ele><time>2026-04-24T09:44:44.203Z</time></trkpt><trkpt lat="46.0280865" lon="10.8653305"><ele>455.4</ele><time>2026-04-24T09:44:46.045Z</time></trkpt><trkpt lat="46.0280641" lon="10.8654299"><ele>458.6</ele><time>2026-04-24T09:44:46.959Z</time></trkpt><trkpt lat="46.0280858" lon="10.8655574"><ele>461.8</ele><time>2026-04-24T09:44:47.941Z</time></trkpt><trkpt lat="46.0281313" lon="10.8657029"><ele>465.0</ele><time>2026-04-24T09:44:48.948Z</time></trkpt><trkpt lat="46.0281661" lon="10.865868"><ele>465.5</ele><time>2026-04-24T09:44:49.996Z</time></trkpt><trkpt lat="46.0281833" lon="10.8660283"><ele>466.0</ele><time>2026-04-24T09:44:50.976Z</time></trkpt><trkpt lat="46.028199" lon="10.8662118"><ele>466.5</ele><time>2026-04-24T09:44:51.999Z</time></trkpt><trkpt lat="46.0282242" lon="10.8663884"><ele>467.0</ele><time>2026-04-24T09:44:52.966Z</time></trkpt><trkpt lat="46.0282522" lon="10.866576"><ele>467.0</ele><time>2026-04-24T09:44:54Z</time></trkpt><trkpt lat="46.0282749" lon="10.8667615"><ele>467.0</ele><time>2026-04-24T09:44:55.002Z</time></trkpt><trkpt lat="46.028304" lon="10.8669514"><ele>467.0</ele><time>2026-04-24T09:44:56.018Z</time></trkpt><trkpt lat="46.0283586" lon="10.8671565"><ele>467.0</ele><time>2026-04-24T09:44:57.08Z</time></trkpt><trkpt lat="46.028522" lon="10.8674743"><ele>467.5</ele><time>2026-04-24T09:44:58.983Z</time></trkpt><trkpt lat="46.0286348" lon="10.8676097"><ele>468.0</ele><time>2026-04-24T09:44:59.971Z</time></trkpt><trkpt lat="46.028763" lon="10.8677259"><ele>468.5</ele><time>2026-04-24T09:45:00.96Z</time></trkpt><trkpt lat="46.0288884" lon="10.8678166"><ele>469.0</ele><time>2026-04-24T09:45:01.961Z</time></trkpt><trkpt lat="46.0290041" lon="10.8678927"><ele>468.0</ele><time>2026-04-24T09:45:02.955Z</time></trkpt><trkpt lat="46.0290998" lon="10.8679649"><ele>467.0</ele><time>2026-04-24T09:45:03.983Z</time></trkpt><trkpt lat="46.0291578" lon="10.868029"><ele>466.0</ele><time>2026-04-24T09:45:05.009Z</time></trkpt><trkpt lat="46.0291383" lon="10.8681702"><ele>465.0</ele><time>2026-04-24T09:45:07.111Z</time></trkpt><trkpt lat="46.0290315" lon="10.8681435"><ele>464.0</ele><time>2026-04-24T09:45:08.971Z</time></trkpt><trkpt lat="46.0289698" lon="10.8680873"><ele>467.4</ele><time>2026-04-24T09:45:09.987Z</time></trkpt><trkpt lat="46.0288924" lon="10.8680334"><ele>470.79999999999995</ele><time>2026-04-24T09:45:10.973Z</time></trkpt><trkpt lat="46.0288002" lon="10.8679812"><ele>474.20000000000005</ele><time>2026-04-24T09:45:12.01Z</time></trkpt><trkpt lat="46.0286975" lon="10.8679298"><ele>477.6</ele><time>2026-04-24T09:45:13.04Z</time></trkpt><trkpt lat="46.0286032" lon="10.8678905"><ele>481.0</ele><time>2026-04-24T09:45:13.988Z</time></trkpt><trkpt lat="46.0284891" lon="10.8678588"><ele>481.0</ele><time>2026-04-24T09:45:15.034Z</time></trkpt><trkpt lat="46.0283643" lon="10.8678477"><ele>481.0</ele><time>2026-04-24T09:45:16.055Z</time></trkpt><trkpt lat="46.0282373" lon="10.8678749"><ele>481.0</ele><time>2026-04-24T09:45:17.022Z</time></trkpt><trkpt lat="46.0281044" lon="10.8679288"><ele>481.0</ele><time>2026-04-24T09:45:17.988Z</time></trkpt><trkpt lat="46.0279761" lon="10.8680018"><ele>481.25</ele><time>2026-04-24T09:45:18.975Z</time></trkpt><trkpt lat="46.0278425" lon="10.8680816"><ele>481.5</ele><time>2026-04-24T09:45:19.966Z</time></trkpt><trkpt lat="46.0276967" lon="10.8681179"><ele>481.75</ele><time>2026-04-24T09:45:20.972Z</time></trkpt><trkpt lat="46.027541" lon="10.8680965"><ele>482.0</ele><time>2026-04-24T09:45:21.968Z</time></trkpt><trkpt lat="46.0273712" lon="10.8680344"><ele>482.0</ele><time>2026-04-24T09:45:23.013Z</time></trkpt><trkpt lat="46.0272226" lon="10.8679675"><ele>482.0</ele><time>2026-04-24T09:45:23.972Z</time></trkpt><trkpt lat="46.0270778" lon="10.8678973"><ele>482.0</ele><time>2026-04-24T09:45:24.982Z</time></trkpt><trkpt lat="46.0269443" lon="10.867796"><ele>482.0</ele><time>2026-04-24T09:45:25.973Z</time></trkpt><trkpt lat="46.0268201" lon="10.86764"><ele>482.0</ele><time>2026-04-24T09:45:26.977Z</time></trkpt><trkpt lat="46.0267153" lon="10.8674649"><ele>482.0</ele><time>2026-04-24T09:45:27.954Z</time></trkpt><trkpt lat="46.0266106" lon="10.8672856"><ele>483.3333333333333</ele><time>2026-04-24T09:45:28.968Z</time></trkpt><trkpt lat="46.0264927" lon="10.8671158"><ele>484.66666666666663</ele><time>2026-04-24T09:45:29.97Z</time></trkpt><trkpt lat="46.0263627" lon="10.8669577"><ele>486.0</ele><time>2026-04-24T09:45:30.985Z</time></trkpt><trkpt lat="46.0262225" lon="10.8667949"><ele>486.0</ele><time>2026-04-24T09:45:32.031Z</time></trkpt><trkpt lat="46.0260967" lon="10.8666318"><ele>486.0</ele><time>2026-04-24T09:45:32.973Z</time></trkpt><trkpt lat="46.0259446" lon="10.8664387"><ele>486.0</ele><time>2026-04-24T09:45:34.051Z</time></trkpt><trkpt lat="46.0258071" lon="10.8662718"><ele>486.33333333333337</ele><time>2026-04-24T09:45:35.051Z</time></trkpt><trkpt lat="46.02568" lon="10.8661262"><ele>486.6666666666667</ele><time>2026-04-24T09:45:36.024Z</time></trkpt><trkpt lat="46.0255612" lon="10.8659863"><ele>487.0</ele><time>2026-04-24T09:45:36.973Z</time></trkpt><trkpt lat="46.025444" lon="10.8658414"><ele>487.75</ele><time>2026-04-24T09:45:37.99Z</time></trkpt><trkpt lat="46.0253443" lon="10.8657248"><ele>488.5</ele><time>2026-04-24T09:45:38.956Z</time></trkpt><trkpt lat="46.0252253" lon="10.8655947"><ele>489.25</ele><time>2026-04-24T09:45:40.099Z</time></trkpt><trkpt lat="46.0251317" lon="10.8654992"><ele>490.0</ele><time>2026-04-24T09:45:41.045Z</time></trkpt><trkpt lat="46.0250314" lon="10.8654086"><ele>490.2</ele><time>2026-04-24T09:45:42.071Z</time></trkpt><trkpt lat="46.0249404" lon="10.865335"><ele>490.4</ele><time>2026-04-24T09:45:43.02Z</time></trkpt><trkpt lat="46.0248548" lon="10.8652704"><ele>490.6</ele><time>2026-04-24T09:45:43.964Z</time></trkpt><trkpt lat="46.0247646" lon="10.865199"><ele>490.8</ele><time>2026-04-24T09:45:44.989Z</time></trkpt><trkpt lat="46.0246806" lon="10.8651438"><ele>491.0</ele><time>2026-04-24T09:45:45.969Z</time></trkpt><trkpt lat="46.0245944" lon="10.8650875"><ele>491.0</ele><time>2026-04-24T09:45:47.001Z</time></trkpt><trkpt lat="46.0245034" lon="10.8650604"><ele>491.0</ele><time>2026-04-24T09:45:48.006Z</time></trkpt><trkpt lat="46.0244165" lon="10.865071"><ele>491.0</ele><time>2026-04-24T09:45:48.979Z</time></trkpt><trkpt lat="46.0243263" lon="10.8651495"><ele>491.0</ele><time>2026-04-24T09:45:50.076Z</time></trkpt><trkpt lat="46.0241845" lon="10.8653463"><ele>491.5</ele><time>2026-04-24T09:45:51.931Z</time></trkpt><trkpt lat="46.0240917" lon="10.8654512"><ele>492.0</ele><time>2026-04-24T09:45:52.935Z</time></trkpt><trkpt lat="46.0239975" lon="10.8655395"><ele>492.5</ele><time>2026-04-24T09:45:53.961Z</time></trkpt><trkpt lat="46.0239052" lon="10.8656272"><ele>493.0</ele><time>2026-04-24T09:45:54.927Z</time></trkpt><trkpt lat="46.0237745" lon="10.8657137"><ele>493.0</ele><time>2026-04-24T09:45:56.024Z</time></trkpt><trkpt lat="46.0236483" lon="10.8657777"><ele>493.0</ele><time>2026-04-24T09:45:57.012Z</time></trkpt><trkpt lat="46.0235166" lon="10.8658488"><ele>493.0</ele><time>2026-04-24T09:45:58.01Z</time></trkpt><trkpt lat="46.0233788" lon="10.8659242"><ele>493.0</ele><time>2026-04-24T09:45:59.019Z</time></trkpt><trkpt lat="46.023241" lon="10.8659976"><ele>492.6666666666667</ele><time>2026-04-24T09:46:00.022Z</time></trkpt><trkpt lat="46.0230987" lon="10.8660727"><ele>492.33333333333337</ele><time>2026-04-24T09:46:01.054Z</time></trkpt><trkpt lat="46.0229595" lon="10.8661471"><ele>492.0</ele><time>2026-04-24T09:46:02.05Z</time></trkpt><trkpt lat="46.0228029" lon="10.8662322"><ele>492.0</ele><time>2026-04-24T09:46:03.171Z</time></trkpt><trkpt lat="46.0226737" lon="10.8663024"><ele>492.0</ele><time>2026-04-24T09:46:04.084Z</time></trkpt><trkpt lat="46.0225311" lon="10.8663731"><ele>492.0</ele><time>2026-04-24T09:46:05.08Z</time></trkpt><trkpt lat="46.022376" lon="10.8664475"><ele>492.33333333333337</ele><time>2026-04-24T09:46:06.159Z</time></trkpt><trkpt lat="46.0221071" lon="10.8665933"><ele>492.6666666666667</ele><time>2026-04-24T09:46:08.052Z</time></trkpt><trkpt lat="46.0219643" lon="10.8666644"><ele>493.0</ele><time>2026-04-24T09:46:09.059Z</time></trkpt><trkpt lat="46.0218165" lon="10.8667297"><ele>492.6666666666667</ele><time>2026-04-24T09:46:10.077Z</time></trkpt><trkpt lat="46.0216808" lon="10.8667906"><ele>492.33333333333337</ele><time>2026-04-24T09:46:11.023Z</time></trkpt><trkpt lat="46.0215311" lon="10.866856"><ele>492.0</ele><time>2026-04-24T09:46:12.049Z</time></trkpt><trkpt lat="46.0213814" lon="10.8669255"><ele>491.66666666666663</ele><time>2026-04-24T09:46:13.066Z</time></trkpt><trkpt lat="46.0212338" lon="10.8669983"><ele>491.3333333333333</ele><time>2026-04-24T09:46:14.123Z</time></trkpt><trkpt lat="46.0209996" lon="10.8671193"><ele>491.0</ele><time>2026-04-24T09:46:16.043Z</time></trkpt><trkpt lat="46.0208912" lon="10.8671802"><ele>490.75</ele><time>2026-04-24T09:46:17.019Z</time></trkpt><trkpt lat="46.0207823" lon="10.8672502"><ele>490.5</ele><time>2026-04-24T09:46:18.046Z</time></trkpt><trkpt lat="46.0206755" lon="10.8673269"><ele>490.25</ele><time>2026-04-24T09:46:19.059Z</time></trkpt><trkpt lat="46.0205714" lon="10.8674006"><ele>490.0</ele><time>2026-04-24T09:46:20.047Z</time></trkpt><trkpt lat="46.0204526" lon="10.8674713"><ele>490.0</ele><time>2026-04-24T09:46:21.137Z</time></trkpt><trkpt lat="46.0203512" lon="10.8675313"><ele>490.0</ele><time>2026-04-24T09:46:22.051Z</time></trkpt><trkpt lat="46.0202411" lon="10.8676027"><ele>490.0</ele><time>2026-04-24T09:46:23.053Z</time></trkpt><trkpt lat="46.0201329" lon="10.8676787"><ele>490.0</ele><time>2026-04-24T09:46:24.051Z</time></trkpt><trkpt lat="46.0200239" lon="10.8677507"><ele>489.25</ele><time>2026-04-24T09:46:25.041Z</time></trkpt><trkpt lat="46.0199137" lon="10.8678192"><ele>488.5</ele><time>2026-04-24T09:46:26.048Z</time></trkpt><trkpt lat="46.0198107" lon="10.8678868"><ele>487.75</ele><time>2026-04-24T09:46:27Z</time></trkpt><trkpt lat="46.0196927" lon="10.8679596"><ele>487.0</ele><time>2026-04-24T09:46:28.049Z</time></trkpt><trkpt lat="46.019577" lon="10.8680319"><ele>487.0</ele><time>2026-04-24T09:46:29.056Z</time></trkpt><trkpt lat="46.0194577" lon="10.8680855"><ele>487.0</ele><time>2026-04-24T09:46:30.061Z</time></trkpt><trkpt lat="46.0193266" lon="10.8681228"><ele>487.0</ele><time>2026-04-24T09:46:31.067Z</time></trkpt><trkpt lat="46.0191929" lon="10.8681513"><ele>487.0</ele><time>2026-04-24T09:46:32.051Z</time></trkpt><trkpt lat="46.0190495" lon="10.8681852"><ele>487.25</ele><time>2026-04-24T09:46:33.06Z</time></trkpt><trkpt lat="46.0189002" lon="10.8682158"><ele>487.5</ele><time>2026-04-24T09:46:34.059Z</time></trkpt><trkpt lat="46.0187509" lon="10.8682179"><ele>487.75</ele><time>2026-04-24T09:46:35.044Z</time></trkpt><trkpt lat="46.0186048" lon="10.8682089"><ele>488.0</ele><time>2026-04-24T09:46:36.006Z</time></trkpt><trkpt lat="46.0184453" lon="10.868195"><ele>487.75</ele><time>2026-04-24T09:46:37.052Z</time></trkpt><trkpt lat="46.0182957" lon="10.8681864"><ele>487.5</ele><time>2026-04-24T09:46:38.036Z</time></trkpt><trkpt lat="46.0181347" lon="10.8681749"><ele>487.25</ele><time>2026-04-24T09:46:39.101Z</time></trkpt><trkpt lat="46.0179968" lon="10.8681635"><ele>487.0</ele><time>2026-04-24T09:46:40.011Z</time></trkpt><trkpt lat="46.0178365" lon="10.8681512"><ele>487.0</ele><time>2026-04-24T09:46:41.061Z</time></trkpt><trkpt lat="46.0176903" lon="10.8681349"><ele>487.0</ele><time>2026-04-24T09:46:42.026Z</time></trkpt><trkpt lat="46.01754" lon="10.8681082"><ele>487.0</ele><time>2026-04-24T09:46:43.023Z</time></trkpt><trkpt lat="46.0173879" lon="10.8680614"><ele>486.33333333333337</ele><time>2026-04-24T09:46:44.05Z</time></trkpt><trkpt lat="46.0172413" lon="10.8679827"><ele>485.66666666666663</ele><time>2026-04-24T09:46:45.079Z</time></trkpt><trkpt lat="46.0171139" lon="10.8678804"><ele>485.0</ele><time>2026-04-24T09:46:46.023Z</time></trkpt><trkpt lat="46.0169814" lon="10.8677458"><ele>485.66666666666663</ele><time>2026-04-24T09:46:47.066Z</time></trkpt><trkpt lat="46.0168592" lon="10.8676103"><ele>486.33333333333337</ele><time>2026-04-24T09:46:48.057Z</time></trkpt><trkpt lat="46.0167423" lon="10.8674777"><ele>487.0</ele><time>2026-04-24T09:46:49.021Z</time></trkpt><trkpt lat="46.0166204" lon="10.8673366"><ele>487.0</ele><time>2026-04-24T09:46:50.037Z</time></trkpt><trkpt lat="46.0164964" lon="10.8671985"><ele>487.0</ele><time>2026-04-24T09:46:51.079Z</time></trkpt><trkpt lat="46.0163842" lon="10.8670827"><ele>487.0</ele><time>2026-04-24T09:46:52.044Z</time></trkpt><trkpt lat="46.016264" lon="10.866989"><ele>487.0</ele><time>2026-04-24T09:46:53.009Z</time></trkpt><trkpt lat="46.0161255" lon="10.8669384"><ele>487.0</ele><time>2026-04-24T09:46:54.008Z</time></trkpt><trkpt lat="46.0159704" lon="10.8669461"><ele>487.0</ele><time>2026-04-24T09:46:55.043Z</time></trkpt><trkpt lat="46.01582" lon="10.8670054"><ele>487.0</ele><time>2026-04-24T09:46:56.054Z</time></trkpt><trkpt lat="46.0156725" lon="10.8670844"><ele>487.0</ele><time>2026-04-24T09:46:57.072Z</time></trkpt><trkpt lat="46.0155222" lon="10.8671536"><ele>487.0</ele><time>2026-04-24T09:46:58.074Z</time></trkpt><trkpt lat="46.0153696" lon="10.8672118"><ele>487.0</ele><time>2026-04-24T09:46:59.082Z</time></trkpt><trkpt lat="46.0152175" lon="10.8672645"><ele>487.0</ele><time>2026-04-24T09:47:00.153Z</time></trkpt><trkpt lat="46.0150929" lon="10.8672998"><ele>487.0</ele><time>2026-04-24T09:47:01.061Z</time></trkpt><trkpt lat="46.0149574" lon="10.8673185"><ele>487.0</ele><time>2026-04-24T09:47:02.077Z</time></trkpt><trkpt lat="46.0148376" lon="10.8673205"><ele>487.0</ele><time>2026-04-24T09:47:03.05Z</time></trkpt><trkpt lat="46.0147185" lon="10.8673177"><ele>487.40000000000003</ele><time>2026-04-24T09:47:04.055Z</time></trkpt><trkpt lat="46.0145997" lon="10.8673216"><ele>487.80000000000007</ele><time>2026-04-24T09:47:05.074Z</time></trkpt><trkpt lat="46.0144853" lon="10.8673314"><ele>488.2</ele><time>2026-04-24T09:47:06.076Z</time></trkpt><trkpt lat="46.0143778" lon="10.8673557"><ele>488.6</ele><time>2026-04-24T09:47:07.051Z</time></trkpt><trkpt lat="46.014273" lon="10.8673845"><ele>489.0</ele><time>2026-04-24T09:47:08.031Z</time></trkpt><trkpt lat="46.0141687" lon="10.8674309"><ele>488.6</ele><time>2026-04-24T09:47:09.066Z</time></trkpt><trkpt lat="46.0140705" lon="10.8674762"><ele>488.2</ele><time>2026-04-24T09:47:10.061Z</time></trkpt><trkpt lat="46.0139592" lon="10.8675341"><ele>487.80000000000007</ele><time>2026-04-24T09:47:11.15Z</time></trkpt><trkpt lat="46.0138674" lon="10.8675897"><ele>487.40000000000003</ele><time>2026-04-24T09:47:12.083Z</time></trkpt><trkpt lat="46.0137677" lon="10.8676574"><ele>487.0</ele><time>2026-04-24T09:47:13.085Z</time></trkpt><trkpt lat="46.01367" lon="10.8677189"><ele>486.40000000000003</ele><time>2026-04-24T09:47:14.072Z</time></trkpt><trkpt lat="46.0135667" lon="10.8677881"><ele>485.80000000000007</ele><time>2026-04-24T09:47:15.09Z</time></trkpt><trkpt lat="46.0134666" lon="10.8678521"><ele>485.2</ele><time>2026-04-24T09:47:16.06Z</time></trkpt><trkpt lat="46.0133711" lon="10.8678859"><ele>484.6</ele><time>2026-04-24T09:47:17.029Z</time></trkpt><trkpt lat="46.0132751" lon="10.8678757"><ele>484.0</ele><time>2026-04-24T09:47:18.007Z</time></trkpt><trkpt lat="46.0131799" lon="10.867801"><ele>483.75</ele><time>2026-04-24T09:47:19.041Z</time></trkpt><trkpt lat="46.0130903" lon="10.8676812"><ele>483.5</ele><time>2026-04-24T09:47:20.035Z</time></trkpt><trkpt lat="46.0130363" lon="10.8675214"><ele>483.25</ele><time>2026-04-24T09:47:21.06Z</time></trkpt><trkpt lat="46.0130019" lon="10.8673324"><ele>483.0</ele><time>2026-04-24T09:47:22.031Z</time></trkpt><trkpt lat="46.0129479" lon="10.867138"><ele>484.0</ele><time>2026-04-24T09:47:23.066Z</time></trkpt><trkpt lat="46.0128921" lon="10.8669514"><ele>485.0</ele><time>2026-04-24T09:47:24.069Z</time></trkpt><trkpt lat="46.0128438" lon="10.86677"><ele>486.0</ele><time>2026-04-24T09:47:25.024Z</time></trkpt><trkpt lat="46.0127932" lon="10.8665712"><ele>487.0</ele><time>2026-04-24T09:47:26.067Z</time></trkpt><trkpt lat="46.0127416" lon="10.8663765"><ele>487.0</ele><time>2026-04-24T09:47:27.087Z</time></trkpt><trkpt lat="46.0126842" lon="10.8661841"><ele>487.0</ele><time>2026-04-24T09:47:28.048Z</time></trkpt><trkpt lat="46.0126149" lon="10.8659941"><ele>487.0</ele><time>2026-04-24T09:47:29.062Z</time></trkpt><trkpt lat="46.0125439" lon="10.8658053"><ele>487.0</ele><time>2026-04-24T09:47:30.062Z</time></trkpt><trkpt lat="46.012477" lon="10.865624"><ele>488.0</ele><time>2026-04-24T09:47:31.023Z</time></trkpt><trkpt lat="46.0124032" lon="10.8654324"><ele>489.0</ele><time>2026-04-24T09:47:32.051Z</time></trkpt><trkpt lat="46.0123281" lon="10.8652579"><ele>490.0</ele><time>2026-04-24T09:47:33.028Z</time></trkpt><trkpt lat="46.0122386" lon="10.8650741"><ele>490.25</ele><time>2026-04-24T09:47:34.095Z</time></trkpt><trkpt lat="46.0121522" lon="10.864919"><ele>490.5</ele><time>2026-04-24T09:47:35.059Z</time></trkpt><trkpt lat="46.0120569" lon="10.8647642"><ele>490.75</ele><time>2026-04-24T09:47:36.045Z</time></trkpt><trkpt lat="46.0119558" lon="10.8646173"><ele>491.0</ele><time>2026-04-24T09:47:37.035Z</time></trkpt><trkpt lat="46.0118513" lon="10.8644764"><ele>491.0</ele><time>2026-04-24T09:47:38.041Z</time></trkpt><trkpt lat="46.0117585" lon="10.8643172"><ele>491.0</ele><time>2026-04-24T09:47:39.087Z</time></trkpt><trkpt lat="46.0116992" lon="10.8641559"><ele>491.0</ele><time>2026-04-24T09:47:40.041Z</time></trkpt><trkpt lat="46.0116527" lon="10.8639563"><ele>491.0</ele><time>2026-04-24T09:47:41.109Z</time></trkpt><trkpt lat="46.0116282" lon="10.8637807"><ele>491.75</ele><time>2026-04-24T09:47:42.042Z</time></trkpt><trkpt lat="46.0116089" lon="10.8635895"><ele>492.5</ele><time>2026-04-24T09:47:43.05Z</time></trkpt><trkpt lat="46.0115853" lon="10.8634022"><ele>493.25</ele><time>2026-04-24T09:47:44.069Z</time></trkpt><trkpt lat="46.0115601" lon="10.8632219"><ele>494.0</ele><time>2026-04-24T09:47:45.102Z</time></trkpt><trkpt lat="46.0115407" lon="10.8630571"><ele>495.0</ele><time>2026-04-24T09:47:46.066Z</time></trkpt><trkpt lat="46.0115219" lon="10.8628849"><ele>496.0</ele><time>2026-04-24T09:47:47.051Z</time></trkpt><trkpt lat="46.0114984" lon="10.8627153"><ele>497.0</ele><time>2026-04-24T09:47:48.046Z</time></trkpt><trkpt lat="46.0114705" lon="10.8625343"><ele>498.0</ele><time>2026-04-24T09:47:49.086Z</time></trkpt><trkpt lat="46.0114485" lon="10.8623566"><ele>498.25</ele><time>2026-04-24T09:47:50.086Z</time></trkpt><trkpt lat="46.0114318" lon="10.8621811"><ele>498.5</ele><time>2026-04-24T09:47:51.061Z</time></trkpt><trkpt lat="46.0114119" lon="10.8619925"><ele>498.75</ele><time>2026-04-24T09:47:52.121Z</time></trkpt><trkpt lat="46.0113882" lon="10.861819"><ele>499.0</ele><time>2026-04-24T09:47:53.095Z</time></trkpt><trkpt lat="46.011369" lon="10.8616565"><ele>499.5</ele><time>2026-04-24T09:47:54.054Z</time></trkpt><trkpt lat="46.0113729" lon="10.8614732"><ele>500.0</ele><time>2026-04-24T09:47:55.097Z</time></trkpt><trkpt lat="46.0114021" lon="10.861315"><ele>500.5</ele><time>2026-04-24T09:47:56.008Z</time></trkpt><trkpt lat="46.0114623" lon="10.8611383"><ele>501.0</ele><time>2026-04-24T09:47:57.075Z</time></trkpt><trkpt lat="46.0115352" lon="10.8609898"><ele>501.75</ele><time>2026-04-24T09:47:58.03Z</time></trkpt><trkpt lat="46.01161" lon="10.8608399"><ele>502.5</ele><time>2026-04-24T09:47:59.019Z</time></trkpt><trkpt lat="46.0116773" lon="10.8606862"><ele>503.25</ele><time>2026-04-24T09:48:00.012Z</time></trkpt><trkpt lat="46.0117528" lon="10.8605417"><ele>504.0</ele><time>2026-04-24T09:48:01.003Z</time></trkpt><trkpt lat="46.0118421" lon="10.8604067"><ele>504.0</ele><time>2026-04-24T09:48:02.015Z</time></trkpt><trkpt lat="46.0119599" lon="10.860303"><ele>504.0</ele><time>2026-04-24T09:48:03.055Z</time></trkpt><trkpt lat="46.0120825" lon="10.860211"><ele>504.0</ele><time>2026-04-24T09:48:04.051Z</time></trkpt><trkpt lat="46.0121964" lon="10.860109"><ele>504.0</ele><time>2026-04-24T09:48:05.03Z</time></trkpt><trkpt lat="46.0123088" lon="10.8599906"><ele>504.0</ele><time>2026-04-24T09:48:06.028Z</time></trkpt><trkpt lat="46.0124121" lon="10.8598552"><ele>504.0</ele><time>2026-04-24T09:48:07.009Z</time></trkpt><trkpt lat="46.0125031" lon="10.8596869"><ele>504.0</ele><time>2026-04-24T09:48:08.068Z</time></trkpt><trkpt lat="46.0125733" lon="10.8595148"><ele>504.0</ele><time>2026-04-24T09:48:09.03Z</time></trkpt><trkpt lat="46.0126432" lon="10.8593435"><ele>506.25</ele><time>2026-04-24T09:48:10.03Z</time></trkpt><trkpt lat="46.0127301" lon="10.8591486"><ele>508.5</ele><time>2026-04-24T09:48:11.171Z</time></trkpt><trkpt lat="46.0128011" lon="10.8589838"><ele>510.75</ele><time>2026-04-24T09:48:12.118Z</time></trkpt><trkpt lat="46.0128705" lon="10.8588186"><ele>513.0</ele><time>2026-04-24T09:48:13.078Z</time></trkpt><trkpt lat="46.0129446" lon="10.8586428"><ele>513.0</ele><time>2026-04-24T09:48:14.079Z</time></trkpt><trkpt lat="46.0130184" lon="10.858471"><ele>513.0</ele><time>2026-04-24T09:48:15.062Z</time></trkpt><trkpt lat="46.0130959" lon="10.8583028"><ele>513.0</ele><time>2026-04-24T09:48:16.037Z</time></trkpt><trkpt lat="46.0131786" lon="10.8581239"><ele>513.0</ele><time>2026-04-24T09:48:17.073Z</time></trkpt><trkpt lat="46.0132528" lon="10.8579519"><ele>511.75</ele><time>2026-04-24T09:48:18.048Z</time></trkpt><trkpt lat="46.013328" lon="10.857769"><ele>510.5</ele><time>2026-04-24T09:48:19.067Z</time></trkpt><trkpt lat="46.0134009" lon="10.8575911"><ele>509.25</ele><time>2026-04-24T09:48:20.077Z</time></trkpt><trkpt lat="46.0134791" lon="10.8574156"><ele>508.0</ele><time>2026-04-24T09:48:21.078Z</time></trkpt><trkpt lat="46.0135558" lon="10.8572452"><ele>510.75</ele><time>2026-04-24T09:48:22.054Z</time></trkpt><trkpt lat="46.0136334" lon="10.8570702"><ele>513.5</ele><time>2026-04-24T09:48:23.077Z</time></trkpt><trkpt lat="46.013702" lon="10.8569012"><ele>516.25</ele><time>2026-04-24T09:48:24.051Z</time></trkpt><trkpt lat="46.0137722" lon="10.8567303"><ele>519.0</ele><time>2026-04-24T09:48:25.055Z</time></trkpt><trkpt lat="46.0138459" lon="10.8565615"><ele>521.0</ele><time>2026-04-24T09:48:26.094Z</time></trkpt><trkpt lat="46.0139143" lon="10.856408"><ele>523.0</ele><time>2026-04-24T09:48:27.062Z</time></trkpt><trkpt lat="46.0139856" lon="10.8562408"><ele>525.0</ele><time>2026-04-24T09:48:28.124Z</time></trkpt><trkpt lat="46.0140479" lon="10.8560881"><ele>527.0</ele><time>2026-04-24T09:48:29.074Z</time></trkpt><trkpt lat="46.0141146" lon="10.8559293"><ele>526.75</ele><time>2026-04-24T09:48:30.074Z</time></trkpt><trkpt lat="46.0141838" lon="10.8557706"><ele>526.5</ele><time>2026-04-24T09:48:31.073Z</time></trkpt><trkpt lat="46.0142523" lon="10.8556169"><ele>526.25</ele><time>2026-04-24T09:48:32.061Z</time></trkpt><trkpt lat="46.0143255" lon="10.8554581"><ele>526.0</ele><time>2026-04-24T09:48:33.104Z</time></trkpt><trkpt lat="46.0143821" lon="10.8553107"><ele>526.0</ele><time>2026-04-24T09:48:34.126Z</time></trkpt><trkpt lat="46.0144023" lon="10.8551773"><ele>526.0</ele><time>2026-04-24T09:48:35.067Z</time></trkpt><trkpt lat="46.0143734" lon="10.8550248"><ele>526.0</ele><time>2026-04-24T09:48:36.181Z</time></trkpt><trkpt lat="46.0141955" lon="10.8548655"><ele>526.0</ele><time>2026-04-24T09:48:38.204Z</time></trkpt><trkpt lat="46.0139924" lon="10.8549425"><ele>528.3333333333334</ele><time>2026-04-24T09:48:40.016Z</time></trkpt><trkpt lat="46.0138587" lon="10.855"><ele>530.6666666666666</ele><time>2026-04-24T09:48:41.067Z</time></trkpt><trkpt lat="46.0137115" lon="10.8550625"><ele>533.0</ele><time>2026-04-24T09:48:42.19Z</time></trkpt><trkpt lat="46.0134525" lon="10.8551672"><ele>535.25</ele><time>2026-04-24T09:48:44.072Z</time></trkpt><trkpt lat="46.0133076" lon="10.8552095"><ele>537.5</ele><time>2026-04-24T09:48:45.057Z</time></trkpt><trkpt lat="46.0131617" lon="10.8552378"><ele>539.75</ele><time>2026-04-24T09:48:46.072Z</time></trkpt><trkpt lat="46.0130157" lon="10.8552497"><ele>542.0</ele><time>2026-04-24T09:48:47.054Z</time></trkpt><trkpt lat="46.0128567" lon="10.8552513"><ele>542.0</ele><time>2026-04-24T09:48:48.092Z</time></trkpt><trkpt lat="46.0127089" lon="10.8552508"><ele>542.0</ele><time>2026-04-24T09:48:49.059Z</time></trkpt><trkpt lat="46.0125564" lon="10.855255"><ele>542.0</ele><time>2026-04-24T09:48:50.073Z</time></trkpt><trkpt lat="46.0124114" lon="10.8552586"><ele>542.0</ele><time>2026-04-24T09:48:51.071Z</time></trkpt><trkpt lat="46.0122676" lon="10.8552592"><ele>544.0</ele><time>2026-04-24T09:48:52.066Z</time></trkpt><trkpt lat="46.0121265" lon="10.8552596"><ele>546.0</ele><time>2026-04-24T09:48:53.063Z</time></trkpt><trkpt lat="46.0119843" lon="10.8552615"><ele>548.0</ele><time>2026-04-24T09:48:54.058Z</time></trkpt><trkpt lat="46.0118373" lon="10.8552652"><ele>550.0</ele><time>2026-04-24T09:48:55.096Z</time></trkpt><trkpt lat="46.0116996" lon="10.855264"><ele>551.75</ele><time>2026-04-24T09:48:56.091Z</time></trkpt><trkpt lat="46.0115659" lon="10.8552663"><ele>553.5</ele><time>2026-04-24T09:48:57.091Z</time></trkpt><trkpt lat="46.0114427" lon="10.8552704"><ele>555.25</ele><time>2026-04-24T09:48:58.097Z</time></trkpt><trkpt lat="46.0113385" lon="10.8552559"><ele>557.0</ele><time>2026-04-24T09:48:59.066Z</time></trkpt><trkpt lat="46.0112447" lon="10.8551873"><ele>558.75</ele><time>2026-04-24T09:49:00.061Z</time></trkpt><trkpt lat="46.0111783" lon="10.8550627"><ele>560.5</ele><time>2026-04-24T09:49:01.028Z</time></trkpt><trkpt lat="46.0111477" lon="10.8549042"><ele>562.25</ele><time>2026-04-24T09:49:02.052Z</time></trkpt><trkpt lat="46.0111572" lon="10.8547357"><ele>564.0</ele><time>2026-04-24T09:49:03.059Z</time></trkpt><trkpt lat="46.011178" lon="10.8545546"><ele>564.0</ele><time>2026-04-24T09:49:04.103Z</time></trkpt><trkpt lat="46.0111736" lon="10.8543836"><ele>564.0</ele><time>2026-04-24T09:49:05.028Z</time></trkpt><trkpt lat="46.0111296" lon="10.8541994"><ele>564.0</ele><time>2026-04-24T09:49:06.052Z</time></trkpt><trkpt lat="46.0110437" lon="10.8540274"><ele>564.0</ele><time>2026-04-24T09:49:07.178Z</time></trkpt><trkpt lat="46.0109483" lon="10.8539012"><ele>564.3333333333334</ele><time>2026-04-24T09:49:08.088Z</time></trkpt><trkpt lat="46.010842" lon="10.8537606"><ele>564.6666666666667</ele><time>2026-04-24T09:49:09.069Z</time></trkpt><trkpt lat="46.0107312" lon="10.853609"><ele>565.0</ele><time>2026-04-24T09:49:10.094Z</time></trkpt><trkpt lat="46.0106153" lon="10.8534617"><ele>568.0</ele><time>2026-04-24T09:49:11.074Z</time></trkpt><trkpt lat="46.0104884" lon="10.8533077"><ele>571.0</ele><time>2026-04-24T09:49:12.094Z</time></trkpt><trkpt lat="46.010367" lon="10.853139"><ele>574.0</ele><time>2026-04-24T09:49:13.082Z</time></trkpt><trkpt lat="46.0102467" lon="10.8529726"><ele>574.0</ele><time>2026-04-24T09:49:14.078Z</time></trkpt><trkpt lat="46.0101095" lon="10.8528088"><ele>574.0</ele><time>2026-04-24T09:49:15.088Z</time></trkpt><trkpt lat="46.0099763" lon="10.852646"><ele>574.0</ele><time>2026-04-24T09:49:16.089Z</time></trkpt><trkpt lat="46.0098512" lon="10.8524873"><ele>576.3333333333334</ele><time>2026-04-24T09:49:17.063Z</time></trkpt><trkpt lat="46.0097181" lon="10.8523423"><ele>578.6666666666666</ele><time>2026-04-24T09:49:18.134Z</time></trkpt><trkpt lat="46.0095929" lon="10.8522327"><ele>581.0</ele><time>2026-04-24T09:49:19.075Z</time></trkpt><trkpt lat="46.0094602" lon="10.8521262"><ele>581.0</ele><time>2026-04-24T09:49:20.106Z</time></trkpt><trkpt lat="46.0093359" lon="10.8520278"><ele>581.0</ele><time>2026-04-24T09:49:21.114Z</time></trkpt><trkpt lat="46.0092161" lon="10.8519374"><ele>581.0</ele><time>2026-04-24T09:49:22.08Z</time></trkpt><trkpt lat="46.00907" lon="10.8518348"><ele>581.0</ele><time>2026-04-24T09:49:23.276Z</time></trkpt><trkpt lat="46.0088351" lon="10.8516974"><ele>583.0</ele><time>2026-04-24T09:49:25.087Z</time></trkpt><trkpt lat="46.008711" lon="10.8516025"><ele>585.0</ele><time>2026-04-24T09:49:26.063Z</time></trkpt><trkpt lat="46.0085914" lon="10.8514957"><ele>587.0</ele><time>2026-04-24T09:49:27.074Z</time></trkpt><trkpt lat="46.0084762" lon="10.8513868"><ele>589.0</ele><time>2026-04-24T09:49:28.124Z</time></trkpt><trkpt lat="46.0083499" lon="10.8512934"><ele>591.0</ele><time>2026-04-24T09:49:29.184Z</time></trkpt><trkpt lat="46.0081542" lon="10.8511414"><ele>593.0</ele><time>2026-04-24T09:49:31.177Z</time></trkpt><trkpt lat="46.0080538" lon="10.8508897"><ele>595.0</ele><time>2026-04-24T09:49:33.076Z</time></trkpt><trkpt lat="46.0080585" lon="10.8507173"><ele>595.8</ele><time>2026-04-24T09:49:34.077Z</time></trkpt><trkpt lat="46.0080801" lon="10.8505509"><ele>596.6</ele><time>2026-04-24T09:49:35.061Z</time></trkpt><trkpt lat="46.0081172" lon="10.8503882"><ele>597.4</ele><time>2026-04-24T09:49:36.086Z</time></trkpt><trkpt lat="46.0081533" lon="10.850245"><ele>598.2</ele><time>2026-04-24T09:49:37.078Z</time></trkpt><trkpt lat="46.008191" lon="10.8501129"><ele>599.0</ele><time>2026-04-24T09:49:38.105Z</time></trkpt><trkpt lat="46.0082152" lon="10.8499766"><ele>600.0</ele><time>2026-04-24T09:49:39.075Z</time></trkpt><trkpt lat="46.0082082" lon="10.8498296"><ele>601.0</ele><time>2026-04-24T09:49:40.067Z</time></trkpt><trkpt lat="46.0081614" lon="10.8496965"><ele>602.0</ele><time>2026-04-24T09:49:41.058Z</time></trkpt><trkpt lat="46.0080739" lon="10.8495867"><ele>603.0</ele><time>2026-04-24T09:49:42.036Z</time></trkpt><trkpt lat="46.007986" lon="10.8494667"><ele>604.0</ele><time>2026-04-24T09:49:43.06Z</time></trkpt><trkpt lat="46.0078829" lon="10.849355"><ele>606.25</ele><time>2026-04-24T09:49:44.086Z</time></trkpt><trkpt lat="46.0077553" lon="10.8492759"><ele>608.5</ele><time>2026-04-24T09:49:45.095Z</time></trkpt><trkpt lat="46.0076193" lon="10.8492488"><ele>610.75</ele><time>2026-04-24T09:49:46.12Z</time></trkpt><trkpt lat="46.0074832" lon="10.8492207"><ele>613.0</ele><time>2026-04-24T09:49:47.113Z</time></trkpt><trkpt lat="46.0073463" lon="10.8491645"><ele>613.25</ele><time>2026-04-24T09:49:48.07Z</time></trkpt><trkpt lat="46.0072065" lon="10.849096"><ele>613.5</ele><time>2026-04-24T09:49:49.073Z</time></trkpt><trkpt lat="46.0070686" lon="10.8490297"><ele>613.75</ele><time>2026-04-24T09:49:50.093Z</time></trkpt><trkpt lat="46.0069326" lon="10.8489586"><ele>614.0</ele><time>2026-04-24T09:49:51.098Z</time></trkpt><trkpt lat="46.0068037" lon="10.848895"><ele>614.0</ele><time>2026-04-24T09:49:52.058Z</time></trkpt><trkpt lat="46.0066621" lon="10.8488284"><ele>614.0</ele><time>2026-04-24T09:49:53.15Z</time></trkpt><trkpt lat="46.0065373" lon="10.8487676"><ele>614.0</ele><time>2026-04-24T09:49:54.097Z</time></trkpt><trkpt lat="46.0064035" lon="10.8487043"><ele>614.0</ele><time>2026-04-24T09:49:55.114Z</time></trkpt><trkpt lat="46.006278" lon="10.8486305"><ele>614.0</ele><time>2026-04-24T09:49:56.096Z</time></trkpt><trkpt lat="46.0061487" lon="10.8485517"><ele>614.0</ele><time>2026-04-24T09:49:57.116Z</time></trkpt><trkpt lat="46.0060172" lon="10.8484825"><ele>614.0</ele><time>2026-04-24T09:49:58.103Z</time></trkpt><trkpt lat="46.0058802" lon="10.8484171"><ele>614.0</ele><time>2026-04-24T09:49:59.127Z</time></trkpt><trkpt lat="46.0057316" lon="10.8483445"><ele>615.25</ele><time>2026-04-24T09:50:00.21Z</time></trkpt><trkpt lat="46.0056041" lon="10.8482863"><ele>616.5</ele><time>2026-04-24T09:50:01.14Z</time></trkpt><trkpt lat="46.0054754" lon="10.8482257"><ele>617.75</ele><time>2026-04-24T09:50:02.083Z</time></trkpt><trkpt lat="46.0053349" lon="10.8481554"><ele>619.0</ele><time>2026-04-24T09:50:03.117Z</time></trkpt><trkpt lat="46.0052022" lon="10.8480895"><ele>619.0</ele><time>2026-04-24T09:50:04.106Z</time></trkpt><trkpt lat="46.0050744" lon="10.8480183"><ele>619.0</ele><time>2026-04-24T09:50:05.045Z</time></trkpt><trkpt lat="46.0049377" lon="10.8479449"><ele>619.0</ele><time>2026-04-24T09:50:06.045Z</time></trkpt><trkpt lat="46.0047851" lon="10.8478666"><ele>619.0</ele><time>2026-04-24T09:50:07.123Z</time></trkpt><trkpt lat="46.0046266" lon="10.8477891"><ele>619.0</ele><time>2026-04-24T09:50:08.24Z</time></trkpt><trkpt lat="46.0043704" lon="10.8476548"><ele>619.0</ele><time>2026-04-24T09:50:10.091Z</time></trkpt><trkpt lat="46.0042338" lon="10.8475723"><ele>619.0</ele><time>2026-04-24T09:50:11.108Z</time></trkpt><trkpt lat="46.0041011" lon="10.8474951"><ele>622.3333333333334</ele><time>2026-04-24T09:50:12.08Z</time></trkpt><trkpt lat="46.00396" lon="10.8474132"><ele>625.6666666666666</ele><time>2026-04-24T09:50:13.102Z</time></trkpt><trkpt lat="46.0038224" lon="10.8473393"><ele>629.0</ele><time>2026-04-24T09:50:14.097Z</time></trkpt><trkpt lat="46.00368" lon="10.8472588"><ele>629.0</ele><time>2026-04-24T09:50:15.135Z</time></trkpt><trkpt lat="46.003546" lon="10.8471835"><ele>629.0</ele><time>2026-04-24T09:50:16.1Z</time></trkpt><trkpt lat="46.0034087" lon="10.8471063"><ele>629.0</ele><time>2026-04-24T09:50:17.077Z</time></trkpt><trkpt lat="46.0032688" lon="10.847027"><ele>629.0</ele><time>2026-04-24T09:50:18.076Z</time></trkpt><trkpt lat="46.003132" lon="10.8469517"><ele>629.5</ele><time>2026-04-24T09:50:19.114Z</time></trkpt><trkpt lat="46.0030106" lon="10.8468828"><ele>630.0</ele><time>2026-04-24T09:50:20.121Z</time></trkpt><trkpt lat="46.002903" lon="10.8468195"><ele>630.5</ele><time>2026-04-24T09:50:21.099Z</time></trkpt><trkpt lat="46.0027885" lon="10.8467534"><ele>631.0</ele><time>2026-04-24T09:50:22.189Z</time></trkpt><trkpt lat="46.0026176" lon="10.8466625"><ele>632.2</ele><time>2026-04-24T09:50:24.085Z</time></trkpt><trkpt lat="46.0025489" lon="10.8466106"><ele>633.4000000000001</ele><time>2026-04-24T09:50:25.107Z</time></trkpt><trkpt lat="46.0024806" lon="10.8465184"><ele>634.6</ele><time>2026-04-24T09:50:27.118Z</time></trkpt><trkpt lat="46.0024816" lon="10.8466245"><ele>635.8000000000001</ele><time>2026-04-24T09:50:34Z</time></trkpt><trkpt lat="46.0025753" lon="10.8466741"><ele>637.0</ele><time>2026-04-24T09:50:36.014Z</time></trkpt><trkpt lat="46.002682" lon="10.8467342"><ele>637.2</ele><time>2026-04-24T09:50:37.972Z</time></trkpt><trkpt lat="46.0027415" lon="10.8467697"><ele>637.4000000000001</ele><time>2026-04-24T09:50:38.96Z</time></trkpt><trkpt lat="46.0028498" lon="10.8468201"><ele>637.5999999999999</ele><time>2026-04-24T09:50:40.999Z</time></trkpt><trkpt lat="46.0029214" lon="10.846886"><ele>637.8</ele><time>2026-04-24T09:50:43.015Z</time></trkpt><trkpt lat="46.0029044" lon="10.8470004"><ele>638.0</ele><time>2026-04-24T09:50:44.974Z</time></trkpt><trkpt lat="46.0028121" lon="10.847135"><ele>636.6</ele><time>2026-04-24T09:50:47.106Z</time></trkpt><trkpt lat="46.0026868" lon="10.8472723"><ele>635.1999999999999</ele><time>2026-04-24T09:50:48.998Z</time></trkpt><trkpt lat="46.002615" lon="10.8473572"><ele>633.8</ele><time>2026-04-24T09:50:49.99Z</time></trkpt><trkpt lat="46.0025483" lon="10.8474391"><ele>632.4</ele><time>2026-04-24T09:50:50.981Z</time></trkpt><trkpt lat="46.0024826" lon="10.8475189"><ele>631.0</ele><time>2026-04-24T09:50:52.023Z</time></trkpt><trkpt lat="46.0024149" lon="10.847597"><ele>629.8333333333334</ele><time>2026-04-24T09:50:53.062Z</time></trkpt><trkpt lat="46.0023613" lon="10.8476629"><ele>628.6666666666667</ele><time>2026-04-24T09:50:53.995Z</time></trkpt><trkpt lat="46.0023161" lon="10.8477278"><ele>627.5</ele><time>2026-04-24T09:50:54.991Z</time></trkpt><trkpt lat="46.0022449" lon="10.8478267"><ele>626.3333333333334</ele><time>2026-04-24T09:50:56.993Z</time></trkpt><trkpt lat="46.0021644" lon="10.8478698"><ele>625.1666666666666</ele><time>2026-04-24T09:50:59.097Z</time></trkpt><trkpt lat="46.0020718" lon="10.8478595"><ele>624.0</ele><time>2026-04-24T09:51:01.004Z</time></trkpt><trkpt lat="46.0019986" lon="10.8478155"><ele>624.0</ele><time>2026-04-24T09:51:03.03Z</time></trkpt><trkpt lat="46.0019425" lon="10.8477556"><ele>624.0</ele><time>2026-04-24T09:51:04.981Z</time></trkpt><trkpt lat="46.0018667" lon="10.8477633"><ele>624.0</ele><time>2026-04-24T09:51:07.954Z</time></trkpt><trkpt lat="46.0018033" lon="10.8477738"><ele>624.0</ele><time>2026-04-24T09:51:09.982Z</time></trkpt><trkpt lat="46.0017995" lon="10.8476789"><ele>624.0</ele><time>2026-04-24T09:52:09.997Z</time></trkpt><trkpt lat="46.0018798" lon="10.8476866"><ele>624.0</ele><time>2026-04-24T09:52:11.952Z</time></trkpt><trkpt lat="46.0019794" lon="10.8477683"><ele>624.0</ele><time>2026-04-24T09:52:13.953Z</time></trkpt><trkpt lat="46.0020706" lon="10.8478426"><ele>624.0</ele><time>2026-04-24T09:52:15.952Z</time></trkpt><trkpt lat="46.0021774" lon="10.8478693"><ele>624.0</ele><time>2026-04-24T09:52:17.998Z</time></trkpt><trkpt lat="46.002289" lon="10.8477807"><ele>624.0</ele><time>2026-04-24T09:52:19.998Z</time></trkpt><trkpt lat="46.0023444" lon="10.8476966"><ele>624.0</ele><time>2026-04-24T09:52:20.97Z</time></trkpt><trkpt lat="46.0024077" lon="10.8476062"><ele>625.2</ele><time>2026-04-24T09:52:21.99Z</time></trkpt><trkpt lat="46.0024805" lon="10.8475135"><ele>626.4</ele><time>2026-04-24T09:52:22.967Z</time></trkpt><trkpt lat="46.0025654" lon="10.8474097"><ele>627.6</ele><time>2026-04-24T09:52:24.002Z</time></trkpt><trkpt lat="46.0026498" lon="10.8473107"><ele>628.8</ele><time>2026-04-24T09:52:24.986Z</time></trkpt><trkpt lat="46.0027321" lon="10.8472107"><ele>630.0</ele><time>2026-04-24T09:52:25.979Z</time></trkpt><trkpt lat="46.00282" lon="10.8471009"><ele>630.2</ele><time>2026-04-24T09:52:27.063Z</time></trkpt><trkpt lat="46.0028842" lon="10.8469989"><ele>630.4</ele><time>2026-04-24T09:52:27.98Z</time></trkpt><trkpt lat="46.0029248" lon="10.8469084"><ele>630.6</ele><time>2026-04-24T09:52:30.03Z</time></trkpt><trkpt lat="46.0030345" lon="10.8469473"><ele>630.8</ele><time>2026-04-24T09:52:36.004Z</time></trkpt><trkpt lat="46.0031053" lon="10.8469889"><ele>631.0</ele><time>2026-04-24T09:52:37.092Z</time></trkpt><trkpt lat="46.0032455" lon="10.8470637"><ele>630.5</ele><time>2026-04-24T09:52:38.973Z</time></trkpt><trkpt lat="46.0033348" lon="10.8471192"><ele>630.0</ele><time>2026-04-24T09:52:39.98Z</time></trkpt><trkpt lat="46.0034319" lon="10.8471795"><ele>629.5</ele><time>2026-04-24T09:52:40.991Z</time></trkpt><trkpt lat="46.00354" lon="10.8472338"><ele>629.0</ele><time>2026-04-24T09:52:41.958Z</time></trkpt><trkpt lat="46.0036662" lon="10.8473017"><ele>629.0</ele><time>2026-04-24T09:52:43.013Z</time></trkpt><trkpt lat="46.003789" lon="10.8473823"><ele>629.0</ele><time>2026-04-24T09:52:43.983Z</time></trkpt><trkpt lat="46.0039232" lon="10.8474679"><ele>629.0</ele><time>2026-04-24T09:52:44.974Z</time></trkpt><trkpt lat="46.0040841" lon="10.8475712"><ele>626.5</ele><time>2026-04-24T09:52:46.092Z</time></trkpt><trkpt lat="46.0042218" lon="10.8476379"><ele>624.0</ele><time>2026-04-24T09:52:47.038Z</time></trkpt><trkpt lat="46.0043535" lon="10.847706"><ele>621.5</ele><time>2026-04-24T09:52:48.01Z</time></trkpt><trkpt lat="46.0045" lon="10.8477788"><ele>619.0</ele><time>2026-04-24T09:52:49.086Z</time></trkpt><trkpt lat="46.0046245" lon="10.8478382"><ele>619.0</ele><time>2026-04-24T09:52:50.032Z</time></trkpt><trkpt lat="46.0047483" lon="10.8478998"><ele>619.0</ele><time>2026-04-24T09:52:51.004Z</time></trkpt><trkpt lat="46.0048689" lon="10.8479692"><ele>619.0</ele><time>2026-04-24T09:52:52.001Z</time></trkpt><trkpt lat="46.0049907" lon="10.8480368"><ele>619.0</ele><time>2026-04-24T09:52:53.034Z</time></trkpt><trkpt lat="46.0051044" lon="10.8480872"><ele>619.0</ele><time>2026-04-24T09:52:53.997Z</time></trkpt><trkpt lat="46.0052174" lon="10.8481368"><ele>619.0</ele><time>2026-04-24T09:52:54.986Z</time></trkpt><trkpt lat="46.0053285" lon="10.8481906"><ele>619.0</ele><time>2026-04-24T09:52:55.998Z</time></trkpt><trkpt lat="46.00543" lon="10.8482446"><ele>619.0</ele><time>2026-04-24T09:52:56.993Z</time></trkpt><trkpt lat="46.0055258" lon="10.8482911"><ele>619.0</ele><time>2026-04-24T09:52:58.046Z</time></trkpt><trkpt lat="46.0056012" lon="10.8483255"><ele>619.0</ele><time>2026-04-24T09:52:58.992Z</time></trkpt><trkpt lat="46.0056806" lon="10.8483416"><ele>619.0</ele><time>2026-04-24T09:53:00.024Z</time></trkpt><trkpt lat="46.0057551" lon="10.8483382"><ele>619.0</ele><time>2026-04-24T09:53:00.967Z</time></trkpt><trkpt lat="46.0058349" lon="10.8483376"><ele>619.0</ele><time>2026-04-24T09:53:02.012Z</time></trkpt><trkpt lat="46.0059309" lon="10.8483254"><ele>619.0</ele><time>2026-04-24T09:53:03.963Z</time></trkpt><trkpt lat="46.0059336" lon="10.8481551"><ele>619.0</ele><time>2026-04-24T09:53:07.002Z</time></trkpt><trkpt lat="46.005918" lon="10.8480332"><ele>619.0</ele><time>2026-04-24T09:53:08.002Z</time></trkpt><trkpt lat="46.0059149" lon="10.8479231"><ele>619.0</ele><time>2026-04-24T09:53:08.965Z</time></trkpt><trkpt lat="46.0059329" lon="10.8477927"><ele>619.0</ele><time>2026-04-24T09:53:09.989Z</time></trkpt><trkpt lat="46.0059428" lon="10.847666"><ele>619.0</ele><time>2026-04-24T09:53:10.981Z</time></trkpt><trkpt lat="46.0059494" lon="10.8475367"><ele>619.0</ele><time>2026-04-24T09:53:11.962Z</time></trkpt><trkpt lat="46.0059647" lon="10.847407"><ele>619.0</ele><time>2026-04-24T09:53:13.007Z</time></trkpt><trkpt lat="46.0059749" lon="10.847276"><ele>620.2</ele><time>2026-04-24T09:53:14.05Z</time></trkpt><trkpt lat="46.0059757" lon="10.8471599"><ele>621.4</ele><time>2026-04-24T09:53:14.959Z</time></trkpt><trkpt lat="46.0059703" lon="10.8470358"><ele>622.6</ele><time>2026-04-24T09:53:15.972Z</time></trkpt><trkpt lat="46.005963" lon="10.8469103"><ele>623.8</ele><time>2026-04-24T09:53:16.982Z</time></trkpt><trkpt lat="46.0059501" lon="10.8467576"><ele>625.0</ele><time>2026-04-24T09:53:18.234Z</time></trkpt><trkpt lat="46.0059303" lon="10.8465456"><ele>626.3333333333334</ele><time>2026-04-24T09:53:20Z</time></trkpt><trkpt lat="46.0059202" lon="10.8464264"><ele>627.6666666666667</ele><time>2026-04-24T09:53:20.991Z</time></trkpt><trkpt lat="46.005912" lon="10.8463067"><ele>629.0</ele><time>2026-04-24T09:53:21.986Z</time></trkpt><trkpt lat="46.0059072" lon="10.8461918"><ele>630.3333333333334</ele><time>2026-04-24T09:53:22.964Z</time></trkpt><trkpt lat="46.0059078" lon="10.8460633"><ele>631.6666666666666</ele><time>2026-04-24T09:53:23.991Z</time></trkpt><trkpt lat="46.0059167" lon="10.8459421"><ele>633.0</ele><time>2026-04-24T09:53:24.964Z</time></trkpt><trkpt lat="46.0059306" lon="10.8458163"><ele>634.8</ele><time>2026-04-24T09:53:25.986Z</time></trkpt><trkpt lat="46.0059487" lon="10.8456785"><ele>636.5999999999999</ele><time>2026-04-24T09:53:27.036Z</time></trkpt><trkpt lat="46.0059709" lon="10.8455539"><ele>638.4000000000001</ele><time>2026-04-24T09:53:27.991Z</time></trkpt><trkpt lat="46.0059921" lon="10.8454108"><ele>640.2</ele><time>2026-04-24T09:53:29.001Z</time></trkpt><trkpt lat="46.0060169" lon="10.8452632"><ele>642.0</ele><time>2026-04-24T09:53:30.04Z</time></trkpt><trkpt lat="46.0060403" lon="10.8451243"><ele>643.6</ele><time>2026-04-24T09:53:30.997Z</time></trkpt><trkpt lat="46.006063" lon="10.8449762"><ele>645.2</ele><time>2026-04-24T09:53:32Z</time></trkpt><trkpt lat="46.0060846" lon="10.8448347"><ele>646.8</ele><time>2026-04-24T09:53:32.969Z</time></trkpt><trkpt lat="46.0061008" lon="10.8446868"><ele>648.4</ele><time>2026-04-24T09:53:33.987Z</time></trkpt><trkpt lat="46.0061137" lon="10.8445431"><ele>650.0</ele><time>2026-04-24T09:53:34.986Z</time></trkpt><trkpt lat="46.0061246" lon="10.8444064"><ele>651.1666666666666</ele><time>2026-04-24T09:53:35.99Z</time></trkpt><trkpt lat="46.0061366" lon="10.8442787"><ele>652.3333333333333</ele><time>2026-04-24T09:53:37.01Z</time></trkpt><trkpt lat="46.0061521" lon="10.8441591"><ele>653.5</ele><time>2026-04-24T09:53:38.005Z</time></trkpt><trkpt lat="46.0061599" lon="10.8440606"><ele>654.6666666666666</ele><time>2026-04-24T09:53:38.991Z</time></trkpt><trkpt lat="46.0061655" lon="10.8439642"><ele>655.8333333333334</ele><time>2026-04-24T09:53:39.99Z</time></trkpt><trkpt lat="46.0061746" lon="10.8437639"><ele>657.0</ele><time>2026-04-24T09:53:42.011Z</time></trkpt><trkpt lat="46.0061865" lon="10.8436657"><ele>657.0</ele><time>2026-04-24T09:53:42.965Z</time></trkpt><trkpt lat="46.0061974" lon="10.8435632"><ele>657.0</ele><time>2026-04-24T09:53:44.107Z</time></trkpt><trkpt lat="46.0062212" lon="10.8434277"><ele>657.0</ele><time>2026-04-24T09:53:45.983Z</time></trkpt><trkpt lat="46.0061916" lon="10.8433322"><ele>657.0</ele><time>2026-04-24T09:53:47.98Z</time></trkpt><trkpt lat="46.0061124" lon="10.8432565"><ele>657.0</ele><time>2026-04-24T09:53:49.05Z</time></trkpt><trkpt lat="46.0060463" lon="10.8431856"><ele>657.0</ele><time>2026-04-24T09:53:49.967Z</time></trkpt><trkpt lat="46.0059616" lon="10.8431176"><ele>658.6</ele><time>2026-04-24T09:53:51.124Z</time></trkpt><trkpt lat="46.0058267" lon="10.8430289"><ele>660.2</ele><time>2026-04-24T09:53:52.967Z</time></trkpt><trkpt lat="46.0057497" lon="10.8429791"><ele>661.8</ele><time>2026-04-24T09:53:53.97Z</time></trkpt><trkpt lat="46.0056683" lon="10.8429371"><ele>663.4</ele><time>2026-04-24T09:53:54.971Z</time></trkpt><trkpt lat="46.0055801" lon="10.8428817"><ele>665.0</ele><time>2026-04-24T09:53:56.011Z</time></trkpt><trkpt lat="46.0054899" lon="10.8428316"><ele>665.0</ele><time>2026-04-24T09:53:56.985Z</time></trkpt><trkpt lat="46.0053781" lon="10.842771"><ele>665.0</ele><time>2026-04-24T09:53:58.13Z</time></trkpt><trkpt lat="46.0052123" lon="10.8426698"><ele>665.0</ele><time>2026-04-24T09:53:59.956Z</time></trkpt><trkpt lat="46.0051204" lon="10.8425911"><ele>665.0</ele><time>2026-04-24T09:54:00.976Z</time></trkpt><trkpt lat="46.005034" lon="10.8425166"><ele>665.8</ele><time>2026-04-24T09:54:01.983Z</time></trkpt><trkpt lat="46.0049542" lon="10.8424505"><ele>666.6</ele><time>2026-04-24T09:54:03.002Z</time></trkpt><trkpt lat="46.0048823" lon="10.8424063"><ele>667.4000000000001</ele><time>2026-04-24T09:54:03.95Z</time></trkpt><trkpt lat="46.0048122" lon="10.8423607"><ele>668.2</ele><time>2026-04-24T09:54:04.937Z</time></trkpt><trkpt lat="46.0047099" lon="10.8422883"><ele>669.0</ele><time>2026-04-24T09:54:07Z</time></trkpt><trkpt lat="46.0047037" lon="10.8421425"><ele>669.0</ele><time>2026-04-24T09:54:10.085Z</time></trkpt><trkpt lat="46.0047758" lon="10.8420102"><ele>669.0</ele><time>2026-04-24T09:54:11.978Z</time></trkpt><trkpt lat="46.0048182" lon="10.8419082"><ele>669.0</ele><time>2026-04-24T09:54:12.98Z</time></trkpt><trkpt lat="46.0048509" lon="10.8417932"><ele>669.0</ele><time>2026-04-24T09:54:13.941Z</time></trkpt><trkpt lat="46.0048804" lon="10.8416596"><ele>669.0</ele><time>2026-04-24T09:54:14.962Z</time></trkpt><trkpt lat="46.0048944" lon="10.8414997"><ele>669.25</ele><time>2026-04-24T09:54:15.982Z</time></trkpt><trkpt lat="46.0049202" lon="10.8413571"><ele>669.5</ele><time>2026-04-24T09:54:16.976Z</time></trkpt><trkpt lat="46.0049241" lon="10.8411884"><ele>669.75</ele><time>2026-04-24T09:54:17.967Z</time></trkpt><trkpt lat="46.0049106" lon="10.8410155"><ele>670.0</ele><time>2026-04-24T09:54:18.952Z</time></trkpt><trkpt lat="46.0048903" lon="10.840799"><ele>669.0</ele><time>2026-04-24T09:54:20.141Z</time></trkpt><trkpt lat="46.0048698" lon="10.8406391"><ele>668.0</ele><time>2026-04-24T09:54:21.047Z</time></trkpt><trkpt lat="46.0048488" lon="10.8404789"><ele>667.0</ele><time>2026-04-24T09:54:21.97Z</time></trkpt><trkpt lat="46.0048259" lon="10.8403055"><ele>666.0</ele><time>2026-04-24T09:54:22.969Z</time></trkpt><trkpt lat="46.0047988" lon="10.8401382"><ele>667.0</ele><time>2026-04-24T09:54:23.979Z</time></trkpt><trkpt lat="46.0047614" lon="10.8399906"><ele>668.0</ele><time>2026-04-24T09:54:24.939Z</time></trkpt><trkpt lat="46.0047162" lon="10.839814"><ele>669.0</ele><time>2026-04-24T09:54:26.012Z</time></trkpt><trkpt lat="46.0046873" lon="10.8396437"><ele>670.0</ele><time>2026-04-24T09:54:26.97Z</time></trkpt><trkpt lat="46.0046657" lon="10.8394742"><ele>670.75</ele><time>2026-04-24T09:54:27.959Z</time></trkpt><trkpt lat="46.0046464" lon="10.8392897"><ele>671.5</ele><time>2026-04-24T09:54:28.979Z</time></trkpt><trkpt lat="46.0046358" lon="10.8390983"><ele>672.25</ele><time>2026-04-24T09:54:29.998Z</time></trkpt><trkpt lat="46.0046327" lon="10.83891"><ele>673.0</ele><time>2026-04-24T09:54:30.966Z</time></trkpt><trkpt lat="46.0046363" lon="10.8386981"><ele>673.0</ele><time>2026-04-24T09:54:32.014Z</time></trkpt><trkpt lat="46.0046422" lon="10.8384962"><ele>673.0</ele><time>2026-04-24T09:54:32.985Z</time></trkpt><trkpt lat="46.004649" lon="10.8382812"><ele>673.0</ele><time>2026-04-24T09:54:34.007Z</time></trkpt><trkpt lat="46.0046568" lon="10.838076"><ele>673.0</ele><time>2026-04-24T09:54:34.979Z</time></trkpt><trkpt lat="46.004666" lon="10.8378675"><ele>674.0</ele><time>2026-04-24T09:54:35.967Z</time></trkpt><trkpt lat="46.0046761" lon="10.8376463"><ele>675.0</ele><time>2026-04-24T09:54:36.986Z</time></trkpt><trkpt lat="46.0046832" lon="10.8374178"><ele>676.0</ele><time>2026-04-24T09:54:38.016Z</time></trkpt><trkpt lat="46.0046931" lon="10.837216"><ele>676.3333333333334</ele><time>2026-04-24T09:54:38.939Z</time></trkpt><trkpt lat="46.0047044" lon="10.8369816"><ele>676.6666666666666</ele><time>2026-04-24T09:54:39.999Z</time></trkpt><trkpt lat="46.0047114" lon="10.8367688"><ele>677.0</ele><time>2026-04-24T09:54:40.965Z</time></trkpt><trkpt lat="46.0047196" lon="10.8365451"><ele>677.0</ele><time>2026-04-24T09:54:41.976Z</time></trkpt><trkpt lat="46.0047272" lon="10.8363229"><ele>677.0</ele><time>2026-04-24T09:54:42.975Z</time></trkpt><trkpt lat="46.0047324" lon="10.836096"><ele>677.0</ele><time>2026-04-24T09:54:43.992Z</time></trkpt><trkpt lat="46.0047409" lon="10.8358621"><ele>676.0</ele><time>2026-04-24T09:54:45.042Z</time></trkpt><trkpt lat="46.0047485" lon="10.8356494"><ele>675.0</ele><time>2026-04-24T09:54:45.99Z</time></trkpt><trkpt lat="46.0047609" lon="10.8354219"><ele>674.0</ele><time>2026-04-24T09:54:47.003Z</time></trkpt><trkpt lat="46.0047801" lon="10.8351958"><ele>673.6666666666666</ele><time>2026-04-24T09:54:47.999Z</time></trkpt><trkpt lat="46.0048051" lon="10.8349694"><ele>673.3333333333334</ele><time>2026-04-24T09:54:48.995Z</time></trkpt><trkpt lat="46.0048367" lon="10.8347367"><ele>673.0</ele><time>2026-04-24T09:54:50.009Z</time></trkpt><trkpt lat="46.0048708" lon="10.834512"><ele>671.3333333333334</ele><time>2026-04-24T09:54:50.984Z</time></trkpt><trkpt lat="46.0049102" lon="10.8342734"><ele>669.6666666666666</ele><time>2026-04-24T09:54:52.015Z</time></trkpt><trkpt lat="46.0049546" lon="10.8340406"><ele>668.0</ele><time>2026-04-24T09:54:53.039Z</time></trkpt><trkpt lat="46.0050044" lon="10.8338247"><ele>667.6666666666666</ele><time>2026-04-24T09:54:54.028Z</time></trkpt><trkpt lat="46.0050589" lon="10.8336218"><ele>667.3333333333334</ele><time>2026-04-24T09:54:54.983Z</time></trkpt><trkpt lat="46.0051142" lon="10.8334079"><ele>667.0</ele><time>2026-04-24T09:54:55.993Z</time></trkpt><trkpt lat="46.0051703" lon="10.8331934"><ele>666.3333333333334</ele><time>2026-04-24T09:54:56.997Z</time></trkpt><trkpt lat="46.0052355" lon="10.8329787"><ele>665.6666666666666</ele><time>2026-04-24T09:54:58.017Z</time></trkpt><trkpt lat="46.0053028" lon="10.8327816"><ele>665.0</ele><time>2026-04-24T09:54:59.007Z</time></trkpt><trkpt lat="46.0053739" lon="10.8325901"><ele>664.75</ele><time>2026-04-24T09:55:00.018Z</time></trkpt><trkpt lat="46.0054423" lon="10.8324123"><ele>664.5</ele><time>2026-04-24T09:55:01.014Z</time></trkpt><trkpt lat="46.0055023" lon="10.8322432"><ele>664.25</ele><time>2026-04-24T09:55:01.984Z</time></trkpt><trkpt lat="46.005548" lon="10.8320566"><ele>664.0</ele><time>2026-04-24T09:55:03.035Z</time></trkpt><trkpt lat="46.0055792" lon="10.8318769"><ele>663.5</ele><time>2026-04-24T09:55:04.015Z</time></trkpt><trkpt lat="46.0055976" lon="10.8316902"><ele>663.0</ele><time>2026-04-24T09:55:05.01Z</time></trkpt><trkpt lat="46.0056031" lon="10.831504"><ele>662.5</ele><time>2026-04-24T09:55:05.988Z</time></trkpt><trkpt lat="46.0055969" lon="10.8313149"><ele>662.0</ele><time>2026-04-24T09:55:06.952Z</time></trkpt><trkpt lat="46.0055766" lon="10.8311102"><ele>661.75</ele><time>2026-04-24T09:55:07.982Z</time></trkpt><trkpt lat="46.0055459" lon="10.8309122"><ele>661.5</ele><time>2026-04-24T09:55:08.968Z</time></trkpt><trkpt lat="46.0055104" lon="10.8306928"><ele>661.25</ele><time>2026-04-24T09:55:10.038Z</time></trkpt><trkpt lat="46.005484" lon="10.8304933"><ele>661.0</ele><time>2026-04-24T09:55:10.981Z</time></trkpt><trkpt lat="46.0054545" lon="10.8302808"><ele>662.0</ele><time>2026-04-24T09:55:11.984Z</time></trkpt><trkpt lat="46.0054156" lon="10.8300627"><ele>663.0</ele><time>2026-04-24T09:55:12.996Z</time></trkpt><trkpt lat="46.0053638" lon="10.8298098"><ele>664.0</ele><time>2026-04-24T09:55:14.181Z</time></trkpt><trkpt lat="46.0052786" lon="10.8294183"><ele>664.0</ele><time>2026-04-24T09:55:15.977Z</time></trkpt><trkpt lat="46.0052321" lon="10.8291901"><ele>664.0</ele><time>2026-04-24T09:55:16.977Z</time></trkpt><trkpt lat="46.0051886" lon="10.8289553"><ele>664.0</ele><time>2026-04-24T09:55:17.982Z</time></trkpt><trkpt lat="46.0051593" lon="10.8287318"><ele>664.0</ele><time>2026-04-24T09:55:18.982Z</time></trkpt><trkpt lat="46.0051423" lon="10.8285299"><ele>664.0</ele><time>2026-04-24T09:55:19.963Z</time></trkpt><trkpt lat="46.0051189" lon="10.8283227"><ele>664.0</ele><time>2026-04-24T09:55:21.066Z</time></trkpt><trkpt lat="46.0050965" lon="10.8281712"><ele>664.0</ele><time>2026-04-24T09:55:21.972Z</time></trkpt><trkpt lat="46.0050702" lon="10.8280126"><ele>664.2</ele><time>2026-04-24T09:55:23.006Z</time></trkpt><trkpt lat="46.0050482" lon="10.8278682"><ele>664.4000000000001</ele><time>2026-04-24T09:55:23.97Z</time></trkpt><trkpt lat="46.005029" lon="10.8277253"><ele>664.6</ele><time>2026-04-24T09:55:25.004Z</time></trkpt><trkpt lat="46.0050128" lon="10.8275979"><ele>664.8</ele><time>2026-04-24T09:55:25.968Z</time></trkpt><trkpt lat="46.0049968" lon="10.8274626"><ele>665.0</ele><time>2026-04-24T09:55:26.981Z</time></trkpt><trkpt lat="46.0049751" lon="10.827324"><ele>665.8</ele><time>2026-04-24T09:55:27.996Z</time></trkpt><trkpt lat="46.0049559" lon="10.8271858"><ele>666.6</ele><time>2026-04-24T09:55:28.972Z</time></trkpt><trkpt lat="46.0049298" lon="10.8270438"><ele>667.4000000000001</ele><time>2026-04-24T09:55:29.992Z</time></trkpt><trkpt lat="46.004869" lon="10.8269088"><ele>668.2</ele><time>2026-04-24T09:55:31.027Z</time></trkpt><trkpt lat="46.0047763" lon="10.826795"><ele>669.0</ele><time>2026-04-24T09:55:31.968Z</time></trkpt><trkpt lat="46.0046691" lon="10.8267159"><ele>669.5</ele><time>2026-04-24T09:55:32.985Z</time></trkpt><trkpt lat="46.0045537" lon="10.8266481"><ele>670.0</ele><time>2026-04-24T09:55:33.965Z</time></trkpt><trkpt lat="46.0044297" lon="10.8265305"><ele>670.5</ele><time>2026-04-24T09:55:35.063Z</time></trkpt><trkpt lat="46.0043348" lon="10.8264168"><ele>671.0</ele><time>2026-04-24T09:55:35.982Z</time></trkpt><trkpt lat="46.004254" lon="10.8262853"><ele>671.0</ele><time>2026-04-24T09:55:36.989Z</time></trkpt><trkpt lat="46.0041919" lon="10.8261335"><ele>671.0</ele><time>2026-04-24T09:55:37.996Z</time></trkpt><trkpt lat="46.0041658" lon="10.825968"><ele>671.0</ele><time>2026-04-24T09:55:38.992Z</time></trkpt><trkpt lat="46.0041662" lon="10.8257862"><ele>671.0</ele><time>2026-04-24T09:55:40.005Z</time></trkpt><trkpt lat="46.0041917" lon="10.8255986"><ele>671.5</ele><time>2026-04-24T09:55:41.007Z</time></trkpt><trkpt lat="46.0042318" lon="10.8254056"><ele>672.0</ele><time>2026-04-24T09:55:42.059Z</time></trkpt><trkpt lat="46.0042642" lon="10.8252249"><ele>672.5</ele><time>2026-04-24T09:55:43.013Z</time></trkpt><trkpt lat="46.0042871" lon="10.8250385"><ele>673.0</ele><time>2026-04-24T09:55:44.009Z</time></trkpt><trkpt lat="46.0043034" lon="10.8248562"><ele>673.4</ele><time>2026-04-24T09:55:44.988Z</time></trkpt><trkpt lat="46.0043156" lon="10.8246787"><ele>673.8</ele><time>2026-04-24T09:55:45.978Z</time></trkpt><trkpt lat="46.00433" lon="10.8245245"><ele>674.2</ele><time>2026-04-24T09:55:46.969Z</time></trkpt><trkpt lat="46.0043436" lon="10.8243792"><ele>674.6</ele><time>2026-04-24T09:55:48.004Z</time></trkpt><trkpt lat="46.0043552" lon="10.824273"><ele>675.0</ele><time>2026-04-24T09:55:48.971Z</time></trkpt><trkpt lat="46.0043454" lon="10.8241176"><ele>676.4</ele><time>2026-04-24T09:55:51.125Z</time></trkpt><trkpt lat="46.0042311" lon="10.8240647"><ele>677.8</ele><time>2026-04-24T09:55:52.993Z</time></trkpt><trkpt lat="46.0041479" lon="10.8240388"><ele>679.2</ele><time>2026-04-24T09:55:53.977Z</time></trkpt><trkpt lat="46.004059" lon="10.8240019"><ele>680.6</ele><time>2026-04-24T09:55:54.966Z</time></trkpt><trkpt lat="46.0039669" lon="10.8239607"><ele>682.0</ele><time>2026-04-24T09:55:55.984Z</time></trkpt><trkpt lat="46.0038833" lon="10.8239147"><ele>682.0</ele><time>2026-04-24T09:55:56.942Z</time></trkpt><trkpt lat="46.003786" lon="10.8238534"><ele>682.0</ele><time>2026-04-24T09:55:57.988Z</time></trkpt><trkpt lat="46.0036897" lon="10.8237889"><ele>682.0</ele><time>2026-04-24T09:55:58.983Z</time></trkpt><trkpt lat="46.003594" lon="10.8237204"><ele>682.0</ele><time>2026-04-24T09:55:59.972Z</time></trkpt><trkpt lat="46.0034949" lon="10.8236412"><ele>682.0</ele><time>2026-04-24T09:56:00.972Z</time></trkpt><trkpt lat="46.0033888" lon="10.8235752"><ele>681.0</ele><time>2026-04-24T09:56:01.962Z</time></trkpt><trkpt lat="46.0032711" lon="10.8235096"><ele>680.0</ele><time>2026-04-24T09:56:02.953Z</time></trkpt><trkpt lat="46.0031403" lon="10.8234518"><ele>679.0</ele><time>2026-04-24T09:56:04.018Z</time></trkpt><trkpt lat="46.0030226" lon="10.8234033"><ele>678.0</ele><time>2026-04-24T09:56:04.951Z</time></trkpt><trkpt lat="46.0028968" lon="10.8233461"><ele>682.0</ele><time>2026-04-24T09:56:05.975Z</time></trkpt><trkpt lat="46.0027673" lon="10.8232962"><ele>686.0</ele><time>2026-04-24T09:56:06.994Z</time></trkpt><trkpt lat="46.00265" lon="10.8232612"><ele>690.0</ele><time>2026-04-24T09:56:07.951Z</time></trkpt><trkpt lat="46.0025281" lon="10.823249"><ele>694.0</ele><time>2026-04-24T09:56:08.946Z</time></trkpt><trkpt lat="46.0023886" lon="10.8232379"><ele>696.5</ele><time>2026-04-24T09:56:10.056Z</time></trkpt><trkpt lat="46.002273" lon="10.8232342"><ele>699.0</ele><time>2026-04-24T09:56:10.985Z</time></trkpt><trkpt lat="46.0021536" lon="10.8232357"><ele>701.5</ele><time>2026-04-24T09:56:11.969Z</time></trkpt><trkpt lat="46.002037" lon="10.8232441"><ele>704.0</ele><time>2026-04-24T09:56:12.963Z</time></trkpt><trkpt lat="46.0019184" lon="10.8232474"><ele>704.0</ele><time>2026-04-24T09:56:14.009Z</time></trkpt><trkpt lat="46.0018135" lon="10.8232497"><ele>704.0</ele><time>2026-04-24T09:56:14.949Z</time></trkpt><trkpt lat="46.001689" lon="10.8232517"><ele>704.0</ele><time>2026-04-24T09:56:16.038Z</time></trkpt><trkpt lat="46.001492" lon="10.8232878"><ele>704.0</ele><time>2026-04-24T09:56:17.989Z</time></trkpt><trkpt lat="46.0014082" lon="10.8233107"><ele>704.8333333333333</ele><time>2026-04-24T09:56:18.937Z</time></trkpt><trkpt lat="46.0013202" lon="10.8233217"><ele>705.6666666666666</ele><time>2026-04-24T09:56:19.961Z</time></trkpt><trkpt lat="46.0012334" lon="10.8233183"><ele>706.5</ele><time>2026-04-24T09:56:20.976Z</time></trkpt><trkpt lat="46.0011548" lon="10.823321"><ele>707.3333333333334</ele><time>2026-04-24T09:56:21.954Z</time></trkpt><trkpt lat="46.001075" lon="10.8233304"><ele>708.1666666666667</ele><time>2026-04-24T09:56:22.941Z</time></trkpt><trkpt lat="46.0009913" lon="10.823352"><ele>709.0</ele><time>2026-04-24T09:56:23.95Z</time></trkpt><trkpt lat="46.0008994" lon="10.8233712"><ele>708.4000000000001</ele><time>2026-04-24T09:56:24.967Z</time></trkpt><trkpt lat="46.0008097" lon="10.8233892"><ele>707.8</ele><time>2026-04-24T09:56:25.975Z</time></trkpt><trkpt lat="46.0007103" lon="10.8233917"><ele>707.2</ele><time>2026-04-24T09:56:27Z</time></trkpt><trkpt lat="46.0006199" lon="10.8233937"><ele>706.5999999999999</ele><time>2026-04-24T09:56:27.956Z</time></trkpt><trkpt lat="46.0005061" lon="10.8233774"><ele>706.0</ele><time>2026-04-24T09:56:28.968Z</time></trkpt><trkpt lat="46.0003858" lon="10.8233625"><ele>706.0</ele><time>2026-04-24T09:56:30.086Z</time></trkpt><trkpt lat="46.0001902" lon="10.8233598"><ele>706.0</ele><time>2026-04-24T09:56:31.995Z</time></trkpt><trkpt lat="46.0000916" lon="10.8233612"><ele>706.0</ele><time>2026-04-24T09:56:33.003Z</time></trkpt><trkpt lat="45.9999895" lon="10.8233905"><ele>706.0</ele><time>2026-04-24T09:56:33.976Z</time></trkpt><trkpt lat="45.9998821" lon="10.8234211"><ele>706.0</ele><time>2026-04-24T09:56:34.954Z</time></trkpt><trkpt lat="45.9997761" lon="10.82344"><ele>706.0</ele><time>2026-04-24T09:56:35.964Z</time></trkpt><trkpt lat="45.9996823" lon="10.8234571"><ele>706.0</ele><time>2026-04-24T09:56:36.962Z</time></trkpt><trkpt lat="45.9995725" lon="10.8234743"><ele>706.0</ele><time>2026-04-24T09:56:38.084Z</time></trkpt><trkpt lat="45.9994357" lon="10.8234699"><ele>706.0</ele><time>2026-04-24T09:56:39.962Z</time></trkpt><trkpt lat="45.9993576" lon="10.8234859"><ele>706.8</ele><time>2026-04-24T09:56:40.974Z</time></trkpt><trkpt lat="45.9992657" lon="10.8234927"><ele>707.5999999999999</ele><time>2026-04-24T09:56:41.972Z</time></trkpt><trkpt lat="45.9991793" lon="10.8234808"><ele>708.4</ele><time>2026-04-24T09:56:42.974Z</time></trkpt><trkpt lat="45.9990899" lon="10.8234662"><ele>709.2</ele><time>2026-04-24T09:56:43.963Z</time></trkpt><trkpt lat="45.9990022" lon="10.8234503"><ele>710.0</ele><time>2026-04-24T09:56:44.963Z</time></trkpt><trkpt lat="45.998906" lon="10.8234389"><ele>710.0</ele><time>2026-04-24T09:56:46.017Z</time></trkpt><trkpt lat="45.9988215" lon="10.8234288"><ele>710.0</ele><time>2026-04-24T09:56:46.96Z</time></trkpt><trkpt lat="45.9987333" lon="10.8234213"><ele>710.0</ele><time>2026-04-24T09:56:47.971Z</time></trkpt><trkpt lat="45.9986439" lon="10.823419"><ele>710.0</ele><time>2026-04-24T09:56:48.981Z</time></trkpt><trkpt lat="45.998555" lon="10.8234097"><ele>710.0</ele><time>2026-04-24T09:56:50.001Z</time></trkpt><trkpt lat="45.9984682" lon="10.8234098"><ele>710.0</ele><time>2026-04-24T09:56:51.042Z</time></trkpt><trkpt lat="45.9983918" lon="10.8234247"><ele>712.8</ele><time>2026-04-24T09:56:51.958Z</time></trkpt><trkpt lat="45.9983029" lon="10.8234535"><ele>715.6</ele><time>2026-04-24T09:56:52.981Z</time></trkpt><trkpt lat="45.998226" lon="10.8234642"><ele>718.4000000000001</ele><time>2026-04-24T09:56:53.942Z</time></trkpt><trkpt lat="45.998129" lon="10.8234798"><ele>721.2</ele><time>2026-04-24T09:56:55.077Z</time></trkpt><trkpt lat="45.9979713" lon="10.823486"><ele>724.0</ele><time>2026-04-24T09:56:56.963Z</time></trkpt><trkpt lat="45.9978979" lon="10.8234708"><ele>724.0</ele><time>2026-04-24T09:56:57.947Z</time></trkpt><trkpt lat="45.9978131" lon="10.8234671"><ele>724.0</ele><time>2026-04-24T09:56:58.999Z</time></trkpt><trkpt lat="45.9977371" lon="10.8234692"><ele>724.0</ele><time>2026-04-24T09:56:59.933Z</time></trkpt><trkpt lat="45.9976597" lon="10.823471"><ele>724.0</ele><time>2026-04-24T09:57:00.947Z</time></trkpt><trkpt lat="45.997573" lon="10.823491"><ele>724.0</ele><time>2026-04-24T09:57:01.957Z</time></trkpt><trkpt lat="45.9974841" lon="10.8235147"><ele>724.0</ele><time>2026-04-24T09:57:02.975Z</time></trkpt><trkpt lat="45.9973978" lon="10.8235285"><ele>718.8000000000001</ele><time>2026-04-24T09:57:03.94Z</time></trkpt><trkpt lat="45.9973047" lon="10.8235514"><ele>713.6</ele><time>2026-04-24T09:57:04.96Z</time></trkpt><trkpt lat="45.9971919" lon="10.8235724"><ele>708.4</ele><time>2026-04-24T09:57:05.964Z</time></trkpt><trkpt lat="45.997104" lon="10.823583"><ele>703.2</ele><time>2026-04-24T09:57:06.951Z</time></trkpt><trkpt lat="45.9970108" lon="10.8235902"><ele>698.0</ele><time>2026-04-24T09:57:07.98Z</time></trkpt><trkpt lat="45.9969245" lon="10.8235887"><ele>698.0</ele><time>2026-04-24T09:57:08.961Z</time></trkpt><trkpt lat="45.9968354" lon="10.8235752"><ele>698.0</ele><time>2026-04-24T09:57:09.963Z</time></trkpt><trkpt lat="45.9967475" lon="10.8235748"><ele>698.0</ele><time>2026-04-24T09:57:10.946Z</time></trkpt><trkpt lat="45.9966579" lon="10.8235867"><ele>698.0</ele><time>2026-04-24T09:57:11.999Z</time></trkpt><trkpt lat="45.9965792" lon="10.823606"><ele>698.0</ele><time>2026-04-24T09:57:12.961Z</time></trkpt><trkpt lat="45.9965135" lon="10.8236266"><ele>698.0</ele><time>2026-04-24T09:57:13.967Z</time></trkpt><trkpt lat="45.9964447" lon="10.8236574"><ele>700.5</ele><time>2026-04-24T09:57:14.949Z</time></trkpt><trkpt lat="45.9963641" lon="10.8236925"><ele>703.0</ele><time>2026-04-24T09:57:15.966Z</time></trkpt><trkpt lat="45.9962901" lon="10.8237265"><ele>705.5</ele><time>2026-04-24T09:57:16.958Z</time></trkpt><trkpt lat="45.9962158" lon="10.8237443"><ele>708.0</ele><time>2026-04-24T09:57:17.998Z</time></trkpt><trkpt lat="45.9961456" lon="10.8237596"><ele>710.5</ele><time>2026-04-24T09:57:18.979Z</time></trkpt><trkpt lat="45.9960167" lon="10.8237656"><ele>713.0</ele><time>2026-04-24T09:57:20.964Z</time></trkpt><trkpt lat="45.9959562" lon="10.8237386"><ele>713.0</ele><time>2026-04-24T09:57:21.967Z</time></trkpt><trkpt lat="45.9958954" lon="10.823694"><ele>713.0</ele><time>2026-04-24T09:57:22.952Z</time></trkpt><trkpt lat="45.9958243" lon="10.8236467"><ele>713.0</ele><time>2026-04-24T09:57:23.978Z</time></trkpt><trkpt lat="45.9957467" lon="10.8236087"><ele>713.0</ele><time>2026-04-24T09:57:24.959Z</time></trkpt><trkpt lat="45.9956646" lon="10.8235774"><ele>713.0</ele><time>2026-04-24T09:57:25.974Z</time></trkpt><trkpt lat="45.9955797" lon="10.8235586"><ele>713.0</ele><time>2026-04-24T09:57:26.957Z</time></trkpt><trkpt lat="45.9954911" lon="10.8235415"><ele>712.8</ele><time>2026-04-24T09:57:27.967Z</time></trkpt><trkpt lat="45.9954018" lon="10.8235266"><ele>712.5999999999999</ele><time>2026-04-24T09:57:28.977Z</time></trkpt><trkpt lat="45.9953026" lon="10.8235003"><ele>712.4000000000001</ele><time>2026-04-24T09:57:29.976Z</time></trkpt><trkpt lat="45.9952011" lon="10.8234788"><ele>712.2</ele><time>2026-04-24T09:57:30.959Z</time></trkpt><trkpt lat="45.9951124" lon="10.8234569"><ele>712.0</ele><time>2026-04-24T09:57:31.954Z</time></trkpt><trkpt lat="45.9950092" lon="10.823434"><ele>719.4000000000001</ele><time>2026-04-24T09:57:33.092Z</time></trkpt><trkpt lat="45.9948394" lon="10.8234059"><ele>726.8000000000001</ele><time>2026-04-24T09:57:34.976Z</time></trkpt><trkpt lat="45.994744" lon="10.8234032"><ele>734.2</ele><time>2026-04-24T09:57:35.968Z</time></trkpt><trkpt lat="45.9946605" lon="10.8234039"><ele>741.6</ele><time>2026-04-24T09:57:36.973Z</time></trkpt><trkpt lat="45.9945731" lon="10.8234054"><ele>749.0</ele><time>2026-04-24T09:57:37.993Z</time></trkpt><trkpt lat="45.9944895" lon="10.8234143"><ele>749.0</ele><time>2026-04-24T09:57:38.969Z</time></trkpt><trkpt lat="45.9944118" lon="10.823427"><ele>749.0</ele><time>2026-04-24T09:57:39.978Z</time></trkpt><trkpt lat="45.9943448" lon="10.8234437"><ele>749.0</ele><time>2026-04-24T09:57:40.955Z</time></trkpt><trkpt lat="45.9942504" lon="10.8234646"><ele>749.0</ele><time>2026-04-24T09:57:42.947Z</time></trkpt><trkpt lat="45.9941454" lon="10.8234305"><ele>749.0</ele><time>2026-04-24T09:57:44.959Z</time></trkpt><trkpt lat="45.9940617" lon="10.8234004"><ele>749.0</ele><time>2026-04-24T09:57:45.99Z</time></trkpt><trkpt lat="45.9939791" lon="10.8233797"><ele>749.5</ele><time>2026-04-24T09:57:46.93Z</time></trkpt><trkpt lat="45.9938928" lon="10.8233714"><ele>750.0</ele><time>2026-04-24T09:57:47.956Z</time></trkpt><trkpt lat="45.9938169" lon="10.8233636"><ele>750.5</ele><time>2026-04-24T09:57:48.961Z</time></trkpt><trkpt lat="45.9937358" lon="10.823351"><ele>751.0</ele><time>2026-04-24T09:57:49.973Z</time></trkpt><trkpt lat="45.9936504" lon="10.8233324"><ele>751.5</ele><time>2026-04-24T09:57:50.978Z</time></trkpt><trkpt lat="45.9935592" lon="10.8233061"><ele>752.0</ele><time>2026-04-24T09:57:52.109Z</time></trkpt><trkpt lat="45.9934619" lon="10.8232321"><ele>752.0</ele><time>2026-04-24T09:57:53.927Z</time></trkpt><trkpt lat="45.9934006" lon="10.8231667"><ele>752.0</ele><time>2026-04-24T09:57:55.978Z</time></trkpt><trkpt lat="45.9933409" lon="10.8231044"><ele>752.0</ele><time>2026-04-24T09:57:58.949Z</time></trkpt><trkpt lat="45.9932866" lon="10.8229979"><ele>752.0</ele><time>2026-04-24T09:58:00.975Z</time></trkpt><trkpt lat="45.993247" lon="10.8229199"><ele>752.0</ele><time>2026-04-24T09:58:02.008Z</time></trkpt><trkpt lat="45.9931677" lon="10.8227818"><ele>752.0</ele><time>2026-04-24T09:58:03.937Z</time></trkpt><trkpt lat="45.9931051" lon="10.8226896"><ele>755.8</ele><time>2026-04-24T09:58:05.959Z</time></trkpt><trkpt lat="45.9929849" lon="10.8225765"><ele>759.6</ele><time>2026-04-24T09:58:07.983Z</time></trkpt><trkpt lat="45.992911" lon="10.8225372"><ele>763.4</ele><time>2026-04-24T09:58:08.934Z</time></trkpt><trkpt lat="45.9928179" lon="10.8225284"><ele>767.1999999999999</ele><time>2026-04-24T09:58:09.936Z</time></trkpt><trkpt lat="45.9927192" lon="10.8225375"><ele>771.0</ele><time>2026-04-24T09:58:10.979Z</time></trkpt><trkpt lat="45.992634" lon="10.8225469"><ele>771.0</ele><time>2026-04-24T09:58:11.975Z</time></trkpt><trkpt lat="45.9925578" lon="10.8225504"><ele>771.0</ele><time>2026-04-24T09:58:12.965Z</time></trkpt><trkpt lat="45.992475" lon="10.822553"><ele>771.0</ele><time>2026-04-24T09:58:13.961Z</time></trkpt><trkpt lat="45.9923916" lon="10.8225506"><ele>771.0</ele><time>2026-04-24T09:58:14.965Z</time></trkpt><trkpt lat="45.992303" lon="10.8225356"><ele>771.0</ele><time>2026-04-24T09:58:16.029Z</time></trkpt><trkpt lat="45.9922283" lon="10.8225149"><ele>771.0</ele><time>2026-04-24T09:58:16.989Z</time></trkpt><trkpt lat="45.9921513" lon="10.8224877"><ele>770.3333333333334</ele><time>2026-04-24T09:58:17.981Z</time></trkpt><trkpt lat="45.9920764" lon="10.8224598"><ele>769.6666666666666</ele><time>2026-04-24T09:58:18.939Z</time></trkpt><trkpt lat="45.9919873" lon="10.8224399"><ele>769.0</ele><time>2026-04-24T09:58:19.992Z</time></trkpt><trkpt lat="45.9919056" lon="10.8224378"><ele>768.3333333333333</ele><time>2026-04-24T09:58:20.961Z</time></trkpt><trkpt lat="45.9918275" lon="10.8224481"><ele>767.6666666666666</ele><time>2026-04-24T09:58:21.96Z</time></trkpt><trkpt lat="45.9917511" lon="10.8224652"><ele>767.0</ele><time>2026-04-24T09:58:22.992Z</time></trkpt><trkpt lat="45.9916824" lon="10.8224866"><ele>766.5</ele><time>2026-04-24T09:58:23.943Z</time></trkpt><trkpt lat="45.9916088" lon="10.822506"><ele>766.0</ele><time>2026-04-24T09:58:24.942Z</time></trkpt><trkpt lat="45.9915252" lon="10.8225352"><ele>765.5</ele><time>2026-04-24T09:58:25.977Z</time></trkpt><trkpt lat="45.9914355" lon="10.8225707"><ele>765.0</ele><time>2026-04-24T09:58:27.011Z</time></trkpt><trkpt lat="45.9913764" lon="10.8226109"><ele>764.5</ele><time>2026-04-24T09:58:27.977Z</time></trkpt><trkpt lat="45.9912552" lon="10.8226792"><ele>764.0</ele><time>2026-04-24T09:58:29.936Z</time></trkpt><trkpt lat="45.9911921" lon="10.8227065"><ele>764.0</ele><time>2026-04-24T09:58:30.94Z</time></trkpt><trkpt lat="45.9911213" lon="10.8227254"><ele>764.0</ele><time>2026-04-24T09:58:31.969Z</time></trkpt><trkpt lat="45.9910211" lon="10.82269"><ele>764.0</ele><time>2026-04-24T09:58:33.949Z</time></trkpt><trkpt lat="45.9909607" lon="10.8226557"><ele>764.0</ele><time>2026-04-24T09:58:34.967Z</time></trkpt><trkpt lat="45.9908999" lon="10.8226001"><ele>764.0</ele><time>2026-04-24T09:58:35.969Z</time></trkpt><trkpt lat="45.9908415" lon="10.8225165"><ele>764.0</ele><time>2026-04-24T09:58:37.079Z</time></trkpt><trkpt lat="45.9907426" lon="10.8224618"><ele>763.2</ele><time>2026-04-24T09:58:38.966Z</time></trkpt><trkpt lat="45.990665" lon="10.8224639"><ele>762.4000000000001</ele><time>2026-04-24T09:58:39.99Z</time></trkpt><trkpt lat="45.9905612" lon="10.8225535"><ele>761.6</ele><time>2026-04-24T09:58:41.979Z</time></trkpt><trkpt lat="45.9905134" lon="10.8226343"><ele>760.8</ele><time>2026-04-24T09:58:42.963Z</time></trkpt><trkpt lat="45.9904256" lon="10.8227491"><ele>760.0</ele><time>2026-04-24T09:58:44.937Z</time></trkpt><trkpt lat="45.9903075" lon="10.8227846"><ele>755.3333333333334</ele><time>2026-04-24T09:58:46.987Z</time></trkpt><trkpt lat="45.9902428" lon="10.8227884"><ele>750.6666666666667</ele><time>2026-04-24T09:58:47.979Z</time></trkpt><trkpt lat="45.9901721" lon="10.8227932"><ele>746.0</ele><time>2026-04-24T09:58:48.983Z</time></trkpt><trkpt lat="45.9901009" lon="10.8227956"><ele>741.3333333333334</ele><time>2026-04-24T09:58:49.944Z</time></trkpt><trkpt lat="45.9900158" lon="10.8228037"><ele>736.6666666666666</ele><time>2026-04-24T09:58:50.945Z</time></trkpt><trkpt lat="45.9899168" lon="10.8228049"><ele>732.0</ele><time>2026-04-24T09:58:52.136Z</time></trkpt><trkpt lat="45.9897449" lon="10.8228116"><ele>730.4000000000001</ele><time>2026-04-24T09:58:54.001Z</time></trkpt><trkpt lat="45.9896564" lon="10.8228183"><ele>728.8000000000001</ele><time>2026-04-24T09:58:54.949Z</time></trkpt><trkpt lat="45.9895597" lon="10.822823"><ele>727.2</ele><time>2026-04-24T09:58:55.94Z</time></trkpt><trkpt lat="45.989462" lon="10.8228251"><ele>725.6</ele><time>2026-04-24T09:58:56.958Z</time></trkpt><trkpt lat="45.9893737" lon="10.8228236"><ele>724.0</ele><time>2026-04-24T09:58:57.94Z</time></trkpt><trkpt lat="45.9892611" lon="10.8228393"><ele>724.5</ele><time>2026-04-24T09:58:59.049Z</time></trkpt><trkpt lat="45.9890924" lon="10.822867"><ele>725.0</ele><time>2026-04-24T09:59:00.962Z</time></trkpt><trkpt lat="45.9889957" lon="10.8228863"><ele>725.5</ele><time>2026-04-24T09:59:01.971Z</time></trkpt><trkpt lat="45.9888947" lon="10.8229036"><ele>726.0</ele><time>2026-04-24T09:59:02.969Z</time></trkpt><trkpt lat="45.9888003" lon="10.8229313"><ele>726.0</ele><time>2026-04-24T09:59:03.966Z</time></trkpt><trkpt lat="45.9887189" lon="10.8229589"><ele>726.0</ele><time>2026-04-24T09:59:04.936Z</time></trkpt><trkpt lat="45.9886248" lon="10.8229862"><ele>726.0</ele><time>2026-04-24T09:59:05.967Z</time></trkpt><trkpt lat="45.9885441" lon="10.8230075"><ele>726.0</ele><time>2026-04-24T09:59:06.942Z</time></trkpt><trkpt lat="45.9884535" lon="10.8230348"><ele>726.0</ele><time>2026-04-24T09:59:07.958Z</time></trkpt><trkpt lat="45.9883661" lon="10.8230742"><ele>726.0</ele><time>2026-04-24T09:59:08.942Z</time></trkpt><trkpt lat="45.9882688" lon="10.823118"><ele>728.8333333333334</ele><time>2026-04-24T09:59:10.026Z</time></trkpt><trkpt lat="45.9882156" lon="10.823173"><ele>731.6666666666666</ele><time>2026-04-24T09:59:10.98Z</time></trkpt><trkpt lat="45.9881551" lon="10.8232109"><ele>734.5</ele><time>2026-04-24T09:59:11.988Z</time></trkpt><trkpt lat="45.9880811" lon="10.8232437"><ele>737.3333333333333</ele><time>2026-04-24T09:59:12.965Z</time></trkpt><trkpt lat="45.9880048" lon="10.8232764"><ele>740.1666666666666</ele><time>2026-04-24T09:59:14.071Z</time></trkpt><trkpt lat="45.9878799" lon="10.8233088"><ele>743.0</ele><time>2026-04-24T09:59:15.932Z</time></trkpt><trkpt lat="45.9878006" lon="10.8233316"><ele>743.0</ele><time>2026-04-24T09:59:17.006Z</time></trkpt><trkpt lat="45.9877264" lon="10.8233549"><ele>743.0</ele><time>2026-04-24T09:59:17.934Z</time></trkpt><trkpt lat="45.9876373" lon="10.8233965"><ele>743.0</ele><time>2026-04-24T09:59:18.981Z</time></trkpt><trkpt lat="45.9875568" lon="10.8234359"><ele>743.0</ele><time>2026-04-24T09:59:19.943Z</time></trkpt><trkpt lat="45.9874696" lon="10.8234738"><ele>743.0</ele><time>2026-04-24T09:59:20.975Z</time></trkpt><trkpt lat="45.9873931" lon="10.8235036"><ele>743.0</ele><time>2026-04-24T09:59:21.973Z</time></trkpt><trkpt lat="45.9873159" lon="10.8235466"><ele>741.1666666666666</ele><time>2026-04-24T09:59:23.005Z</time></trkpt><trkpt lat="45.9872485" lon="10.8236061"><ele>739.3333333333333</ele><time>2026-04-24T09:59:23.954Z</time></trkpt><trkpt lat="45.9871797" lon="10.823677"><ele>737.5</ele><time>2026-04-24T09:59:24.934Z</time></trkpt><trkpt lat="45.9871105" lon="10.8237325"><ele>735.6666666666666</ele><time>2026-04-24T09:59:25.939Z</time></trkpt><trkpt lat="45.9870438" lon="10.8237801"><ele>733.8333333333334</ele><time>2026-04-24T09:59:26.945Z</time></trkpt><trkpt lat="45.9869677" lon="10.8238322"><ele>732.0</ele><time>2026-04-24T09:59:27.945Z</time></trkpt><trkpt lat="45.9868878" lon="10.8238906"><ele>732.0</ele><time>2026-04-24T09:59:29.046Z</time></trkpt><trkpt lat="45.9868258" lon="10.8239379"><ele>732.0</ele><time>2026-04-24T09:59:30.002Z</time></trkpt><trkpt lat="45.9867582" lon="10.823974"><ele>732.0</ele><time>2026-04-24T09:59:30.98Z</time></trkpt><trkpt lat="45.9866761" lon="10.8240061"><ele>732.0</ele><time>2026-04-24T09:59:31.933Z</time></trkpt><trkpt lat="45.9866005" lon="10.8240311"><ele>732.0</ele><time>2026-04-24T09:59:32.983Z</time></trkpt><trkpt lat="45.9865362" lon="10.8240423"><ele>732.0</ele><time>2026-04-24T09:59:33.976Z</time></trkpt><trkpt lat="45.9863915" lon="10.8240567"><ele>734.1666666666666</ele><time>2026-04-24T09:59:35.983Z</time></trkpt><trkpt lat="45.9863135" lon="10.8240572"><ele>736.3333333333334</ele><time>2026-04-24T09:59:36.935Z</time></trkpt><trkpt lat="45.986239" lon="10.8240648"><ele>738.5</ele><time>2026-04-24T09:59:37.95Z</time></trkpt><trkpt lat="45.9861655" lon="10.8240852"><ele>740.6666666666667</ele><time>2026-04-24T09:59:38.941Z</time></trkpt><trkpt lat="45.9860958" lon="10.8241156"><ele>742.8333333333334</ele><time>2026-04-24T09:59:39.959Z</time></trkpt><trkpt lat="45.9859952" lon="10.8241903"><ele>745.0</ele><time>2026-04-24T09:59:41.98Z</time></trkpt><trkpt lat="45.985893" lon="10.8242787"><ele>743.2</ele><time>2026-04-24T09:59:43.961Z</time></trkpt><trkpt lat="45.9858042" lon="10.8243246"><ele>741.4</ele><time>2026-04-24T09:59:45.946Z</time></trkpt><trkpt lat="45.9857063" lon="10.8243799"><ele>739.5999999999999</ele><time>2026-04-24T09:59:47.967Z</time></trkpt><trkpt lat="45.9856136" lon="10.824413"><ele>737.8</ele><time>2026-04-24T09:59:49.973Z</time></trkpt><trkpt lat="45.9855205" lon="10.8244436"><ele>736.0</ele><time>2026-04-24T09:59:51.951Z</time></trkpt><trkpt lat="45.9854214" lon="10.8244824"><ele>736.0</ele><time>2026-04-24T09:59:53.934Z</time></trkpt><trkpt lat="45.9853474" lon="10.8244998"><ele>736.0</ele><time>2026-04-24T09:59:55.182Z</time></trkpt><trkpt lat="45.9851853" lon="10.824549"><ele>736.0</ele><time>2026-04-24T09:59:56.978Z</time></trkpt><trkpt lat="45.985089" lon="10.82458"><ele>736.0</ele><time>2026-04-24T09:59:57.972Z</time></trkpt><trkpt lat="45.9849863" lon="10.824588"><ele>736.0</ele><time>2026-04-24T09:59:58.978Z</time></trkpt><trkpt lat="45.9849027" lon="10.8246059"><ele>735.1666666666667</ele><time>2026-04-24T10:00:00.006Z</time></trkpt><trkpt lat="45.9848248" lon="10.8246262"><ele>734.3333333333334</ele><time>2026-04-24T10:00:00.958Z</time></trkpt><trkpt lat="45.9847373" lon="10.8246542"><ele>733.5</ele><time>2026-04-24T10:00:01.967Z</time></trkpt><trkpt lat="45.9846512" lon="10.824677"><ele>732.6666666666666</ele><time>2026-04-24T10:00:02.972Z</time></trkpt><trkpt lat="45.9845738" lon="10.8246938"><ele>731.8333333333333</ele><time>2026-04-24T10:00:03.982Z</time></trkpt><trkpt lat="45.9844991" lon="10.8247158"><ele>731.0</ele><time>2026-04-24T10:00:04.974Z</time></trkpt><trkpt lat="45.9844127" lon="10.8247415"><ele>731.0</ele><time>2026-04-24T10:00:06.068Z</time></trkpt><trkpt lat="45.9843409" lon="10.824756"><ele>731.0</ele><time>2026-04-24T10:00:06.989Z</time></trkpt><trkpt lat="45.9842578" lon="10.824765"><ele>731.0</ele><time>2026-04-24T10:00:07.971Z</time></trkpt><trkpt lat="45.9841786" lon="10.82477"><ele>731.0</ele><time>2026-04-24T10:00:08.98Z</time></trkpt><trkpt lat="45.9841023" lon="10.8247739"><ele>731.0</ele><time>2026-04-24T10:00:09.977Z</time></trkpt><trkpt lat="45.9840239" lon="10.8247796"><ele>731.0</ele><time>2026-04-24T10:00:10.964Z</time></trkpt><trkpt lat="45.9839426" lon="10.8247721"><ele>731.8333333333333</ele><time>2026-04-24T10:00:11.975Z</time></trkpt><trkpt lat="45.9838465" lon="10.8247479"><ele>732.6666666666666</ele><time>2026-04-24T10:00:12.991Z</time></trkpt><trkpt lat="45.9837732" lon="10.8247223"><ele>733.5</ele><time>2026-04-24T10:00:13.932Z</time></trkpt><trkpt lat="45.9836995" lon="10.8247099"><ele>734.3333333333334</ele><time>2026-04-24T10:00:14.938Z</time></trkpt><trkpt lat="45.9836184" lon="10.8247072"><ele>735.1666666666667</ele><time>2026-04-24T10:00:15.964Z</time></trkpt><trkpt lat="45.9835325" lon="10.8247053"><ele>736.0</ele><time>2026-04-24T10:00:16.963Z</time></trkpt><trkpt lat="45.9834496" lon="10.8246951"><ele>736.0</ele><time>2026-04-24T10:00:17.975Z</time></trkpt><trkpt lat="45.983369" lon="10.8246804"><ele>736.0</ele><time>2026-04-24T10:00:18.957Z</time></trkpt><trkpt lat="45.9832894" lon="10.8246514"><ele>736.0</ele><time>2026-04-24T10:00:19.943Z</time></trkpt><trkpt lat="45.9832027" lon="10.824613"><ele>736.0</ele><time>2026-04-24T10:00:20.964Z</time></trkpt><trkpt lat="45.9831198" lon="10.8245728"><ele>736.0</ele><time>2026-04-24T10:00:21.955Z</time></trkpt><trkpt lat="45.9830357" lon="10.82454"><ele>736.0</ele><time>2026-04-24T10:00:22.978Z</time></trkpt><trkpt lat="45.9829405" lon="10.8245176"><ele>735.8</ele><time>2026-04-24T10:00:24.067Z</time></trkpt><trkpt lat="45.982794" lon="10.8244708"><ele>735.5999999999999</ele><time>2026-04-24T10:00:25.963Z</time></trkpt><trkpt lat="45.9827309" lon="10.8244298"><ele>735.4</ele><time>2026-04-24T10:00:26.943Z</time></trkpt><trkpt lat="45.9826595" lon="10.8243843"><ele>735.2</ele><time>2026-04-24T10:00:27.968Z</time></trkpt><trkpt lat="45.9825938" lon="10.8243284"><ele>735.0</ele><time>2026-04-24T10:00:28.973Z</time></trkpt><trkpt lat="45.9825334" lon="10.8242593"><ele>737.5</ele><time>2026-04-24T10:00:29.969Z</time></trkpt><trkpt lat="45.9824732" lon="10.8241757"><ele>740.0</ele><time>2026-04-24T10:00:30.979Z</time></trkpt><trkpt lat="45.9824123" lon="10.8240886"><ele>742.5</ele><time>2026-04-24T10:00:31.952Z</time></trkpt><trkpt lat="45.9823477" lon="10.8240049"><ele>745.0</ele><time>2026-04-24T10:00:32.98Z</time></trkpt><trkpt lat="45.9822826" lon="10.8239426"><ele>747.5</ele><time>2026-04-24T10:00:33.931Z</time></trkpt><trkpt lat="45.982196" lon="10.8238777"><ele>750.0</ele><time>2026-04-24T10:00:34.96Z</time></trkpt><trkpt lat="45.9821097" lon="10.8238149"><ele>750.0</ele><time>2026-04-24T10:00:35.985Z</time></trkpt><trkpt lat="45.9820342" lon="10.8237758"><ele>750.0</ele><time>2026-04-24T10:00:36.921Z</time></trkpt><trkpt lat="45.9819481" lon="10.8237365"><ele>750.0</ele><time>2026-04-24T10:00:37.992Z</time></trkpt><trkpt lat="45.9818803" lon="10.82371"><ele>750.0</ele><time>2026-04-24T10:00:38.928Z</time></trkpt><trkpt lat="45.9818109" lon="10.8236878"><ele>750.0</ele><time>2026-04-24T10:00:39.938Z</time></trkpt><trkpt lat="45.9817381" lon="10.8236821"><ele>750.0</ele><time>2026-04-24T10:00:40.931Z</time></trkpt><trkpt lat="45.9816624" lon="10.8236893"><ele>748.3333333333334</ele><time>2026-04-24T10:00:41.941Z</time></trkpt><trkpt lat="45.9815792" lon="10.8237008"><ele>746.6666666666666</ele><time>2026-04-24T10:00:42.94Z</time></trkpt><trkpt lat="45.9814985" lon="10.8237158"><ele>745.0</ele><time>2026-04-24T10:00:43.942Z</time></trkpt><trkpt lat="45.9814074" lon="10.8237283"><ele>743.3333333333333</ele><time>2026-04-24T10:00:44.93Z</time></trkpt><trkpt lat="45.9813163" lon="10.8237339"><ele>741.6666666666666</ele><time>2026-04-24T10:00:45.931Z</time></trkpt><trkpt lat="45.9812166" lon="10.8237389"><ele>740.0</ele><time>2026-04-24T10:00:46.928Z</time></trkpt><trkpt lat="45.9811162" lon="10.8237448"><ele>740.0</ele><time>2026-04-24T10:00:47.95Z</time></trkpt><trkpt lat="45.9810212" lon="10.8237601"><ele>740.0</ele><time>2026-04-24T10:00:48.96Z</time></trkpt><trkpt lat="45.9809085" lon="10.8237882"><ele>740.0</ele><time>2026-04-24T10:00:49.945Z</time></trkpt><trkpt lat="45.9808057" lon="10.8238125"><ele>740.0</ele><time>2026-04-24T10:00:50.971Z</time></trkpt><trkpt lat="45.9807277" lon="10.8238324"><ele>740.0</ele><time>2026-04-24T10:00:51.942Z</time></trkpt><trkpt lat="45.980623" lon="10.8238254"><ele>740.4</ele><time>2026-04-24T10:00:53.947Z</time></trkpt><trkpt lat="45.9805196" lon="10.8237206"><ele>740.8</ele><time>2026-04-24T10:00:56Z</time></trkpt><trkpt lat="45.9804633" lon="10.8236436"><ele>741.2</ele><time>2026-04-24T10:00:56.931Z</time></trkpt><trkpt lat="45.9804001" lon="10.8235566"><ele>741.6</ele><time>2026-04-24T10:00:57.95Z</time></trkpt><trkpt lat="45.980337" lon="10.8234736"><ele>742.0</ele><time>2026-04-24T10:00:58.949Z</time></trkpt><trkpt lat="45.9802747" lon="10.8233894"><ele>744.1428571428571</ele><time>2026-04-24T10:00:59.957Z</time></trkpt><trkpt lat="45.9802252" lon="10.8233233"><ele>746.2857142857142</ele><time>2026-04-24T10:01:00.97Z</time></trkpt><trkpt lat="45.9801777" lon="10.8232578"><ele>748.4285714285714</ele><time>2026-04-24T10:01:01.959Z</time></trkpt><trkpt lat="45.9801264" lon="10.8231925"><ele>750.5714285714286</ele><time>2026-04-24T10:01:02.934Z</time></trkpt><trkpt lat="45.9800679" lon="10.8231244"><ele>752.7142857142857</ele><time>2026-04-24T10:01:03.929Z</time></trkpt><trkpt lat="45.9800061" lon="10.8230629"><ele>754.8571428571429</ele><time>2026-04-24T10:01:04.977Z</time></trkpt><trkpt lat="45.9799413" lon="10.8230203"><ele>757.0</ele><time>2026-04-24T10:01:05.926Z</time></trkpt><trkpt lat="45.9798781" lon="10.8229739"><ele>757.0</ele><time>2026-04-24T10:01:06.932Z</time></trkpt><trkpt lat="45.9798177" lon="10.8229261"><ele>757.0</ele><time>2026-04-24T10:01:07.948Z</time></trkpt><trkpt lat="45.9797573" lon="10.8228689"><ele>757.0</ele><time>2026-04-24T10:01:08.921Z</time></trkpt><trkpt lat="45.9796911" lon="10.8228133"><ele>757.0</ele><time>2026-04-24T10:01:09.931Z</time></trkpt><trkpt lat="45.9796275" lon="10.8227499"><ele>757.0</ele><time>2026-04-24T10:01:10.926Z</time></trkpt><trkpt lat="45.9795731" lon="10.8226796"><ele>757.0</ele><time>2026-04-24T10:01:11.966Z</time></trkpt><trkpt lat="45.9795267" lon="10.822601"><ele>757.0</ele><time>2026-04-24T10:01:12.911Z</time></trkpt><trkpt lat="45.9794874" lon="10.8224992"><ele>759.2857142857143</ele><time>2026-04-24T10:01:13.943Z</time></trkpt><trkpt lat="45.979462" lon="10.8223812"><ele>761.5714285714286</ele><time>2026-04-24T10:01:14.947Z</time></trkpt><trkpt lat="45.9794422" lon="10.822279"><ele>763.8571428571429</ele><time>2026-04-24T10:01:15.948Z</time></trkpt><trkpt lat="45.9794239" lon="10.8221859"><ele>766.1428571428571</ele><time>2026-04-24T10:01:16.94Z</time></trkpt><trkpt lat="45.9794075" lon="10.8220817"><ele>768.4285714285713</ele><time>2026-04-24T10:01:17.96Z</time></trkpt><trkpt lat="45.9793893" lon="10.8219918"><ele>770.7142857142857</ele><time>2026-04-24T10:01:18.942Z</time></trkpt><trkpt lat="45.9793453" lon="10.8218959"><ele>773.0</ele><time>2026-04-24T10:01:20.001Z</time></trkpt><trkpt lat="45.9792934" lon="10.8217948"><ele>772.6666666666667</ele><time>2026-04-24T10:01:20.944Z</time></trkpt><trkpt lat="45.979236" lon="10.8217021"><ele>772.3333333333334</ele><time>2026-04-24T10:01:21.949Z</time></trkpt><trkpt lat="45.9791749" lon="10.8216219"><ele>772.0</ele><time>2026-04-24T10:01:22.968Z</time></trkpt><trkpt lat="45.9791031" lon="10.8215462"><ele>771.6666666666667</ele><time>2026-04-24T10:01:23.971Z</time></trkpt><trkpt lat="45.9790249" lon="10.8214818"><ele>771.3333333333334</ele><time>2026-04-24T10:01:24.992Z</time></trkpt><trkpt lat="45.9789612" lon="10.8214492"><ele>771.0</ele><time>2026-04-24T10:01:25.931Z</time></trkpt><trkpt lat="45.9788929" lon="10.8214264"><ele>771.0</ele><time>2026-04-24T10:01:26.96Z</time></trkpt><trkpt lat="45.9787686" lon="10.8213646"><ele>771.0</ele><time>2026-04-24T10:01:28.968Z</time></trkpt><trkpt lat="45.978698" lon="10.8213082"><ele>771.0</ele><time>2026-04-24T10:01:29.969Z</time></trkpt><trkpt lat="45.9786309" lon="10.8212595"><ele>771.0</ele><time>2026-04-24T10:01:30.935Z</time></trkpt><trkpt lat="45.9785483" lon="10.8212296"><ele>771.0</ele><time>2026-04-24T10:01:31.968Z</time></trkpt><trkpt lat="45.9784561" lon="10.8212305"><ele>767.8</ele><time>2026-04-24T10:01:32.939Z</time></trkpt><trkpt lat="45.9783478" lon="10.8212509"><ele>764.5999999999999</ele><time>2026-04-24T10:01:33.942Z</time></trkpt><trkpt lat="45.978237" lon="10.8212726"><ele>761.4</ele><time>2026-04-24T10:01:34.926Z</time></trkpt><trkpt lat="45.9781244" lon="10.821299"><ele>758.2</ele><time>2026-04-24T10:01:35.928Z</time></trkpt><trkpt lat="45.9780152" lon="10.8213342"><ele>755.0</ele><time>2026-04-24T10:01:36.929Z</time></trkpt><trkpt lat="45.9779001" lon="10.8213676"><ele>755.0</ele><time>2026-04-24T10:01:37.942Z</time></trkpt><trkpt lat="45.9777814" lon="10.8214001"><ele>755.0</ele><time>2026-04-24T10:01:38.946Z</time></trkpt><trkpt lat="45.9776579" lon="10.8214288"><ele>755.0</ele><time>2026-04-24T10:01:39.941Z</time></trkpt><trkpt lat="45.977527" lon="10.8214453"><ele>755.0</ele><time>2026-04-24T10:01:40.961Z</time></trkpt><trkpt lat="45.9773995" lon="10.8214624"><ele>754.0</ele><time>2026-04-24T10:01:41.945Z</time></trkpt><trkpt lat="45.9772657" lon="10.8214885"><ele>753.0</ele><time>2026-04-24T10:01:42.981Z</time></trkpt><trkpt lat="45.9771415" lon="10.8214992"><ele>752.0</ele><time>2026-04-24T10:01:43.927Z</time></trkpt><trkpt lat="45.9770078" lon="10.8215049"><ele>751.0</ele><time>2026-04-24T10:01:44.943Z</time></trkpt><trkpt lat="45.9768771" lon="10.8215031"><ele>751.0</ele><time>2026-04-24T10:01:45.951Z</time></trkpt><trkpt lat="45.9767446" lon="10.8215018"><ele>751.0</ele><time>2026-04-24T10:01:46.965Z</time></trkpt><trkpt lat="45.9766206" lon="10.821497"><ele>751.0</ele><time>2026-04-24T10:01:47.952Z</time></trkpt><trkpt lat="45.9764977" lon="10.8214868"><ele>751.0</ele><time>2026-04-24T10:01:48.978Z</time></trkpt><trkpt lat="45.9763904" lon="10.821476"><ele>751.8</ele><time>2026-04-24T10:01:49.965Z</time></trkpt><trkpt lat="45.9762872" lon="10.8214671"><ele>752.5999999999999</ele><time>2026-04-24T10:01:50.971Z</time></trkpt><trkpt lat="45.9761859" lon="10.8214625"><ele>753.4</ele><time>2026-04-24T10:01:51.986Z</time></trkpt><trkpt lat="45.9760955" lon="10.8214568"><ele>754.2</ele><time>2026-04-24T10:01:52.975Z</time></trkpt><trkpt lat="45.9760077" lon="10.8214416"><ele>755.0</ele><time>2026-04-24T10:01:53.945Z</time></trkpt><trkpt lat="45.9759111" lon="10.8214158"><ele>756.6</ele><time>2026-04-24T10:01:55.051Z</time></trkpt><trkpt lat="45.975823" lon="10.821395"><ele>758.2</ele><time>2026-04-24T10:01:55.995Z</time></trkpt><trkpt lat="45.9757323" lon="10.8213628"><ele>759.8</ele><time>2026-04-24T10:01:56.955Z</time></trkpt><trkpt lat="45.9756408" lon="10.8212953"><ele>761.4</ele><time>2026-04-24T10:01:57.966Z</time></trkpt><trkpt lat="45.9755546" lon="10.8212017"><ele>763.0</ele><time>2026-04-24T10:01:58.948Z</time></trkpt><trkpt lat="45.9754661" lon="10.8211021"><ele>763.0</ele><time>2026-04-24T10:01:59.928Z</time></trkpt><trkpt lat="45.9753582" lon="10.8209998"><ele>763.0</ele><time>2026-04-24T10:02:01.027Z</time></trkpt><trkpt lat="45.9752685" lon="10.8209063"><ele>763.0</ele><time>2026-04-24T10:02:01.95Z</time></trkpt><trkpt lat="45.9751665" lon="10.8207898"><ele>763.0</ele><time>2026-04-24T10:02:02.985Z</time></trkpt><trkpt lat="45.9750655" lon="10.8206809"><ele>764.0</ele><time>2026-04-24T10:02:03.941Z</time></trkpt><trkpt lat="45.9749574" lon="10.8205709"><ele>765.0</ele><time>2026-04-24T10:02:04.939Z</time></trkpt><trkpt lat="45.9748416" lon="10.8204448"><ele>766.0</ele><time>2026-04-24T10:02:06.017Z</time></trkpt><trkpt lat="45.9747532" lon="10.8203408"><ele>767.0</ele><time>2026-04-24T10:02:06.984Z</time></trkpt><trkpt lat="45.9746698" lon="10.8202441"><ele>767.0</ele><time>2026-04-24T10:02:07.986Z</time></trkpt><trkpt lat="45.9745966" lon="10.8201606"><ele>767.0</ele><time>2026-04-24T10:02:08.928Z</time></trkpt><trkpt lat="45.9745225" lon="10.8200764"><ele>767.0</ele><time>2026-04-24T10:02:09.965Z</time></trkpt><trkpt lat="45.9744591" lon="10.8200001"><ele>767.0</ele><time>2026-04-24T10:02:10.959Z</time></trkpt><trkpt lat="45.9744019" lon="10.8199159"><ele>767.0</ele><time>2026-04-24T10:02:11.957Z</time></trkpt><trkpt lat="45.974341" lon="10.819833"><ele>767.0</ele><time>2026-04-24T10:02:12.945Z</time></trkpt><trkpt lat="45.9742739" lon="10.8197389"><ele>767.2</ele><time>2026-04-24T10:02:13.941Z</time></trkpt><trkpt lat="45.9742023" lon="10.819633"><ele>767.4000000000001</ele><time>2026-04-24T10:02:14.939Z</time></trkpt><trkpt lat="45.9741227" lon="10.8195109"><ele>767.5999999999999</ele><time>2026-04-24T10:02:15.972Z</time></trkpt><trkpt lat="45.9740493" lon="10.8193919"><ele>767.8</ele><time>2026-04-24T10:02:16.937Z</time></trkpt><trkpt lat="45.9739765" lon="10.8192585"><ele>768.0</ele><time>2026-04-24T10:02:17.947Z</time></trkpt><trkpt lat="45.9738992" lon="10.8191265"><ele>768.0</ele><time>2026-04-24T10:02:18.945Z</time></trkpt><trkpt lat="45.9738166" lon="10.8189957"><ele>768.0</ele><time>2026-04-24T10:02:19.957Z</time></trkpt><trkpt lat="45.9737376" lon="10.8188621"><ele>768.0</ele><time>2026-04-24T10:02:20.945Z</time></trkpt><trkpt lat="45.973656" lon="10.8187212"><ele>768.0</ele><time>2026-04-24T10:02:21.957Z</time></trkpt><trkpt lat="45.973571" lon="10.8185835"><ele>769.5</ele><time>2026-04-24T10:02:22.955Z</time></trkpt><trkpt lat="45.9734815" lon="10.8184399"><ele>771.0</ele><time>2026-04-24T10:02:24.009Z</time></trkpt><trkpt lat="45.9733982" lon="10.8183025"><ele>772.5</ele><time>2026-04-24T10:02:25.001Z</time></trkpt><trkpt lat="45.9733057" lon="10.8181508"><ele>774.0</ele><time>2026-04-24T10:02:26.071Z</time></trkpt><trkpt lat="45.9732254" lon="10.8180193"><ele>772.25</ele><time>2026-04-24T10:02:27.011Z</time></trkpt><trkpt lat="45.9731348" lon="10.8178944"><ele>770.5</ele><time>2026-04-24T10:02:27.967Z</time></trkpt><trkpt lat="45.9730379" lon="10.8177774"><ele>768.75</ele><time>2026-04-24T10:02:28.953Z</time></trkpt><trkpt lat="45.9729298" lon="10.8176658"><ele>767.0</ele><time>2026-04-24T10:02:29.957Z</time></trkpt><trkpt lat="45.9728159" lon="10.8175667"><ele>767.0</ele><time>2026-04-24T10:02:30.963Z</time></trkpt><trkpt lat="45.9727017" lon="10.8174808"><ele>767.0</ele><time>2026-04-24T10:02:31.943Z</time></trkpt><trkpt lat="45.9725885" lon="10.8173997"><ele>767.0</ele><time>2026-04-24T10:02:32.954Z</time></trkpt><trkpt lat="45.9724848" lon="10.8173323"><ele>767.0</ele><time>2026-04-24T10:02:33.945Z</time></trkpt><trkpt lat="45.9723852" lon="10.8172669"><ele>765.2</ele><time>2026-04-24T10:02:34.963Z</time></trkpt><trkpt lat="45.9722879" lon="10.81719"><ele>763.4000000000001</ele><time>2026-04-24T10:02:35.981Z</time></trkpt><trkpt lat="45.9721887" lon="10.8171208"><ele>761.5999999999999</ele><time>2026-04-24T10:02:36.979Z</time></trkpt><trkpt lat="45.9720904" lon="10.8170512"><ele>759.8</ele><time>2026-04-24T10:02:37.993Z</time></trkpt><trkpt lat="45.9719863" lon="10.8169797"><ele>758.0</ele><time>2026-04-24T10:02:38.989Z</time></trkpt><trkpt lat="45.9718891" lon="10.8169035"><ele>758.0</ele><time>2026-04-24T10:02:39.978Z</time></trkpt><trkpt lat="45.971785" lon="10.8168218"><ele>758.0</ele><time>2026-04-24T10:02:41.014Z</time></trkpt><trkpt lat="45.9716874" lon="10.8167524"><ele>758.0</ele><time>2026-04-24T10:02:41.996Z</time></trkpt><trkpt lat="45.9715761" lon="10.8166741"><ele>758.0</ele><time>2026-04-24T10:02:43.098Z</time></trkpt><trkpt lat="45.9713929" lon="10.8165392"><ele>758.0</ele><time>2026-04-24T10:02:44.965Z</time></trkpt><trkpt lat="45.9712987" lon="10.8164636"><ele>758.0</ele><time>2026-04-24T10:02:45.944Z</time></trkpt><trkpt lat="45.9712025" lon="10.8163702"><ele>758.0</ele><time>2026-04-24T10:02:46.986Z</time></trkpt><trkpt lat="45.9711088" lon="10.8162621"><ele>758.0</ele><time>2026-04-24T10:02:48.075Z</time></trkpt><trkpt lat="45.9709546" lon="10.8160508"><ele>757.25</ele><time>2026-04-24T10:02:49.981Z</time></trkpt><trkpt lat="45.9708786" lon="10.8159228"><ele>756.5</ele><time>2026-04-24T10:02:50.965Z</time></trkpt><trkpt lat="45.9708017" lon="10.8157827"><ele>755.75</ele><time>2026-04-24T10:02:51.97Z</time></trkpt><trkpt lat="45.9707287" lon="10.8156341"><ele>755.0</ele><time>2026-04-24T10:02:52.963Z</time></trkpt><trkpt lat="45.9706496" lon="10.8154695"><ele>755.0</ele><time>2026-04-24T10:02:54.011Z</time></trkpt><trkpt lat="45.9705773" lon="10.8153158"><ele>755.0</ele><time>2026-04-24T10:02:54.943Z</time></trkpt><trkpt lat="45.9704831" lon="10.8151226"><ele>755.0</ele><time>2026-04-24T10:02:56.1Z</time></trkpt><trkpt lat="45.9703253" lon="10.814793"><ele>755.3333333333333</ele><time>2026-04-24T10:02:57.993Z</time></trkpt><trkpt lat="45.9702423" lon="10.8146099"><ele>755.6666666666666</ele><time>2026-04-24T10:02:58.99Z</time></trkpt><trkpt lat="45.970158" lon="10.8144263"><ele>756.0</ele><time>2026-04-24T10:02:59.982Z</time></trkpt><trkpt lat="45.9700746" lon="10.8142421"><ele>755.3333333333334</ele><time>2026-04-24T10:03:00.964Z</time></trkpt><trkpt lat="45.9699884" lon="10.8140407"><ele>754.6666666666667</ele><time>2026-04-24T10:03:01.998Z</time></trkpt><trkpt lat="45.9698962" lon="10.8138342"><ele>754.0</ele><time>2026-04-24T10:03:03.064Z</time></trkpt><trkpt lat="45.9698074" lon="10.8136562"><ele>755.0</ele><time>2026-04-24T10:03:03.999Z</time></trkpt><trkpt lat="45.9697144" lon="10.8134702"><ele>756.0</ele><time>2026-04-24T10:03:04.974Z</time></trkpt><trkpt lat="45.9696122" lon="10.8132923"><ele>757.0</ele><time>2026-04-24T10:03:05.942Z</time></trkpt><trkpt lat="45.9694832" lon="10.8131113"><ele>757.0</ele><time>2026-04-24T10:03:06.963Z</time></trkpt><trkpt lat="45.9693335" lon="10.8129554"><ele>757.0</ele><time>2026-04-24T10:03:07.966Z</time></trkpt><trkpt lat="45.9691743" lon="10.8128209"><ele>757.0</ele><time>2026-04-24T10:03:08.974Z</time></trkpt><trkpt lat="45.9690229" lon="10.8126887"><ele>756.6666666666667</ele><time>2026-04-24T10:03:09.965Z</time></trkpt><trkpt lat="45.968874" lon="10.812555"><ele>756.3333333333334</ele><time>2026-04-24T10:03:10.974Z</time></trkpt><trkpt lat="45.9687169" lon="10.8124346"><ele>756.0</ele><time>2026-04-24T10:03:11.986Z</time></trkpt><trkpt lat="45.9685462" lon="10.8123495"><ele>756.0</ele><time>2026-04-24T10:03:12.998Z</time></trkpt><trkpt lat="45.9683765" lon="10.812302"><ele>756.0</ele><time>2026-04-24T10:03:13.976Z</time></trkpt><trkpt lat="45.9681972" lon="10.8122675"><ele>756.0</ele><time>2026-04-24T10:03:14.972Z</time></trkpt><trkpt lat="45.9680293" lon="10.8122366"><ele>753.75</ele><time>2026-04-24T10:03:15.988Z</time></trkpt><trkpt lat="45.967877" lon="10.8122041"><ele>751.5</ele><time>2026-04-24T10:03:16.999Z</time></trkpt><trkpt lat="45.9677481" lon="10.8121748"><ele>749.25</ele><time>2026-04-24T10:03:17.997Z</time></trkpt><trkpt lat="45.9676465" lon="10.8121546"><ele>747.0</ele><time>2026-04-24T10:03:18.949Z</time></trkpt><trkpt lat="45.9675513" lon="10.8121371"><ele>746.0</ele><time>2026-04-24T10:03:19.98Z</time></trkpt><trkpt lat="45.9674792" lon="10.8121227"><ele>745.0</ele><time>2026-04-24T10:03:20.975Z</time></trkpt><trkpt lat="45.967399" lon="10.8121358"><ele>744.0</ele><time>2026-04-24T10:03:22.949Z</time></trkpt><trkpt lat="45.9673073" lon="10.8121832"><ele>743.0</ele><time>2026-04-24T10:03:25.981Z</time></trkpt><trkpt lat="45.9672293" lon="10.8121978"><ele>742.0</ele><time>2026-04-24T10:03:28.022Z</time></trkpt><trkpt lat="45.967153" lon="10.8122275"><ele>741.0</ele><time>2026-04-24T10:03:30.977Z</time></trkpt><trkpt lat="45.9671285" lon="10.8123195"><ele>741.0</ele><time>2026-04-24T10:03:38.965Z</time></trkpt></trkseg></trk></gpx>